<?xml version="1.0" encoding="UTF-8" standalone="no" ?>
<gpx xmlns="http://www.topografix.com/GPX/1/1" xmlns:xsi="http://www.w3.org/2001/XMLSchema-instance" xsi:schemaLocation="http://www.topografix.com/GPX/1/1 http://www.topografix.com/GPX/1/1/gpx.xsd" version="1.1" creator="VisuGPX - https://www.visugpx.com">
  <metadata>
    <name>Vacheresse - Lac de Fontaine</name>
    <desc><![CDATA[Vacheresse - Lac de Fontaine en ski de rando]]></desc>
  </metadata>
  <trk>
    <name><![CDATA[Lac De Fontaine 16/03/2013 9:46]]></name>
    <desc><![CDATA[]]></desc>
    <trkseg>
      <trkpt lat="46.31379" lon="6.6915">
        <ele>946.3</ele>
        <time>2013-03-16T08:51:19.000Z</time>
      </trkpt>
      <trkpt lat="46.31375" lon="6.69147">
        <ele>943.4</ele>
        <time>2013-03-16T08:52:18.000Z</time>
      </trkpt>
      <trkpt lat="46.31374" lon="6.69148">
        <ele>942.7</ele>
        <time>2013-03-16T08:52:19.000Z</time>
      </trkpt>
      <trkpt lat="46.31373" lon="6.69152">
        <ele>943.5</ele>
        <time>2013-03-16T08:53:09.000Z</time>
      </trkpt>
      <trkpt lat="46.31371" lon="6.69154">
        <ele>943.5</ele>
        <time>2013-03-16T08:53:10.000Z</time>
      </trkpt>
      <trkpt lat="46.31369" lon="6.69156">
        <ele>943.6</ele>
        <time>2013-03-16T08:53:11.000Z</time>
      </trkpt>
      <trkpt lat="46.31366" lon="6.69157">
        <ele>943.7</ele>
        <time>2013-03-16T08:53:12.000Z</time>
      </trkpt>
      <trkpt lat="46.31363" lon="6.6916">
        <ele>943.6</ele>
        <time>2013-03-16T08:53:15.000Z</time>
      </trkpt>
      <trkpt lat="46.31362" lon="6.69161">
        <ele>943.5</ele>
        <time>2013-03-16T08:53:16.000Z</time>
      </trkpt>
      <trkpt lat="46.3136" lon="6.69165">
        <ele>943.5</ele>
        <time>2013-03-16T08:53:19.000Z</time>
      </trkpt>
      <trkpt lat="46.31359" lon="6.69166">
        <ele>943.5</ele>
        <time>2013-03-16T08:53:20.000Z</time>
      </trkpt>
      <trkpt lat="46.31355" lon="6.69169">
        <ele>943.8</ele>
        <time>2013-03-16T08:53:23.000Z</time>
      </trkpt>
      <trkpt lat="46.31354" lon="6.6917">
        <ele>943.9</ele>
        <time>2013-03-16T08:53:24.000Z</time>
      </trkpt>
      <trkpt lat="46.31352" lon="6.69172">
        <ele>944.4</ele>
        <time>2013-03-16T08:54:18.000Z</time>
      </trkpt>
      <trkpt lat="46.31359" lon="6.69172">
        <ele>942.6</ele>
        <time>2013-03-16T08:54:19.000Z</time>
      </trkpt>
      <trkpt lat="46.31356" lon="6.69172">
        <ele>943.6</ele>
        <time>2013-03-16T08:54:33.000Z</time>
      </trkpt>
      <trkpt lat="46.31355" lon="6.69174">
        <ele>943.7</ele>
        <time>2013-03-16T08:54:34.000Z</time>
      </trkpt>
      <trkpt lat="46.31355" lon="6.69179">
        <ele>943.5</ele>
        <time>2013-03-16T08:54:36.000Z</time>
      </trkpt>
      <trkpt lat="46.31355" lon="6.69181">
        <ele>943.6</ele>
        <time>2013-03-16T08:54:37.000Z</time>
      </trkpt>
      <trkpt lat="46.31353" lon="6.69186">
        <ele>945.6</ele>
        <time>2013-03-16T08:54:50.000Z</time>
      </trkpt>
      <trkpt lat="46.31353" lon="6.69187">
        <ele>946.2</ele>
        <time>2013-03-16T08:54:51.000Z</time>
      </trkpt>
      <trkpt lat="46.31353" lon="6.69192">
        <ele>946.9</ele>
        <time>2013-03-16T08:54:54.000Z</time>
      </trkpt>
      <trkpt lat="46.31347" lon="6.6921">
        <ele>938.2</ele>
        <time>2013-03-16T08:55:05.000Z</time>
      </trkpt>
      <trkpt lat="46.31345" lon="6.69212">
        <ele>940</ele>
        <time>2013-03-16T08:55:07.000Z</time>
      </trkpt>
      <trkpt lat="46.31342" lon="6.69226">
        <ele>942.4</ele>
        <time>2013-03-16T08:55:15.000Z</time>
      </trkpt>
      <trkpt lat="46.3134" lon="6.6923">
        <ele>942.5</ele>
        <time>2013-03-16T08:55:17.000Z</time>
      </trkpt>
      <trkpt lat="46.3134" lon="6.69232">
        <ele>941.5</ele>
        <time>2013-03-16T08:55:18.000Z</time>
      </trkpt>
      <trkpt lat="46.31337" lon="6.69235">
        <ele>941.3</ele>
        <time>2013-03-16T08:55:20.000Z</time>
      </trkpt>
      <trkpt lat="46.31335" lon="6.69236">
        <ele>941.2</ele>
        <time>2013-03-16T08:55:21.000Z</time>
      </trkpt>
      <trkpt lat="46.31333" lon="6.6924">
        <ele>941.3</ele>
        <time>2013-03-16T08:55:23.000Z</time>
      </trkpt>
      <trkpt lat="46.31332" lon="6.69241">
        <ele>941.9</ele>
        <time>2013-03-16T08:55:24.000Z</time>
      </trkpt>
      <trkpt lat="46.31329" lon="6.69245">
        <ele>941.5</ele>
        <time>2013-03-16T08:55:28.000Z</time>
      </trkpt>
      <trkpt lat="46.31328" lon="6.69246">
        <ele>941.9</ele>
        <time>2013-03-16T08:55:29.000Z</time>
      </trkpt>
      <trkpt lat="46.31326" lon="6.6925">
        <ele>943.7</ele>
        <time>2013-03-16T08:55:32.000Z</time>
      </trkpt>
      <trkpt lat="46.31325" lon="6.69251">
        <ele>944.4</ele>
        <time>2013-03-16T08:55:33.000Z</time>
      </trkpt>
      <trkpt lat="46.31322" lon="6.69255">
        <ele>945</ele>
        <time>2013-03-16T08:55:36.000Z</time>
      </trkpt>
      <trkpt lat="46.31321" lon="6.69258">
        <ele>944.5</ele>
        <time>2013-03-16T08:55:37.000Z</time>
      </trkpt>
      <trkpt lat="46.31319" lon="6.69263">
        <ele>944.4</ele>
        <time>2013-03-16T08:55:40.000Z</time>
      </trkpt>
      <trkpt lat="46.31318" lon="6.69264">
        <ele>944.6</ele>
        <time>2013-03-16T08:55:41.000Z</time>
      </trkpt>
      <trkpt lat="46.31316" lon="6.69268">
        <ele>944.4</ele>
        <time>2013-03-16T08:55:44.000Z</time>
      </trkpt>
      <trkpt lat="46.31315" lon="6.6927">
        <ele>944.4</ele>
        <time>2013-03-16T08:55:45.000Z</time>
      </trkpt>
      <trkpt lat="46.31316" lon="6.69275">
        <ele>944.5</ele>
        <time>2013-03-16T08:55:47.000Z</time>
      </trkpt>
      <trkpt lat="46.31316" lon="6.69277">
        <ele>944.8</ele>
        <time>2013-03-16T08:55:48.000Z</time>
      </trkpt>
      <trkpt lat="46.31316" lon="6.69283">
        <ele>946.2</ele>
        <time>2013-03-16T08:55:51.000Z</time>
      </trkpt>
      <trkpt lat="46.31316" lon="6.69285">
        <ele>947</ele>
        <time>2013-03-16T08:55:52.000Z</time>
      </trkpt>
      <trkpt lat="46.31315" lon="6.69291">
        <ele>947.7</ele>
        <time>2013-03-16T08:55:54.000Z</time>
      </trkpt>
      <trkpt lat="46.31314" lon="6.69294">
        <ele>948.1</ele>
        <time>2013-03-16T08:55:55.000Z</time>
      </trkpt>
      <trkpt lat="46.31312" lon="6.69299">
        <ele>948.5</ele>
        <time>2013-03-16T08:55:57.000Z</time>
      </trkpt>
      <trkpt lat="46.31313" lon="6.69301">
        <ele>949</ele>
        <time>2013-03-16T08:55:58.000Z</time>
      </trkpt>
      <trkpt lat="46.31313" lon="6.69307">
        <ele>950.3</ele>
        <time>2013-03-16T08:56:01.000Z</time>
      </trkpt>
      <trkpt lat="46.31313" lon="6.69309">
        <ele>950.4</ele>
        <time>2013-03-16T08:56:02.000Z</time>
      </trkpt>
      <trkpt lat="46.31314" lon="6.69314">
        <ele>951.8</ele>
        <time>2013-03-16T08:56:05.000Z</time>
      </trkpt>
      <trkpt lat="46.31314" lon="6.69316">
        <ele>952.2</ele>
        <time>2013-03-16T08:56:06.000Z</time>
      </trkpt>
      <trkpt lat="46.31315" lon="6.69321">
        <ele>952.5</ele>
        <time>2013-03-16T08:56:09.000Z</time>
      </trkpt>
      <trkpt lat="46.31315" lon="6.69322">
        <ele>952.8</ele>
        <time>2013-03-16T08:56:10.000Z</time>
      </trkpt>
      <trkpt lat="46.31315" lon="6.69328">
        <ele>953.4</ele>
        <time>2013-03-16T08:56:14.000Z</time>
      </trkpt>
      <trkpt lat="46.31316" lon="6.6933">
        <ele>953.6</ele>
        <time>2013-03-16T08:56:15.000Z</time>
      </trkpt>
      <trkpt lat="46.31317" lon="6.69335">
        <ele>954.2</ele>
        <time>2013-03-16T08:56:18.000Z</time>
      </trkpt>
      <trkpt lat="46.31317" lon="6.69336">
        <ele>954.7</ele>
        <time>2013-03-16T08:56:19.000Z</time>
      </trkpt>
      <trkpt lat="46.31316" lon="6.69341">
        <ele>954.9</ele>
        <time>2013-03-16T08:56:21.000Z</time>
      </trkpt>
      <trkpt lat="46.31315" lon="6.69344">
        <ele>955</ele>
        <time>2013-03-16T08:56:22.000Z</time>
      </trkpt>
      <trkpt lat="46.31313" lon="6.69348">
        <ele>955.4</ele>
        <time>2013-03-16T08:56:24.000Z</time>
      </trkpt>
      <trkpt lat="46.31313" lon="6.6935">
        <ele>955.6</ele>
        <time>2013-03-16T08:56:25.000Z</time>
      </trkpt>
      <trkpt lat="46.31313" lon="6.69355">
        <ele>956.4</ele>
        <time>2013-03-16T08:56:28.000Z</time>
      </trkpt>
      <trkpt lat="46.31314" lon="6.69356">
        <ele>956.5</ele>
        <time>2013-03-16T08:56:29.000Z</time>
      </trkpt>
      <trkpt lat="46.31313" lon="6.69361">
        <ele>956.7</ele>
        <time>2013-03-16T08:56:31.000Z</time>
      </trkpt>
      <trkpt lat="46.31312" lon="6.69363">
        <ele>956.9</ele>
        <time>2013-03-16T08:56:32.000Z</time>
      </trkpt>
      <trkpt lat="46.31311" lon="6.69368">
        <ele>957.3</ele>
        <time>2013-03-16T08:56:34.000Z</time>
      </trkpt>
      <trkpt lat="46.31311" lon="6.6937">
        <ele>957.4</ele>
        <time>2013-03-16T08:56:35.000Z</time>
      </trkpt>
      <trkpt lat="46.31309" lon="6.69375">
        <ele>957.9</ele>
        <time>2013-03-16T08:56:38.000Z</time>
      </trkpt>
      <trkpt lat="46.31309" lon="6.69377">
        <ele>958.1</ele>
        <time>2013-03-16T08:56:39.000Z</time>
      </trkpt>
      <trkpt lat="46.31308" lon="6.69382">
        <ele>958.3</ele>
        <time>2013-03-16T08:56:42.000Z</time>
      </trkpt>
      <trkpt lat="46.31308" lon="6.69384">
        <ele>958.4</ele>
        <time>2013-03-16T08:56:43.000Z</time>
      </trkpt>
      <trkpt lat="46.31307" lon="6.6939">
        <ele>958.6</ele>
        <time>2013-03-16T08:56:48.000Z</time>
      </trkpt>
      <trkpt lat="46.31307" lon="6.69391">
        <ele>958.8</ele>
        <time>2013-03-16T08:56:49.000Z</time>
      </trkpt>
      <trkpt lat="46.31306" lon="6.69397">
        <ele>959.8</ele>
        <time>2013-03-16T08:56:54.000Z</time>
      </trkpt>
      <trkpt lat="46.31306" lon="6.69398">
        <ele>960</ele>
        <time>2013-03-16T08:56:55.000Z</time>
      </trkpt>
      <trkpt lat="46.31304" lon="6.69403">
        <ele>959.8</ele>
        <time>2013-03-16T08:56:58.000Z</time>
      </trkpt>
      <trkpt lat="46.31304" lon="6.69404">
        <ele>960.1</ele>
        <time>2013-03-16T08:56:59.000Z</time>
      </trkpt>
      <trkpt lat="46.31302" lon="6.69409">
        <ele>961.2</ele>
        <time>2013-03-16T08:57:03.000Z</time>
      </trkpt>
      <trkpt lat="46.31302" lon="6.6941">
        <ele>961.6</ele>
        <time>2013-03-16T08:57:04.000Z</time>
      </trkpt>
      <trkpt lat="46.313" lon="6.69414">
        <ele>962.9</ele>
        <time>2013-03-16T08:57:10.000Z</time>
      </trkpt>
      <trkpt lat="46.31299" lon="6.69417">
        <ele>963.1</ele>
        <time>2013-03-16T08:57:11.000Z</time>
      </trkpt>
      <trkpt lat="46.31299" lon="6.69423">
        <ele>962.9</ele>
        <time>2013-03-16T08:57:14.000Z</time>
      </trkpt>
      <trkpt lat="46.31298" lon="6.69424">
        <ele>962.6</ele>
        <time>2013-03-16T08:57:15.000Z</time>
      </trkpt>
      <trkpt lat="46.31297" lon="6.6943">
        <ele>963</ele>
        <time>2013-03-16T08:57:19.000Z</time>
      </trkpt>
      <trkpt lat="46.31296" lon="6.69431">
        <ele>963.3</ele>
        <time>2013-03-16T08:57:20.000Z</time>
      </trkpt>
      <trkpt lat="46.31294" lon="6.69435">
        <ele>964.1</ele>
        <time>2013-03-16T08:57:24.000Z</time>
      </trkpt>
      <trkpt lat="46.31294" lon="6.69437">
        <ele>963.9</ele>
        <time>2013-03-16T08:57:25.000Z</time>
      </trkpt>
      <trkpt lat="46.31293" lon="6.69443">
        <ele>964.1</ele>
        <time>2013-03-16T08:57:28.000Z</time>
      </trkpt>
      <trkpt lat="46.31293" lon="6.69444">
        <ele>964.3</ele>
        <time>2013-03-16T08:57:29.000Z</time>
      </trkpt>
      <trkpt lat="46.31291" lon="6.69447">
        <ele>964.7</ele>
        <time>2013-03-16T08:57:41.000Z</time>
      </trkpt>
      <trkpt lat="46.31289" lon="6.69449">
        <ele>965.9</ele>
        <time>2013-03-16T08:57:42.000Z</time>
      </trkpt>
      <trkpt lat="46.31287" lon="6.69452">
        <ele>966.1</ele>
        <time>2013-03-16T08:57:45.000Z</time>
      </trkpt>
      <trkpt lat="46.31287" lon="6.69454">
        <ele>966.1</ele>
        <time>2013-03-16T08:57:46.000Z</time>
      </trkpt>
      <trkpt lat="46.31285" lon="6.69459">
        <ele>966.3</ele>
        <time>2013-03-16T08:57:51.000Z</time>
      </trkpt>
      <trkpt lat="46.31285" lon="6.69461">
        <ele>966.5</ele>
        <time>2013-03-16T08:57:52.000Z</time>
      </trkpt>
      <trkpt lat="46.31282" lon="6.69465">
        <ele>966.5</ele>
        <time>2013-03-16T08:57:55.000Z</time>
      </trkpt>
      <trkpt lat="46.31281" lon="6.69466">
        <ele>966.6</ele>
        <time>2013-03-16T08:57:56.000Z</time>
      </trkpt>
      <trkpt lat="46.31279" lon="6.6947">
        <ele>967</ele>
        <time>2013-03-16T08:57:59.000Z</time>
      </trkpt>
      <trkpt lat="46.31278" lon="6.69471">
        <ele>967</ele>
        <time>2013-03-16T08:58:00.000Z</time>
      </trkpt>
      <trkpt lat="46.31276" lon="6.69476">
        <ele>967.2</ele>
        <time>2013-03-16T08:58:03.000Z</time>
      </trkpt>
      <trkpt lat="46.31276" lon="6.69477">
        <ele>967.3</ele>
        <time>2013-03-16T08:58:04.000Z</time>
      </trkpt>
      <trkpt lat="46.31273" lon="6.69481">
        <ele>968</ele>
        <time>2013-03-16T08:58:07.000Z</time>
      </trkpt>
      <trkpt lat="46.31273" lon="6.69483">
        <ele>968.1</ele>
        <time>2013-03-16T08:58:08.000Z</time>
      </trkpt>
      <trkpt lat="46.31271" lon="6.69487">
        <ele>968.8</ele>
        <time>2013-03-16T08:58:13.000Z</time>
      </trkpt>
      <trkpt lat="46.3127" lon="6.69488">
        <ele>969.1</ele>
        <time>2013-03-16T08:58:14.000Z</time>
      </trkpt>
      <trkpt lat="46.31267" lon="6.69493">
        <ele>970.3</ele>
        <time>2013-03-16T08:59:01.000Z</time>
      </trkpt>
      <trkpt lat="46.31268" lon="6.69497">
        <ele>971.9</ele>
        <time>2013-03-16T08:59:02.000Z</time>
      </trkpt>
      <trkpt lat="46.31266" lon="6.69501">
        <ele>972.9</ele>
        <time>2013-03-16T08:59:09.000Z</time>
      </trkpt>
      <trkpt lat="46.31265" lon="6.69502">
        <ele>973.3</ele>
        <time>2013-03-16T08:59:10.000Z</time>
      </trkpt>
      <trkpt lat="46.31262" lon="6.69506">
        <ele>974.4</ele>
        <time>2013-03-16T08:59:16.000Z</time>
      </trkpt>
      <trkpt lat="46.31262" lon="6.69507">
        <ele>974.3</ele>
        <time>2013-03-16T08:59:17.000Z</time>
      </trkpt>
      <trkpt lat="46.31259" lon="6.69511">
        <ele>975.3</ele>
        <time>2013-03-16T08:59:22.000Z</time>
      </trkpt>
      <trkpt lat="46.31258" lon="6.69512">
        <ele>975.7</ele>
        <time>2013-03-16T08:59:23.000Z</time>
      </trkpt>
      <trkpt lat="46.31255" lon="6.69516">
        <ele>975.6</ele>
        <time>2013-03-16T08:59:27.000Z</time>
      </trkpt>
      <trkpt lat="46.31255" lon="6.69517">
        <ele>975.5</ele>
        <time>2013-03-16T08:59:28.000Z</time>
      </trkpt>
      <trkpt lat="46.31252" lon="6.69521">
        <ele>975.6</ele>
        <time>2013-03-16T08:59:32.000Z</time>
      </trkpt>
      <trkpt lat="46.31251" lon="6.69522">
        <ele>975.9</ele>
        <time>2013-03-16T08:59:33.000Z</time>
      </trkpt>
      <trkpt lat="46.31249" lon="6.69527">
        <ele>976.2</ele>
        <time>2013-03-16T08:59:37.000Z</time>
      </trkpt>
      <trkpt lat="46.31248" lon="6.69528">
        <ele>975.8</ele>
        <time>2013-03-16T08:59:38.000Z</time>
      </trkpt>
      <trkpt lat="46.31246" lon="6.69533">
        <ele>975.1</ele>
        <time>2013-03-16T08:59:42.000Z</time>
      </trkpt>
      <trkpt lat="46.31245" lon="6.69534">
        <ele>975.2</ele>
        <time>2013-03-16T08:59:43.000Z</time>
      </trkpt>
      <trkpt lat="46.31243" lon="6.69539">
        <ele>974.3</ele>
        <time>2013-03-16T08:59:50.000Z</time>
      </trkpt>
      <trkpt lat="46.31242" lon="6.6954">
        <ele>974.2</ele>
        <time>2013-03-16T08:59:51.000Z</time>
      </trkpt>
      <trkpt lat="46.3124" lon="6.69545">
        <ele>974.2</ele>
        <time>2013-03-16T08:59:57.000Z</time>
      </trkpt>
      <trkpt lat="46.31239" lon="6.69546">
        <ele>974</ele>
        <time>2013-03-16T08:59:58.000Z</time>
      </trkpt>
      <trkpt lat="46.31237" lon="6.69551">
        <ele>973.8</ele>
        <time>2013-03-16T09:00:04.000Z</time>
      </trkpt>
      <trkpt lat="46.31236" lon="6.69552">
        <ele>973.2</ele>
        <time>2013-03-16T09:00:05.000Z</time>
      </trkpt>
      <trkpt lat="46.31234" lon="6.69558">
        <ele>973.5</ele>
        <time>2013-03-16T09:00:12.000Z</time>
      </trkpt>
      <trkpt lat="46.31234" lon="6.69559">
        <ele>973.4</ele>
        <time>2013-03-16T09:00:13.000Z</time>
      </trkpt>
      <trkpt lat="46.31232" lon="6.69565">
        <ele>972</ele>
        <time>2013-03-16T09:00:20.000Z</time>
      </trkpt>
      <trkpt lat="46.31232" lon="6.69567">
        <ele>972.4</ele>
        <time>2013-03-16T09:00:21.000Z</time>
      </trkpt>
      <trkpt lat="46.3123" lon="6.69572">
        <ele>972.2</ele>
        <time>2013-03-16T09:00:24.000Z</time>
      </trkpt>
      <trkpt lat="46.3123" lon="6.69573">
        <ele>972.1</ele>
        <time>2013-03-16T09:00:25.000Z</time>
      </trkpt>
      <trkpt lat="46.31228" lon="6.69578">
        <ele>972.5</ele>
        <time>2013-03-16T09:00:28.000Z</time>
      </trkpt>
      <trkpt lat="46.31227" lon="6.69579">
        <ele>972.5</ele>
        <time>2013-03-16T09:00:29.000Z</time>
      </trkpt>
      <trkpt lat="46.31226" lon="6.69585">
        <ele>972.3</ele>
        <time>2013-03-16T09:00:33.000Z</time>
      </trkpt>
      <trkpt lat="46.31226" lon="6.69586">
        <ele>972.4</ele>
        <time>2013-03-16T09:00:34.000Z</time>
      </trkpt>
      <trkpt lat="46.31226" lon="6.69591">
        <ele>972.5</ele>
        <time>2013-03-16T09:00:38.000Z</time>
      </trkpt>
      <trkpt lat="46.31226" lon="6.69593">
        <ele>972.6</ele>
        <time>2013-03-16T09:00:39.000Z</time>
      </trkpt>
      <trkpt lat="46.31226" lon="6.69599">
        <ele>972.5</ele>
        <time>2013-03-16T09:00:43.000Z</time>
      </trkpt>
      <trkpt lat="46.31226" lon="6.696">
        <ele>972.6</ele>
        <time>2013-03-16T09:00:44.000Z</time>
      </trkpt>
      <trkpt lat="46.31225" lon="6.69606">
        <ele>973.1</ele>
        <time>2013-03-16T09:00:48.000Z</time>
      </trkpt>
      <trkpt lat="46.31225" lon="6.69607">
        <ele>973.1</ele>
        <time>2013-03-16T09:00:49.000Z</time>
      </trkpt>
      <trkpt lat="46.31225" lon="6.69613">
        <ele>973.3</ele>
        <time>2013-03-16T09:00:54.000Z</time>
      </trkpt>
      <trkpt lat="46.31225" lon="6.69614">
        <ele>973.7</ele>
        <time>2013-03-16T09:00:55.000Z</time>
      </trkpt>
      <trkpt lat="46.31226" lon="6.6962">
        <ele>975.1</ele>
        <time>2013-03-16T09:01:00.000Z</time>
      </trkpt>
      <trkpt lat="46.31226" lon="6.69621">
        <ele>975.3</ele>
        <time>2013-03-16T09:01:01.000Z</time>
      </trkpt>
      <trkpt lat="46.31226" lon="6.69627">
        <ele>976.1</ele>
        <time>2013-03-16T09:01:06.000Z</time>
      </trkpt>
      <trkpt lat="46.31226" lon="6.69628">
        <ele>976</ele>
        <time>2013-03-16T09:01:07.000Z</time>
      </trkpt>
      <trkpt lat="46.31227" lon="6.69634">
        <ele>977.4</ele>
        <time>2013-03-16T09:01:40.000Z</time>
      </trkpt>
      <trkpt lat="46.31227" lon="6.69635">
        <ele>977.5</ele>
        <time>2013-03-16T09:01:41.000Z</time>
      </trkpt>
      <trkpt lat="46.31228" lon="6.6964">
        <ele>978.6</ele>
        <time>2013-03-16T09:01:47.000Z</time>
      </trkpt>
      <trkpt lat="46.31228" lon="6.69642">
        <ele>978.7</ele>
        <time>2013-03-16T09:01:48.000Z</time>
      </trkpt>
      <trkpt lat="46.31229" lon="6.69648">
        <ele>978.3</ele>
        <time>2013-03-16T09:01:59.000Z</time>
      </trkpt>
      <trkpt lat="46.31228" lon="6.69649">
        <ele>978.5</ele>
        <time>2013-03-16T09:02:00.000Z</time>
      </trkpt>
      <trkpt lat="46.31227" lon="6.69654">
        <ele>978.3</ele>
        <time>2013-03-16T09:02:05.000Z</time>
      </trkpt>
      <trkpt lat="46.31226" lon="6.69655">
        <ele>978.2</ele>
        <time>2013-03-16T09:02:06.000Z</time>
      </trkpt>
      <trkpt lat="46.31224" lon="6.69659">
        <ele>978.3</ele>
        <time>2013-03-16T09:02:11.000Z</time>
      </trkpt>
      <trkpt lat="46.31223" lon="6.6966">
        <ele>978.3</ele>
        <time>2013-03-16T09:02:12.000Z</time>
      </trkpt>
      <trkpt lat="46.31221" lon="6.69664">
        <ele>978.2</ele>
        <time>2013-03-16T09:02:15.000Z</time>
      </trkpt>
      <trkpt lat="46.3122" lon="6.69665">
        <ele>978.3</ele>
        <time>2013-03-16T09:02:16.000Z</time>
      </trkpt>
      <trkpt lat="46.31218" lon="6.6967">
        <ele>978</ele>
        <time>2013-03-16T09:02:20.000Z</time>
      </trkpt>
      <trkpt lat="46.31217" lon="6.69671">
        <ele>978.2</ele>
        <time>2013-03-16T09:02:21.000Z</time>
      </trkpt>
      <trkpt lat="46.31216" lon="6.69677">
        <ele>978.5</ele>
        <time>2013-03-16T09:02:29.000Z</time>
      </trkpt>
      <trkpt lat="46.31216" lon="6.69678">
        <ele>978.4</ele>
        <time>2013-03-16T09:02:30.000Z</time>
      </trkpt>
      <trkpt lat="46.31215" lon="6.69683">
        <ele>978.1</ele>
        <time>2013-03-16T09:02:34.000Z</time>
      </trkpt>
      <trkpt lat="46.31215" lon="6.69684">
        <ele>978.1</ele>
        <time>2013-03-16T09:02:35.000Z</time>
      </trkpt>
      <trkpt lat="46.31215" lon="6.69691">
        <ele>978.2</ele>
        <time>2013-03-16T09:02:40.000Z</time>
      </trkpt>
      <trkpt lat="46.31215" lon="6.69692">
        <ele>978.3</ele>
        <time>2013-03-16T09:02:41.000Z</time>
      </trkpt>
      <trkpt lat="46.31215" lon="6.69698">
        <ele>978.6</ele>
        <time>2013-03-16T09:02:46.000Z</time>
      </trkpt>
      <trkpt lat="46.31214" lon="6.69699">
        <ele>978.7</ele>
        <time>2013-03-16T09:02:47.000Z</time>
      </trkpt>
      <trkpt lat="46.31214" lon="6.69706">
        <ele>980</ele>
        <time>2013-03-16T09:02:52.000Z</time>
      </trkpt>
      <trkpt lat="46.31214" lon="6.69707">
        <ele>980.2</ele>
        <time>2013-03-16T09:02:53.000Z</time>
      </trkpt>
      <trkpt lat="46.31214" lon="6.69712">
        <ele>980.6</ele>
        <time>2013-03-16T09:02:58.000Z</time>
      </trkpt>
      <trkpt lat="46.31213" lon="6.69714">
        <ele>980.6</ele>
        <time>2013-03-16T09:02:59.000Z</time>
      </trkpt>
      <trkpt lat="46.31213" lon="6.69719">
        <ele>981.1</ele>
        <time>2013-03-16T09:03:03.000Z</time>
      </trkpt>
      <trkpt lat="46.31213" lon="6.6972">
        <ele>981</ele>
        <time>2013-03-16T09:03:04.000Z</time>
      </trkpt>
      <trkpt lat="46.31212" lon="6.69725">
        <ele>981.4</ele>
        <time>2013-03-16T09:03:08.000Z</time>
      </trkpt>
      <trkpt lat="46.31211" lon="6.69727">
        <ele>981.5</ele>
        <time>2013-03-16T09:03:09.000Z</time>
      </trkpt>
      <trkpt lat="46.31211" lon="6.69733">
        <ele>981.1</ele>
        <time>2013-03-16T09:03:14.000Z</time>
      </trkpt>
      <trkpt lat="46.31211" lon="6.69734">
        <ele>981.1</ele>
        <time>2013-03-16T09:03:15.000Z</time>
      </trkpt>
      <trkpt lat="46.31209" lon="6.69739">
        <ele>981.1</ele>
        <time>2013-03-16T09:03:21.000Z</time>
      </trkpt>
      <trkpt lat="46.31209" lon="6.6974">
        <ele>981.1</ele>
        <time>2013-03-16T09:03:22.000Z</time>
      </trkpt>
      <trkpt lat="46.31208" lon="6.69746">
        <ele>980.1</ele>
        <time>2013-03-16T09:03:27.000Z</time>
      </trkpt>
      <trkpt lat="46.31208" lon="6.69747">
        <ele>980</ele>
        <time>2013-03-16T09:03:28.000Z</time>
      </trkpt>
      <trkpt lat="46.31206" lon="6.69751">
        <ele>979.1</ele>
        <time>2013-03-16T09:03:31.000Z</time>
      </trkpt>
      <trkpt lat="46.31205" lon="6.69753">
        <ele>978.9</ele>
        <time>2013-03-16T09:03:32.000Z</time>
      </trkpt>
      <trkpt lat="46.31205" lon="6.69759">
        <ele>978.1</ele>
        <time>2013-03-16T09:03:38.000Z</time>
      </trkpt>
      <trkpt lat="46.31205" lon="6.6976">
        <ele>978.1</ele>
        <time>2013-03-16T09:03:39.000Z</time>
      </trkpt>
      <trkpt lat="46.31203" lon="6.69766">
        <ele>978.1</ele>
        <time>2013-03-16T09:03:43.000Z</time>
      </trkpt>
      <trkpt lat="46.31202" lon="6.69768">
        <ele>978.5</ele>
        <time>2013-03-16T09:03:44.000Z</time>
      </trkpt>
      <trkpt lat="46.312" lon="6.69773">
        <ele>978.5</ele>
        <time>2013-03-16T09:03:47.000Z</time>
      </trkpt>
      <trkpt lat="46.31199" lon="6.69774">
        <ele>978.7</ele>
        <time>2013-03-16T09:03:48.000Z</time>
      </trkpt>
      <trkpt lat="46.31197" lon="6.69779">
        <ele>978.7</ele>
        <time>2013-03-16T09:03:51.000Z</time>
      </trkpt>
      <trkpt lat="46.31197" lon="6.6978">
        <ele>978.8</ele>
        <time>2013-03-16T09:03:52.000Z</time>
      </trkpt>
      <trkpt lat="46.31196" lon="6.69786">
        <ele>978.6</ele>
        <time>2013-03-16T09:03:58.000Z</time>
      </trkpt>
      <trkpt lat="46.31195" lon="6.69788">
        <ele>978.8</ele>
        <time>2013-03-16T09:03:59.000Z</time>
      </trkpt>
      <trkpt lat="46.31195" lon="6.69794">
        <ele>979.7</ele>
        <time>2013-03-16T09:04:04.000Z</time>
      </trkpt>
      <trkpt lat="46.31194" lon="6.69795">
        <ele>979.7</ele>
        <time>2013-03-16T09:04:05.000Z</time>
      </trkpt>
      <trkpt lat="46.31193" lon="6.69801">
        <ele>980</ele>
        <time>2013-03-16T09:04:10.000Z</time>
      </trkpt>
      <trkpt lat="46.31193" lon="6.69802">
        <ele>980.1</ele>
        <time>2013-03-16T09:04:11.000Z</time>
      </trkpt>
      <trkpt lat="46.31191" lon="6.69808">
        <ele>980.5</ele>
        <time>2013-03-16T09:04:16.000Z</time>
      </trkpt>
      <trkpt lat="46.31191" lon="6.69809">
        <ele>980.7</ele>
        <time>2013-03-16T09:04:17.000Z</time>
      </trkpt>
      <trkpt lat="46.3119" lon="6.69815">
        <ele>981.6</ele>
        <time>2013-03-16T09:04:22.000Z</time>
      </trkpt>
      <trkpt lat="46.31191" lon="6.69816">
        <ele>981.8</ele>
        <time>2013-03-16T09:04:23.000Z</time>
      </trkpt>
      <trkpt lat="46.3119" lon="6.69823">
        <ele>982.7</ele>
        <time>2013-03-16T09:04:28.000Z</time>
      </trkpt>
      <trkpt lat="46.31189" lon="6.69824">
        <ele>982.7</ele>
        <time>2013-03-16T09:04:29.000Z</time>
      </trkpt>
      <trkpt lat="46.31188" lon="6.69829">
        <ele>983.2</ele>
        <time>2013-03-16T09:04:34.000Z</time>
      </trkpt>
      <trkpt lat="46.31188" lon="6.6983">
        <ele>983.3</ele>
        <time>2013-03-16T09:04:35.000Z</time>
      </trkpt>
      <trkpt lat="46.31186" lon="6.69836">
        <ele>984.1</ele>
        <time>2013-03-16T09:04:39.000Z</time>
      </trkpt>
      <trkpt lat="46.31186" lon="6.69837">
        <ele>984</ele>
        <time>2013-03-16T09:04:40.000Z</time>
      </trkpt>
      <trkpt lat="46.31186" lon="6.69842">
        <ele>984.3</ele>
        <time>2013-03-16T09:04:45.000Z</time>
      </trkpt>
      <trkpt lat="46.31186" lon="6.69843">
        <ele>984.4</ele>
        <time>2013-03-16T09:04:46.000Z</time>
      </trkpt>
      <trkpt lat="46.31184" lon="6.69849">
        <ele>984.9</ele>
        <time>2013-03-16T09:04:51.000Z</time>
      </trkpt>
      <trkpt lat="46.31184" lon="6.6985">
        <ele>985.1</ele>
        <time>2013-03-16T09:04:52.000Z</time>
      </trkpt>
      <trkpt lat="46.31183" lon="6.69856">
        <ele>985.5</ele>
        <time>2013-03-16T09:04:57.000Z</time>
      </trkpt>
      <trkpt lat="46.31183" lon="6.69857">
        <ele>985.6</ele>
        <time>2013-03-16T09:04:58.000Z</time>
      </trkpt>
      <trkpt lat="46.31182" lon="6.69863">
        <ele>985.8</ele>
        <time>2013-03-16T09:05:03.000Z</time>
      </trkpt>
      <trkpt lat="46.31182" lon="6.69864">
        <ele>986</ele>
        <time>2013-03-16T09:05:04.000Z</time>
      </trkpt>
      <trkpt lat="46.31182" lon="6.6987">
        <ele>986.3</ele>
        <time>2013-03-16T09:05:09.000Z</time>
      </trkpt>
      <trkpt lat="46.31182" lon="6.69871">
        <ele>986.3</ele>
        <time>2013-03-16T09:05:10.000Z</time>
      </trkpt>
      <trkpt lat="46.31181" lon="6.69876">
        <ele>987.2</ele>
        <time>2013-03-16T09:05:14.000Z</time>
      </trkpt>
      <trkpt lat="46.3118" lon="6.69878">
        <ele>987.3</ele>
        <time>2013-03-16T09:05:15.000Z</time>
      </trkpt>
      <trkpt lat="46.31179" lon="6.69882">
        <ele>988</ele>
        <time>2013-03-16T09:05:19.000Z</time>
      </trkpt>
      <trkpt lat="46.31178" lon="6.69884">
        <ele>988.4</ele>
        <time>2013-03-16T09:05:20.000Z</time>
      </trkpt>
      <trkpt lat="46.31179" lon="6.69889">
        <ele>990</ele>
        <time>2013-03-16T09:05:24.000Z</time>
      </trkpt>
      <trkpt lat="46.31178" lon="6.69891">
        <ele>990.4</ele>
        <time>2013-03-16T09:05:25.000Z</time>
      </trkpt>
      <trkpt lat="46.31178" lon="6.69897">
        <ele>991.5</ele>
        <time>2013-03-16T09:05:30.000Z</time>
      </trkpt>
      <trkpt lat="46.31178" lon="6.69898">
        <ele>992.2</ele>
        <time>2013-03-16T09:05:31.000Z</time>
      </trkpt>
      <trkpt lat="46.31179" lon="6.69904">
        <ele>994.5</ele>
        <time>2013-03-16T09:05:35.000Z</time>
      </trkpt>
      <trkpt lat="46.3118" lon="6.69905">
        <ele>995</ele>
        <time>2013-03-16T09:05:36.000Z</time>
      </trkpt>
      <trkpt lat="46.3118" lon="6.69911">
        <ele>996.1</ele>
        <time>2013-03-16T09:05:42.000Z</time>
      </trkpt>
      <trkpt lat="46.3118" lon="6.69913">
        <ele>996.2</ele>
        <time>2013-03-16T09:05:43.000Z</time>
      </trkpt>
      <trkpt lat="46.31178" lon="6.69918">
        <ele>996.8</ele>
        <time>2013-03-16T09:05:47.000Z</time>
      </trkpt>
      <trkpt lat="46.31177" lon="6.69919">
        <ele>996.9</ele>
        <time>2013-03-16T09:05:48.000Z</time>
      </trkpt>
      <trkpt lat="46.31175" lon="6.69923">
        <ele>996.3</ele>
        <time>2013-03-16T09:06:03.000Z</time>
      </trkpt>
      <trkpt lat="46.31174" lon="6.69924">
        <ele>996.1</ele>
        <time>2013-03-16T09:06:04.000Z</time>
      </trkpt>
      <trkpt lat="46.31174" lon="6.6993">
        <ele>996.4</ele>
        <time>2013-03-16T09:06:09.000Z</time>
      </trkpt>
      <trkpt lat="46.31174" lon="6.69931">
        <ele>996.6</ele>
        <time>2013-03-16T09:06:10.000Z</time>
      </trkpt>
      <trkpt lat="46.31174" lon="6.69937">
        <ele>997.2</ele>
        <time>2013-03-16T09:06:15.000Z</time>
      </trkpt>
      <trkpt lat="46.31173" lon="6.69938">
        <ele>997.3</ele>
        <time>2013-03-16T09:06:16.000Z</time>
      </trkpt>
      <trkpt lat="46.31171" lon="6.69943">
        <ele>997.9</ele>
        <time>2013-03-16T09:06:20.000Z</time>
      </trkpt>
      <trkpt lat="46.3117" lon="6.69944">
        <ele>997.9</ele>
        <time>2013-03-16T09:06:21.000Z</time>
      </trkpt>
      <trkpt lat="46.3117" lon="6.6995">
        <ele>998.7</ele>
        <time>2013-03-16T09:06:26.000Z</time>
      </trkpt>
      <trkpt lat="46.3117" lon="6.69951">
        <ele>998.8</ele>
        <time>2013-03-16T09:06:27.000Z</time>
      </trkpt>
      <trkpt lat="46.31169" lon="6.69957">
        <ele>999.8</ele>
        <time>2013-03-16T09:06:34.000Z</time>
      </trkpt>
      <trkpt lat="46.31168" lon="6.69958">
        <ele>999.8</ele>
        <time>2013-03-16T09:06:35.000Z</time>
      </trkpt>
      <trkpt lat="46.31169" lon="6.69964">
        <ele>1000.7</ele>
        <time>2013-03-16T09:06:42.000Z</time>
      </trkpt>
      <trkpt lat="46.31169" lon="6.69965">
        <ele>1000.8</ele>
        <time>2013-03-16T09:06:43.000Z</time>
      </trkpt>
      <trkpt lat="46.31167" lon="6.69971">
        <ele>1000.5</ele>
        <time>2013-03-16T09:06:48.000Z</time>
      </trkpt>
      <trkpt lat="46.31167" lon="6.69972">
        <ele>1000.5</ele>
        <time>2013-03-16T09:06:49.000Z</time>
      </trkpt>
      <trkpt lat="46.31165" lon="6.69978">
        <ele>1001</ele>
        <time>2013-03-16T09:06:53.000Z</time>
      </trkpt>
      <trkpt lat="46.31165" lon="6.69979">
        <ele>1001.2</ele>
        <time>2013-03-16T09:06:54.000Z</time>
      </trkpt>
      <trkpt lat="46.31163" lon="6.69985">
        <ele>1001.6</ele>
        <time>2013-03-16T09:07:00.000Z</time>
      </trkpt>
      <trkpt lat="46.31163" lon="6.69986">
        <ele>1001.6</ele>
        <time>2013-03-16T09:07:01.000Z</time>
      </trkpt>
      <trkpt lat="46.31161" lon="6.69991">
        <ele>1001.5</ele>
        <time>2013-03-16T09:07:05.000Z</time>
      </trkpt>
      <trkpt lat="46.3116" lon="6.69992">
        <ele>1001.6</ele>
        <time>2013-03-16T09:07:06.000Z</time>
      </trkpt>
      <trkpt lat="46.31157" lon="6.69996">
        <ele>1002.9</ele>
        <time>2013-03-16T09:07:14.000Z</time>
      </trkpt>
      <trkpt lat="46.31157" lon="6.69997">
        <ele>1003.4</ele>
        <time>2013-03-16T09:07:15.000Z</time>
      </trkpt>
      <trkpt lat="46.31155" lon="6.70002">
        <ele>1004.2</ele>
        <time>2013-03-16T09:07:20.000Z</time>
      </trkpt>
      <trkpt lat="46.31154" lon="6.70003">
        <ele>1004.7</ele>
        <time>2013-03-16T09:07:21.000Z</time>
      </trkpt>
      <trkpt lat="46.31153" lon="6.70008">
        <ele>1007.4</ele>
        <time>2013-03-16T09:07:26.000Z</time>
      </trkpt>
      <trkpt lat="46.31153" lon="6.70009">
        <ele>1007.9</ele>
        <time>2013-03-16T09:07:27.000Z</time>
      </trkpt>
      <trkpt lat="46.31153" lon="6.70015">
        <ele>1009</ele>
        <time>2013-03-16T09:07:33.000Z</time>
      </trkpt>
      <trkpt lat="46.31153" lon="6.70016">
        <ele>1009.1</ele>
        <time>2013-03-16T09:07:34.000Z</time>
      </trkpt>
      <trkpt lat="46.31151" lon="6.70021">
        <ele>1008.7</ele>
        <time>2013-03-16T09:07:39.000Z</time>
      </trkpt>
      <trkpt lat="46.31151" lon="6.70023">
        <ele>1008.9</ele>
        <time>2013-03-16T09:07:40.000Z</time>
      </trkpt>
      <trkpt lat="46.31149" lon="6.70028">
        <ele>1008.6</ele>
        <time>2013-03-16T09:07:44.000Z</time>
      </trkpt>
      <trkpt lat="46.31148" lon="6.70029">
        <ele>1008.5</ele>
        <time>2013-03-16T09:07:45.000Z</time>
      </trkpt>
      <trkpt lat="46.31146" lon="6.70033">
        <ele>1006.9</ele>
        <time>2013-03-16T09:07:55.000Z</time>
      </trkpt>
      <trkpt lat="46.31145" lon="6.70034">
        <ele>1007</ele>
        <time>2013-03-16T09:07:56.000Z</time>
      </trkpt>
      <trkpt lat="46.31144" lon="6.70039">
        <ele>1007.1</ele>
        <time>2013-03-16T09:08:00.000Z</time>
      </trkpt>
      <trkpt lat="46.31144" lon="6.7004">
        <ele>1006.9</ele>
        <time>2013-03-16T09:08:01.000Z</time>
      </trkpt>
      <trkpt lat="46.31144" lon="6.70046">
        <ele>1007.5</ele>
        <time>2013-03-16T09:08:06.000Z</time>
      </trkpt>
      <trkpt lat="46.31144" lon="6.70047">
        <ele>1007.4</ele>
        <time>2013-03-16T09:08:07.000Z</time>
      </trkpt>
      <trkpt lat="46.31144" lon="6.70054">
        <ele>1007</ele>
        <time>2013-03-16T09:08:12.000Z</time>
      </trkpt>
      <trkpt lat="46.31144" lon="6.70055">
        <ele>1006.8</ele>
        <time>2013-03-16T09:08:13.000Z</time>
      </trkpt>
      <trkpt lat="46.31143" lon="6.70061">
        <ele>1005.7</ele>
        <time>2013-03-16T09:08:18.000Z</time>
      </trkpt>
      <trkpt lat="46.31142" lon="6.70062">
        <ele>1005.7</ele>
        <time>2013-03-16T09:08:19.000Z</time>
      </trkpt>
      <trkpt lat="46.31143" lon="6.70067">
        <ele>1005.7</ele>
        <time>2013-03-16T09:08:25.000Z</time>
      </trkpt>
      <trkpt lat="46.31142" lon="6.70069">
        <ele>1005.6</ele>
        <time>2013-03-16T09:08:26.000Z</time>
      </trkpt>
      <trkpt lat="46.31142" lon="6.70074">
        <ele>1005.7</ele>
        <time>2013-03-16T09:08:31.000Z</time>
      </trkpt>
      <trkpt lat="46.31141" lon="6.70075">
        <ele>1005.8</ele>
        <time>2013-03-16T09:08:32.000Z</time>
      </trkpt>
      <trkpt lat="46.31138" lon="6.7008">
        <ele>1006.2</ele>
        <time>2013-03-16T09:08:36.000Z</time>
      </trkpt>
      <trkpt lat="46.31138" lon="6.70081">
        <ele>1006.5</ele>
        <time>2013-03-16T09:08:37.000Z</time>
      </trkpt>
      <trkpt lat="46.31137" lon="6.70087">
        <ele>1007</ele>
        <time>2013-03-16T09:08:43.000Z</time>
      </trkpt>
      <trkpt lat="46.31137" lon="6.70088">
        <ele>1007.2</ele>
        <time>2013-03-16T09:08:44.000Z</time>
      </trkpt>
      <trkpt lat="46.31137" lon="6.70095">
        <ele>1008.5</ele>
        <time>2013-03-16T09:08:51.000Z</time>
      </trkpt>
      <trkpt lat="46.31137" lon="6.70096">
        <ele>1009</ele>
        <time>2013-03-16T09:08:52.000Z</time>
      </trkpt>
      <trkpt lat="46.31136" lon="6.70098">
        <ele>1009.2</ele>
        <time>2013-03-16T09:08:54.000Z</time>
      </trkpt>
      <trkpt lat="46.31133" lon="6.70122">
        <ele>1014.5</ele>
        <time>2013-03-16T09:09:15.000Z</time>
      </trkpt>
      <trkpt lat="46.31133" lon="6.70128">
        <ele>1013.3</ele>
        <time>2013-03-16T09:09:22.000Z</time>
      </trkpt>
      <trkpt lat="46.31133" lon="6.70129">
        <ele>1013.4</ele>
        <time>2013-03-16T09:09:23.000Z</time>
      </trkpt>
      <trkpt lat="46.31132" lon="6.70135">
        <ele>1012.7</ele>
        <time>2013-03-16T09:09:30.000Z</time>
      </trkpt>
      <trkpt lat="46.31132" lon="6.70136">
        <ele>1012.5</ele>
        <time>2013-03-16T09:09:31.000Z</time>
      </trkpt>
      <trkpt lat="46.31132" lon="6.70142">
        <ele>1012.3</ele>
        <time>2013-03-16T09:09:39.000Z</time>
      </trkpt>
      <trkpt lat="46.31131" lon="6.70143">
        <ele>1012.4</ele>
        <time>2013-03-16T09:09:40.000Z</time>
      </trkpt>
      <trkpt lat="46.31131" lon="6.70149">
        <ele>1011.4</ele>
        <time>2013-03-16T09:09:49.000Z</time>
      </trkpt>
      <trkpt lat="46.31131" lon="6.7015">
        <ele>1011.1</ele>
        <time>2013-03-16T09:09:50.000Z</time>
      </trkpt>
      <trkpt lat="46.3113" lon="6.70156">
        <ele>1010.8</ele>
        <time>2013-03-16T09:09:56.000Z</time>
      </trkpt>
      <trkpt lat="46.31131" lon="6.70157">
        <ele>1010.9</ele>
        <time>2013-03-16T09:09:57.000Z</time>
      </trkpt>
      <trkpt lat="46.31129" lon="6.70163">
        <ele>1011</ele>
        <time>2013-03-16T09:10:02.000Z</time>
      </trkpt>
      <trkpt lat="46.31129" lon="6.70164">
        <ele>1011.2</ele>
        <time>2013-03-16T09:10:03.000Z</time>
      </trkpt>
      <trkpt lat="46.31129" lon="6.70169">
        <ele>1011.7</ele>
        <time>2013-03-16T09:10:09.000Z</time>
      </trkpt>
      <trkpt lat="46.31129" lon="6.7017">
        <ele>1011.8</ele>
        <time>2013-03-16T09:10:10.000Z</time>
      </trkpt>
      <trkpt lat="46.31127" lon="6.70176">
        <ele>1012.6</ele>
        <time>2013-03-16T09:10:15.000Z</time>
      </trkpt>
      <trkpt lat="46.31127" lon="6.70176">
        <ele>1012.8</ele>
        <time>2013-03-16T09:10:16.000Z</time>
      </trkpt>
      <trkpt lat="46.31129" lon="6.70182">
        <ele>1013.6</ele>
        <time>2013-03-16T09:10:23.000Z</time>
      </trkpt>
      <trkpt lat="46.31129" lon="6.70182">
        <ele>1013.9</ele>
        <time>2013-03-16T09:10:24.000Z</time>
      </trkpt>
      <trkpt lat="46.31128" lon="6.70189">
        <ele>1014.7</ele>
        <time>2013-03-16T09:10:31.000Z</time>
      </trkpt>
      <trkpt lat="46.31127" lon="6.7019">
        <ele>1014.8</ele>
        <time>2013-03-16T09:10:32.000Z</time>
      </trkpt>
      <trkpt lat="46.31127" lon="6.70196">
        <ele>1016.2</ele>
        <time>2013-03-16T09:10:37.000Z</time>
      </trkpt>
      <trkpt lat="46.31127" lon="6.70197">
        <ele>1016.3</ele>
        <time>2013-03-16T09:10:38.000Z</time>
      </trkpt>
      <trkpt lat="46.31127" lon="6.70202">
        <ele>1016.7</ele>
        <time>2013-03-16T09:10:43.000Z</time>
      </trkpt>
      <trkpt lat="46.31127" lon="6.70203">
        <ele>1016.9</ele>
        <time>2013-03-16T09:10:44.000Z</time>
      </trkpt>
      <trkpt lat="46.31126" lon="6.7021">
        <ele>1017.7</ele>
        <time>2013-03-16T09:10:51.000Z</time>
      </trkpt>
      <trkpt lat="46.31126" lon="6.70211">
        <ele>1017.8</ele>
        <time>2013-03-16T09:10:52.000Z</time>
      </trkpt>
      <trkpt lat="46.31128" lon="6.70217">
        <ele>1018.3</ele>
        <time>2013-03-16T09:10:59.000Z</time>
      </trkpt>
      <trkpt lat="46.31128" lon="6.70217">
        <ele>1018.3</ele>
        <time>2013-03-16T09:11:00.000Z</time>
      </trkpt>
      <trkpt lat="46.31128" lon="6.70223">
        <ele>1018.9</ele>
        <time>2013-03-16T09:11:06.000Z</time>
      </trkpt>
      <trkpt lat="46.31127" lon="6.70225">
        <ele>1019.2</ele>
        <time>2013-03-16T09:11:07.000Z</time>
      </trkpt>
      <trkpt lat="46.31127" lon="6.70231">
        <ele>1019.1</ele>
        <time>2013-03-16T09:11:12.000Z</time>
      </trkpt>
      <trkpt lat="46.31126" lon="6.70232">
        <ele>1019.1</ele>
        <time>2013-03-16T09:11:13.000Z</time>
      </trkpt>
      <trkpt lat="46.31126" lon="6.70238">
        <ele>1019.5</ele>
        <time>2013-03-16T09:11:20.000Z</time>
      </trkpt>
      <trkpt lat="46.31126" lon="6.70239">
        <ele>1019.7</ele>
        <time>2013-03-16T09:11:21.000Z</time>
      </trkpt>
      <trkpt lat="46.31127" lon="6.70245">
        <ele>1020.5</ele>
        <time>2013-03-16T09:11:28.000Z</time>
      </trkpt>
      <trkpt lat="46.31127" lon="6.70246">
        <ele>1020.4</ele>
        <time>2013-03-16T09:11:29.000Z</time>
      </trkpt>
      <trkpt lat="46.31127" lon="6.70251">
        <ele>1020.6</ele>
        <time>2013-03-16T09:11:35.000Z</time>
      </trkpt>
      <trkpt lat="46.31127" lon="6.70252">
        <ele>1020.7</ele>
        <time>2013-03-16T09:11:36.000Z</time>
      </trkpt>
      <trkpt lat="46.31127" lon="6.70258">
        <ele>1020.8</ele>
        <time>2013-03-16T09:11:42.000Z</time>
      </trkpt>
      <trkpt lat="46.31127" lon="6.7026">
        <ele>1020.8</ele>
        <time>2013-03-16T09:11:43.000Z</time>
      </trkpt>
      <trkpt lat="46.31127" lon="6.70264">
        <ele>1021.4</ele>
        <time>2013-03-16T09:11:55.000Z</time>
      </trkpt>
      <trkpt lat="46.31128" lon="6.70268">
        <ele>1022.1</ele>
        <time>2013-03-16T09:11:56.000Z</time>
      </trkpt>
      <trkpt lat="46.31127" lon="6.70273">
        <ele>1022.2</ele>
        <time>2013-03-16T09:12:00.000Z</time>
      </trkpt>
      <trkpt lat="46.31127" lon="6.70274">
        <ele>1022.3</ele>
        <time>2013-03-16T09:12:01.000Z</time>
      </trkpt>
      <trkpt lat="46.31125" lon="6.70279">
        <ele>1022.6</ele>
        <time>2013-03-16T09:12:06.000Z</time>
      </trkpt>
      <trkpt lat="46.31124" lon="6.7028">
        <ele>1022.7</ele>
        <time>2013-03-16T09:12:07.000Z</time>
      </trkpt>
      <trkpt lat="46.31124" lon="6.70285">
        <ele>1023.4</ele>
        <time>2013-03-16T09:12:15.000Z</time>
      </trkpt>
      <trkpt lat="46.31124" lon="6.70286">
        <ele>1023.2</ele>
        <time>2013-03-16T09:12:16.000Z</time>
      </trkpt>
      <trkpt lat="46.31121" lon="6.70292">
        <ele>1024.2</ele>
        <time>2013-03-16T09:12:21.000Z</time>
      </trkpt>
      <trkpt lat="46.31121" lon="6.70293">
        <ele>1024.3</ele>
        <time>2013-03-16T09:12:22.000Z</time>
      </trkpt>
      <trkpt lat="46.31121" lon="6.70298">
        <ele>1024.5</ele>
        <time>2013-03-16T09:12:28.000Z</time>
      </trkpt>
      <trkpt lat="46.3112" lon="6.70299">
        <ele>1023.9</ele>
        <time>2013-03-16T09:12:29.000Z</time>
      </trkpt>
      <trkpt lat="46.31119" lon="6.70305">
        <ele>1024.5</ele>
        <time>2013-03-16T09:12:34.000Z</time>
      </trkpt>
      <trkpt lat="46.31119" lon="6.70306">
        <ele>1024.5</ele>
        <time>2013-03-16T09:12:35.000Z</time>
      </trkpt>
      <trkpt lat="46.3112" lon="6.70312">
        <ele>1025.2</ele>
        <time>2013-03-16T09:12:43.000Z</time>
      </trkpt>
      <trkpt lat="46.31119" lon="6.70313">
        <ele>1025.2</ele>
        <time>2013-03-16T09:12:44.000Z</time>
      </trkpt>
      <trkpt lat="46.31118" lon="6.7032">
        <ele>1025.7</ele>
        <time>2013-03-16T09:12:50.000Z</time>
      </trkpt>
      <trkpt lat="46.31118" lon="6.70321">
        <ele>1025.8</ele>
        <time>2013-03-16T09:12:51.000Z</time>
      </trkpt>
      <trkpt lat="46.31118" lon="6.70327">
        <ele>1026.7</ele>
        <time>2013-03-16T09:12:57.000Z</time>
      </trkpt>
      <trkpt lat="46.31118" lon="6.70328">
        <ele>1026.8</ele>
        <time>2013-03-16T09:12:58.000Z</time>
      </trkpt>
      <trkpt lat="46.31115" lon="6.70333">
        <ele>1028.1</ele>
        <time>2013-03-16T09:13:02.000Z</time>
      </trkpt>
      <trkpt lat="46.31115" lon="6.70334">
        <ele>1028.3</ele>
        <time>2013-03-16T09:13:03.000Z</time>
      </trkpt>
      <trkpt lat="46.31113" lon="6.70339">
        <ele>1028.1</ele>
        <time>2013-03-16T09:13:08.000Z</time>
      </trkpt>
      <trkpt lat="46.31113" lon="6.70341">
        <ele>1027.9</ele>
        <time>2013-03-16T09:13:09.000Z</time>
      </trkpt>
      <trkpt lat="46.31114" lon="6.70346">
        <ele>1028.1</ele>
        <time>2013-03-16T09:13:15.000Z</time>
      </trkpt>
      <trkpt lat="46.31114" lon="6.70347">
        <ele>1028.2</ele>
        <time>2013-03-16T09:13:16.000Z</time>
      </trkpt>
      <trkpt lat="46.31112" lon="6.70353">
        <ele>1028.2</ele>
        <time>2013-03-16T09:13:22.000Z</time>
      </trkpt>
      <trkpt lat="46.31112" lon="6.70355">
        <ele>1028.6</ele>
        <time>2013-03-16T09:13:23.000Z</time>
      </trkpt>
      <trkpt lat="46.31112" lon="6.70361">
        <ele>1029.2</ele>
        <time>2013-03-16T09:13:30.000Z</time>
      </trkpt>
      <trkpt lat="46.31112" lon="6.70362">
        <ele>1029.4</ele>
        <time>2013-03-16T09:13:31.000Z</time>
      </trkpt>
      <trkpt lat="46.31111" lon="6.70367">
        <ele>1029.7</ele>
        <time>2013-03-16T09:13:35.000Z</time>
      </trkpt>
      <trkpt lat="46.31111" lon="6.70369">
        <ele>1029.7</ele>
        <time>2013-03-16T09:13:36.000Z</time>
      </trkpt>
      <trkpt lat="46.31109" lon="6.70374">
        <ele>1029.4</ele>
        <time>2013-03-16T09:13:40.000Z</time>
      </trkpt>
      <trkpt lat="46.31108" lon="6.70375">
        <ele>1029.3</ele>
        <time>2013-03-16T09:13:41.000Z</time>
      </trkpt>
      <trkpt lat="46.31107" lon="6.7038">
        <ele>1030.2</ele>
        <time>2013-03-16T09:13:45.000Z</time>
      </trkpt>
      <trkpt lat="46.31106" lon="6.70381">
        <ele>1030.4</ele>
        <time>2013-03-16T09:13:46.000Z</time>
      </trkpt>
      <trkpt lat="46.31104" lon="6.70386">
        <ele>1030.1</ele>
        <time>2013-03-16T09:13:50.000Z</time>
      </trkpt>
      <trkpt lat="46.31104" lon="6.70387">
        <ele>1030.2</ele>
        <time>2013-03-16T09:13:51.000Z</time>
      </trkpt>
      <trkpt lat="46.31103" lon="6.70392">
        <ele>1030.2</ele>
        <time>2013-03-16T09:13:55.000Z</time>
      </trkpt>
      <trkpt lat="46.31116" lon="6.70404">
        <ele>1044.9</ele>
        <time>2013-03-16T09:14:15.000Z</time>
      </trkpt>
      <trkpt lat="46.31114" lon="6.70408">
        <ele>1048.2</ele>
        <time>2013-03-16T09:14:26.000Z</time>
      </trkpt>
      <trkpt lat="46.31112" lon="6.70409">
        <ele>1047</ele>
        <time>2013-03-16T09:14:27.000Z</time>
      </trkpt>
      <trkpt lat="46.31109" lon="6.70413">
        <ele>1044.7</ele>
        <time>2013-03-16T09:14:30.000Z</time>
      </trkpt>
      <trkpt lat="46.31108" lon="6.70415">
        <ele>1044.9</ele>
        <time>2013-03-16T09:14:31.000Z</time>
      </trkpt>
      <trkpt lat="46.31106" lon="6.70418">
        <ele>1042.1</ele>
        <time>2013-03-16T09:14:34.000Z</time>
      </trkpt>
      <trkpt lat="46.31105" lon="6.70419">
        <ele>1041.5</ele>
        <time>2013-03-16T09:14:35.000Z</time>
      </trkpt>
      <trkpt lat="46.31103" lon="6.70425">
        <ele>1040.4</ele>
        <time>2013-03-16T09:14:41.000Z</time>
      </trkpt>
      <trkpt lat="46.31103" lon="6.70426">
        <ele>1040.4</ele>
        <time>2013-03-16T09:14:42.000Z</time>
      </trkpt>
      <trkpt lat="46.31103" lon="6.70432">
        <ele>1039.9</ele>
        <time>2013-03-16T09:14:49.000Z</time>
      </trkpt>
      <trkpt lat="46.31103" lon="6.70432">
        <ele>1039.8</ele>
        <time>2013-03-16T09:14:50.000Z</time>
      </trkpt>
      <trkpt lat="46.31103" lon="6.70439">
        <ele>1038.8</ele>
        <time>2013-03-16T09:14:57.000Z</time>
      </trkpt>
      <trkpt lat="46.31102" lon="6.70439">
        <ele>1038.6</ele>
        <time>2013-03-16T09:14:58.000Z</time>
      </trkpt>
      <trkpt lat="46.31105" lon="6.70443">
        <ele>1039.6</ele>
        <time>2013-03-16T09:15:18.000Z</time>
      </trkpt>
      <trkpt lat="46.31105" lon="6.70444">
        <ele>1039.4</ele>
        <time>2013-03-16T09:15:19.000Z</time>
      </trkpt>
      <trkpt lat="46.31104" lon="6.7045">
        <ele>1038.9</ele>
        <time>2013-03-16T09:15:23.000Z</time>
      </trkpt>
      <trkpt lat="46.31104" lon="6.70451">
        <ele>1038.9</ele>
        <time>2013-03-16T09:15:24.000Z</time>
      </trkpt>
      <trkpt lat="46.31102" lon="6.70456">
        <ele>1038.3</ele>
        <time>2013-03-16T09:15:28.000Z</time>
      </trkpt>
      <trkpt lat="46.31102" lon="6.70458">
        <ele>1038.2</ele>
        <time>2013-03-16T09:15:29.000Z</time>
      </trkpt>
      <trkpt lat="46.31101" lon="6.70464">
        <ele>1038</ele>
        <time>2013-03-16T09:15:34.000Z</time>
      </trkpt>
      <trkpt lat="46.311" lon="6.70465">
        <ele>1038.2</ele>
        <time>2013-03-16T09:15:35.000Z</time>
      </trkpt>
      <trkpt lat="46.31098" lon="6.7047">
        <ele>1038.6</ele>
        <time>2013-03-16T09:15:39.000Z</time>
      </trkpt>
      <trkpt lat="46.31098" lon="6.70471">
        <ele>1039.1</ele>
        <time>2013-03-16T09:15:40.000Z</time>
      </trkpt>
      <trkpt lat="46.31098" lon="6.70476">
        <ele>1039.5</ele>
        <time>2013-03-16T09:15:44.000Z</time>
      </trkpt>
      <trkpt lat="46.31099" lon="6.70478">
        <ele>1039.5</ele>
        <time>2013-03-16T09:15:45.000Z</time>
      </trkpt>
      <trkpt lat="46.31099" lon="6.70483">
        <ele>1040.1</ele>
        <time>2013-03-16T09:15:50.000Z</time>
      </trkpt>
      <trkpt lat="46.31099" lon="6.70485">
        <ele>1040.4</ele>
        <time>2013-03-16T09:15:51.000Z</time>
      </trkpt>
      <trkpt lat="46.31097" lon="6.7049">
        <ele>1041.2</ele>
        <time>2013-03-16T09:15:56.000Z</time>
      </trkpt>
      <trkpt lat="46.31097" lon="6.70491">
        <ele>1041.3</ele>
        <time>2013-03-16T09:15:57.000Z</time>
      </trkpt>
      <trkpt lat="46.31095" lon="6.70497">
        <ele>1041</ele>
        <time>2013-03-16T09:16:03.000Z</time>
      </trkpt>
      <trkpt lat="46.31095" lon="6.70498">
        <ele>1040.8</ele>
        <time>2013-03-16T09:16:04.000Z</time>
      </trkpt>
      <trkpt lat="46.31094" lon="6.70504">
        <ele>1040.8</ele>
        <time>2013-03-16T09:16:09.000Z</time>
      </trkpt>
      <trkpt lat="46.31093" lon="6.70505">
        <ele>1041.1</ele>
        <time>2013-03-16T09:16:10.000Z</time>
      </trkpt>
      <trkpt lat="46.31091" lon="6.7051">
        <ele>1042.5</ele>
        <time>2013-03-16T09:16:14.000Z</time>
      </trkpt>
      <trkpt lat="46.31091" lon="6.70511">
        <ele>1042.4</ele>
        <time>2013-03-16T09:16:15.000Z</time>
      </trkpt>
      <trkpt lat="46.31089" lon="6.70517">
        <ele>1042.3</ele>
        <time>2013-03-16T09:16:20.000Z</time>
      </trkpt>
      <trkpt lat="46.31089" lon="6.70518">
        <ele>1042.3</ele>
        <time>2013-03-16T09:16:21.000Z</time>
      </trkpt>
      <trkpt lat="46.3109" lon="6.70523">
        <ele>1043.3</ele>
        <time>2013-03-16T09:16:26.000Z</time>
      </trkpt>
      <trkpt lat="46.3109" lon="6.70524">
        <ele>1043.2</ele>
        <time>2013-03-16T09:16:27.000Z</time>
      </trkpt>
      <trkpt lat="46.31089" lon="6.70529">
        <ele>1043.6</ele>
        <time>2013-03-16T09:16:31.000Z</time>
      </trkpt>
      <trkpt lat="46.31089" lon="6.7053">
        <ele>1043.6</ele>
        <time>2013-03-16T09:16:32.000Z</time>
      </trkpt>
      <trkpt lat="46.31088" lon="6.70536">
        <ele>1044.4</ele>
        <time>2013-03-16T09:16:41.000Z</time>
      </trkpt>
      <trkpt lat="46.31088" lon="6.70537">
        <ele>1044.4</ele>
        <time>2013-03-16T09:16:42.000Z</time>
      </trkpt>
      <trkpt lat="46.31087" lon="6.70543">
        <ele>1044.3</ele>
        <time>2013-03-16T09:16:47.000Z</time>
      </trkpt>
      <trkpt lat="46.31087" lon="6.70544">
        <ele>1044.3</ele>
        <time>2013-03-16T09:16:48.000Z</time>
      </trkpt>
      <trkpt lat="46.31088" lon="6.70549">
        <ele>1045.1</ele>
        <time>2013-03-16T09:16:52.000Z</time>
      </trkpt>
      <trkpt lat="46.31088" lon="6.70551">
        <ele>1044.9</ele>
        <time>2013-03-16T09:16:53.000Z</time>
      </trkpt>
      <trkpt lat="46.31088" lon="6.70557">
        <ele>1045.4</ele>
        <time>2013-03-16T09:16:57.000Z</time>
      </trkpt>
      <trkpt lat="46.31087" lon="6.70559">
        <ele>1045.5</ele>
        <time>2013-03-16T09:16:58.000Z</time>
      </trkpt>
      <trkpt lat="46.31086" lon="6.70564">
        <ele>1045.8</ele>
        <time>2013-03-16T09:17:02.000Z</time>
      </trkpt>
      <trkpt lat="46.31086" lon="6.70565">
        <ele>1045.7</ele>
        <time>2013-03-16T09:17:03.000Z</time>
      </trkpt>
      <trkpt lat="46.31086" lon="6.70571">
        <ele>1046.3</ele>
        <time>2013-03-16T09:17:08.000Z</time>
      </trkpt>
      <trkpt lat="46.31086" lon="6.70572">
        <ele>1046.3</ele>
        <time>2013-03-16T09:17:09.000Z</time>
      </trkpt>
      <trkpt lat="46.31084" lon="6.70576">
        <ele>1046</ele>
        <time>2013-03-16T09:17:13.000Z</time>
      </trkpt>
      <trkpt lat="46.31083" lon="6.70578">
        <ele>1045.9</ele>
        <time>2013-03-16T09:17:14.000Z</time>
      </trkpt>
      <trkpt lat="46.31082" lon="6.70582">
        <ele>1046.2</ele>
        <time>2013-03-16T09:17:17.000Z</time>
      </trkpt>
      <trkpt lat="46.31081" lon="6.70583">
        <ele>1046</ele>
        <time>2013-03-16T09:17:18.000Z</time>
      </trkpt>
      <trkpt lat="46.31078" lon="6.70587">
        <ele>1047</ele>
        <time>2013-03-16T09:17:23.000Z</time>
      </trkpt>
      <trkpt lat="46.31077" lon="6.70588">
        <ele>1047.2</ele>
        <time>2013-03-16T09:17:24.000Z</time>
      </trkpt>
      <trkpt lat="46.31075" lon="6.70592">
        <ele>1048.3</ele>
        <time>2013-03-16T09:17:28.000Z</time>
      </trkpt>
      <trkpt lat="46.31074" lon="6.70593">
        <ele>1048.5</ele>
        <time>2013-03-16T09:17:29.000Z</time>
      </trkpt>
      <trkpt lat="46.31073" lon="6.706">
        <ele>1050.4</ele>
        <time>2013-03-16T09:17:35.000Z</time>
      </trkpt>
      <trkpt lat="46.31073" lon="6.70601">
        <ele>1050.8</ele>
        <time>2013-03-16T09:17:36.000Z</time>
      </trkpt>
      <trkpt lat="46.31073" lon="6.70606">
        <ele>1051.2</ele>
        <time>2013-03-16T09:17:40.000Z</time>
      </trkpt>
      <trkpt lat="46.31073" lon="6.70608">
        <ele>1051.3</ele>
        <time>2013-03-16T09:17:41.000Z</time>
      </trkpt>
      <trkpt lat="46.31073" lon="6.70613">
        <ele>1051.2</ele>
        <time>2013-03-16T09:17:45.000Z</time>
      </trkpt>
      <trkpt lat="46.31072" lon="6.70614">
        <ele>1051.2</ele>
        <time>2013-03-16T09:17:46.000Z</time>
      </trkpt>
      <trkpt lat="46.31071" lon="6.70619">
        <ele>1051.2</ele>
        <time>2013-03-16T09:17:50.000Z</time>
      </trkpt>
      <trkpt lat="46.3107" lon="6.70621">
        <ele>1051.2</ele>
        <time>2013-03-16T09:17:51.000Z</time>
      </trkpt>
      <trkpt lat="46.31069" lon="6.70626">
        <ele>1050.2</ele>
        <time>2013-03-16T09:17:55.000Z</time>
      </trkpt>
      <trkpt lat="46.31069" lon="6.70627">
        <ele>1050.4</ele>
        <time>2013-03-16T09:17:56.000Z</time>
      </trkpt>
      <trkpt lat="46.31068" lon="6.70633">
        <ele>1050.5</ele>
        <time>2013-03-16T09:18:01.000Z</time>
      </trkpt>
      <trkpt lat="46.31068" lon="6.70634">
        <ele>1050.8</ele>
        <time>2013-03-16T09:18:02.000Z</time>
      </trkpt>
      <trkpt lat="46.31068" lon="6.7064">
        <ele>1050.9</ele>
        <time>2013-03-16T09:18:07.000Z</time>
      </trkpt>
      <trkpt lat="46.31068" lon="6.70641">
        <ele>1051</ele>
        <time>2013-03-16T09:18:08.000Z</time>
      </trkpt>
      <trkpt lat="46.31066" lon="6.70645">
        <ele>1050.8</ele>
        <time>2013-03-16T09:18:11.000Z</time>
      </trkpt>
      <trkpt lat="46.31065" lon="6.70647">
        <ele>1051.1</ele>
        <time>2013-03-16T09:18:12.000Z</time>
      </trkpt>
      <trkpt lat="46.31065" lon="6.70653">
        <ele>1050.9</ele>
        <time>2013-03-16T09:18:17.000Z</time>
      </trkpt>
      <trkpt lat="46.31065" lon="6.70654">
        <ele>1051</ele>
        <time>2013-03-16T09:18:18.000Z</time>
      </trkpt>
      <trkpt lat="46.31062" lon="6.70659">
        <ele>1052.1</ele>
        <time>2013-03-16T09:18:22.000Z</time>
      </trkpt>
      <trkpt lat="46.31062" lon="6.7066">
        <ele>1052.4</ele>
        <time>2013-03-16T09:18:23.000Z</time>
      </trkpt>
      <trkpt lat="46.31062" lon="6.70666">
        <ele>1053.9</ele>
        <time>2013-03-16T09:18:29.000Z</time>
      </trkpt>
      <trkpt lat="46.31062" lon="6.70667">
        <ele>1054</ele>
        <time>2013-03-16T09:18:30.000Z</time>
      </trkpt>
      <trkpt lat="46.31061" lon="6.70672">
        <ele>1054</ele>
        <time>2013-03-16T09:18:35.000Z</time>
      </trkpt>
      <trkpt lat="46.31061" lon="6.70674">
        <ele>1054</ele>
        <time>2013-03-16T09:18:36.000Z</time>
      </trkpt>
      <trkpt lat="46.31062" lon="6.70679">
        <ele>1054.2</ele>
        <time>2013-03-16T09:18:40.000Z</time>
      </trkpt>
      <trkpt lat="46.31062" lon="6.7068">
        <ele>1054.5</ele>
        <time>2013-03-16T09:18:41.000Z</time>
      </trkpt>
      <trkpt lat="46.31061" lon="6.70685">
        <ele>1054.3</ele>
        <time>2013-03-16T09:18:44.000Z</time>
      </trkpt>
      <trkpt lat="46.31061" lon="6.70687">
        <ele>1054.4</ele>
        <time>2013-03-16T09:18:45.000Z</time>
      </trkpt>
      <trkpt lat="46.31061" lon="6.70693">
        <ele>1054.4</ele>
        <time>2013-03-16T09:18:50.000Z</time>
      </trkpt>
      <trkpt lat="46.3106" lon="6.70694">
        <ele>1054.3</ele>
        <time>2013-03-16T09:18:51.000Z</time>
      </trkpt>
      <trkpt lat="46.3106" lon="6.707">
        <ele>1053.9</ele>
        <time>2013-03-16T09:18:56.000Z</time>
      </trkpt>
      <trkpt lat="46.31059" lon="6.70701">
        <ele>1053.9</ele>
        <time>2013-03-16T09:18:57.000Z</time>
      </trkpt>
      <trkpt lat="46.31057" lon="6.70707">
        <ele>1054.7</ele>
        <time>2013-03-16T09:19:01.000Z</time>
      </trkpt>
      <trkpt lat="46.31057" lon="6.70708">
        <ele>1054.9</ele>
        <time>2013-03-16T09:19:02.000Z</time>
      </trkpt>
      <trkpt lat="46.31057" lon="6.70714">
        <ele>1055.3</ele>
        <time>2013-03-16T09:19:07.000Z</time>
      </trkpt>
      <trkpt lat="46.31057" lon="6.70715">
        <ele>1055.4</ele>
        <time>2013-03-16T09:19:08.000Z</time>
      </trkpt>
      <trkpt lat="46.31056" lon="6.70721">
        <ele>1056</ele>
        <time>2013-03-16T09:19:13.000Z</time>
      </trkpt>
      <trkpt lat="46.31056" lon="6.70722">
        <ele>1055.9</ele>
        <time>2013-03-16T09:19:14.000Z</time>
      </trkpt>
      <trkpt lat="46.31058" lon="6.70727">
        <ele>1057.4</ele>
        <time>2013-03-16T09:19:18.000Z</time>
      </trkpt>
      <trkpt lat="46.31057" lon="6.70728">
        <ele>1057.3</ele>
        <time>2013-03-16T09:19:19.000Z</time>
      </trkpt>
      <trkpt lat="46.31056" lon="6.70734">
        <ele>1057.2</ele>
        <time>2013-03-16T09:19:24.000Z</time>
      </trkpt>
      <trkpt lat="46.31056" lon="6.70735">
        <ele>1057.1</ele>
        <time>2013-03-16T09:19:25.000Z</time>
      </trkpt>
      <trkpt lat="46.31054" lon="6.70741">
        <ele>1057.4</ele>
        <time>2013-03-16T09:19:29.000Z</time>
      </trkpt>
      <trkpt lat="46.31054" lon="6.70743">
        <ele>1057.4</ele>
        <time>2013-03-16T09:19:30.000Z</time>
      </trkpt>
      <trkpt lat="46.31052" lon="6.70749">
        <ele>1058.1</ele>
        <time>2013-03-16T09:19:34.000Z</time>
      </trkpt>
      <trkpt lat="46.31052" lon="6.7075">
        <ele>1058.2</ele>
        <time>2013-03-16T09:19:35.000Z</time>
      </trkpt>
      <trkpt lat="46.31055" lon="6.70755">
        <ele>1058.5</ele>
        <time>2013-03-16T09:19:40.000Z</time>
      </trkpt>
      <trkpt lat="46.31055" lon="6.70756">
        <ele>1058.6</ele>
        <time>2013-03-16T09:19:41.000Z</time>
      </trkpt>
      <trkpt lat="46.31056" lon="6.70762">
        <ele>1059.2</ele>
        <time>2013-03-16T09:19:46.000Z</time>
      </trkpt>
      <trkpt lat="46.31055" lon="6.70764">
        <ele>1059.3</ele>
        <time>2013-03-16T09:19:47.000Z</time>
      </trkpt>
      <trkpt lat="46.31054" lon="6.70769">
        <ele>1059.5</ele>
        <time>2013-03-16T09:19:52.000Z</time>
      </trkpt>
      <trkpt lat="46.31054" lon="6.70771">
        <ele>1059.5</ele>
        <time>2013-03-16T09:19:53.000Z</time>
      </trkpt>
      <trkpt lat="46.31055" lon="6.70776">
        <ele>1060</ele>
        <time>2013-03-16T09:19:57.000Z</time>
      </trkpt>
      <trkpt lat="46.31054" lon="6.70777">
        <ele>1060.1</ele>
        <time>2013-03-16T09:19:58.000Z</time>
      </trkpt>
      <trkpt lat="46.31055" lon="6.70783">
        <ele>1061.9</ele>
        <time>2013-03-16T09:21:13.000Z</time>
      </trkpt>
      <trkpt lat="46.31055" lon="6.70783">
        <ele>1062.1</ele>
        <time>2013-03-16T09:21:14.000Z</time>
      </trkpt>
      <trkpt lat="46.31054" lon="6.70789">
        <ele>1062.7</ele>
        <time>2013-03-16T09:21:20.000Z</time>
      </trkpt>
      <trkpt lat="46.31054" lon="6.7079">
        <ele>1062.8</ele>
        <time>2013-03-16T09:21:21.000Z</time>
      </trkpt>
      <trkpt lat="46.31052" lon="6.70796">
        <ele>1062.6</ele>
        <time>2013-03-16T09:21:27.000Z</time>
      </trkpt>
      <trkpt lat="46.31053" lon="6.70796">
        <ele>1062.4</ele>
        <time>2013-03-16T09:21:28.000Z</time>
      </trkpt>
      <trkpt lat="46.31054" lon="6.70803">
        <ele>1063.5</ele>
        <time>2013-03-16T09:21:35.000Z</time>
      </trkpt>
      <trkpt lat="46.31054" lon="6.70803">
        <ele>1064.1</ele>
        <time>2013-03-16T09:21:36.000Z</time>
      </trkpt>
      <trkpt lat="46.31057" lon="6.70807">
        <ele>1066.5</ele>
        <time>2013-03-16T09:22:02.000Z</time>
      </trkpt>
      <trkpt lat="46.31058" lon="6.70808">
        <ele>1066.6</ele>
        <time>2013-03-16T09:22:03.000Z</time>
      </trkpt>
      <trkpt lat="46.31057" lon="6.70814">
        <ele>1066.6</ele>
        <time>2013-03-16T09:22:07.000Z</time>
      </trkpt>
      <trkpt lat="46.31057" lon="6.70815">
        <ele>1066.4</ele>
        <time>2013-03-16T09:22:08.000Z</time>
      </trkpt>
      <trkpt lat="46.31056" lon="6.70821">
        <ele>1066.5</ele>
        <time>2013-03-16T09:22:12.000Z</time>
      </trkpt>
      <trkpt lat="46.31056" lon="6.70822">
        <ele>1066.4</ele>
        <time>2013-03-16T09:22:13.000Z</time>
      </trkpt>
      <trkpt lat="46.31056" lon="6.70827">
        <ele>1066.3</ele>
        <time>2013-03-16T09:22:16.000Z</time>
      </trkpt>
      <trkpt lat="46.31056" lon="6.70829">
        <ele>1066.2</ele>
        <time>2013-03-16T09:22:17.000Z</time>
      </trkpt>
      <trkpt lat="46.31055" lon="6.70834">
        <ele>1066</ele>
        <time>2013-03-16T09:22:20.000Z</time>
      </trkpt>
      <trkpt lat="46.31054" lon="6.70836">
        <ele>1066.1</ele>
        <time>2013-03-16T09:22:21.000Z</time>
      </trkpt>
      <trkpt lat="46.31051" lon="6.7084">
        <ele>1066</ele>
        <time>2013-03-16T09:22:24.000Z</time>
      </trkpt>
      <trkpt lat="46.31051" lon="6.70842">
        <ele>1065.9</ele>
        <time>2013-03-16T09:22:25.000Z</time>
      </trkpt>
      <trkpt lat="46.31049" lon="6.70848">
        <ele>1066.5</ele>
        <time>2013-03-16T09:22:29.000Z</time>
      </trkpt>
      <trkpt lat="46.31049" lon="6.70849">
        <ele>1066.7</ele>
        <time>2013-03-16T09:22:30.000Z</time>
      </trkpt>
      <trkpt lat="46.3105" lon="6.70854">
        <ele>1067.4</ele>
        <time>2013-03-16T09:22:35.000Z</time>
      </trkpt>
      <trkpt lat="46.31051" lon="6.70855">
        <ele>1067.5</ele>
        <time>2013-03-16T09:22:36.000Z</time>
      </trkpt>
      <trkpt lat="46.31052" lon="6.70861">
        <ele>1067.2</ele>
        <time>2013-03-16T09:22:43.000Z</time>
      </trkpt>
      <trkpt lat="46.31052" lon="6.70862">
        <ele>1067.3</ele>
        <time>2013-03-16T09:22:44.000Z</time>
      </trkpt>
      <trkpt lat="46.31054" lon="6.70867">
        <ele>1067.4</ele>
        <time>2013-03-16T09:22:50.000Z</time>
      </trkpt>
      <trkpt lat="46.31054" lon="6.70868">
        <ele>1067.6</ele>
        <time>2013-03-16T09:22:51.000Z</time>
      </trkpt>
      <trkpt lat="46.31056" lon="6.70873">
        <ele>1067.6</ele>
        <time>2013-03-16T09:22:57.000Z</time>
      </trkpt>
      <trkpt lat="46.31057" lon="6.70874">
        <ele>1067.6</ele>
        <time>2013-03-16T09:22:58.000Z</time>
      </trkpt>
      <trkpt lat="46.3106" lon="6.70879">
        <ele>1068.3</ele>
        <time>2013-03-16T09:23:03.000Z</time>
      </trkpt>
      <trkpt lat="46.3106" lon="6.7088">
        <ele>1068.3</ele>
        <time>2013-03-16T09:23:04.000Z</time>
      </trkpt>
      <trkpt lat="46.31062" lon="6.70884">
        <ele>1068.6</ele>
        <time>2013-03-16T09:23:08.000Z</time>
      </trkpt>
      <trkpt lat="46.31063" lon="6.70885">
        <ele>1068.7</ele>
        <time>2013-03-16T09:23:09.000Z</time>
      </trkpt>
      <trkpt lat="46.31064" lon="6.70891">
        <ele>1070.1</ele>
        <time>2013-03-16T09:23:16.000Z</time>
      </trkpt>
      <trkpt lat="46.31064" lon="6.70891">
        <ele>1070.4</ele>
        <time>2013-03-16T09:23:17.000Z</time>
      </trkpt>
      <trkpt lat="46.31065" lon="6.70896">
        <ele>1071.2</ele>
        <time>2013-03-16T09:23:22.000Z</time>
      </trkpt>
      <trkpt lat="46.31065" lon="6.70898">
        <ele>1071.2</ele>
        <time>2013-03-16T09:23:23.000Z</time>
      </trkpt>
      <trkpt lat="46.31066" lon="6.70903">
        <ele>1070.7</ele>
        <time>2013-03-16T09:23:31.000Z</time>
      </trkpt>
      <trkpt lat="46.31066" lon="6.70904">
        <ele>1070.8</ele>
        <time>2013-03-16T09:23:32.000Z</time>
      </trkpt>
      <trkpt lat="46.31067" lon="6.7091">
        <ele>1072</ele>
        <time>2013-03-16T09:23:38.000Z</time>
      </trkpt>
      <trkpt lat="46.31067" lon="6.70911">
        <ele>1072.1</ele>
        <time>2013-03-16T09:23:39.000Z</time>
      </trkpt>
      <trkpt lat="46.31065" lon="6.70917">
        <ele>1073.1</ele>
        <time>2013-03-16T09:23:43.000Z</time>
      </trkpt>
      <trkpt lat="46.31064" lon="6.70918">
        <ele>1073.3</ele>
        <time>2013-03-16T09:23:44.000Z</time>
      </trkpt>
      <trkpt lat="46.31064" lon="6.70924">
        <ele>1074.1</ele>
        <time>2013-03-16T09:23:50.000Z</time>
      </trkpt>
      <trkpt lat="46.31064" lon="6.70924">
        <ele>1074.3</ele>
        <time>2013-03-16T09:23:51.000Z</time>
      </trkpt>
      <trkpt lat="46.31067" lon="6.7093">
        <ele>1076.1</ele>
        <time>2013-03-16T09:23:57.000Z</time>
      </trkpt>
      <trkpt lat="46.31067" lon="6.70931">
        <ele>1076.4</ele>
        <time>2013-03-16T09:23:58.000Z</time>
      </trkpt>
      <trkpt lat="46.31069" lon="6.70936">
        <ele>1078.9</ele>
        <time>2013-03-16T09:24:03.000Z</time>
      </trkpt>
      <trkpt lat="46.31069" lon="6.70937">
        <ele>1079.1</ele>
        <time>2013-03-16T09:24:04.000Z</time>
      </trkpt>
      <trkpt lat="46.31067" lon="6.70943">
        <ele>1079.3</ele>
        <time>2013-03-16T09:24:11.000Z</time>
      </trkpt>
      <trkpt lat="46.31067" lon="6.70944">
        <ele>1079.4</ele>
        <time>2013-03-16T09:24:12.000Z</time>
      </trkpt>
      <trkpt lat="46.31068" lon="6.70949">
        <ele>1080</ele>
        <time>2013-03-16T09:24:18.000Z</time>
      </trkpt>
      <trkpt lat="46.31068" lon="6.7095">
        <ele>1080.4</ele>
        <time>2013-03-16T09:24:19.000Z</time>
      </trkpt>
      <trkpt lat="46.31072" lon="6.7095">
        <ele>1081.1</ele>
        <time>2013-03-16T09:24:21.000Z</time>
      </trkpt>
      <trkpt lat="46.31073" lon="6.7095">
        <ele>1081.1</ele>
        <time>2013-03-16T09:24:22.000Z</time>
      </trkpt>
      <trkpt lat="46.31074" lon="6.70956">
        <ele>1081.5</ele>
        <time>2013-03-16T09:24:29.000Z</time>
      </trkpt>
      <trkpt lat="46.31075" lon="6.70956">
        <ele>1081.5</ele>
        <time>2013-03-16T09:24:30.000Z</time>
      </trkpt>
      <trkpt lat="46.31076" lon="6.70962">
        <ele>1081.7</ele>
        <time>2013-03-16T09:24:37.000Z</time>
      </trkpt>
      <trkpt lat="46.31076" lon="6.70963">
        <ele>1081.8</ele>
        <time>2013-03-16T09:24:38.000Z</time>
      </trkpt>
      <trkpt lat="46.31074" lon="6.70968">
        <ele>1081.1</ele>
        <time>2013-03-16T09:24:59.000Z</time>
      </trkpt>
      <trkpt lat="46.31074" lon="6.70969">
        <ele>1080.8</ele>
        <time>2013-03-16T09:25:00.000Z</time>
      </trkpt>
      <trkpt lat="46.31074" lon="6.70975">
        <ele>1081</ele>
        <time>2013-03-16T09:25:08.000Z</time>
      </trkpt>
      <trkpt lat="46.31073" lon="6.70976">
        <ele>1081</ele>
        <time>2013-03-16T09:25:09.000Z</time>
      </trkpt>
      <trkpt lat="46.31075" lon="6.70982">
        <ele>1081.2</ele>
        <time>2013-03-16T09:25:17.000Z</time>
      </trkpt>
      <trkpt lat="46.31075" lon="6.70982">
        <ele>1081</ele>
        <time>2013-03-16T09:25:18.000Z</time>
      </trkpt>
      <trkpt lat="46.31077" lon="6.70988">
        <ele>1081.7</ele>
        <time>2013-03-16T09:25:24.000Z</time>
      </trkpt>
      <trkpt lat="46.31077" lon="6.70989">
        <ele>1081.8</ele>
        <time>2013-03-16T09:25:25.000Z</time>
      </trkpt>
      <trkpt lat="46.31079" lon="6.70994">
        <ele>1082.7</ele>
        <time>2013-03-16T09:25:31.000Z</time>
      </trkpt>
      <trkpt lat="46.31079" lon="6.70996">
        <ele>1082.6</ele>
        <time>2013-03-16T09:25:32.000Z</time>
      </trkpt>
      <trkpt lat="46.3108" lon="6.71001">
        <ele>1082.7</ele>
        <time>2013-03-16T09:25:38.000Z</time>
      </trkpt>
      <trkpt lat="46.31081" lon="6.71002">
        <ele>1082.9</ele>
        <time>2013-03-16T09:25:39.000Z</time>
      </trkpt>
      <trkpt lat="46.31082" lon="6.71008">
        <ele>1083.6</ele>
        <time>2013-03-16T09:25:45.000Z</time>
      </trkpt>
      <trkpt lat="46.31083" lon="6.71009">
        <ele>1083.6</ele>
        <time>2013-03-16T09:25:46.000Z</time>
      </trkpt>
      <trkpt lat="46.31086" lon="6.71013">
        <ele>1084.3</ele>
        <time>2013-03-16T09:25:51.000Z</time>
      </trkpt>
      <trkpt lat="46.31086" lon="6.71014">
        <ele>1084.4</ele>
        <time>2013-03-16T09:25:52.000Z</time>
      </trkpt>
      <trkpt lat="46.31088" lon="6.71018">
        <ele>1084.6</ele>
        <time>2013-03-16T09:25:56.000Z</time>
      </trkpt>
      <trkpt lat="46.31089" lon="6.71019">
        <ele>1084.4</ele>
        <time>2013-03-16T09:25:57.000Z</time>
      </trkpt>
      <trkpt lat="46.31089" lon="6.71026">
        <ele>1084.4</ele>
        <time>2013-03-16T09:26:02.000Z</time>
      </trkpt>
      <trkpt lat="46.3109" lon="6.71027">
        <ele>1084.3</ele>
        <time>2013-03-16T09:26:03.000Z</time>
      </trkpt>
      <trkpt lat="46.31092" lon="6.71032">
        <ele>1083.9</ele>
        <time>2013-03-16T09:26:08.000Z</time>
      </trkpt>
      <trkpt lat="46.31092" lon="6.71033">
        <ele>1083.5</ele>
        <time>2013-03-16T09:26:09.000Z</time>
      </trkpt>
      <trkpt lat="46.31094" lon="6.71039">
        <ele>1084.1</ele>
        <time>2013-03-16T09:26:14.000Z</time>
      </trkpt>
      <trkpt lat="46.31095" lon="6.7104">
        <ele>1084.2</ele>
        <time>2013-03-16T09:26:15.000Z</time>
      </trkpt>
      <trkpt lat="46.31096" lon="6.71046">
        <ele>1084.7</ele>
        <time>2013-03-16T09:26:21.000Z</time>
      </trkpt>
      <trkpt lat="46.31095" lon="6.71047">
        <ele>1085</ele>
        <time>2013-03-16T09:26:22.000Z</time>
      </trkpt>
      <trkpt lat="46.31095" lon="6.71053">
        <ele>1085.5</ele>
        <time>2013-03-16T09:26:28.000Z</time>
      </trkpt>
      <trkpt lat="46.31095" lon="6.71054">
        <ele>1085.7</ele>
        <time>2013-03-16T09:26:29.000Z</time>
      </trkpt>
      <trkpt lat="46.31097" lon="6.7106">
        <ele>1086.6</ele>
        <time>2013-03-16T09:26:35.000Z</time>
      </trkpt>
      <trkpt lat="46.31097" lon="6.71061">
        <ele>1086.6</ele>
        <time>2013-03-16T09:26:36.000Z</time>
      </trkpt>
      <trkpt lat="46.31099" lon="6.71066">
        <ele>1087.3</ele>
        <time>2013-03-16T09:26:42.000Z</time>
      </trkpt>
      <trkpt lat="46.31099" lon="6.71067">
        <ele>1087.5</ele>
        <time>2013-03-16T09:26:43.000Z</time>
      </trkpt>
      <trkpt lat="46.31101" lon="6.71073">
        <ele>1089.9</ele>
        <time>2013-03-16T09:26:49.000Z</time>
      </trkpt>
      <trkpt lat="46.311" lon="6.71074">
        <ele>1089.8</ele>
        <time>2013-03-16T09:26:50.000Z</time>
      </trkpt>
      <trkpt lat="46.31101" lon="6.7108">
        <ele>1089.7</ele>
        <time>2013-03-16T09:26:55.000Z</time>
      </trkpt>
      <trkpt lat="46.31101" lon="6.71081">
        <ele>1089.8</ele>
        <time>2013-03-16T09:26:56.000Z</time>
      </trkpt>
      <trkpt lat="46.31099" lon="6.71086">
        <ele>1090.3</ele>
        <time>2013-03-16T09:27:00.000Z</time>
      </trkpt>
      <trkpt lat="46.31099" lon="6.71087">
        <ele>1090.2</ele>
        <time>2013-03-16T09:27:01.000Z</time>
      </trkpt>
      <trkpt lat="46.31101" lon="6.71092">
        <ele>1090.1</ele>
        <time>2013-03-16T09:27:06.000Z</time>
      </trkpt>
      <trkpt lat="46.31102" lon="6.71093">
        <ele>1090.4</ele>
        <time>2013-03-16T09:27:07.000Z</time>
      </trkpt>
      <trkpt lat="46.31103" lon="6.71098">
        <ele>1091.3</ele>
        <time>2013-03-16T09:27:12.000Z</time>
      </trkpt>
      <trkpt lat="46.31103" lon="6.71099">
        <ele>1091.3</ele>
        <time>2013-03-16T09:27:13.000Z</time>
      </trkpt>
      <trkpt lat="46.31105" lon="6.71104">
        <ele>1091.8</ele>
        <time>2013-03-16T09:27:17.000Z</time>
      </trkpt>
      <trkpt lat="46.31106" lon="6.71105">
        <ele>1091.8</ele>
        <time>2013-03-16T09:27:18.000Z</time>
      </trkpt>
      <trkpt lat="46.31108" lon="6.71109">
        <ele>1091.4</ele>
        <time>2013-03-16T09:27:22.000Z</time>
      </trkpt>
      <trkpt lat="46.31109" lon="6.7111">
        <ele>1091.4</ele>
        <time>2013-03-16T09:27:23.000Z</time>
      </trkpt>
      <trkpt lat="46.31112" lon="6.71115">
        <ele>1091.5</ele>
        <time>2013-03-16T09:27:28.000Z</time>
      </trkpt>
      <trkpt lat="46.31112" lon="6.71116">
        <ele>1091.7</ele>
        <time>2013-03-16T09:27:29.000Z</time>
      </trkpt>
      <trkpt lat="46.31114" lon="6.7112">
        <ele>1091.4</ele>
        <time>2013-03-16T09:27:33.000Z</time>
      </trkpt>
      <trkpt lat="46.31115" lon="6.71121">
        <ele>1091.4</ele>
        <time>2013-03-16T09:27:34.000Z</time>
      </trkpt>
      <trkpt lat="46.31116" lon="6.71127">
        <ele>1090.1</ele>
        <time>2013-03-16T09:27:40.000Z</time>
      </trkpt>
      <trkpt lat="46.31116" lon="6.71128">
        <ele>1089.9</ele>
        <time>2013-03-16T09:27:41.000Z</time>
      </trkpt>
      <trkpt lat="46.3112" lon="6.71132">
        <ele>1089.8</ele>
        <time>2013-03-16T09:27:45.000Z</time>
      </trkpt>
      <trkpt lat="46.31121" lon="6.71133">
        <ele>1089.9</ele>
        <time>2013-03-16T09:27:46.000Z</time>
      </trkpt>
      <trkpt lat="46.31123" lon="6.71138">
        <ele>1089.5</ele>
        <time>2013-03-16T09:27:51.000Z</time>
      </trkpt>
      <trkpt lat="46.31124" lon="6.71139">
        <ele>1089.5</ele>
        <time>2013-03-16T09:27:52.000Z</time>
      </trkpt>
      <trkpt lat="46.31126" lon="6.71143">
        <ele>1090.5</ele>
        <time>2013-03-16T09:28:19.000Z</time>
      </trkpt>
      <trkpt lat="46.31127" lon="6.71143">
        <ele>1090.4</ele>
        <time>2013-03-16T09:28:20.000Z</time>
      </trkpt>
      <trkpt lat="46.31131" lon="6.71142">
        <ele>1090.5</ele>
        <time>2013-03-16T09:28:23.000Z</time>
      </trkpt>
      <trkpt lat="46.31132" lon="6.71142">
        <ele>1090.7</ele>
        <time>2013-03-16T09:28:24.000Z</time>
      </trkpt>
      <trkpt lat="46.31134" lon="6.71141">
        <ele>1091</ele>
        <time>2013-03-16T09:31:35.000Z</time>
      </trkpt>
      <trkpt lat="46.3112" lon="6.71149">
        <ele>1095.9</ele>
        <time>2013-03-16T09:31:36.000Z</time>
      </trkpt>
      <trkpt lat="46.31124" lon="6.71151">
        <ele>1096.3</ele>
        <time>2013-03-16T09:31:42.000Z</time>
      </trkpt>
      <trkpt lat="46.31125" lon="6.71151">
        <ele>1096.3</ele>
        <time>2013-03-16T09:31:43.000Z</time>
      </trkpt>
      <trkpt lat="46.3113" lon="6.71151">
        <ele>1096.4</ele>
        <time>2013-03-16T09:31:47.000Z</time>
      </trkpt>
      <trkpt lat="46.31131" lon="6.71151">
        <ele>1096.6</ele>
        <time>2013-03-16T09:31:48.000Z</time>
      </trkpt>
      <trkpt lat="46.31135" lon="6.71152">
        <ele>1096.9</ele>
        <time>2013-03-16T09:31:52.000Z</time>
      </trkpt>
      <trkpt lat="46.31136" lon="6.71153">
        <ele>1096.8</ele>
        <time>2013-03-16T09:31:53.000Z</time>
      </trkpt>
      <trkpt lat="46.31139" lon="6.71154">
        <ele>1097.2</ele>
        <time>2013-03-16T09:31:57.000Z</time>
      </trkpt>
      <trkpt lat="46.3114" lon="6.71154">
        <ele>1097.2</ele>
        <time>2013-03-16T09:31:58.000Z</time>
      </trkpt>
      <trkpt lat="46.31142" lon="6.71155">
        <ele>1098.1</ele>
        <time>2013-03-16T09:32:02.000Z</time>
      </trkpt>
      <trkpt lat="46.31145" lon="6.71156">
        <ele>1098.4</ele>
        <time>2013-03-16T09:32:03.000Z</time>
      </trkpt>
      <trkpt lat="46.31149" lon="6.71157">
        <ele>1098.7</ele>
        <time>2013-03-16T09:32:07.000Z</time>
      </trkpt>
      <trkpt lat="46.3115" lon="6.71157">
        <ele>1098.8</ele>
        <time>2013-03-16T09:32:08.000Z</time>
      </trkpt>
      <trkpt lat="46.31153" lon="6.71159">
        <ele>1100.1</ele>
        <time>2013-03-16T09:32:14.000Z</time>
      </trkpt>
      <trkpt lat="46.31154" lon="6.71159">
        <ele>1100.2</ele>
        <time>2013-03-16T09:32:15.000Z</time>
      </trkpt>
      <trkpt lat="46.31156" lon="6.71161">
        <ele>1100.6</ele>
        <time>2013-03-16T09:32:23.000Z</time>
      </trkpt>
      <trkpt lat="46.31162" lon="6.71164">
        <ele>1101.6</ele>
        <time>2013-03-16T09:32:24.000Z</time>
      </trkpt>
      <trkpt lat="46.31165" lon="6.71168">
        <ele>1101</ele>
        <time>2013-03-16T09:32:28.000Z</time>
      </trkpt>
      <trkpt lat="46.31166" lon="6.71168">
        <ele>1101.1</ele>
        <time>2013-03-16T09:32:29.000Z</time>
      </trkpt>
      <trkpt lat="46.3117" lon="6.71171">
        <ele>1101.1</ele>
        <time>2013-03-16T09:32:33.000Z</time>
      </trkpt>
      <trkpt lat="46.31171" lon="6.71172">
        <ele>1101.3</ele>
        <time>2013-03-16T09:32:34.000Z</time>
      </trkpt>
      <trkpt lat="46.31173" lon="6.71176">
        <ele>1101.1</ele>
        <time>2013-03-16T09:32:38.000Z</time>
      </trkpt>
      <trkpt lat="46.31174" lon="6.71178">
        <ele>1101.1</ele>
        <time>2013-03-16T09:32:39.000Z</time>
      </trkpt>
      <trkpt lat="46.31176" lon="6.71182">
        <ele>1101.5</ele>
        <time>2013-03-16T09:32:42.000Z</time>
      </trkpt>
      <trkpt lat="46.31178" lon="6.71183">
        <ele>1101.2</ele>
        <time>2013-03-16T09:32:43.000Z</time>
      </trkpt>
      <trkpt lat="46.31181" lon="6.71187">
        <ele>1101.8</ele>
        <time>2013-03-16T09:32:48.000Z</time>
      </trkpt>
      <trkpt lat="46.31181" lon="6.71188">
        <ele>1101.9</ele>
        <time>2013-03-16T09:32:49.000Z</time>
      </trkpt>
      <trkpt lat="46.31183" lon="6.71191">
        <ele>1102.3</ele>
        <time>2013-03-16T09:32:52.000Z</time>
      </trkpt>
      <trkpt lat="46.31184" lon="6.71193">
        <ele>1102.3</ele>
        <time>2013-03-16T09:32:53.000Z</time>
      </trkpt>
      <trkpt lat="46.31187" lon="6.71196">
        <ele>1102.7</ele>
        <time>2013-03-16T09:32:55.000Z</time>
      </trkpt>
      <trkpt lat="46.31188" lon="6.71197">
        <ele>1103.1</ele>
        <time>2013-03-16T09:32:56.000Z</time>
      </trkpt>
      <trkpt lat="46.31189" lon="6.71203">
        <ele>1103.5</ele>
        <time>2013-03-16T09:33:01.000Z</time>
      </trkpt>
      <trkpt lat="46.31189" lon="6.71204">
        <ele>1103.6</ele>
        <time>2013-03-16T09:33:02.000Z</time>
      </trkpt>
      <trkpt lat="46.31189" lon="6.7121">
        <ele>1104.4</ele>
        <time>2013-03-16T09:33:08.000Z</time>
      </trkpt>
      <trkpt lat="46.31189" lon="6.71212">
        <ele>1104.4</ele>
        <time>2013-03-16T09:33:09.000Z</time>
      </trkpt>
      <trkpt lat="46.31192" lon="6.71216">
        <ele>1104.7</ele>
        <time>2013-03-16T09:33:13.000Z</time>
      </trkpt>
      <trkpt lat="46.31192" lon="6.71217">
        <ele>1104.9</ele>
        <time>2013-03-16T09:33:14.000Z</time>
      </trkpt>
      <trkpt lat="46.31195" lon="6.71221">
        <ele>1105.2</ele>
        <time>2013-03-16T09:33:18.000Z</time>
      </trkpt>
      <trkpt lat="46.31195" lon="6.71222">
        <ele>1105.3</ele>
        <time>2013-03-16T09:33:19.000Z</time>
      </trkpt>
      <trkpt lat="46.31196" lon="6.71228">
        <ele>1106.6</ele>
        <time>2013-03-16T09:33:25.000Z</time>
      </trkpt>
      <trkpt lat="46.31196" lon="6.71229">
        <ele>1107.2</ele>
        <time>2013-03-16T09:33:26.000Z</time>
      </trkpt>
      <trkpt lat="46.31198" lon="6.71235">
        <ele>1108.5</ele>
        <time>2013-03-16T09:33:31.000Z</time>
      </trkpt>
      <trkpt lat="46.31197" lon="6.71237">
        <ele>1108.9</ele>
        <time>2013-03-16T09:33:32.000Z</time>
      </trkpt>
      <trkpt lat="46.31199" lon="6.71242">
        <ele>1109.7</ele>
        <time>2013-03-16T09:33:37.000Z</time>
      </trkpt>
      <trkpt lat="46.312" lon="6.71243">
        <ele>1109.5</ele>
        <time>2013-03-16T09:33:38.000Z</time>
      </trkpt>
      <trkpt lat="46.312" lon="6.71249">
        <ele>1109.7</ele>
        <time>2013-03-16T09:33:43.000Z</time>
      </trkpt>
      <trkpt lat="46.31201" lon="6.7125">
        <ele>1109.7</ele>
        <time>2013-03-16T09:33:44.000Z</time>
      </trkpt>
      <trkpt lat="46.312" lon="6.7125">
        <ele>1109.8</ele>
        <time>2013-03-16T09:33:54.000Z</time>
      </trkpt>
      <trkpt lat="46.31204" lon="6.71255">
        <ele>1111.4</ele>
        <time>2013-03-16T09:33:55.000Z</time>
      </trkpt>
      <trkpt lat="46.31208" lon="6.71258">
        <ele>1111.5</ele>
        <time>2013-03-16T09:34:00.000Z</time>
      </trkpt>
      <trkpt lat="46.3121" lon="6.71259">
        <ele>1111.4</ele>
        <time>2013-03-16T09:34:01.000Z</time>
      </trkpt>
      <trkpt lat="46.31212" lon="6.71263">
        <ele>1111.7</ele>
        <time>2013-03-16T09:34:06.000Z</time>
      </trkpt>
      <trkpt lat="46.31213" lon="6.71264">
        <ele>1111.8</ele>
        <time>2013-03-16T09:34:07.000Z</time>
      </trkpt>
      <trkpt lat="46.31215" lon="6.71269">
        <ele>1111.1</ele>
        <time>2013-03-16T09:34:12.000Z</time>
      </trkpt>
      <trkpt lat="46.31216" lon="6.7127">
        <ele>1110.9</ele>
        <time>2013-03-16T09:34:13.000Z</time>
      </trkpt>
      <trkpt lat="46.31218" lon="6.71275">
        <ele>1111.1</ele>
        <time>2013-03-16T09:34:17.000Z</time>
      </trkpt>
      <trkpt lat="46.31218" lon="6.71276">
        <ele>1110.7</ele>
        <time>2013-03-16T09:34:18.000Z</time>
      </trkpt>
      <trkpt lat="46.31219" lon="6.71281">
        <ele>1109.8</ele>
        <time>2013-03-16T09:34:21.000Z</time>
      </trkpt>
      <trkpt lat="46.31219" lon="6.71283">
        <ele>1109.7</ele>
        <time>2013-03-16T09:34:22.000Z</time>
      </trkpt>
      <trkpt lat="46.3122" lon="6.71288">
        <ele>1109.1</ele>
        <time>2013-03-16T09:34:26.000Z</time>
      </trkpt>
      <trkpt lat="46.31221" lon="6.7129">
        <ele>1108.9</ele>
        <time>2013-03-16T09:34:27.000Z</time>
      </trkpt>
      <trkpt lat="46.31221" lon="6.71295">
        <ele>1108.2</ele>
        <time>2013-03-16T09:34:30.000Z</time>
      </trkpt>
      <trkpt lat="46.31221" lon="6.71296">
        <ele>1108.2</ele>
        <time>2013-03-16T09:34:31.000Z</time>
      </trkpt>
      <trkpt lat="46.31221" lon="6.71301">
        <ele>1109</ele>
        <time>2013-03-16T09:34:34.000Z</time>
      </trkpt>
      <trkpt lat="46.31221" lon="6.71303">
        <ele>1109.1</ele>
        <time>2013-03-16T09:34:35.000Z</time>
      </trkpt>
      <trkpt lat="46.31223" lon="6.71308">
        <ele>1109.2</ele>
        <time>2013-03-16T09:34:38.000Z</time>
      </trkpt>
      <trkpt lat="46.31223" lon="6.7131">
        <ele>1109</ele>
        <time>2013-03-16T09:34:39.000Z</time>
      </trkpt>
      <trkpt lat="46.31222" lon="6.71316">
        <ele>1108.7</ele>
        <time>2013-03-16T09:34:42.000Z</time>
      </trkpt>
      <trkpt lat="46.31222" lon="6.71318">
        <ele>1108.6</ele>
        <time>2013-03-16T09:34:43.000Z</time>
      </trkpt>
      <trkpt lat="46.31222" lon="6.71324">
        <ele>1109.1</ele>
        <time>2013-03-16T09:34:47.000Z</time>
      </trkpt>
      <trkpt lat="46.31222" lon="6.71325">
        <ele>1109.5</ele>
        <time>2013-03-16T09:34:48.000Z</time>
      </trkpt>
      <trkpt lat="46.31225" lon="6.71328">
        <ele>1110</ele>
        <time>2013-03-16T09:34:52.000Z</time>
      </trkpt>
      <trkpt lat="46.31226" lon="6.71329">
        <ele>1110.5</ele>
        <time>2013-03-16T09:34:53.000Z</time>
      </trkpt>
      <trkpt lat="46.31227" lon="6.7133">
        <ele>1110.7</ele>
        <time>2013-03-16T09:34:54.000Z</time>
      </trkpt>
      <trkpt lat="46.31255" lon="6.71343">
        <ele>1118.2</ele>
        <time>2013-03-16T09:35:15.000Z</time>
      </trkpt>
      <trkpt lat="46.31258" lon="6.71347">
        <ele>1119.9</ele>
        <time>2013-03-16T09:35:19.000Z</time>
      </trkpt>
      <trkpt lat="46.31259" lon="6.71348">
        <ele>1120.3</ele>
        <time>2013-03-16T09:35:20.000Z</time>
      </trkpt>
      <trkpt lat="46.31263" lon="6.71353">
        <ele>1121.5</ele>
        <time>2013-03-16T09:35:24.000Z</time>
      </trkpt>
      <trkpt lat="46.31263" lon="6.71354">
        <ele>1122.5</ele>
        <time>2013-03-16T09:35:25.000Z</time>
      </trkpt>
      <trkpt lat="46.31265" lon="6.71359">
        <ele>1121.3</ele>
        <time>2013-03-16T09:35:28.000Z</time>
      </trkpt>
      <trkpt lat="46.31266" lon="6.71361">
        <ele>1119.2</ele>
        <time>2013-03-16T09:35:29.000Z</time>
      </trkpt>
      <trkpt lat="46.31264" lon="6.71366">
        <ele>1120.9</ele>
        <time>2013-03-16T09:35:32.000Z</time>
      </trkpt>
      <trkpt lat="46.31264" lon="6.71368">
        <ele>1121.4</ele>
        <time>2013-03-16T09:35:33.000Z</time>
      </trkpt>
      <trkpt lat="46.31263" lon="6.71373">
        <ele>1120.7</ele>
        <time>2013-03-16T09:35:36.000Z</time>
      </trkpt>
      <trkpt lat="46.31263" lon="6.71375">
        <ele>1120.6</ele>
        <time>2013-03-16T09:35:37.000Z</time>
      </trkpt>
      <trkpt lat="46.31263" lon="6.71381">
        <ele>1121.8</ele>
        <time>2013-03-16T09:35:41.000Z</time>
      </trkpt>
      <trkpt lat="46.31263" lon="6.71383">
        <ele>1122.8</ele>
        <time>2013-03-16T09:35:42.000Z</time>
      </trkpt>
      <trkpt lat="46.31263" lon="6.71388">
        <ele>1124.2</ele>
        <time>2013-03-16T09:35:45.000Z</time>
      </trkpt>
      <trkpt lat="46.31263" lon="6.7139">
        <ele>1124.3</ele>
        <time>2013-03-16T09:35:46.000Z</time>
      </trkpt>
      <trkpt lat="46.31264" lon="6.71396">
        <ele>1125.9</ele>
        <time>2013-03-16T09:35:50.000Z</time>
      </trkpt>
      <trkpt lat="46.31264" lon="6.71397">
        <ele>1126.1</ele>
        <time>2013-03-16T09:35:51.000Z</time>
      </trkpt>
      <trkpt lat="46.31265" lon="6.71402">
        <ele>1127.4</ele>
        <time>2013-03-16T09:35:54.000Z</time>
      </trkpt>
      <trkpt lat="46.31265" lon="6.71404">
        <ele>1128.1</ele>
        <time>2013-03-16T09:35:55.000Z</time>
      </trkpt>
      <trkpt lat="46.31266" lon="6.7141">
        <ele>1128.5</ele>
        <time>2013-03-16T09:36:00.000Z</time>
      </trkpt>
      <trkpt lat="46.31266" lon="6.71411">
        <ele>1128.9</ele>
        <time>2013-03-16T09:36:01.000Z</time>
      </trkpt>
      <trkpt lat="46.31268" lon="6.71416">
        <ele>1130</ele>
        <time>2013-03-16T09:36:05.000Z</time>
      </trkpt>
      <trkpt lat="46.31269" lon="6.71416">
        <ele>1130.1</ele>
        <time>2013-03-16T09:36:06.000Z</time>
      </trkpt>
      <trkpt lat="46.31271" lon="6.71418">
        <ele>1129.9</ele>
        <time>2013-03-16T09:36:08.000Z</time>
      </trkpt>
      <trkpt lat="46.31274" lon="6.71419">
        <ele>1129.5</ele>
        <time>2013-03-16T09:36:09.000Z</time>
      </trkpt>
      <trkpt lat="46.31277" lon="6.71422">
        <ele>1128.9</ele>
        <time>2013-03-16T09:36:12.000Z</time>
      </trkpt>
      <trkpt lat="46.31279" lon="6.71423">
        <ele>1129</ele>
        <time>2013-03-16T09:36:13.000Z</time>
      </trkpt>
      <trkpt lat="46.31282" lon="6.71426">
        <ele>1129.8</ele>
        <time>2013-03-16T09:36:16.000Z</time>
      </trkpt>
      <trkpt lat="46.31283" lon="6.71427">
        <ele>1129.9</ele>
        <time>2013-03-16T09:36:17.000Z</time>
      </trkpt>
      <trkpt lat="46.31286" lon="6.7143">
        <ele>1129.1</ele>
        <time>2013-03-16T09:36:20.000Z</time>
      </trkpt>
      <trkpt lat="46.31288" lon="6.71432">
        <ele>1128.7</ele>
        <time>2013-03-16T09:36:21.000Z</time>
      </trkpt>
      <trkpt lat="46.31291" lon="6.71435">
        <ele>1128.4</ele>
        <time>2013-03-16T09:36:24.000Z</time>
      </trkpt>
      <trkpt lat="46.31291" lon="6.71437">
        <ele>1128.3</ele>
        <time>2013-03-16T09:36:25.000Z</time>
      </trkpt>
      <trkpt lat="46.31294" lon="6.7144">
        <ele>1128</ele>
        <time>2013-03-16T09:36:28.000Z</time>
      </trkpt>
      <trkpt lat="46.31294" lon="6.71442">
        <ele>1127.6</ele>
        <time>2013-03-16T09:36:29.000Z</time>
      </trkpt>
      <trkpt lat="46.31296" lon="6.71446">
        <ele>1127.5</ele>
        <time>2013-03-16T09:36:32.000Z</time>
      </trkpt>
      <trkpt lat="46.31297" lon="6.71448">
        <ele>1127.5</ele>
        <time>2013-03-16T09:36:33.000Z</time>
      </trkpt>
      <trkpt lat="46.31299" lon="6.71452">
        <ele>1127.6</ele>
        <time>2013-03-16T09:36:37.000Z</time>
      </trkpt>
      <trkpt lat="46.313" lon="6.71453">
        <ele>1127.6</ele>
        <time>2013-03-16T09:36:38.000Z</time>
      </trkpt>
      <trkpt lat="46.31303" lon="6.71457">
        <ele>1127.9</ele>
        <time>2013-03-16T09:36:41.000Z</time>
      </trkpt>
      <trkpt lat="46.31303" lon="6.71458">
        <ele>1127.9</ele>
        <time>2013-03-16T09:36:42.000Z</time>
      </trkpt>
      <trkpt lat="46.31306" lon="6.71461">
        <ele>1127.6</ele>
        <time>2013-03-16T09:36:44.000Z</time>
      </trkpt>
      <trkpt lat="46.31307" lon="6.71462">
        <ele>1127.2</ele>
        <time>2013-03-16T09:36:45.000Z</time>
      </trkpt>
      <trkpt lat="46.31309" lon="6.71466">
        <ele>1126.9</ele>
        <time>2013-03-16T09:36:47.000Z</time>
      </trkpt>
      <trkpt lat="46.3131" lon="6.71467">
        <ele>1125.9</ele>
        <time>2013-03-16T09:36:48.000Z</time>
      </trkpt>
      <trkpt lat="46.31312" lon="6.71471">
        <ele>1126.7</ele>
        <time>2013-03-16T09:36:51.000Z</time>
      </trkpt>
      <trkpt lat="46.31313" lon="6.71473">
        <ele>1127</ele>
        <time>2013-03-16T09:36:52.000Z</time>
      </trkpt>
      <trkpt lat="46.31315" lon="6.71479">
        <ele>1126</ele>
        <time>2013-03-16T09:36:56.000Z</time>
      </trkpt>
      <trkpt lat="46.31315" lon="6.7148">
        <ele>1126.3</ele>
        <time>2013-03-16T09:36:57.000Z</time>
      </trkpt>
      <trkpt lat="46.31317" lon="6.71485">
        <ele>1126</ele>
        <time>2013-03-16T09:37:00.000Z</time>
      </trkpt>
      <trkpt lat="46.31318" lon="6.71487">
        <ele>1125.9</ele>
        <time>2013-03-16T09:37:01.000Z</time>
      </trkpt>
      <trkpt lat="46.31319" lon="6.71492">
        <ele>1125.9</ele>
        <time>2013-03-16T09:37:04.000Z</time>
      </trkpt>
      <trkpt lat="46.31319" lon="6.71494">
        <ele>1125.9</ele>
        <time>2013-03-16T09:37:05.000Z</time>
      </trkpt>
      <trkpt lat="46.3132" lon="6.71498">
        <ele>1125.8</ele>
        <time>2013-03-16T09:37:08.000Z</time>
      </trkpt>
      <trkpt lat="46.31321" lon="6.715">
        <ele>1125.9</ele>
        <time>2013-03-16T09:37:09.000Z</time>
      </trkpt>
      <trkpt lat="46.31324" lon="6.71505">
        <ele>1126.7</ele>
        <time>2013-03-16T09:37:12.000Z</time>
      </trkpt>
      <trkpt lat="46.31325" lon="6.71506">
        <ele>1126.6</ele>
        <time>2013-03-16T09:37:13.000Z</time>
      </trkpt>
      <trkpt lat="46.31326" lon="6.71512">
        <ele>1127.2</ele>
        <time>2013-03-16T09:37:16.000Z</time>
      </trkpt>
      <trkpt lat="46.31326" lon="6.71514">
        <ele>1127.2</ele>
        <time>2013-03-16T09:37:17.000Z</time>
      </trkpt>
      <trkpt lat="46.31327" lon="6.71518">
        <ele>1127.3</ele>
        <time>2013-03-16T09:37:20.000Z</time>
      </trkpt>
      <trkpt lat="46.31328" lon="6.7152">
        <ele>1127.2</ele>
        <time>2013-03-16T09:37:21.000Z</time>
      </trkpt>
      <trkpt lat="46.31327" lon="6.71526">
        <ele>1127.2</ele>
        <time>2013-03-16T09:37:25.000Z</time>
      </trkpt>
      <trkpt lat="46.31327" lon="6.71527">
        <ele>1127.3</ele>
        <time>2013-03-16T09:37:26.000Z</time>
      </trkpt>
      <trkpt lat="46.31326" lon="6.71532">
        <ele>1127.6</ele>
        <time>2013-03-16T09:37:29.000Z</time>
      </trkpt>
      <trkpt lat="46.31325" lon="6.71533">
        <ele>1127.8</ele>
        <time>2013-03-16T09:37:30.000Z</time>
      </trkpt>
      <trkpt lat="46.31325" lon="6.71538">
        <ele>1128.2</ele>
        <time>2013-03-16T09:37:33.000Z</time>
      </trkpt>
      <trkpt lat="46.31326" lon="6.7154">
        <ele>1128</ele>
        <time>2013-03-16T09:37:34.000Z</time>
      </trkpt>
      <trkpt lat="46.31327" lon="6.71545">
        <ele>1128.4</ele>
        <time>2013-03-16T09:37:38.000Z</time>
      </trkpt>
      <trkpt lat="46.31327" lon="6.71546">
        <ele>1128.8</ele>
        <time>2013-03-16T09:37:39.000Z</time>
      </trkpt>
      <trkpt lat="46.31329" lon="6.71552">
        <ele>1129.2</ele>
        <time>2013-03-16T09:37:43.000Z</time>
      </trkpt>
      <trkpt lat="46.31329" lon="6.71554">
        <ele>1129.4</ele>
        <time>2013-03-16T09:37:44.000Z</time>
      </trkpt>
      <trkpt lat="46.3133" lon="6.71559">
        <ele>1129</ele>
        <time>2013-03-16T09:37:47.000Z</time>
      </trkpt>
      <trkpt lat="46.3133" lon="6.7156">
        <ele>1129</ele>
        <time>2013-03-16T09:37:48.000Z</time>
      </trkpt>
      <trkpt lat="46.31331" lon="6.71565">
        <ele>1129.3</ele>
        <time>2013-03-16T09:37:51.000Z</time>
      </trkpt>
      <trkpt lat="46.3133" lon="6.71567">
        <ele>1129.3</ele>
        <time>2013-03-16T09:37:52.000Z</time>
      </trkpt>
      <trkpt lat="46.31329" lon="6.71573">
        <ele>1130.2</ele>
        <time>2013-03-16T09:37:55.000Z</time>
      </trkpt>
      <trkpt lat="46.31329" lon="6.71575">
        <ele>1130.1</ele>
        <time>2013-03-16T09:37:56.000Z</time>
      </trkpt>
      <trkpt lat="46.3133" lon="6.71579">
        <ele>1130.1</ele>
        <time>2013-03-16T09:37:58.000Z</time>
      </trkpt>
      <trkpt lat="46.31332" lon="6.71581">
        <ele>1130.2</ele>
        <time>2013-03-16T09:37:59.000Z</time>
      </trkpt>
      <trkpt lat="46.31335" lon="6.71585">
        <ele>1130.8</ele>
        <time>2013-03-16T09:38:02.000Z</time>
      </trkpt>
      <trkpt lat="46.31334" lon="6.71587">
        <ele>1131</ele>
        <time>2013-03-16T09:38:03.000Z</time>
      </trkpt>
      <trkpt lat="46.31334" lon="6.71593">
        <ele>1130.9</ele>
        <time>2013-03-16T09:38:07.000Z</time>
      </trkpt>
      <trkpt lat="46.31334" lon="6.71594">
        <ele>1131.2</ele>
        <time>2013-03-16T09:38:08.000Z</time>
      </trkpt>
      <trkpt lat="46.31335" lon="6.71599">
        <ele>1131.2</ele>
        <time>2013-03-16T09:38:11.000Z</time>
      </trkpt>
      <trkpt lat="46.31335" lon="6.71601">
        <ele>1131.2</ele>
        <time>2013-03-16T09:38:12.000Z</time>
      </trkpt>
      <trkpt lat="46.31335" lon="6.71607">
        <ele>1131.5</ele>
        <time>2013-03-16T09:38:15.000Z</time>
      </trkpt>
      <trkpt lat="46.31336" lon="6.71609">
        <ele>1131.5</ele>
        <time>2013-03-16T09:38:16.000Z</time>
      </trkpt>
      <trkpt lat="46.31336" lon="6.71615">
        <ele>1132.3</ele>
        <time>2013-03-16T09:38:20.000Z</time>
      </trkpt>
      <trkpt lat="46.31336" lon="6.71616">
        <ele>1132.4</ele>
        <time>2013-03-16T09:38:21.000Z</time>
      </trkpt>
      <trkpt lat="46.31336" lon="6.71622">
        <ele>1135.1</ele>
        <time>2013-03-16T09:38:33.000Z</time>
      </trkpt>
      <trkpt lat="46.31336" lon="6.71623">
        <ele>1135.3</ele>
        <time>2013-03-16T09:38:34.000Z</time>
      </trkpt>
      <trkpt lat="46.31337" lon="6.71629">
        <ele>1135.6</ele>
        <time>2013-03-16T09:38:38.000Z</time>
      </trkpt>
      <trkpt lat="46.31337" lon="6.71631">
        <ele>1135.3</ele>
        <time>2013-03-16T09:38:39.000Z</time>
      </trkpt>
      <trkpt lat="46.31337" lon="6.71636">
        <ele>1135.2</ele>
        <time>2013-03-16T09:38:43.000Z</time>
      </trkpt>
      <trkpt lat="46.31338" lon="6.71638">
        <ele>1135.2</ele>
        <time>2013-03-16T09:38:44.000Z</time>
      </trkpt>
      <trkpt lat="46.31338" lon="6.71644">
        <ele>1135.6</ele>
        <time>2013-03-16T09:38:48.000Z</time>
      </trkpt>
      <trkpt lat="46.31338" lon="6.71646">
        <ele>1135.9</ele>
        <time>2013-03-16T09:38:49.000Z</time>
      </trkpt>
      <trkpt lat="46.31339" lon="6.7165">
        <ele>1136</ele>
        <time>2013-03-16T09:38:52.000Z</time>
      </trkpt>
      <trkpt lat="46.31339" lon="6.71652">
        <ele>1136</ele>
        <time>2013-03-16T09:38:53.000Z</time>
      </trkpt>
      <trkpt lat="46.3134" lon="6.71657">
        <ele>1137.2</ele>
        <time>2013-03-16T09:38:56.000Z</time>
      </trkpt>
      <trkpt lat="46.3134" lon="6.71658">
        <ele>1137.2</ele>
        <time>2013-03-16T09:38:57.000Z</time>
      </trkpt>
      <trkpt lat="46.3134" lon="6.71664">
        <ele>1138.3</ele>
        <time>2013-03-16T09:39:01.000Z</time>
      </trkpt>
      <trkpt lat="46.31339" lon="6.71665">
        <ele>1138.4</ele>
        <time>2013-03-16T09:39:02.000Z</time>
      </trkpt>
      <trkpt lat="46.31339" lon="6.71671">
        <ele>1138.9</ele>
        <time>2013-03-16T09:39:06.000Z</time>
      </trkpt>
      <trkpt lat="46.3134" lon="6.71672">
        <ele>1139</ele>
        <time>2013-03-16T09:39:07.000Z</time>
      </trkpt>
      <trkpt lat="46.31339" lon="6.71678">
        <ele>1139.6</ele>
        <time>2013-03-16T09:39:11.000Z</time>
      </trkpt>
      <trkpt lat="46.31339" lon="6.7168">
        <ele>1139.7</ele>
        <time>2013-03-16T09:39:12.000Z</time>
      </trkpt>
      <trkpt lat="46.31339" lon="6.71685">
        <ele>1140.6</ele>
        <time>2013-03-16T09:39:15.000Z</time>
      </trkpt>
      <trkpt lat="46.31338" lon="6.71687">
        <ele>1141</ele>
        <time>2013-03-16T09:39:16.000Z</time>
      </trkpt>
      <trkpt lat="46.31337" lon="6.71692">
        <ele>1141.7</ele>
        <time>2013-03-16T09:39:19.000Z</time>
      </trkpt>
      <trkpt lat="46.31337" lon="6.71693">
        <ele>1141.9</ele>
        <time>2013-03-16T09:39:20.000Z</time>
      </trkpt>
      <trkpt lat="46.31337" lon="6.71699">
        <ele>1143</ele>
        <time>2013-03-16T09:39:24.000Z</time>
      </trkpt>
      <trkpt lat="46.31337" lon="6.71701">
        <ele>1142.8</ele>
        <time>2013-03-16T09:39:25.000Z</time>
      </trkpt>
      <trkpt lat="46.31336" lon="6.71707">
        <ele>1143.6</ele>
        <time>2013-03-16T09:39:29.000Z</time>
      </trkpt>
      <trkpt lat="46.31336" lon="6.71709">
        <ele>1143.8</ele>
        <time>2013-03-16T09:39:30.000Z</time>
      </trkpt>
      <trkpt lat="46.31336" lon="6.71715">
        <ele>1143.5</ele>
        <time>2013-03-16T09:39:34.000Z</time>
      </trkpt>
      <trkpt lat="46.31336" lon="6.71716">
        <ele>1143.7</ele>
        <time>2013-03-16T09:39:35.000Z</time>
      </trkpt>
      <trkpt lat="46.31336" lon="6.71723">
        <ele>1144.2</ele>
        <time>2013-03-16T09:39:39.000Z</time>
      </trkpt>
      <trkpt lat="46.31337" lon="6.71725">
        <ele>1144</ele>
        <time>2013-03-16T09:39:40.000Z</time>
      </trkpt>
      <trkpt lat="46.31336" lon="6.71731">
        <ele>1144.1</ele>
        <time>2013-03-16T09:39:44.000Z</time>
      </trkpt>
      <trkpt lat="46.31336" lon="6.71733">
        <ele>1144.3</ele>
        <time>2013-03-16T09:39:45.000Z</time>
      </trkpt>
      <trkpt lat="46.31335" lon="6.71737">
        <ele>1144.8</ele>
        <time>2013-03-16T09:39:48.000Z</time>
      </trkpt>
      <trkpt lat="46.31334" lon="6.71739">
        <ele>1145.1</ele>
        <time>2013-03-16T09:39:49.000Z</time>
      </trkpt>
      <trkpt lat="46.31332" lon="6.71744">
        <ele>1145.6</ele>
        <time>2013-03-16T09:39:52.000Z</time>
      </trkpt>
      <trkpt lat="46.31332" lon="6.71746">
        <ele>1145.6</ele>
        <time>2013-03-16T09:39:53.000Z</time>
      </trkpt>
      <trkpt lat="46.31334" lon="6.7175">
        <ele>1145.5</ele>
        <time>2013-03-16T09:39:56.000Z</time>
      </trkpt>
      <trkpt lat="46.31334" lon="6.71752">
        <ele>1145.7</ele>
        <time>2013-03-16T09:39:57.000Z</time>
      </trkpt>
      <trkpt lat="46.31334" lon="6.71757">
        <ele>1145.9</ele>
        <time>2013-03-16T09:40:00.000Z</time>
      </trkpt>
      <trkpt lat="46.31334" lon="6.71759">
        <ele>1146</ele>
        <time>2013-03-16T09:40:01.000Z</time>
      </trkpt>
      <trkpt lat="46.31333" lon="6.71765">
        <ele>1146.5</ele>
        <time>2013-03-16T09:40:05.000Z</time>
      </trkpt>
      <trkpt lat="46.31334" lon="6.71767">
        <ele>1145.9</ele>
        <time>2013-03-16T09:40:06.000Z</time>
      </trkpt>
      <trkpt lat="46.31335" lon="6.71772">
        <ele>1145.4</ele>
        <time>2013-03-16T09:40:09.000Z</time>
      </trkpt>
      <trkpt lat="46.31335" lon="6.71774">
        <ele>1145.7</ele>
        <time>2013-03-16T09:40:10.000Z</time>
      </trkpt>
      <trkpt lat="46.31336" lon="6.71779">
        <ele>1146</ele>
        <time>2013-03-16T09:40:14.000Z</time>
      </trkpt>
      <trkpt lat="46.31336" lon="6.71781">
        <ele>1145.9</ele>
        <time>2013-03-16T09:40:15.000Z</time>
      </trkpt>
      <trkpt lat="46.31337" lon="6.71786">
        <ele>1146.1</ele>
        <time>2013-03-16T09:40:19.000Z</time>
      </trkpt>
      <trkpt lat="46.31337" lon="6.71788">
        <ele>1145.9</ele>
        <time>2013-03-16T09:40:20.000Z</time>
      </trkpt>
      <trkpt lat="46.31336" lon="6.71794">
        <ele>1146.6</ele>
        <time>2013-03-16T09:40:24.000Z</time>
      </trkpt>
      <trkpt lat="46.31336" lon="6.71796">
        <ele>1146.8</ele>
        <time>2013-03-16T09:40:25.000Z</time>
      </trkpt>
      <trkpt lat="46.31336" lon="6.71801">
        <ele>1147.2</ele>
        <time>2013-03-16T09:40:28.000Z</time>
      </trkpt>
      <trkpt lat="46.31336" lon="6.71803">
        <ele>1147.4</ele>
        <time>2013-03-16T09:40:29.000Z</time>
      </trkpt>
      <trkpt lat="46.31336" lon="6.71808">
        <ele>1147.5</ele>
        <time>2013-03-16T09:40:32.000Z</time>
      </trkpt>
      <trkpt lat="46.31337" lon="6.71809">
        <ele>1147.8</ele>
        <time>2013-03-16T09:40:33.000Z</time>
      </trkpt>
      <trkpt lat="46.31338" lon="6.71815">
        <ele>1147.6</ele>
        <time>2013-03-16T09:40:36.000Z</time>
      </trkpt>
      <trkpt lat="46.31339" lon="6.71817">
        <ele>1147.7</ele>
        <time>2013-03-16T09:40:37.000Z</time>
      </trkpt>
      <trkpt lat="46.31341" lon="6.71823">
        <ele>1148.9</ele>
        <time>2013-03-16T09:40:41.000Z</time>
      </trkpt>
      <trkpt lat="46.31342" lon="6.71825">
        <ele>1148.9</ele>
        <time>2013-03-16T09:40:42.000Z</time>
      </trkpt>
      <trkpt lat="46.31342" lon="6.71831">
        <ele>1149.1</ele>
        <time>2013-03-16T09:40:46.000Z</time>
      </trkpt>
      <trkpt lat="46.31343" lon="6.71832">
        <ele>1149.5</ele>
        <time>2013-03-16T09:40:47.000Z</time>
      </trkpt>
      <trkpt lat="46.31342" lon="6.71838">
        <ele>1149.2</ele>
        <time>2013-03-16T09:40:50.000Z</time>
      </trkpt>
      <trkpt lat="46.31341" lon="6.7184">
        <ele>1149.2</ele>
        <time>2013-03-16T09:40:51.000Z</time>
      </trkpt>
      <trkpt lat="46.31342" lon="6.71845">
        <ele>1149.3</ele>
        <time>2013-03-16T09:40:53.000Z</time>
      </trkpt>
      <trkpt lat="46.31342" lon="6.71847">
        <ele>1149.5</ele>
        <time>2013-03-16T09:40:54.000Z</time>
      </trkpt>
      <trkpt lat="46.31344" lon="6.71851">
        <ele>1149.9</ele>
        <time>2013-03-16T09:40:56.000Z</time>
      </trkpt>
      <trkpt lat="46.31344" lon="6.71853">
        <ele>1150.7</ele>
        <time>2013-03-16T09:40:57.000Z</time>
      </trkpt>
      <trkpt lat="46.31346" lon="6.71858">
        <ele>1151.5</ele>
        <time>2013-03-16T09:41:00.000Z</time>
      </trkpt>
      <trkpt lat="46.31347" lon="6.7186">
        <ele>1151.9</ele>
        <time>2013-03-16T09:41:01.000Z</time>
      </trkpt>
      <trkpt lat="46.31346" lon="6.71866">
        <ele>1152.8</ele>
        <time>2013-03-16T09:41:04.000Z</time>
      </trkpt>
      <trkpt lat="46.31347" lon="6.71867">
        <ele>1153.3</ele>
        <time>2013-03-16T09:41:05.000Z</time>
      </trkpt>
      <trkpt lat="46.31347" lon="6.71873">
        <ele>1153.9</ele>
        <time>2013-03-16T09:41:09.000Z</time>
      </trkpt>
      <trkpt lat="46.31347" lon="6.71876">
        <ele>1153.8</ele>
        <time>2013-03-16T09:41:10.000Z</time>
      </trkpt>
      <trkpt lat="46.31346" lon="6.71881">
        <ele>1154.2</ele>
        <time>2013-03-16T09:41:13.000Z</time>
      </trkpt>
      <trkpt lat="46.31346" lon="6.71883">
        <ele>1154.4</ele>
        <time>2013-03-16T09:41:14.000Z</time>
      </trkpt>
      <trkpt lat="46.31347" lon="6.71888">
        <ele>1155.3</ele>
        <time>2013-03-16T09:41:17.000Z</time>
      </trkpt>
      <trkpt lat="46.31347" lon="6.71889">
        <ele>1155.9</ele>
        <time>2013-03-16T09:41:18.000Z</time>
      </trkpt>
      <trkpt lat="46.31349" lon="6.71895">
        <ele>1157.1</ele>
        <time>2013-03-16T09:41:23.000Z</time>
      </trkpt>
      <trkpt lat="46.31349" lon="6.71896">
        <ele>1157.6</ele>
        <time>2013-03-16T09:41:24.000Z</time>
      </trkpt>
      <trkpt lat="46.31351" lon="6.71901">
        <ele>1158.3</ele>
        <time>2013-03-16T09:41:28.000Z</time>
      </trkpt>
      <trkpt lat="46.31351" lon="6.71903">
        <ele>1158.3</ele>
        <time>2013-03-16T09:41:29.000Z</time>
      </trkpt>
      <trkpt lat="46.31352" lon="6.71908">
        <ele>1159.1</ele>
        <time>2013-03-16T09:41:33.000Z</time>
      </trkpt>
      <trkpt lat="46.31353" lon="6.71909">
        <ele>1159.5</ele>
        <time>2013-03-16T09:41:34.000Z</time>
      </trkpt>
      <trkpt lat="46.31355" lon="6.71914">
        <ele>1160</ele>
        <time>2013-03-16T09:41:38.000Z</time>
      </trkpt>
      <trkpt lat="46.31355" lon="6.71915">
        <ele>1160.4</ele>
        <time>2013-03-16T09:41:39.000Z</time>
      </trkpt>
      <trkpt lat="46.31357" lon="6.71919">
        <ele>1161</ele>
        <time>2013-03-16T09:41:41.000Z</time>
      </trkpt>
      <trkpt lat="46.31359" lon="6.71922">
        <ele>1160.4</ele>
        <time>2013-03-16T09:41:42.000Z</time>
      </trkpt>
      <trkpt lat="46.31361" lon="6.71927">
        <ele>1160.9</ele>
        <time>2013-03-16T09:41:45.000Z</time>
      </trkpt>
      <trkpt lat="46.31362" lon="6.71929">
        <ele>1161.1</ele>
        <time>2013-03-16T09:41:46.000Z</time>
      </trkpt>
      <trkpt lat="46.31364" lon="6.71933">
        <ele>1161.6</ele>
        <time>2013-03-16T09:41:49.000Z</time>
      </trkpt>
      <trkpt lat="46.31364" lon="6.71934">
        <ele>1161.5</ele>
        <time>2013-03-16T09:41:50.000Z</time>
      </trkpt>
      <trkpt lat="46.31365" lon="6.71939">
        <ele>1162.6</ele>
        <time>2013-03-16T09:41:54.000Z</time>
      </trkpt>
      <trkpt lat="46.31365" lon="6.71941">
        <ele>1162.6</ele>
        <time>2013-03-16T09:41:55.000Z</time>
      </trkpt>
      <trkpt lat="46.31366" lon="6.71947">
        <ele>1162.8</ele>
        <time>2013-03-16T09:41:59.000Z</time>
      </trkpt>
      <trkpt lat="46.31367" lon="6.71949">
        <ele>1162.9</ele>
        <time>2013-03-16T09:42:00.000Z</time>
      </trkpt>
      <trkpt lat="46.31368" lon="6.71955">
        <ele>1163.1</ele>
        <time>2013-03-16T09:42:04.000Z</time>
      </trkpt>
      <trkpt lat="46.31368" lon="6.71957">
        <ele>1163.3</ele>
        <time>2013-03-16T09:42:05.000Z</time>
      </trkpt>
      <trkpt lat="46.31368" lon="6.71963">
        <ele>1163.2</ele>
        <time>2013-03-16T09:42:08.000Z</time>
      </trkpt>
      <trkpt lat="46.31368" lon="6.71964">
        <ele>1163.4</ele>
        <time>2013-03-16T09:42:09.000Z</time>
      </trkpt>
      <trkpt lat="46.3137" lon="6.71969">
        <ele>1164.1</ele>
        <time>2013-03-16T09:42:13.000Z</time>
      </trkpt>
      <trkpt lat="46.3137" lon="6.71971">
        <ele>1164.1</ele>
        <time>2013-03-16T09:42:14.000Z</time>
      </trkpt>
      <trkpt lat="46.31372" lon="6.71975">
        <ele>1164.4</ele>
        <time>2013-03-16T09:42:17.000Z</time>
      </trkpt>
      <trkpt lat="46.31373" lon="6.71976">
        <ele>1164.6</ele>
        <time>2013-03-16T09:42:18.000Z</time>
      </trkpt>
      <trkpt lat="46.31376" lon="6.7198">
        <ele>1164.7</ele>
        <time>2013-03-16T09:42:21.000Z</time>
      </trkpt>
      <trkpt lat="46.31377" lon="6.71981">
        <ele>1164.6</ele>
        <time>2013-03-16T09:42:22.000Z</time>
      </trkpt>
      <trkpt lat="46.31379" lon="6.71986">
        <ele>1165</ele>
        <time>2013-03-16T09:42:26.000Z</time>
      </trkpt>
      <trkpt lat="46.31379" lon="6.71987">
        <ele>1165.3</ele>
        <time>2013-03-16T09:42:27.000Z</time>
      </trkpt>
      <trkpt lat="46.3138" lon="6.71993">
        <ele>1165.7</ele>
        <time>2013-03-16T09:42:31.000Z</time>
      </trkpt>
      <trkpt lat="46.31381" lon="6.71994">
        <ele>1165.9</ele>
        <time>2013-03-16T09:42:32.000Z</time>
      </trkpt>
      <trkpt lat="46.31385" lon="6.71996">
        <ele>1165.8</ele>
        <time>2013-03-16T09:42:35.000Z</time>
      </trkpt>
      <trkpt lat="46.31386" lon="6.71998">
        <ele>1165.8</ele>
        <time>2013-03-16T09:42:36.000Z</time>
      </trkpt>
      <trkpt lat="46.31389" lon="6.72002">
        <ele>1165.9</ele>
        <time>2013-03-16T09:42:39.000Z</time>
      </trkpt>
      <trkpt lat="46.3139" lon="6.72003">
        <ele>1165.9</ele>
        <time>2013-03-16T09:42:40.000Z</time>
      </trkpt>
      <trkpt lat="46.31393" lon="6.72007">
        <ele>1166.5</ele>
        <time>2013-03-16T09:42:44.000Z</time>
      </trkpt>
      <trkpt lat="46.31393" lon="6.72008">
        <ele>1167</ele>
        <time>2013-03-16T09:42:45.000Z</time>
      </trkpt>
      <trkpt lat="46.31393" lon="6.72013">
        <ele>1168.4</ele>
        <time>2013-03-16T09:42:49.000Z</time>
      </trkpt>
      <trkpt lat="46.31392" lon="6.72015">
        <ele>1169</ele>
        <time>2013-03-16T09:42:50.000Z</time>
      </trkpt>
      <trkpt lat="46.31393" lon="6.7202">
        <ele>1169.7</ele>
        <time>2013-03-16T09:43:05.000Z</time>
      </trkpt>
      <trkpt lat="46.31393" lon="6.72021">
        <ele>1169.6</ele>
        <time>2013-03-16T09:43:06.000Z</time>
      </trkpt>
      <trkpt lat="46.31396" lon="6.72025">
        <ele>1169.6</ele>
        <time>2013-03-16T09:43:10.000Z</time>
      </trkpt>
      <trkpt lat="46.31397" lon="6.72025">
        <ele>1169.6</ele>
        <time>2013-03-16T09:43:11.000Z</time>
      </trkpt>
      <trkpt lat="46.314" lon="6.72028">
        <ele>1170.6</ele>
        <time>2013-03-16T09:43:15.000Z</time>
      </trkpt>
      <trkpt lat="46.31401" lon="6.72029">
        <ele>1170.9</ele>
        <time>2013-03-16T09:43:16.000Z</time>
      </trkpt>
      <trkpt lat="46.31405" lon="6.72032">
        <ele>1171.5</ele>
        <time>2013-03-16T09:43:20.000Z</time>
      </trkpt>
      <trkpt lat="46.31406" lon="6.72034">
        <ele>1171.5</ele>
        <time>2013-03-16T09:43:21.000Z</time>
      </trkpt>
      <trkpt lat="46.31409" lon="6.72037">
        <ele>1171.9</ele>
        <time>2013-03-16T09:43:24.000Z</time>
      </trkpt>
      <trkpt lat="46.3141" lon="6.72038">
        <ele>1172</ele>
        <time>2013-03-16T09:43:25.000Z</time>
      </trkpt>
      <trkpt lat="46.31413" lon="6.7204">
        <ele>1171.9</ele>
        <time>2013-03-16T09:43:28.000Z</time>
      </trkpt>
      <trkpt lat="46.31414" lon="6.72041">
        <ele>1171.8</ele>
        <time>2013-03-16T09:43:29.000Z</time>
      </trkpt>
      <trkpt lat="46.31417" lon="6.72045">
        <ele>1172</ele>
        <time>2013-03-16T09:43:33.000Z</time>
      </trkpt>
      <trkpt lat="46.31418" lon="6.72047">
        <ele>1171.7</ele>
        <time>2013-03-16T09:43:34.000Z</time>
      </trkpt>
      <trkpt lat="46.31419" lon="6.72052">
        <ele>1170.9</ele>
        <time>2013-03-16T09:43:37.000Z</time>
      </trkpt>
      <trkpt lat="46.31421" lon="6.72054">
        <ele>1170.8</ele>
        <time>2013-03-16T09:43:38.000Z</time>
      </trkpt>
      <trkpt lat="46.3142" lon="6.72059">
        <ele>1171.4</ele>
        <time>2013-03-16T09:43:40.000Z</time>
      </trkpt>
      <trkpt lat="46.31419" lon="6.72061">
        <ele>1171.8</ele>
        <time>2013-03-16T09:43:41.000Z</time>
      </trkpt>
      <trkpt lat="46.31417" lon="6.72065">
        <ele>1172.8</ele>
        <time>2013-03-16T09:43:43.000Z</time>
      </trkpt>
      <trkpt lat="46.31416" lon="6.72067">
        <ele>1173.3</ele>
        <time>2013-03-16T09:43:44.000Z</time>
      </trkpt>
      <trkpt lat="46.31415" lon="6.72073">
        <ele>1174.7</ele>
        <time>2013-03-16T09:43:47.000Z</time>
      </trkpt>
      <trkpt lat="46.31414" lon="6.72075">
        <ele>1175.3</ele>
        <time>2013-03-16T09:43:48.000Z</time>
      </trkpt>
      <trkpt lat="46.31412" lon="6.72079">
        <ele>1177.1</ele>
        <time>2013-03-16T09:43:52.000Z</time>
      </trkpt>
      <trkpt lat="46.31412" lon="6.7208">
        <ele>1177.4</ele>
        <time>2013-03-16T09:43:53.000Z</time>
      </trkpt>
      <trkpt lat="46.31411" lon="6.72086">
        <ele>1178.9</ele>
        <time>2013-03-16T09:43:59.000Z</time>
      </trkpt>
      <trkpt lat="46.31411" lon="6.72087">
        <ele>1179.2</ele>
        <time>2013-03-16T09:44:00.000Z</time>
      </trkpt>
      <trkpt lat="46.3141" lon="6.72088">
        <ele>1179.5</ele>
        <time>2013-03-16T09:46:08.000Z</time>
      </trkpt>
      <trkpt lat="46.31403" lon="6.7209">
        <ele>1179.8</ele>
        <time>2013-03-16T09:46:09.000Z</time>
      </trkpt>
      <trkpt lat="46.31407" lon="6.7209">
        <ele>1176.5</ele>
        <time>2013-03-16T09:47:28.000Z</time>
      </trkpt>
      <trkpt lat="46.31408" lon="6.72089">
        <ele>1176.4</ele>
        <time>2013-03-16T09:47:29.000Z</time>
      </trkpt>
      <trkpt lat="46.31408" lon="6.72089">
        <ele>1176.4</ele>
        <time>2013-03-16T09:48:51.000Z</time>
      </trkpt>
      <trkpt lat="46.31424" lon="6.72077">
        <ele>1175.7</ele>
        <time>2013-03-16T09:48:52.000Z</time>
      </trkpt>
      <trkpt lat="46.31427" lon="6.72076">
        <ele>1176.5</ele>
        <time>2013-03-16T09:48:54.000Z</time>
      </trkpt>
      <trkpt lat="46.31414" lon="6.72049">
        <ele>1186.4</ele>
        <time>2013-03-16T09:49:14.000Z</time>
      </trkpt>
      <trkpt lat="46.31414" lon="6.72049">
        <ele>1186.4</ele>
        <time>2013-03-16T09:49:19.000Z</time>
      </trkpt>
      <trkpt lat="46.31406" lon="6.72045">
        <ele>1205.2</ele>
        <time>2013-03-16T09:49:20.000Z</time>
      </trkpt>
      <trkpt lat="46.31405" lon="6.72046">
        <ele>1206.3</ele>
        <time>2013-03-16T09:51:24.000Z</time>
      </trkpt>
      <trkpt lat="46.3141" lon="6.72061">
        <ele>1190.6</ele>
        <time>2013-03-16T09:51:25.000Z</time>
      </trkpt>
      <trkpt lat="46.31413" lon="6.72063">
        <ele>1195.3</ele>
        <time>2013-03-16T09:53:47.000Z</time>
      </trkpt>
      <trkpt lat="46.31415" lon="6.72064">
        <ele>1195.1</ele>
        <time>2013-03-16T09:53:48.000Z</time>
      </trkpt>
      <trkpt lat="46.31417" lon="6.72068">
        <ele>1194.7</ele>
        <time>2013-03-16T09:53:51.000Z</time>
      </trkpt>
      <trkpt lat="46.31417" lon="6.7207">
        <ele>1194.8</ele>
        <time>2013-03-16T09:53:52.000Z</time>
      </trkpt>
      <trkpt lat="46.31417" lon="6.72075">
        <ele>1194.7</ele>
        <time>2013-03-16T09:53:54.000Z</time>
      </trkpt>
      <trkpt lat="46.31417" lon="6.72077">
        <ele>1194.6</ele>
        <time>2013-03-16T09:53:55.000Z</time>
      </trkpt>
      <trkpt lat="46.31418" lon="6.72082">
        <ele>1193.8</ele>
        <time>2013-03-16T09:53:57.000Z</time>
      </trkpt>
      <trkpt lat="46.31419" lon="6.72084">
        <ele>1193.5</ele>
        <time>2013-03-16T09:53:58.000Z</time>
      </trkpt>
      <trkpt lat="46.3142" lon="6.72089">
        <ele>1193.2</ele>
        <time>2013-03-16T09:54:00.000Z</time>
      </trkpt>
      <trkpt lat="46.31421" lon="6.72092">
        <ele>1192.9</ele>
        <time>2013-03-16T09:54:01.000Z</time>
      </trkpt>
      <trkpt lat="46.31422" lon="6.72095">
        <ele>1192.5</ele>
        <time>2013-03-16T09:54:03.000Z</time>
      </trkpt>
      <trkpt lat="46.31423" lon="6.72097">
        <ele>1192.4</ele>
        <time>2013-03-16T09:54:04.000Z</time>
      </trkpt>
      <trkpt lat="46.31423" lon="6.72102">
        <ele>1192.4</ele>
        <time>2013-03-16T09:54:06.000Z</time>
      </trkpt>
      <trkpt lat="46.31424" lon="6.72104">
        <ele>1192.3</ele>
        <time>2013-03-16T09:54:07.000Z</time>
      </trkpt>
      <trkpt lat="46.31424" lon="6.72108">
        <ele>1192.3</ele>
        <time>2013-03-16T09:54:10.000Z</time>
      </trkpt>
      <trkpt lat="46.31425" lon="6.7211">
        <ele>1192.2</ele>
        <time>2013-03-16T09:54:11.000Z</time>
      </trkpt>
      <trkpt lat="46.31426" lon="6.72116">
        <ele>1192.1</ele>
        <time>2013-03-16T09:54:14.000Z</time>
      </trkpt>
      <trkpt lat="46.31428" lon="6.72117">
        <ele>1192.1</ele>
        <time>2013-03-16T09:54:15.000Z</time>
      </trkpt>
      <trkpt lat="46.31431" lon="6.72121">
        <ele>1192.4</ele>
        <time>2013-03-16T09:54:17.000Z</time>
      </trkpt>
      <trkpt lat="46.31433" lon="6.72123">
        <ele>1192.4</ele>
        <time>2013-03-16T09:54:18.000Z</time>
      </trkpt>
      <trkpt lat="46.31435" lon="6.72128">
        <ele>1192.9</ele>
        <time>2013-03-16T09:54:22.000Z</time>
      </trkpt>
      <trkpt lat="46.31434" lon="6.72129">
        <ele>1193.2</ele>
        <time>2013-03-16T09:54:23.000Z</time>
      </trkpt>
      <trkpt lat="46.31438" lon="6.72132">
        <ele>1193.9</ele>
        <time>2013-03-16T09:54:28.000Z</time>
      </trkpt>
      <trkpt lat="46.31439" lon="6.72134">
        <ele>1193.9</ele>
        <time>2013-03-16T09:54:29.000Z</time>
      </trkpt>
      <trkpt lat="46.31441" lon="6.72138">
        <ele>1193.9</ele>
        <time>2013-03-16T09:54:31.000Z</time>
      </trkpt>
      <trkpt lat="46.31442" lon="6.7214">
        <ele>1194.1</ele>
        <time>2013-03-16T09:54:32.000Z</time>
      </trkpt>
      <trkpt lat="46.31444" lon="6.72144">
        <ele>1194.3</ele>
        <time>2013-03-16T09:54:34.000Z</time>
      </trkpt>
      <trkpt lat="46.31446" lon="6.72145">
        <ele>1194.5</ele>
        <time>2013-03-16T09:54:35.000Z</time>
      </trkpt>
      <trkpt lat="46.31449" lon="6.72148">
        <ele>1194.9</ele>
        <time>2013-03-16T09:54:37.000Z</time>
      </trkpt>
      <trkpt lat="46.3145" lon="6.72149">
        <ele>1194.9</ele>
        <time>2013-03-16T09:54:38.000Z</time>
      </trkpt>
      <trkpt lat="46.31454" lon="6.72152">
        <ele>1195.2</ele>
        <time>2013-03-16T09:54:40.000Z</time>
      </trkpt>
      <trkpt lat="46.31455" lon="6.72153">
        <ele>1195.5</ele>
        <time>2013-03-16T09:54:41.000Z</time>
      </trkpt>
      <trkpt lat="46.31458" lon="6.72156">
        <ele>1196</ele>
        <time>2013-03-16T09:54:43.000Z</time>
      </trkpt>
      <trkpt lat="46.31459" lon="6.72158">
        <ele>1196.2</ele>
        <time>2013-03-16T09:54:44.000Z</time>
      </trkpt>
      <trkpt lat="46.31463" lon="6.72161">
        <ele>1197.2</ele>
        <time>2013-03-16T09:54:47.000Z</time>
      </trkpt>
      <trkpt lat="46.31464" lon="6.72162">
        <ele>1197.5</ele>
        <time>2013-03-16T09:54:48.000Z</time>
      </trkpt>
      <trkpt lat="46.31468" lon="6.72163">
        <ele>1197.8</ele>
        <time>2013-03-16T09:54:50.000Z</time>
      </trkpt>
      <trkpt lat="46.31469" lon="6.72164">
        <ele>1198.1</ele>
        <time>2013-03-16T09:54:51.000Z</time>
      </trkpt>
      <trkpt lat="46.31473" lon="6.72167">
        <ele>1197.9</ele>
        <time>2013-03-16T09:54:53.000Z</time>
      </trkpt>
      <trkpt lat="46.31473" lon="6.72169">
        <ele>1198.2</ele>
        <time>2013-03-16T09:54:54.000Z</time>
      </trkpt>
      <trkpt lat="46.31476" lon="6.72172">
        <ele>1199</ele>
        <time>2013-03-16T09:54:57.000Z</time>
      </trkpt>
      <trkpt lat="46.31478" lon="6.72172">
        <ele>1198.8</ele>
        <time>2013-03-16T09:54:58.000Z</time>
      </trkpt>
      <trkpt lat="46.31476" lon="6.72168">
        <ele>1196.9</ele>
        <time>2013-03-16T09:55:02.000Z</time>
      </trkpt>
      <trkpt lat="46.31474" lon="6.72168">
        <ele>1198</ele>
        <time>2013-03-16T09:55:03.000Z</time>
      </trkpt>
      <trkpt lat="46.31475" lon="6.72174">
        <ele>1198.4</ele>
        <time>2013-03-16T09:55:06.000Z</time>
      </trkpt>
      <trkpt lat="46.31476" lon="6.72175">
        <ele>1198.3</ele>
        <time>2013-03-16T09:55:07.000Z</time>
      </trkpt>
      <trkpt lat="46.31476" lon="6.7218">
        <ele>1198.5</ele>
        <time>2013-03-16T09:55:10.000Z</time>
      </trkpt>
      <trkpt lat="46.31477" lon="6.72181">
        <ele>1198.6</ele>
        <time>2013-03-16T09:55:11.000Z</time>
      </trkpt>
      <trkpt lat="46.31479" lon="6.72184">
        <ele>1199.2</ele>
        <time>2013-03-16T09:55:14.000Z</time>
      </trkpt>
      <trkpt lat="46.3148" lon="6.72186">
        <ele>1199.4</ele>
        <time>2013-03-16T09:55:15.000Z</time>
      </trkpt>
      <trkpt lat="46.31483" lon="6.7219">
        <ele>1199.6</ele>
        <time>2013-03-16T09:55:18.000Z</time>
      </trkpt>
      <trkpt lat="46.31484" lon="6.72192">
        <ele>1199.8</ele>
        <time>2013-03-16T09:55:19.000Z</time>
      </trkpt>
      <trkpt lat="46.31487" lon="6.72195">
        <ele>1200.9</ele>
        <time>2013-03-16T09:55:23.000Z</time>
      </trkpt>
      <trkpt lat="46.31487" lon="6.72196">
        <ele>1201.3</ele>
        <time>2013-03-16T09:55:24.000Z</time>
      </trkpt>
      <trkpt lat="46.3149" lon="6.722">
        <ele>1202.2</ele>
        <time>2013-03-16T09:55:28.000Z</time>
      </trkpt>
      <trkpt lat="46.3149" lon="6.72201">
        <ele>1202.3</ele>
        <time>2013-03-16T09:55:29.000Z</time>
      </trkpt>
      <trkpt lat="46.31491" lon="6.72202">
        <ele>1202.4</ele>
        <time>2013-03-16T09:55:30.000Z</time>
      </trkpt>
      <trkpt lat="46.31495" lon="6.72203">
        <ele>1203.5</ele>
        <time>2013-03-16T09:55:31.000Z</time>
      </trkpt>
      <trkpt lat="46.31498" lon="6.72206">
        <ele>1204.3</ele>
        <time>2013-03-16T09:55:34.000Z</time>
      </trkpt>
      <trkpt lat="46.315" lon="6.72207">
        <ele>1204.3</ele>
        <time>2013-03-16T09:55:35.000Z</time>
      </trkpt>
      <trkpt lat="46.31503" lon="6.72211">
        <ele>1204.4</ele>
        <time>2013-03-16T09:55:39.000Z</time>
      </trkpt>
      <trkpt lat="46.31505" lon="6.72212">
        <ele>1204.2</ele>
        <time>2013-03-16T09:55:40.000Z</time>
      </trkpt>
      <trkpt lat="46.31508" lon="6.72216">
        <ele>1206.1</ele>
        <time>2013-03-16T09:55:45.000Z</time>
      </trkpt>
      <trkpt lat="46.31509" lon="6.72216">
        <ele>1206.3</ele>
        <time>2013-03-16T09:55:46.000Z</time>
      </trkpt>
      <trkpt lat="46.31513" lon="6.72216">
        <ele>1207.3</ele>
        <time>2013-03-16T09:55:49.000Z</time>
      </trkpt>
      <trkpt lat="46.31514" lon="6.72215">
        <ele>1208.1</ele>
        <time>2013-03-16T09:55:50.000Z</time>
      </trkpt>
      <trkpt lat="46.31518" lon="6.72216">
        <ele>1209.5</ele>
        <time>2013-03-16T09:55:53.000Z</time>
      </trkpt>
      <trkpt lat="46.3152" lon="6.72216">
        <ele>1210</ele>
        <time>2013-03-16T09:55:54.000Z</time>
      </trkpt>
      <trkpt lat="46.31521" lon="6.72222">
        <ele>1210.1</ele>
        <time>2013-03-16T09:56:05.000Z</time>
      </trkpt>
      <trkpt lat="46.31521" lon="6.72223">
        <ele>1209.7</ele>
        <time>2013-03-16T09:56:06.000Z</time>
      </trkpt>
      <trkpt lat="46.31524" lon="6.72226">
        <ele>1208.8</ele>
        <time>2013-03-16T09:56:10.000Z</time>
      </trkpt>
      <trkpt lat="46.31525" lon="6.72227">
        <ele>1208.5</ele>
        <time>2013-03-16T09:56:11.000Z</time>
      </trkpt>
      <trkpt lat="46.31528" lon="6.72231">
        <ele>1208.3</ele>
        <time>2013-03-16T09:56:14.000Z</time>
      </trkpt>
      <trkpt lat="46.31528" lon="6.72232">
        <ele>1207.9</ele>
        <time>2013-03-16T09:56:15.000Z</time>
      </trkpt>
      <trkpt lat="46.31529" lon="6.72237">
        <ele>1207.6</ele>
        <time>2013-03-16T09:56:18.000Z</time>
      </trkpt>
      <trkpt lat="46.31529" lon="6.72239">
        <ele>1207.4</ele>
        <time>2013-03-16T09:56:19.000Z</time>
      </trkpt>
      <trkpt lat="46.31531" lon="6.72244">
        <ele>1206.3</ele>
        <time>2013-03-16T09:56:22.000Z</time>
      </trkpt>
      <trkpt lat="46.31532" lon="6.72246">
        <ele>1206.3</ele>
        <time>2013-03-16T09:56:23.000Z</time>
      </trkpt>
      <trkpt lat="46.31534" lon="6.7225">
        <ele>1205.4</ele>
        <time>2013-03-16T09:56:26.000Z</time>
      </trkpt>
      <trkpt lat="46.31534" lon="6.72252">
        <ele>1205.2</ele>
        <time>2013-03-16T09:56:27.000Z</time>
      </trkpt>
      <trkpt lat="46.31538" lon="6.72255">
        <ele>1204.5</ele>
        <time>2013-03-16T09:56:30.000Z</time>
      </trkpt>
      <trkpt lat="46.31538" lon="6.72256">
        <ele>1204.7</ele>
        <time>2013-03-16T09:56:31.000Z</time>
      </trkpt>
      <trkpt lat="46.31541" lon="6.7226">
        <ele>1204.9</ele>
        <time>2013-03-16T09:56:35.000Z</time>
      </trkpt>
      <trkpt lat="46.31542" lon="6.72261">
        <ele>1204.8</ele>
        <time>2013-03-16T09:56:36.000Z</time>
      </trkpt>
      <trkpt lat="46.31545" lon="6.72265">
        <ele>1205.5</ele>
        <time>2013-03-16T09:56:40.000Z</time>
      </trkpt>
      <trkpt lat="46.31545" lon="6.72267">
        <ele>1205.5</ele>
        <time>2013-03-16T09:56:41.000Z</time>
      </trkpt>
      <trkpt lat="46.31546" lon="6.72272">
        <ele>1206.1</ele>
        <time>2013-03-16T09:56:44.000Z</time>
      </trkpt>
      <trkpt lat="46.31547" lon="6.72273">
        <ele>1206</ele>
        <time>2013-03-16T09:56:45.000Z</time>
      </trkpt>
      <trkpt lat="46.31549" lon="6.72277">
        <ele>1205.9</ele>
        <time>2013-03-16T09:56:48.000Z</time>
      </trkpt>
      <trkpt lat="46.31549" lon="6.72279">
        <ele>1205.9</ele>
        <time>2013-03-16T09:56:49.000Z</time>
      </trkpt>
      <trkpt lat="46.3155" lon="6.72284">
        <ele>1205.7</ele>
        <time>2013-03-16T09:56:52.000Z</time>
      </trkpt>
      <trkpt lat="46.31551" lon="6.72286">
        <ele>1205.5</ele>
        <time>2013-03-16T09:56:53.000Z</time>
      </trkpt>
      <trkpt lat="46.31552" lon="6.7229">
        <ele>1206</ele>
        <time>2013-03-16T09:56:56.000Z</time>
      </trkpt>
      <trkpt lat="46.31553" lon="6.72292">
        <ele>1206</ele>
        <time>2013-03-16T09:56:57.000Z</time>
      </trkpt>
      <trkpt lat="46.31555" lon="6.72296">
        <ele>1206.8</ele>
        <time>2013-03-16T09:57:01.000Z</time>
      </trkpt>
      <trkpt lat="46.31555" lon="6.72298">
        <ele>1207.1</ele>
        <time>2013-03-16T09:57:02.000Z</time>
      </trkpt>
      <trkpt lat="46.31558" lon="6.72301">
        <ele>1208</ele>
        <time>2013-03-16T09:57:06.000Z</time>
      </trkpt>
      <trkpt lat="46.31559" lon="6.72302">
        <ele>1208.2</ele>
        <time>2013-03-16T09:57:07.000Z</time>
      </trkpt>
      <trkpt lat="46.31561" lon="6.72305">
        <ele>1208.8</ele>
        <time>2013-03-16T09:57:10.000Z</time>
      </trkpt>
      <trkpt lat="46.31563" lon="6.72306">
        <ele>1208.5</ele>
        <time>2013-03-16T09:57:11.000Z</time>
      </trkpt>
      <trkpt lat="46.31566" lon="6.7231">
        <ele>1208</ele>
        <time>2013-03-16T09:57:14.000Z</time>
      </trkpt>
      <trkpt lat="46.31567" lon="6.72311">
        <ele>1208.7</ele>
        <time>2013-03-16T09:57:15.000Z</time>
      </trkpt>
      <trkpt lat="46.31568" lon="6.72318">
        <ele>1208.3</ele>
        <time>2013-03-16T09:57:19.000Z</time>
      </trkpt>
      <trkpt lat="46.31569" lon="6.72319">
        <ele>1207.8</ele>
        <time>2013-03-16T09:57:20.000Z</time>
      </trkpt>
      <trkpt lat="46.31572" lon="6.72324">
        <ele>1207.5</ele>
        <time>2013-03-16T09:57:25.000Z</time>
      </trkpt>
      <trkpt lat="46.31573" lon="6.72324">
        <ele>1207.6</ele>
        <time>2013-03-16T09:57:26.000Z</time>
      </trkpt>
      <trkpt lat="46.31576" lon="6.72327">
        <ele>1207.4</ele>
        <time>2013-03-16T09:57:29.000Z</time>
      </trkpt>
      <trkpt lat="46.31577" lon="6.72328">
        <ele>1207.5</ele>
        <time>2013-03-16T09:57:30.000Z</time>
      </trkpt>
      <trkpt lat="46.3158" lon="6.72332">
        <ele>1207</ele>
        <time>2013-03-16T09:57:34.000Z</time>
      </trkpt>
      <trkpt lat="46.31581" lon="6.72333">
        <ele>1207</ele>
        <time>2013-03-16T09:57:35.000Z</time>
      </trkpt>
      <trkpt lat="46.31585" lon="6.72336">
        <ele>1206.3</ele>
        <time>2013-03-16T09:57:39.000Z</time>
      </trkpt>
      <trkpt lat="46.31586" lon="6.72337">
        <ele>1206.4</ele>
        <time>2013-03-16T09:57:40.000Z</time>
      </trkpt>
      <trkpt lat="46.31588" lon="6.72341">
        <ele>1206.1</ele>
        <time>2013-03-16T09:57:43.000Z</time>
      </trkpt>
      <trkpt lat="46.31589" lon="6.72342">
        <ele>1206.2</ele>
        <time>2013-03-16T09:57:44.000Z</time>
      </trkpt>
      <trkpt lat="46.31592" lon="6.72345">
        <ele>1206.1</ele>
        <time>2013-03-16T09:57:47.000Z</time>
      </trkpt>
      <trkpt lat="46.31592" lon="6.72347">
        <ele>1206.4</ele>
        <time>2013-03-16T09:57:48.000Z</time>
      </trkpt>
      <trkpt lat="46.31595" lon="6.72351">
        <ele>1206.5</ele>
        <time>2013-03-16T09:57:51.000Z</time>
      </trkpt>
      <trkpt lat="46.31595" lon="6.72352">
        <ele>1206.5</ele>
        <time>2013-03-16T09:57:52.000Z</time>
      </trkpt>
      <trkpt lat="46.31597" lon="6.72357">
        <ele>1206.2</ele>
        <time>2013-03-16T09:57:55.000Z</time>
      </trkpt>
      <trkpt lat="46.31598" lon="6.72359">
        <ele>1206.1</ele>
        <time>2013-03-16T09:57:56.000Z</time>
      </trkpt>
      <trkpt lat="46.316" lon="6.72363">
        <ele>1205.7</ele>
        <time>2013-03-16T09:57:59.000Z</time>
      </trkpt>
      <trkpt lat="46.31602" lon="6.72363">
        <ele>1205.8</ele>
        <time>2013-03-16T09:58:00.000Z</time>
      </trkpt>
      <trkpt lat="46.31603" lon="6.72367">
        <ele>1205.7</ele>
        <time>2013-03-16T09:58:03.000Z</time>
      </trkpt>
      <trkpt lat="46.31605" lon="6.72369">
        <ele>1205.7</ele>
        <time>2013-03-16T09:58:04.000Z</time>
      </trkpt>
      <trkpt lat="46.31607" lon="6.72374">
        <ele>1205.7</ele>
        <time>2013-03-16T09:58:08.000Z</time>
      </trkpt>
      <trkpt lat="46.31608" lon="6.72374">
        <ele>1205.7</ele>
        <time>2013-03-16T09:58:09.000Z</time>
      </trkpt>
      <trkpt lat="46.31612" lon="6.72378">
        <ele>1205.5</ele>
        <time>2013-03-16T09:58:13.000Z</time>
      </trkpt>
      <trkpt lat="46.31613" lon="6.72379">
        <ele>1205.7</ele>
        <time>2013-03-16T09:58:14.000Z</time>
      </trkpt>
      <trkpt lat="46.31616" lon="6.72381">
        <ele>1205.6</ele>
        <time>2013-03-16T09:58:16.000Z</time>
      </trkpt>
      <trkpt lat="46.31618" lon="6.72382">
        <ele>1206.2</ele>
        <time>2013-03-16T09:58:17.000Z</time>
      </trkpt>
      <trkpt lat="46.3162" lon="6.72387">
        <ele>1206.3</ele>
        <time>2013-03-16T09:58:21.000Z</time>
      </trkpt>
      <trkpt lat="46.3162" lon="6.72389">
        <ele>1206.4</ele>
        <time>2013-03-16T09:58:22.000Z</time>
      </trkpt>
      <trkpt lat="46.31621" lon="6.72395">
        <ele>1207.2</ele>
        <time>2013-03-16T09:58:26.000Z</time>
      </trkpt>
      <trkpt lat="46.31622" lon="6.72396">
        <ele>1207.1</ele>
        <time>2013-03-16T09:58:27.000Z</time>
      </trkpt>
      <trkpt lat="46.31624" lon="6.724">
        <ele>1206.7</ele>
        <time>2013-03-16T09:58:30.000Z</time>
      </trkpt>
      <trkpt lat="46.31625" lon="6.72402">
        <ele>1206.5</ele>
        <time>2013-03-16T09:58:31.000Z</time>
      </trkpt>
      <trkpt lat="46.31626" lon="6.72407">
        <ele>1206.6</ele>
        <time>2013-03-16T09:58:35.000Z</time>
      </trkpt>
      <trkpt lat="46.31626" lon="6.72408">
        <ele>1206.7</ele>
        <time>2013-03-16T09:58:36.000Z</time>
      </trkpt>
      <trkpt lat="46.31627" lon="6.72414">
        <ele>1207.2</ele>
        <time>2013-03-16T09:58:40.000Z</time>
      </trkpt>
      <trkpt lat="46.31628" lon="6.72415">
        <ele>1207.3</ele>
        <time>2013-03-16T09:58:41.000Z</time>
      </trkpt>
      <trkpt lat="46.31628" lon="6.72421">
        <ele>1207.7</ele>
        <time>2013-03-16T09:58:44.000Z</time>
      </trkpt>
      <trkpt lat="46.31627" lon="6.72423">
        <ele>1207.8</ele>
        <time>2013-03-16T09:58:45.000Z</time>
      </trkpt>
      <trkpt lat="46.31628" lon="6.72428">
        <ele>1208.4</ele>
        <time>2013-03-16T09:58:48.000Z</time>
      </trkpt>
      <trkpt lat="46.31628" lon="6.7243">
        <ele>1208.4</ele>
        <time>2013-03-16T09:58:49.000Z</time>
      </trkpt>
      <trkpt lat="46.31631" lon="6.72434">
        <ele>1208.9</ele>
        <time>2013-03-16T09:58:52.000Z</time>
      </trkpt>
      <trkpt lat="46.31632" lon="6.72435">
        <ele>1209</ele>
        <time>2013-03-16T09:58:53.000Z</time>
      </trkpt>
      <trkpt lat="46.31635" lon="6.72439">
        <ele>1209.6</ele>
        <time>2013-03-16T09:58:56.000Z</time>
      </trkpt>
      <trkpt lat="46.31636" lon="6.72441">
        <ele>1209.8</ele>
        <time>2013-03-16T09:58:57.000Z</time>
      </trkpt>
      <trkpt lat="46.31637" lon="6.72445">
        <ele>1210.7</ele>
        <time>2013-03-16T09:59:00.000Z</time>
      </trkpt>
      <trkpt lat="46.31638" lon="6.72446">
        <ele>1210.9</ele>
        <time>2013-03-16T09:59:01.000Z</time>
      </trkpt>
      <trkpt lat="46.31639" lon="6.72451">
        <ele>1211.6</ele>
        <time>2013-03-16T09:59:04.000Z</time>
      </trkpt>
      <trkpt lat="46.31639" lon="6.72453">
        <ele>1211.9</ele>
        <time>2013-03-16T09:59:05.000Z</time>
      </trkpt>
      <trkpt lat="46.31641" lon="6.72457">
        <ele>1212.4</ele>
        <time>2013-03-16T09:59:08.000Z</time>
      </trkpt>
      <trkpt lat="46.31643" lon="6.72458">
        <ele>1212.1</ele>
        <time>2013-03-16T09:59:09.000Z</time>
      </trkpt>
      <trkpt lat="46.31645" lon="6.7246">
        <ele>1212.2</ele>
        <time>2013-03-16T09:59:12.000Z</time>
      </trkpt>
      <trkpt lat="46.31646" lon="6.72462">
        <ele>1211.9</ele>
        <time>2013-03-16T09:59:13.000Z</time>
      </trkpt>
      <trkpt lat="46.31648" lon="6.72467">
        <ele>1212.2</ele>
        <time>2013-03-16T09:59:16.000Z</time>
      </trkpt>
      <trkpt lat="46.31648" lon="6.72469">
        <ele>1212.7</ele>
        <time>2013-03-16T09:59:17.000Z</time>
      </trkpt>
      <trkpt lat="46.31652" lon="6.72472">
        <ele>1213.8</ele>
        <time>2013-03-16T09:59:19.000Z</time>
      </trkpt>
      <trkpt lat="46.31653" lon="6.72473">
        <ele>1214.1</ele>
        <time>2013-03-16T09:59:20.000Z</time>
      </trkpt>
      <trkpt lat="46.31655" lon="6.72478">
        <ele>1215.1</ele>
        <time>2013-03-16T09:59:24.000Z</time>
      </trkpt>
      <trkpt lat="46.31656" lon="6.7248">
        <ele>1215.2</ele>
        <time>2013-03-16T09:59:25.000Z</time>
      </trkpt>
      <trkpt lat="46.31656" lon="6.72486">
        <ele>1215.3</ele>
        <time>2013-03-16T09:59:28.000Z</time>
      </trkpt>
      <trkpt lat="46.31656" lon="6.72487">
        <ele>1215.3</ele>
        <time>2013-03-16T09:59:29.000Z</time>
      </trkpt>
      <trkpt lat="46.31658" lon="6.72492">
        <ele>1216.2</ele>
        <time>2013-03-16T09:59:33.000Z</time>
      </trkpt>
      <trkpt lat="46.31659" lon="6.72493">
        <ele>1216.6</ele>
        <time>2013-03-16T09:59:34.000Z</time>
      </trkpt>
      <trkpt lat="46.31661" lon="6.72498">
        <ele>1217.7</ele>
        <time>2013-03-16T09:59:40.000Z</time>
      </trkpt>
      <trkpt lat="46.31661" lon="6.725">
        <ele>1218.1</ele>
        <time>2013-03-16T09:59:41.000Z</time>
      </trkpt>
      <trkpt lat="46.31664" lon="6.72504">
        <ele>1218.6</ele>
        <time>2013-03-16T09:59:44.000Z</time>
      </trkpt>
      <trkpt lat="46.31665" lon="6.72505">
        <ele>1218.8</ele>
        <time>2013-03-16T09:59:45.000Z</time>
      </trkpt>
      <trkpt lat="46.31668" lon="6.72508">
        <ele>1220.7</ele>
        <time>2013-03-16T09:59:48.000Z</time>
      </trkpt>
      <trkpt lat="46.3167" lon="6.72509">
        <ele>1221.1</ele>
        <time>2013-03-16T09:59:49.000Z</time>
      </trkpt>
      <trkpt lat="46.31671" lon="6.72514">
        <ele>1221.6</ele>
        <time>2013-03-16T09:59:53.000Z</time>
      </trkpt>
      <trkpt lat="46.31672" lon="6.72515">
        <ele>1221.5</ele>
        <time>2013-03-16T09:59:54.000Z</time>
      </trkpt>
      <trkpt lat="46.31675" lon="6.72517">
        <ele>1222.5</ele>
        <time>2013-03-16T09:59:55.000Z</time>
      </trkpt>
      <trkpt lat="46.31677" lon="6.72518">
        <ele>1223.4</ele>
        <time>2013-03-16T09:59:56.000Z</time>
      </trkpt>
      <trkpt lat="46.3168" lon="6.72519">
        <ele>1223.8</ele>
        <time>2013-03-16T09:59:57.000Z</time>
      </trkpt>
      <trkpt lat="46.31682" lon="6.72521">
        <ele>1224.5</ele>
        <time>2013-03-16T09:59:58.000Z</time>
      </trkpt>
      <trkpt lat="46.31682" lon="6.72526">
        <ele>1223.3</ele>
        <time>2013-03-16T10:00:02.000Z</time>
      </trkpt>
      <trkpt lat="46.31682" lon="6.72527">
        <ele>1223</ele>
        <time>2013-03-16T10:00:03.000Z</time>
      </trkpt>
      <trkpt lat="46.31684" lon="6.72533">
        <ele>1221.7</ele>
        <time>2013-03-16T10:00:13.000Z</time>
      </trkpt>
      <trkpt lat="46.31684" lon="6.72534">
        <ele>1221.6</ele>
        <time>2013-03-16T10:00:14.000Z</time>
      </trkpt>
      <trkpt lat="46.31687" lon="6.72537">
        <ele>1219.8</ele>
        <time>2013-03-16T10:00:19.000Z</time>
      </trkpt>
      <trkpt lat="46.31688" lon="6.72538">
        <ele>1219.6</ele>
        <time>2013-03-16T10:00:20.000Z</time>
      </trkpt>
      <trkpt lat="46.31691" lon="6.7254">
        <ele>1219.7</ele>
        <time>2013-03-16T10:00:38.000Z</time>
      </trkpt>
      <trkpt lat="46.31692" lon="6.72541">
        <ele>1219.6</ele>
        <time>2013-03-16T10:00:39.000Z</time>
      </trkpt>
      <trkpt lat="46.31695" lon="6.72545">
        <ele>1220.1</ele>
        <time>2013-03-16T10:00:42.000Z</time>
      </trkpt>
      <trkpt lat="46.31696" lon="6.72546">
        <ele>1220.3</ele>
        <time>2013-03-16T10:00:43.000Z</time>
      </trkpt>
      <trkpt lat="46.31698" lon="6.72551">
        <ele>1220.1</ele>
        <time>2013-03-16T10:00:46.000Z</time>
      </trkpt>
      <trkpt lat="46.31699" lon="6.72552">
        <ele>1220.2</ele>
        <time>2013-03-16T10:00:47.000Z</time>
      </trkpt>
      <trkpt lat="46.31702" lon="6.72557">
        <ele>1221.1</ele>
        <time>2013-03-16T10:00:51.000Z</time>
      </trkpt>
      <trkpt lat="46.31703" lon="6.72558">
        <ele>1220.8</ele>
        <time>2013-03-16T10:00:52.000Z</time>
      </trkpt>
      <trkpt lat="46.31706" lon="6.72563">
        <ele>1220.2</ele>
        <time>2013-03-16T10:00:56.000Z</time>
      </trkpt>
      <trkpt lat="46.31706" lon="6.72564">
        <ele>1220.3</ele>
        <time>2013-03-16T10:00:57.000Z</time>
      </trkpt>
      <trkpt lat="46.31708" lon="6.72569">
        <ele>1220.7</ele>
        <time>2013-03-16T10:01:01.000Z</time>
      </trkpt>
      <trkpt lat="46.31708" lon="6.7257">
        <ele>1220.4</ele>
        <time>2013-03-16T10:01:02.000Z</time>
      </trkpt>
      <trkpt lat="46.3171" lon="6.72575">
        <ele>1220.1</ele>
        <time>2013-03-16T10:01:05.000Z</time>
      </trkpt>
      <trkpt lat="46.3171" lon="6.72576">
        <ele>1220.1</ele>
        <time>2013-03-16T10:01:06.000Z</time>
      </trkpt>
      <trkpt lat="46.31713" lon="6.72581">
        <ele>1220.1</ele>
        <time>2013-03-16T10:01:10.000Z</time>
      </trkpt>
      <trkpt lat="46.31713" lon="6.72583">
        <ele>1220</ele>
        <time>2013-03-16T10:01:11.000Z</time>
      </trkpt>
      <trkpt lat="46.31716" lon="6.72587">
        <ele>1220.6</ele>
        <time>2013-03-16T10:01:15.000Z</time>
      </trkpt>
      <trkpt lat="46.31717" lon="6.72588">
        <ele>1220.8</ele>
        <time>2013-03-16T10:01:16.000Z</time>
      </trkpt>
      <trkpt lat="46.31719" lon="6.72593">
        <ele>1221.2</ele>
        <time>2013-03-16T10:01:20.000Z</time>
      </trkpt>
      <trkpt lat="46.3172" lon="6.72594">
        <ele>1221.2</ele>
        <time>2013-03-16T10:01:21.000Z</time>
      </trkpt>
      <trkpt lat="46.31722" lon="6.72599">
        <ele>1222</ele>
        <time>2013-03-16T10:01:25.000Z</time>
      </trkpt>
      <trkpt lat="46.31723" lon="6.726">
        <ele>1222.1</ele>
        <time>2013-03-16T10:01:26.000Z</time>
      </trkpt>
      <trkpt lat="46.31725" lon="6.72604">
        <ele>1221.4</ele>
        <time>2013-03-16T10:01:29.000Z</time>
      </trkpt>
      <trkpt lat="46.31725" lon="6.72605">
        <ele>1221.4</ele>
        <time>2013-03-16T10:01:30.000Z</time>
      </trkpt>
      <trkpt lat="46.31728" lon="6.72608">
        <ele>1222</ele>
        <time>2013-03-16T10:01:33.000Z</time>
      </trkpt>
      <trkpt lat="46.31729" lon="6.72609">
        <ele>1222.2</ele>
        <time>2013-03-16T10:01:34.000Z</time>
      </trkpt>
      <trkpt lat="46.31733" lon="6.72611">
        <ele>1222.7</ele>
        <time>2013-03-16T10:01:37.000Z</time>
      </trkpt>
      <trkpt lat="46.31734" lon="6.72612">
        <ele>1222.9</ele>
        <time>2013-03-16T10:01:38.000Z</time>
      </trkpt>
      <trkpt lat="46.31737" lon="6.72617">
        <ele>1222.6</ele>
        <time>2013-03-16T10:01:42.000Z</time>
      </trkpt>
      <trkpt lat="46.31738" lon="6.72618">
        <ele>1222.5</ele>
        <time>2013-03-16T10:01:43.000Z</time>
      </trkpt>
      <trkpt lat="46.31741" lon="6.72621">
        <ele>1222.6</ele>
        <time>2013-03-16T10:01:46.000Z</time>
      </trkpt>
      <trkpt lat="46.31741" lon="6.72622">
        <ele>1222.7</ele>
        <time>2013-03-16T10:01:47.000Z</time>
      </trkpt>
      <trkpt lat="46.31744" lon="6.72626">
        <ele>1223</ele>
        <time>2013-03-16T10:01:51.000Z</time>
      </trkpt>
      <trkpt lat="46.31745" lon="6.72627">
        <ele>1223.1</ele>
        <time>2013-03-16T10:01:52.000Z</time>
      </trkpt>
      <trkpt lat="46.31747" lon="6.72631">
        <ele>1223</ele>
        <time>2013-03-16T10:01:55.000Z</time>
      </trkpt>
      <trkpt lat="46.31748" lon="6.72632">
        <ele>1223.1</ele>
        <time>2013-03-16T10:01:56.000Z</time>
      </trkpt>
      <trkpt lat="46.31751" lon="6.72637">
        <ele>1223.6</ele>
        <time>2013-03-16T10:02:00.000Z</time>
      </trkpt>
      <trkpt lat="46.31751" lon="6.72638">
        <ele>1223.7</ele>
        <time>2013-03-16T10:02:01.000Z</time>
      </trkpt>
      <trkpt lat="46.31754" lon="6.72643">
        <ele>1224.4</ele>
        <time>2013-03-16T10:02:05.000Z</time>
      </trkpt>
      <trkpt lat="46.31755" lon="6.72644">
        <ele>1224.5</ele>
        <time>2013-03-16T10:02:06.000Z</time>
      </trkpt>
      <trkpt lat="46.31756" lon="6.7265">
        <ele>1224.8</ele>
        <time>2013-03-16T10:02:11.000Z</time>
      </trkpt>
      <trkpt lat="46.31756" lon="6.72652">
        <ele>1224.7</ele>
        <time>2013-03-16T10:02:12.000Z</time>
      </trkpt>
      <trkpt lat="46.31758" lon="6.72656">
        <ele>1225.5</ele>
        <time>2013-03-16T10:02:16.000Z</time>
      </trkpt>
      <trkpt lat="46.31759" lon="6.72658">
        <ele>1225.9</ele>
        <time>2013-03-16T10:02:17.000Z</time>
      </trkpt>
      <trkpt lat="46.31761" lon="6.72661">
        <ele>1226.5</ele>
        <time>2013-03-16T10:02:20.000Z</time>
      </trkpt>
      <trkpt lat="46.31762" lon="6.72662">
        <ele>1226.6</ele>
        <time>2013-03-16T10:02:21.000Z</time>
      </trkpt>
      <trkpt lat="46.31764" lon="6.72667">
        <ele>1227.4</ele>
        <time>2013-03-16T10:02:25.000Z</time>
      </trkpt>
      <trkpt lat="46.31765" lon="6.72669">
        <ele>1227.3</ele>
        <time>2013-03-16T10:02:26.000Z</time>
      </trkpt>
      <trkpt lat="46.31767" lon="6.72674">
        <ele>1227.9</ele>
        <time>2013-03-16T10:02:30.000Z</time>
      </trkpt>
      <trkpt lat="46.31768" lon="6.72675">
        <ele>1228</ele>
        <time>2013-03-16T10:02:31.000Z</time>
      </trkpt>
      <trkpt lat="46.3177" lon="6.7268">
        <ele>1228.2</ele>
        <time>2013-03-16T10:02:35.000Z</time>
      </trkpt>
      <trkpt lat="46.3177" lon="6.72681">
        <ele>1228.3</ele>
        <time>2013-03-16T10:02:36.000Z</time>
      </trkpt>
      <trkpt lat="46.31771" lon="6.72686">
        <ele>1228.7</ele>
        <time>2013-03-16T10:02:39.000Z</time>
      </trkpt>
      <trkpt lat="46.31772" lon="6.72687">
        <ele>1228.6</ele>
        <time>2013-03-16T10:02:40.000Z</time>
      </trkpt>
      <trkpt lat="46.31773" lon="6.72692">
        <ele>1229.2</ele>
        <time>2013-03-16T10:02:43.000Z</time>
      </trkpt>
      <trkpt lat="46.31773" lon="6.72694">
        <ele>1229.4</ele>
        <time>2013-03-16T10:02:44.000Z</time>
      </trkpt>
      <trkpt lat="46.31775" lon="6.72699">
        <ele>1229.7</ele>
        <time>2013-03-16T10:02:47.000Z</time>
      </trkpt>
      <trkpt lat="46.31775" lon="6.72701">
        <ele>1229.9</ele>
        <time>2013-03-16T10:02:48.000Z</time>
      </trkpt>
      <trkpt lat="46.31776" lon="6.72706">
        <ele>1230.9</ele>
        <time>2013-03-16T10:02:52.000Z</time>
      </trkpt>
      <trkpt lat="46.31777" lon="6.72707">
        <ele>1231</ele>
        <time>2013-03-16T10:02:53.000Z</time>
      </trkpt>
      <trkpt lat="46.31779" lon="6.72713">
        <ele>1231.2</ele>
        <time>2013-03-16T10:02:57.000Z</time>
      </trkpt>
      <trkpt lat="46.31779" lon="6.72715">
        <ele>1231.1</ele>
        <time>2013-03-16T10:02:58.000Z</time>
      </trkpt>
      <trkpt lat="46.31782" lon="6.7272">
        <ele>1231.7</ele>
        <time>2013-03-16T10:03:02.000Z</time>
      </trkpt>
      <trkpt lat="46.31782" lon="6.72721">
        <ele>1231.7</ele>
        <time>2013-03-16T10:03:03.000Z</time>
      </trkpt>
      <trkpt lat="46.31785" lon="6.72725">
        <ele>1232.2</ele>
        <time>2013-03-16T10:03:06.000Z</time>
      </trkpt>
      <trkpt lat="46.31786" lon="6.72726">
        <ele>1232.3</ele>
        <time>2013-03-16T10:03:07.000Z</time>
      </trkpt>
      <trkpt lat="46.31789" lon="6.72729">
        <ele>1233.2</ele>
        <time>2013-03-16T10:03:10.000Z</time>
      </trkpt>
      <trkpt lat="46.3179" lon="6.72731">
        <ele>1233.3</ele>
        <time>2013-03-16T10:03:11.000Z</time>
      </trkpt>
      <trkpt lat="46.31793" lon="6.72735">
        <ele>1234.5</ele>
        <time>2013-03-16T10:03:15.000Z</time>
      </trkpt>
      <trkpt lat="46.31794" lon="6.72736">
        <ele>1234.8</ele>
        <time>2013-03-16T10:03:16.000Z</time>
      </trkpt>
      <trkpt lat="46.31796" lon="6.7274">
        <ele>1236.1</ele>
        <time>2013-03-16T10:03:20.000Z</time>
      </trkpt>
      <trkpt lat="46.31797" lon="6.72741">
        <ele>1235.9</ele>
        <time>2013-03-16T10:03:21.000Z</time>
      </trkpt>
      <trkpt lat="46.31799" lon="6.72745">
        <ele>1235.4</ele>
        <time>2013-03-16T10:03:25.000Z</time>
      </trkpt>
      <trkpt lat="46.318" lon="6.72746">
        <ele>1235.5</ele>
        <time>2013-03-16T10:03:26.000Z</time>
      </trkpt>
      <trkpt lat="46.31803" lon="6.72751">
        <ele>1235.5</ele>
        <time>2013-03-16T10:03:30.000Z</time>
      </trkpt>
      <trkpt lat="46.31804" lon="6.72752">
        <ele>1235.5</ele>
        <time>2013-03-16T10:03:31.000Z</time>
      </trkpt>
      <trkpt lat="46.31807" lon="6.72756">
        <ele>1235.7</ele>
        <time>2013-03-16T10:03:35.000Z</time>
      </trkpt>
      <trkpt lat="46.31807" lon="6.72757">
        <ele>1235.7</ele>
        <time>2013-03-16T10:03:36.000Z</time>
      </trkpt>
      <trkpt lat="46.31809" lon="6.72762">
        <ele>1236.3</ele>
        <time>2013-03-16T10:03:41.000Z</time>
      </trkpt>
      <trkpt lat="46.31809" lon="6.72763">
        <ele>1236.4</ele>
        <time>2013-03-16T10:03:42.000Z</time>
      </trkpt>
      <trkpt lat="46.31812" lon="6.72767">
        <ele>1237</ele>
        <time>2013-03-16T10:03:46.000Z</time>
      </trkpt>
      <trkpt lat="46.31814" lon="6.72768">
        <ele>1236.9</ele>
        <time>2013-03-16T10:03:47.000Z</time>
      </trkpt>
      <trkpt lat="46.31816" lon="6.72771">
        <ele>1237.4</ele>
        <time>2013-03-16T10:03:50.000Z</time>
      </trkpt>
      <trkpt lat="46.31817" lon="6.72772">
        <ele>1237.4</ele>
        <time>2013-03-16T10:03:51.000Z</time>
      </trkpt>
      <trkpt lat="46.31819" lon="6.72777">
        <ele>1238.4</ele>
        <time>2013-03-16T10:03:55.000Z</time>
      </trkpt>
      <trkpt lat="46.3182" lon="6.72778">
        <ele>1238.7</ele>
        <time>2013-03-16T10:03:56.000Z</time>
      </trkpt>
      <trkpt lat="46.31822" lon="6.72783">
        <ele>1240.6</ele>
        <time>2013-03-16T10:04:00.000Z</time>
      </trkpt>
      <trkpt lat="46.31823" lon="6.72784">
        <ele>1241.4</ele>
        <time>2013-03-16T10:04:01.000Z</time>
      </trkpt>
      <trkpt lat="46.31825" lon="6.72789">
        <ele>1243.9</ele>
        <time>2013-03-16T10:04:05.000Z</time>
      </trkpt>
      <trkpt lat="46.31826" lon="6.72791">
        <ele>1244.2</ele>
        <time>2013-03-16T10:04:06.000Z</time>
      </trkpt>
      <trkpt lat="46.31828" lon="6.72796">
        <ele>1243.9</ele>
        <time>2013-03-16T10:04:09.000Z</time>
      </trkpt>
      <trkpt lat="46.31828" lon="6.72797">
        <ele>1243.7</ele>
        <time>2013-03-16T10:04:10.000Z</time>
      </trkpt>
      <trkpt lat="46.31829" lon="6.72802">
        <ele>1244.2</ele>
        <time>2013-03-16T10:04:13.000Z</time>
      </trkpt>
      <trkpt lat="46.31829" lon="6.72804">
        <ele>1244.2</ele>
        <time>2013-03-16T10:04:14.000Z</time>
      </trkpt>
      <trkpt lat="46.3183" lon="6.72809">
        <ele>1244.3</ele>
        <time>2013-03-16T10:04:17.000Z</time>
      </trkpt>
      <trkpt lat="46.31831" lon="6.7281">
        <ele>1244.3</ele>
        <time>2013-03-16T10:04:18.000Z</time>
      </trkpt>
      <trkpt lat="46.31831" lon="6.72816">
        <ele>1244</ele>
        <time>2013-03-16T10:04:22.000Z</time>
      </trkpt>
      <trkpt lat="46.31831" lon="6.72818">
        <ele>1243.8</ele>
        <time>2013-03-16T10:04:23.000Z</time>
      </trkpt>
      <trkpt lat="46.3183" lon="6.72823">
        <ele>1243.9</ele>
        <time>2013-03-16T10:04:27.000Z</time>
      </trkpt>
      <trkpt lat="46.3183" lon="6.72824">
        <ele>1243.9</ele>
        <time>2013-03-16T10:04:28.000Z</time>
      </trkpt>
      <trkpt lat="46.3183" lon="6.7283">
        <ele>1243.8</ele>
        <time>2013-03-16T10:04:32.000Z</time>
      </trkpt>
      <trkpt lat="46.3183" lon="6.72832">
        <ele>1243.7</ele>
        <time>2013-03-16T10:04:33.000Z</time>
      </trkpt>
      <trkpt lat="46.31831" lon="6.72838">
        <ele>1243.3</ele>
        <time>2013-03-16T10:04:37.000Z</time>
      </trkpt>
      <trkpt lat="46.31831" lon="6.72839">
        <ele>1243.4</ele>
        <time>2013-03-16T10:04:38.000Z</time>
      </trkpt>
      <trkpt lat="46.3183" lon="6.72845">
        <ele>1243.9</ele>
        <time>2013-03-16T10:04:42.000Z</time>
      </trkpt>
      <trkpt lat="46.3183" lon="6.72846">
        <ele>1243.9</ele>
        <time>2013-03-16T10:04:43.000Z</time>
      </trkpt>
      <trkpt lat="46.3183" lon="6.72852">
        <ele>1244.2</ele>
        <time>2013-03-16T10:04:47.000Z</time>
      </trkpt>
      <trkpt lat="46.3183" lon="6.72853">
        <ele>1244.2</ele>
        <time>2013-03-16T10:04:48.000Z</time>
      </trkpt>
      <trkpt lat="46.31831" lon="6.72859">
        <ele>1244.7</ele>
        <time>2013-03-16T10:04:52.000Z</time>
      </trkpt>
      <trkpt lat="46.3183" lon="6.7286">
        <ele>1244.6</ele>
        <time>2013-03-16T10:04:53.000Z</time>
      </trkpt>
      <trkpt lat="46.31831" lon="6.72867">
        <ele>1245.8</ele>
        <time>2013-03-16T10:04:57.000Z</time>
      </trkpt>
      <trkpt lat="46.31831" lon="6.72868">
        <ele>1245.9</ele>
        <time>2013-03-16T10:04:58.000Z</time>
      </trkpt>
      <trkpt lat="46.31832" lon="6.72873">
        <ele>1246.2</ele>
        <time>2013-03-16T10:05:01.000Z</time>
      </trkpt>
      <trkpt lat="46.31832" lon="6.72875">
        <ele>1246.3</ele>
        <time>2013-03-16T10:05:02.000Z</time>
      </trkpt>
      <trkpt lat="46.31833" lon="6.72879">
        <ele>1246.3</ele>
        <time>2013-03-16T10:05:05.000Z</time>
      </trkpt>
      <trkpt lat="46.31833" lon="6.72881">
        <ele>1246.3</ele>
        <time>2013-03-16T10:05:06.000Z</time>
      </trkpt>
      <trkpt lat="46.31835" lon="6.72886">
        <ele>1246.7</ele>
        <time>2013-03-16T10:05:09.000Z</time>
      </trkpt>
      <trkpt lat="46.31835" lon="6.72888">
        <ele>1246.7</ele>
        <time>2013-03-16T10:05:10.000Z</time>
      </trkpt>
      <trkpt lat="46.31836" lon="6.72892">
        <ele>1245.8</ele>
        <time>2013-03-16T10:05:13.000Z</time>
      </trkpt>
      <trkpt lat="46.31837" lon="6.72894">
        <ele>1246.1</ele>
        <time>2013-03-16T10:05:14.000Z</time>
      </trkpt>
      <trkpt lat="46.31838" lon="6.72899">
        <ele>1246</ele>
        <time>2013-03-16T10:05:17.000Z</time>
      </trkpt>
      <trkpt lat="46.31838" lon="6.729">
        <ele>1246.1</ele>
        <time>2013-03-16T10:05:18.000Z</time>
      </trkpt>
      <trkpt lat="46.31839" lon="6.72906">
        <ele>1246.1</ele>
        <time>2013-03-16T10:05:22.000Z</time>
      </trkpt>
      <trkpt lat="46.31839" lon="6.72907">
        <ele>1246.2</ele>
        <time>2013-03-16T10:05:23.000Z</time>
      </trkpt>
      <trkpt lat="46.3184" lon="6.72913">
        <ele>1246.7</ele>
        <time>2013-03-16T10:05:27.000Z</time>
      </trkpt>
      <trkpt lat="46.3184" lon="6.72915">
        <ele>1246.8</ele>
        <time>2013-03-16T10:05:28.000Z</time>
      </trkpt>
      <trkpt lat="46.31841" lon="6.72921">
        <ele>1246.8</ele>
        <time>2013-03-16T10:05:32.000Z</time>
      </trkpt>
      <trkpt lat="46.31841" lon="6.72922">
        <ele>1247</ele>
        <time>2013-03-16T10:05:33.000Z</time>
      </trkpt>
      <trkpt lat="46.31841" lon="6.72928">
        <ele>1247.2</ele>
        <time>2013-03-16T10:05:38.000Z</time>
      </trkpt>
      <trkpt lat="46.31841" lon="6.72929">
        <ele>1247.3</ele>
        <time>2013-03-16T10:05:39.000Z</time>
      </trkpt>
      <trkpt lat="46.31841" lon="6.72929">
        <ele>1247.2</ele>
        <time>2013-03-16T10:06:05.000Z</time>
      </trkpt>
      <trkpt lat="46.31836" lon="6.72928">
        <ele>1248.3</ele>
        <time>2013-03-16T10:06:06.000Z</time>
      </trkpt>
      <trkpt lat="46.31838" lon="6.72934">
        <ele>1248.3</ele>
        <time>2013-03-16T10:06:10.000Z</time>
      </trkpt>
      <trkpt lat="46.31838" lon="6.72935">
        <ele>1248.4</ele>
        <time>2013-03-16T10:06:11.000Z</time>
      </trkpt>
      <trkpt lat="46.3184" lon="6.72939">
        <ele>1248.6</ele>
        <time>2013-03-16T10:06:14.000Z</time>
      </trkpt>
      <trkpt lat="46.31841" lon="6.72941">
        <ele>1248.6</ele>
        <time>2013-03-16T10:06:15.000Z</time>
      </trkpt>
      <trkpt lat="46.31843" lon="6.72944">
        <ele>1249.2</ele>
        <time>2013-03-16T10:06:17.000Z</time>
      </trkpt>
      <trkpt lat="46.31844" lon="6.72946">
        <ele>1249.8</ele>
        <time>2013-03-16T10:06:18.000Z</time>
      </trkpt>
      <trkpt lat="46.31845" lon="6.72951">
        <ele>1250.4</ele>
        <time>2013-03-16T10:06:21.000Z</time>
      </trkpt>
      <trkpt lat="46.31846" lon="6.72952">
        <ele>1250.4</ele>
        <time>2013-03-16T10:06:22.000Z</time>
      </trkpt>
      <trkpt lat="46.31847" lon="6.72956">
        <ele>1250.3</ele>
        <time>2013-03-16T10:06:25.000Z</time>
      </trkpt>
      <trkpt lat="46.31848" lon="6.72958">
        <ele>1250.5</ele>
        <time>2013-03-16T10:06:26.000Z</time>
      </trkpt>
      <trkpt lat="46.3185" lon="6.72963">
        <ele>1250.3</ele>
        <time>2013-03-16T10:06:29.000Z</time>
      </trkpt>
      <trkpt lat="46.31851" lon="6.72964">
        <ele>1250.3</ele>
        <time>2013-03-16T10:06:30.000Z</time>
      </trkpt>
      <trkpt lat="46.31852" lon="6.72969">
        <ele>1250.4</ele>
        <time>2013-03-16T10:06:33.000Z</time>
      </trkpt>
      <trkpt lat="46.31853" lon="6.7297">
        <ele>1250.6</ele>
        <time>2013-03-16T10:06:34.000Z</time>
      </trkpt>
      <trkpt lat="46.31855" lon="6.72975">
        <ele>1250.5</ele>
        <time>2013-03-16T10:06:37.000Z</time>
      </trkpt>
      <trkpt lat="46.31856" lon="6.72976">
        <ele>1250.7</ele>
        <time>2013-03-16T10:06:38.000Z</time>
      </trkpt>
      <trkpt lat="46.31859" lon="6.72981">
        <ele>1250.4</ele>
        <time>2013-03-16T10:06:41.000Z</time>
      </trkpt>
      <trkpt lat="46.31859" lon="6.72982">
        <ele>1250.1</ele>
        <time>2013-03-16T10:06:42.000Z</time>
      </trkpt>
      <trkpt lat="46.31862" lon="6.72987">
        <ele>1249.7</ele>
        <time>2013-03-16T10:06:47.000Z</time>
      </trkpt>
      <trkpt lat="46.31862" lon="6.72988">
        <ele>1249.8</ele>
        <time>2013-03-16T10:06:48.000Z</time>
      </trkpt>
      <trkpt lat="46.31865" lon="6.72992">
        <ele>1250.7</ele>
        <time>2013-03-16T10:06:52.000Z</time>
      </trkpt>
      <trkpt lat="46.31866" lon="6.72993">
        <ele>1250.8</ele>
        <time>2013-03-16T10:06:53.000Z</time>
      </trkpt>
      <trkpt lat="46.31868" lon="6.72998">
        <ele>1251.6</ele>
        <time>2013-03-16T10:06:57.000Z</time>
      </trkpt>
      <trkpt lat="46.31869" lon="6.72999">
        <ele>1251.9</ele>
        <time>2013-03-16T10:06:58.000Z</time>
      </trkpt>
      <trkpt lat="46.3187" lon="6.73004">
        <ele>1253.1</ele>
        <time>2013-03-16T10:07:03.000Z</time>
      </trkpt>
      <trkpt lat="46.31871" lon="6.73006">
        <ele>1253.2</ele>
        <time>2013-03-16T10:07:04.000Z</time>
      </trkpt>
      <trkpt lat="46.31872" lon="6.73012">
        <ele>1253.7</ele>
        <time>2013-03-16T10:07:09.000Z</time>
      </trkpt>
      <trkpt lat="46.31872" lon="6.73013">
        <ele>1253.5</ele>
        <time>2013-03-16T10:07:10.000Z</time>
      </trkpt>
      <trkpt lat="46.31874" lon="6.73019">
        <ele>1253.6</ele>
        <time>2013-03-16T10:07:15.000Z</time>
      </trkpt>
      <trkpt lat="46.31875" lon="6.7302">
        <ele>1253.7</ele>
        <time>2013-03-16T10:07:16.000Z</time>
      </trkpt>
      <trkpt lat="46.31877" lon="6.73026">
        <ele>1253.7</ele>
        <time>2013-03-16T10:07:21.000Z</time>
      </trkpt>
      <trkpt lat="46.31878" lon="6.73027">
        <ele>1253.7</ele>
        <time>2013-03-16T10:07:22.000Z</time>
      </trkpt>
      <trkpt lat="46.31879" lon="6.73032">
        <ele>1253.6</ele>
        <time>2013-03-16T10:07:26.000Z</time>
      </trkpt>
      <trkpt lat="46.3188" lon="6.73034">
        <ele>1253.6</ele>
        <time>2013-03-16T10:07:27.000Z</time>
      </trkpt>
      <trkpt lat="46.31882" lon="6.73038">
        <ele>1253.6</ele>
        <time>2013-03-16T10:07:30.000Z</time>
      </trkpt>
      <trkpt lat="46.31883" lon="6.73039">
        <ele>1253.4</ele>
        <time>2013-03-16T10:07:31.000Z</time>
      </trkpt>
      <trkpt lat="46.31885" lon="6.73043">
        <ele>1253.5</ele>
        <time>2013-03-16T10:07:34.000Z</time>
      </trkpt>
      <trkpt lat="46.31886" lon="6.73044">
        <ele>1253.7</ele>
        <time>2013-03-16T10:07:35.000Z</time>
      </trkpt>
      <trkpt lat="46.31888" lon="6.73049">
        <ele>1253.6</ele>
        <time>2013-03-16T10:07:38.000Z</time>
      </trkpt>
      <trkpt lat="46.31888" lon="6.7305">
        <ele>1253.8</ele>
        <time>2013-03-16T10:07:39.000Z</time>
      </trkpt>
      <trkpt lat="46.3189" lon="6.73055">
        <ele>1254</ele>
        <time>2013-03-16T10:07:42.000Z</time>
      </trkpt>
      <trkpt lat="46.31891" lon="6.73056">
        <ele>1254.2</ele>
        <time>2013-03-16T10:07:43.000Z</time>
      </trkpt>
      <trkpt lat="46.31893" lon="6.7306">
        <ele>1254.5</ele>
        <time>2013-03-16T10:07:47.000Z</time>
      </trkpt>
      <trkpt lat="46.31893" lon="6.73061">
        <ele>1254.5</ele>
        <time>2013-03-16T10:07:48.000Z</time>
      </trkpt>
      <trkpt lat="46.31895" lon="6.73065">
        <ele>1254.5</ele>
        <time>2013-03-16T10:07:51.000Z</time>
      </trkpt>
      <trkpt lat="46.31896" lon="6.73066">
        <ele>1254.4</ele>
        <time>2013-03-16T10:07:52.000Z</time>
      </trkpt>
      <trkpt lat="46.31899" lon="6.73071">
        <ele>1254.8</ele>
        <time>2013-03-16T10:07:56.000Z</time>
      </trkpt>
      <trkpt lat="46.31899" lon="6.73072">
        <ele>1254.9</ele>
        <time>2013-03-16T10:07:57.000Z</time>
      </trkpt>
      <trkpt lat="46.31902" lon="6.73077">
        <ele>1255.1</ele>
        <time>2013-03-16T10:08:01.000Z</time>
      </trkpt>
      <trkpt lat="46.31903" lon="6.73078">
        <ele>1255.4</ele>
        <time>2013-03-16T10:08:02.000Z</time>
      </trkpt>
      <trkpt lat="46.31904" lon="6.73083">
        <ele>1256.2</ele>
        <time>2013-03-16T10:08:07.000Z</time>
      </trkpt>
      <trkpt lat="46.31904" lon="6.73084">
        <ele>1256.2</ele>
        <time>2013-03-16T10:08:08.000Z</time>
      </trkpt>
      <trkpt lat="46.31906" lon="6.73089">
        <ele>1257.4</ele>
        <time>2013-03-16T10:08:13.000Z</time>
      </trkpt>
      <trkpt lat="46.31906" lon="6.7309">
        <ele>1257.6</ele>
        <time>2013-03-16T10:08:14.000Z</time>
      </trkpt>
      <trkpt lat="46.31909" lon="6.73094">
        <ele>1258.3</ele>
        <time>2013-03-16T10:08:19.000Z</time>
      </trkpt>
      <trkpt lat="46.3191" lon="6.73094">
        <ele>1258.5</ele>
        <time>2013-03-16T10:08:20.000Z</time>
      </trkpt>
      <trkpt lat="46.31913" lon="6.73098">
        <ele>1259.8</ele>
        <time>2013-03-16T10:08:25.000Z</time>
      </trkpt>
      <trkpt lat="46.31913" lon="6.73099">
        <ele>1260</ele>
        <time>2013-03-16T10:08:26.000Z</time>
      </trkpt>
      <trkpt lat="46.31917" lon="6.73103">
        <ele>1260.6</ele>
        <time>2013-03-16T10:08:30.000Z</time>
      </trkpt>
      <trkpt lat="46.31917" lon="6.73104">
        <ele>1260.7</ele>
        <time>2013-03-16T10:08:31.000Z</time>
      </trkpt>
      <trkpt lat="46.3192" lon="6.73108">
        <ele>1261.2</ele>
        <time>2013-03-16T10:08:36.000Z</time>
      </trkpt>
      <trkpt lat="46.31921" lon="6.73109">
        <ele>1261.3</ele>
        <time>2013-03-16T10:08:37.000Z</time>
      </trkpt>
      <trkpt lat="46.31925" lon="6.73113">
        <ele>1262.3</ele>
        <time>2013-03-16T10:08:41.000Z</time>
      </trkpt>
      <trkpt lat="46.31926" lon="6.73113">
        <ele>1262.4</ele>
        <time>2013-03-16T10:08:42.000Z</time>
      </trkpt>
      <trkpt lat="46.31929" lon="6.73117">
        <ele>1262.8</ele>
        <time>2013-03-16T10:08:46.000Z</time>
      </trkpt>
      <trkpt lat="46.3193" lon="6.73118">
        <ele>1263.1</ele>
        <time>2013-03-16T10:08:47.000Z</time>
      </trkpt>
      <trkpt lat="46.3193" lon="6.73123">
        <ele>1264.8</ele>
        <time>2013-03-16T10:09:24.000Z</time>
      </trkpt>
      <trkpt lat="46.31931" lon="6.73124">
        <ele>1264.7</ele>
        <time>2013-03-16T10:09:25.000Z</time>
      </trkpt>
      <trkpt lat="46.31933" lon="6.7313">
        <ele>1265</ele>
        <time>2013-03-16T10:09:29.000Z</time>
      </trkpt>
      <trkpt lat="46.31934" lon="6.7313">
        <ele>1265.1</ele>
        <time>2013-03-16T10:09:30.000Z</time>
      </trkpt>
      <trkpt lat="46.31936" lon="6.73134">
        <ele>1266.1</ele>
        <time>2013-03-16T10:09:35.000Z</time>
      </trkpt>
      <trkpt lat="46.31937" lon="6.73135">
        <ele>1266.2</ele>
        <time>2013-03-16T10:09:36.000Z</time>
      </trkpt>
      <trkpt lat="46.31939" lon="6.73139">
        <ele>1267.1</ele>
        <time>2013-03-16T10:09:40.000Z</time>
      </trkpt>
      <trkpt lat="46.3194" lon="6.7314">
        <ele>1267.2</ele>
        <time>2013-03-16T10:09:41.000Z</time>
      </trkpt>
      <trkpt lat="46.31942" lon="6.73145">
        <ele>1268.3</ele>
        <time>2013-03-16T10:09:49.000Z</time>
      </trkpt>
      <trkpt lat="46.31942" lon="6.73146">
        <ele>1268.4</ele>
        <time>2013-03-16T10:09:50.000Z</time>
      </trkpt>
      <trkpt lat="46.31944" lon="6.7315">
        <ele>1268.4</ele>
        <time>2013-03-16T10:09:55.000Z</time>
      </trkpt>
      <trkpt lat="46.31945" lon="6.73151">
        <ele>1268.4</ele>
        <time>2013-03-16T10:09:56.000Z</time>
      </trkpt>
      <trkpt lat="46.31947" lon="6.73154">
        <ele>1268.7</ele>
        <time>2013-03-16T10:10:00.000Z</time>
      </trkpt>
      <trkpt lat="46.31949" lon="6.73155">
        <ele>1268.6</ele>
        <time>2013-03-16T10:10:01.000Z</time>
      </trkpt>
      <trkpt lat="46.31952" lon="6.7316">
        <ele>1269.2</ele>
        <time>2013-03-16T10:10:07.000Z</time>
      </trkpt>
      <trkpt lat="46.31952" lon="6.7316">
        <ele>1269.3</ele>
        <time>2013-03-16T10:10:08.000Z</time>
      </trkpt>
      <trkpt lat="46.31952" lon="6.73158">
        <ele>1270.7</ele>
        <time>2013-03-16T10:13:55.000Z</time>
      </trkpt>
      <trkpt lat="46.31943" lon="6.73155">
        <ele>1271.6</ele>
        <time>2013-03-16T10:13:56.000Z</time>
      </trkpt>
      <trkpt lat="46.31946" lon="6.73159">
        <ele>1277.1</ele>
        <time>2013-03-16T10:26:27.000Z</time>
      </trkpt>
      <trkpt lat="46.31946" lon="6.73159">
        <ele>1277.2</ele>
        <time>2013-03-16T10:26:28.000Z</time>
      </trkpt>
      <trkpt lat="46.31949" lon="6.73163">
        <ele>1278</ele>
        <time>2013-03-16T10:26:35.000Z</time>
      </trkpt>
      <trkpt lat="46.31949" lon="6.73164">
        <ele>1278.1</ele>
        <time>2013-03-16T10:26:36.000Z</time>
      </trkpt>
      <trkpt lat="46.31952" lon="6.73168">
        <ele>1279.3</ele>
        <time>2013-03-16T10:26:43.000Z</time>
      </trkpt>
      <trkpt lat="46.31952" lon="6.73169">
        <ele>1279.4</ele>
        <time>2013-03-16T10:26:44.000Z</time>
      </trkpt>
      <trkpt lat="46.31954" lon="6.73174">
        <ele>1281.1</ele>
        <time>2013-03-16T10:26:53.000Z</time>
      </trkpt>
      <trkpt lat="46.31955" lon="6.73174">
        <ele>1281.2</ele>
        <time>2013-03-16T10:26:54.000Z</time>
      </trkpt>
      <trkpt lat="46.31958" lon="6.73178">
        <ele>1281.8</ele>
        <time>2013-03-16T10:27:00.000Z</time>
      </trkpt>
      <trkpt lat="46.31959" lon="6.73179">
        <ele>1282</ele>
        <time>2013-03-16T10:27:01.000Z</time>
      </trkpt>
      <trkpt lat="46.31962" lon="6.73182">
        <ele>1282.1</ele>
        <time>2013-03-16T10:27:07.000Z</time>
      </trkpt>
      <trkpt lat="46.31963" lon="6.73183">
        <ele>1282.2</ele>
        <time>2013-03-16T10:27:08.000Z</time>
      </trkpt>
      <trkpt lat="46.31966" lon="6.73186">
        <ele>1282.8</ele>
        <time>2013-03-16T10:27:14.000Z</time>
      </trkpt>
      <trkpt lat="46.31966" lon="6.73187">
        <ele>1283</ele>
        <time>2013-03-16T10:27:15.000Z</time>
      </trkpt>
      <trkpt lat="46.3197" lon="6.7319">
        <ele>1283.8</ele>
        <time>2013-03-16T10:27:23.000Z</time>
      </trkpt>
      <trkpt lat="46.3197" lon="6.73191">
        <ele>1283.9</ele>
        <time>2013-03-16T10:27:24.000Z</time>
      </trkpt>
      <trkpt lat="46.31973" lon="6.73194">
        <ele>1283.4</ele>
        <time>2013-03-16T10:27:39.000Z</time>
      </trkpt>
      <trkpt lat="46.31974" lon="6.73195">
        <ele>1283.6</ele>
        <time>2013-03-16T10:27:40.000Z</time>
      </trkpt>
      <trkpt lat="46.31977" lon="6.73199">
        <ele>1283.6</ele>
        <time>2013-03-16T10:27:43.000Z</time>
      </trkpt>
      <trkpt lat="46.31978" lon="6.732">
        <ele>1283.8</ele>
        <time>2013-03-16T10:27:44.000Z</time>
      </trkpt>
      <trkpt lat="46.31982" lon="6.73204">
        <ele>1284.8</ele>
        <time>2013-03-16T10:27:48.000Z</time>
      </trkpt>
      <trkpt lat="46.31983" lon="6.73205">
        <ele>1284.9</ele>
        <time>2013-03-16T10:27:49.000Z</time>
      </trkpt>
      <trkpt lat="46.31986" lon="6.73207">
        <ele>1286.5</ele>
        <time>2013-03-16T10:27:55.000Z</time>
      </trkpt>
      <trkpt lat="46.31987" lon="6.73207">
        <ele>1286.7</ele>
        <time>2013-03-16T10:27:56.000Z</time>
      </trkpt>
      <trkpt lat="46.3199" lon="6.73211">
        <ele>1286.8</ele>
        <time>2013-03-16T10:28:01.000Z</time>
      </trkpt>
      <trkpt lat="46.31991" lon="6.73212">
        <ele>1286.8</ele>
        <time>2013-03-16T10:28:02.000Z</time>
      </trkpt>
      <trkpt lat="46.31994" lon="6.73216">
        <ele>1286.5</ele>
        <time>2013-03-16T10:28:08.000Z</time>
      </trkpt>
      <trkpt lat="46.31994" lon="6.73216">
        <ele>1286.5</ele>
        <time>2013-03-16T10:28:09.000Z</time>
      </trkpt>
      <trkpt lat="46.31997" lon="6.7322">
        <ele>1286.6</ele>
        <time>2013-03-16T10:28:15.000Z</time>
      </trkpt>
      <trkpt lat="46.31997" lon="6.73221">
        <ele>1286.5</ele>
        <time>2013-03-16T10:28:16.000Z</time>
      </trkpt>
      <trkpt lat="46.32" lon="6.73224">
        <ele>1285.8</ele>
        <time>2013-03-16T10:28:22.000Z</time>
      </trkpt>
      <trkpt lat="46.32001" lon="6.73225">
        <ele>1285.8</ele>
        <time>2013-03-16T10:28:23.000Z</time>
      </trkpt>
      <trkpt lat="46.32004" lon="6.73228">
        <ele>1286.8</ele>
        <time>2013-03-16T10:28:28.000Z</time>
      </trkpt>
      <trkpt lat="46.32005" lon="6.73228">
        <ele>1286.9</ele>
        <time>2013-03-16T10:28:29.000Z</time>
      </trkpt>
      <trkpt lat="46.32008" lon="6.73231">
        <ele>1287.5</ele>
        <time>2013-03-16T10:28:34.000Z</time>
      </trkpt>
      <trkpt lat="46.32009" lon="6.73231">
        <ele>1287.5</ele>
        <time>2013-03-16T10:28:35.000Z</time>
      </trkpt>
      <trkpt lat="46.32012" lon="6.73234">
        <ele>1288.3</ele>
        <time>2013-03-16T10:28:42.000Z</time>
      </trkpt>
      <trkpt lat="46.32013" lon="6.73235">
        <ele>1288.6</ele>
        <time>2013-03-16T10:28:43.000Z</time>
      </trkpt>
      <trkpt lat="46.32015" lon="6.7324">
        <ele>1289.3</ele>
        <time>2013-03-16T10:28:51.000Z</time>
      </trkpt>
      <trkpt lat="46.32015" lon="6.7324">
        <ele>1289.4</ele>
        <time>2013-03-16T10:28:52.000Z</time>
      </trkpt>
      <trkpt lat="46.32017" lon="6.73246">
        <ele>1290.4</ele>
        <time>2013-03-16T10:28:59.000Z</time>
      </trkpt>
      <trkpt lat="46.32017" lon="6.73247">
        <ele>1290.6</ele>
        <time>2013-03-16T10:29:00.000Z</time>
      </trkpt>
      <trkpt lat="46.32019" lon="6.73252">
        <ele>1291.3</ele>
        <time>2013-03-16T10:29:07.000Z</time>
      </trkpt>
      <trkpt lat="46.3202" lon="6.73253">
        <ele>1291.4</ele>
        <time>2013-03-16T10:29:08.000Z</time>
      </trkpt>
      <trkpt lat="46.32021" lon="6.73258">
        <ele>1292.2</ele>
        <time>2013-03-16T10:29:16.000Z</time>
      </trkpt>
      <trkpt lat="46.32022" lon="6.73259">
        <ele>1292.3</ele>
        <time>2013-03-16T10:29:17.000Z</time>
      </trkpt>
      <trkpt lat="46.32023" lon="6.73264">
        <ele>1293.8</ele>
        <time>2013-03-16T10:29:26.000Z</time>
      </trkpt>
      <trkpt lat="46.32023" lon="6.73265">
        <ele>1294.2</ele>
        <time>2013-03-16T10:29:27.000Z</time>
      </trkpt>
      <trkpt lat="46.32025" lon="6.7327">
        <ele>1295</ele>
        <time>2013-03-16T10:29:35.000Z</time>
      </trkpt>
      <trkpt lat="46.32025" lon="6.73271">
        <ele>1295</ele>
        <time>2013-03-16T10:29:36.000Z</time>
      </trkpt>
      <trkpt lat="46.32026" lon="6.73277">
        <ele>1297.1</ele>
        <time>2013-03-16T10:29:44.000Z</time>
      </trkpt>
      <trkpt lat="46.32026" lon="6.73278">
        <ele>1297.4</ele>
        <time>2013-03-16T10:29:45.000Z</time>
      </trkpt>
      <trkpt lat="46.32026" lon="6.73282">
        <ele>1297.5</ele>
        <time>2013-03-16T10:29:54.000Z</time>
      </trkpt>
      <trkpt lat="46.32023" lon="6.73298">
        <ele>1299.5</ele>
        <time>2013-03-16T10:30:15.000Z</time>
      </trkpt>
      <trkpt lat="46.32021" lon="6.73304">
        <ele>1301.6</ele>
        <time>2013-03-16T10:30:22.000Z</time>
      </trkpt>
      <trkpt lat="46.3202" lon="6.73304">
        <ele>1301.9</ele>
        <time>2013-03-16T10:30:23.000Z</time>
      </trkpt>
      <trkpt lat="46.32018" lon="6.73309">
        <ele>1302.8</ele>
        <time>2013-03-16T10:30:29.000Z</time>
      </trkpt>
      <trkpt lat="46.32018" lon="6.7331">
        <ele>1302.8</ele>
        <time>2013-03-16T10:30:30.000Z</time>
      </trkpt>
      <trkpt lat="46.32016" lon="6.73315">
        <ele>1303.2</ele>
        <time>2013-03-16T10:30:35.000Z</time>
      </trkpt>
      <trkpt lat="46.32015" lon="6.73316">
        <ele>1303.4</ele>
        <time>2013-03-16T10:30:36.000Z</time>
      </trkpt>
      <trkpt lat="46.32014" lon="6.73322">
        <ele>1303.9</ele>
        <time>2013-03-16T10:30:42.000Z</time>
      </trkpt>
      <trkpt lat="46.32014" lon="6.73323">
        <ele>1304</ele>
        <time>2013-03-16T10:30:43.000Z</time>
      </trkpt>
      <trkpt lat="46.32012" lon="6.73329">
        <ele>1304.6</ele>
        <time>2013-03-16T10:30:54.000Z</time>
      </trkpt>
      <trkpt lat="46.32012" lon="6.7333">
        <ele>1304.7</ele>
        <time>2013-03-16T10:30:55.000Z</time>
      </trkpt>
      <trkpt lat="46.32012" lon="6.73336">
        <ele>1305.4</ele>
        <time>2013-03-16T10:31:02.000Z</time>
      </trkpt>
      <trkpt lat="46.32012" lon="6.73337">
        <ele>1305.5</ele>
        <time>2013-03-16T10:31:03.000Z</time>
      </trkpt>
      <trkpt lat="46.32013" lon="6.73343">
        <ele>1305.9</ele>
        <time>2013-03-16T10:31:10.000Z</time>
      </trkpt>
      <trkpt lat="46.32013" lon="6.73344">
        <ele>1305.9</ele>
        <time>2013-03-16T10:31:11.000Z</time>
      </trkpt>
      <trkpt lat="46.32013" lon="6.7335">
        <ele>1306.3</ele>
        <time>2013-03-16T10:31:16.000Z</time>
      </trkpt>
      <trkpt lat="46.32013" lon="6.73351">
        <ele>1306.4</ele>
        <time>2013-03-16T10:31:17.000Z</time>
      </trkpt>
      <trkpt lat="46.32013" lon="6.73357">
        <ele>1307.3</ele>
        <time>2013-03-16T10:31:23.000Z</time>
      </trkpt>
      <trkpt lat="46.32013" lon="6.73358">
        <ele>1307.6</ele>
        <time>2013-03-16T10:31:24.000Z</time>
      </trkpt>
      <trkpt lat="46.32014" lon="6.73364">
        <ele>1308</ele>
        <time>2013-03-16T10:31:30.000Z</time>
      </trkpt>
      <trkpt lat="46.32014" lon="6.73365">
        <ele>1308</ele>
        <time>2013-03-16T10:31:31.000Z</time>
      </trkpt>
      <trkpt lat="46.32015" lon="6.7337">
        <ele>1308</ele>
        <time>2013-03-16T10:31:36.000Z</time>
      </trkpt>
      <trkpt lat="46.32015" lon="6.73371">
        <ele>1308.1</ele>
        <time>2013-03-16T10:31:37.000Z</time>
      </trkpt>
      <trkpt lat="46.32016" lon="6.73376">
        <ele>1308.4</ele>
        <time>2013-03-16T10:31:41.000Z</time>
      </trkpt>
      <trkpt lat="46.32016" lon="6.73378">
        <ele>1308.4</ele>
        <time>2013-03-16T10:31:42.000Z</time>
      </trkpt>
      <trkpt lat="46.32018" lon="6.73382">
        <ele>1308.4</ele>
        <time>2013-03-16T10:31:46.000Z</time>
      </trkpt>
      <trkpt lat="46.32018" lon="6.73384">
        <ele>1308.4</ele>
        <time>2013-03-16T10:31:47.000Z</time>
      </trkpt>
      <trkpt lat="46.3202" lon="6.73389">
        <ele>1308.3</ele>
        <time>2013-03-16T10:31:56.000Z</time>
      </trkpt>
      <trkpt lat="46.3202" lon="6.7339">
        <ele>1308.4</ele>
        <time>2013-03-16T10:31:57.000Z</time>
      </trkpt>
      <trkpt lat="46.32022" lon="6.73395">
        <ele>1307.7</ele>
        <time>2013-03-16T10:32:07.000Z</time>
      </trkpt>
      <trkpt lat="46.32022" lon="6.73396">
        <ele>1308</ele>
        <time>2013-03-16T10:32:08.000Z</time>
      </trkpt>
      <trkpt lat="46.32024" lon="6.73401">
        <ele>1309.5</ele>
        <time>2013-03-16T10:32:13.000Z</time>
      </trkpt>
      <trkpt lat="46.32025" lon="6.73401">
        <ele>1309.8</ele>
        <time>2013-03-16T10:32:14.000Z</time>
      </trkpt>
      <trkpt lat="46.32027" lon="6.73407">
        <ele>1311.1</ele>
        <time>2013-03-16T10:32:21.000Z</time>
      </trkpt>
      <trkpt lat="46.32027" lon="6.73408">
        <ele>1311.4</ele>
        <time>2013-03-16T10:32:22.000Z</time>
      </trkpt>
      <trkpt lat="46.32029" lon="6.73413">
        <ele>1312.7</ele>
        <time>2013-03-16T10:32:29.000Z</time>
      </trkpt>
      <trkpt lat="46.3203" lon="6.73414">
        <ele>1312.8</ele>
        <time>2013-03-16T10:32:30.000Z</time>
      </trkpt>
      <trkpt lat="46.32032" lon="6.73418">
        <ele>1312.7</ele>
        <time>2013-03-16T10:32:34.000Z</time>
      </trkpt>
      <trkpt lat="46.32033" lon="6.73419">
        <ele>1312.3</ele>
        <time>2013-03-16T10:32:35.000Z</time>
      </trkpt>
      <trkpt lat="46.32036" lon="6.73423">
        <ele>1312.4</ele>
        <time>2013-03-16T10:32:40.000Z</time>
      </trkpt>
      <trkpt lat="46.32036" lon="6.73424">
        <ele>1312.4</ele>
        <time>2013-03-16T10:32:41.000Z</time>
      </trkpt>
      <trkpt lat="46.32038" lon="6.73429">
        <ele>1313.3</ele>
        <time>2013-03-16T10:32:46.000Z</time>
      </trkpt>
      <trkpt lat="46.32039" lon="6.73429">
        <ele>1313.7</ele>
        <time>2013-03-16T10:32:47.000Z</time>
      </trkpt>
      <trkpt lat="46.32041" lon="6.73434">
        <ele>1314.1</ele>
        <time>2013-03-16T10:32:52.000Z</time>
      </trkpt>
      <trkpt lat="46.32042" lon="6.73435">
        <ele>1314.2</ele>
        <time>2013-03-16T10:32:53.000Z</time>
      </trkpt>
      <trkpt lat="46.32045" lon="6.73438">
        <ele>1314.7</ele>
        <time>2013-03-16T10:33:00.000Z</time>
      </trkpt>
      <trkpt lat="46.32045" lon="6.7344">
        <ele>1314.8</ele>
        <time>2013-03-16T10:33:01.000Z</time>
      </trkpt>
      <trkpt lat="46.32048" lon="6.73444">
        <ele>1315.6</ele>
        <time>2013-03-16T10:33:05.000Z</time>
      </trkpt>
      <trkpt lat="46.32048" lon="6.73445">
        <ele>1315.7</ele>
        <time>2013-03-16T10:33:06.000Z</time>
      </trkpt>
      <trkpt lat="46.32051" lon="6.73448">
        <ele>1315.9</ele>
        <time>2013-03-16T10:33:10.000Z</time>
      </trkpt>
      <trkpt lat="46.32051" lon="6.7345">
        <ele>1316.1</ele>
        <time>2013-03-16T10:33:11.000Z</time>
      </trkpt>
      <trkpt lat="46.32054" lon="6.73453">
        <ele>1316.2</ele>
        <time>2013-03-16T10:33:15.000Z</time>
      </trkpt>
      <trkpt lat="46.32055" lon="6.73454">
        <ele>1316.3</ele>
        <time>2013-03-16T10:33:16.000Z</time>
      </trkpt>
      <trkpt lat="46.32057" lon="6.73458">
        <ele>1316.9</ele>
        <time>2013-03-16T10:33:20.000Z</time>
      </trkpt>
      <trkpt lat="46.32058" lon="6.73459">
        <ele>1317.1</ele>
        <time>2013-03-16T10:33:21.000Z</time>
      </trkpt>
      <trkpt lat="46.3206" lon="6.73463">
        <ele>1317.7</ele>
        <time>2013-03-16T10:33:25.000Z</time>
      </trkpt>
      <trkpt lat="46.32061" lon="6.73464">
        <ele>1317.8</ele>
        <time>2013-03-16T10:33:26.000Z</time>
      </trkpt>
      <trkpt lat="46.32063" lon="6.73469">
        <ele>1318.3</ele>
        <time>2013-03-16T10:33:30.000Z</time>
      </trkpt>
      <trkpt lat="46.32064" lon="6.73469">
        <ele>1318.4</ele>
        <time>2013-03-16T10:33:31.000Z</time>
      </trkpt>
      <trkpt lat="46.32066" lon="6.73474">
        <ele>1319.2</ele>
        <time>2013-03-16T10:33:36.000Z</time>
      </trkpt>
      <trkpt lat="46.32067" lon="6.73475">
        <ele>1319.4</ele>
        <time>2013-03-16T10:33:37.000Z</time>
      </trkpt>
      <trkpt lat="46.32069" lon="6.7348">
        <ele>1320.6</ele>
        <time>2013-03-16T10:33:42.000Z</time>
      </trkpt>
      <trkpt lat="46.3207" lon="6.73481">
        <ele>1320.8</ele>
        <time>2013-03-16T10:33:43.000Z</time>
      </trkpt>
      <trkpt lat="46.32072" lon="6.73486">
        <ele>1321.7</ele>
        <time>2013-03-16T10:33:48.000Z</time>
      </trkpt>
      <trkpt lat="46.32073" lon="6.73486">
        <ele>1321.9</ele>
        <time>2013-03-16T10:33:49.000Z</time>
      </trkpt>
      <trkpt lat="46.32075" lon="6.73491">
        <ele>1323.2</ele>
        <time>2013-03-16T10:33:55.000Z</time>
      </trkpt>
      <trkpt lat="46.32076" lon="6.73492">
        <ele>1323.4</ele>
        <time>2013-03-16T10:33:56.000Z</time>
      </trkpt>
      <trkpt lat="46.32079" lon="6.73497">
        <ele>1323.1</ele>
        <time>2013-03-16T10:34:01.000Z</time>
      </trkpt>
      <trkpt lat="46.32079" lon="6.73497">
        <ele>1323.2</ele>
        <time>2013-03-16T10:34:02.000Z</time>
      </trkpt>
      <trkpt lat="46.32082" lon="6.73501">
        <ele>1323.7</ele>
        <time>2013-03-16T10:34:06.000Z</time>
      </trkpt>
      <trkpt lat="46.32082" lon="6.73502">
        <ele>1323.7</ele>
        <time>2013-03-16T10:34:07.000Z</time>
      </trkpt>
      <trkpt lat="46.32085" lon="6.73506">
        <ele>1323.9</ele>
        <time>2013-03-16T10:34:13.000Z</time>
      </trkpt>
      <trkpt lat="46.32086" lon="6.73507">
        <ele>1323.9</ele>
        <time>2013-03-16T10:34:14.000Z</time>
      </trkpt>
      <trkpt lat="46.32088" lon="6.73511">
        <ele>1324</ele>
        <time>2013-03-16T10:34:19.000Z</time>
      </trkpt>
      <trkpt lat="46.32089" lon="6.73512">
        <ele>1324.1</ele>
        <time>2013-03-16T10:34:20.000Z</time>
      </trkpt>
      <trkpt lat="46.32092" lon="6.73517">
        <ele>1324.7</ele>
        <time>2013-03-16T10:34:25.000Z</time>
      </trkpt>
      <trkpt lat="46.32092" lon="6.73518">
        <ele>1324.7</ele>
        <time>2013-03-16T10:34:26.000Z</time>
      </trkpt>
      <trkpt lat="46.32095" lon="6.73522">
        <ele>1324.9</ele>
        <time>2013-03-16T10:34:31.000Z</time>
      </trkpt>
      <trkpt lat="46.32096" lon="6.73523">
        <ele>1325</ele>
        <time>2013-03-16T10:34:32.000Z</time>
      </trkpt>
      <trkpt lat="46.32097" lon="6.73528">
        <ele>1325.3</ele>
        <time>2013-03-16T10:34:36.000Z</time>
      </trkpt>
      <trkpt lat="46.32098" lon="6.7353">
        <ele>1325.5</ele>
        <time>2013-03-16T10:34:37.000Z</time>
      </trkpt>
      <trkpt lat="46.32099" lon="6.73535">
        <ele>1325.3</ele>
        <time>2013-03-16T10:34:42.000Z</time>
      </trkpt>
      <trkpt lat="46.321" lon="6.73536">
        <ele>1325.4</ele>
        <time>2013-03-16T10:34:43.000Z</time>
      </trkpt>
      <trkpt lat="46.32101" lon="6.73542">
        <ele>1324.9</ele>
        <time>2013-03-16T10:34:48.000Z</time>
      </trkpt>
      <trkpt lat="46.32101" lon="6.73544">
        <ele>1324.9</ele>
        <time>2013-03-16T10:34:49.000Z</time>
      </trkpt>
      <trkpt lat="46.32101" lon="6.7355">
        <ele>1325</ele>
        <time>2013-03-16T10:34:54.000Z</time>
      </trkpt>
      <trkpt lat="46.32097" lon="6.73559">
        <ele>1328.8</ele>
        <time>2013-03-16T10:35:04.000Z</time>
      </trkpt>
      <trkpt lat="46.32096" lon="6.73562">
        <ele>1324.1</ele>
        <time>2013-03-16T10:35:09.000Z</time>
      </trkpt>
      <trkpt lat="46.32094" lon="6.73567">
        <ele>1324.8</ele>
        <time>2013-03-16T10:35:14.000Z</time>
      </trkpt>
      <trkpt lat="46.32093" lon="6.73573">
        <ele>1327.4</ele>
        <time>2013-03-16T10:35:20.000Z</time>
      </trkpt>
      <trkpt lat="46.32093" lon="6.73574">
        <ele>1327.3</ele>
        <time>2013-03-16T10:35:21.000Z</time>
      </trkpt>
      <trkpt lat="46.32094" lon="6.73579">
        <ele>1328.3</ele>
        <time>2013-03-16T10:35:24.000Z</time>
      </trkpt>
      <trkpt lat="46.32094" lon="6.73581">
        <ele>1328.7</ele>
        <time>2013-03-16T10:35:25.000Z</time>
      </trkpt>
      <trkpt lat="46.32093" lon="6.73586">
        <ele>1328.8</ele>
        <time>2013-03-16T10:35:30.000Z</time>
      </trkpt>
      <trkpt lat="46.32093" lon="6.73587">
        <ele>1328.8</ele>
        <time>2013-03-16T10:35:31.000Z</time>
      </trkpt>
      <trkpt lat="46.32093" lon="6.73593">
        <ele>1328</ele>
        <time>2013-03-16T10:35:35.000Z</time>
      </trkpt>
      <trkpt lat="46.32093" lon="6.73594">
        <ele>1328</ele>
        <time>2013-03-16T10:35:36.000Z</time>
      </trkpt>
      <trkpt lat="46.32093" lon="6.736">
        <ele>1328.2</ele>
        <time>2013-03-16T10:35:40.000Z</time>
      </trkpt>
      <trkpt lat="46.32093" lon="6.73602">
        <ele>1327.9</ele>
        <time>2013-03-16T10:35:41.000Z</time>
      </trkpt>
      <trkpt lat="46.32093" lon="6.73608">
        <ele>1326.9</ele>
        <time>2013-03-16T10:35:50.000Z</time>
      </trkpt>
      <trkpt lat="46.32093" lon="6.73609">
        <ele>1326.9</ele>
        <time>2013-03-16T10:35:51.000Z</time>
      </trkpt>
      <trkpt lat="46.32093" lon="6.73615">
        <ele>1326.6</ele>
        <time>2013-03-16T10:35:55.000Z</time>
      </trkpt>
      <trkpt lat="46.32094" lon="6.73616">
        <ele>1326.5</ele>
        <time>2013-03-16T10:35:56.000Z</time>
      </trkpt>
      <trkpt lat="46.32094" lon="6.73622">
        <ele>1326.5</ele>
        <time>2013-03-16T10:36:00.000Z</time>
      </trkpt>
      <trkpt lat="46.32094" lon="6.73623">
        <ele>1326.6</ele>
        <time>2013-03-16T10:36:01.000Z</time>
      </trkpt>
      <trkpt lat="46.32095" lon="6.73628">
        <ele>1326.9</ele>
        <time>2013-03-16T10:36:05.000Z</time>
      </trkpt>
      <trkpt lat="46.32096" lon="6.73629">
        <ele>1326.8</ele>
        <time>2013-03-16T10:36:06.000Z</time>
      </trkpt>
      <trkpt lat="46.32097" lon="6.73635">
        <ele>1327.4</ele>
        <time>2013-03-16T10:36:12.000Z</time>
      </trkpt>
      <trkpt lat="46.32097" lon="6.73637">
        <ele>1327.5</ele>
        <time>2013-03-16T10:36:13.000Z</time>
      </trkpt>
      <trkpt lat="46.32098" lon="6.73642">
        <ele>1328.4</ele>
        <time>2013-03-16T10:36:29.000Z</time>
      </trkpt>
      <trkpt lat="46.32098" lon="6.73643">
        <ele>1328.7</ele>
        <time>2013-03-16T10:36:30.000Z</time>
      </trkpt>
      <trkpt lat="46.321" lon="6.73648">
        <ele>1329.1</ele>
        <time>2013-03-16T10:36:36.000Z</time>
      </trkpt>
      <trkpt lat="46.321" lon="6.73649">
        <ele>1328.9</ele>
        <time>2013-03-16T10:36:37.000Z</time>
      </trkpt>
      <trkpt lat="46.32101" lon="6.73655">
        <ele>1330</ele>
        <time>2013-03-16T10:36:43.000Z</time>
      </trkpt>
      <trkpt lat="46.32102" lon="6.73656">
        <ele>1330.2</ele>
        <time>2013-03-16T10:36:44.000Z</time>
      </trkpt>
      <trkpt lat="46.32103" lon="6.73662">
        <ele>1333.1</ele>
        <time>2013-03-16T10:36:50.000Z</time>
      </trkpt>
      <trkpt lat="46.32103" lon="6.73663">
        <ele>1333.4</ele>
        <time>2013-03-16T10:36:51.000Z</time>
      </trkpt>
      <trkpt lat="46.32105" lon="6.73668">
        <ele>1334.8</ele>
        <time>2013-03-16T10:36:56.000Z</time>
      </trkpt>
      <trkpt lat="46.32106" lon="6.73669">
        <ele>1335.2</ele>
        <time>2013-03-16T10:36:57.000Z</time>
      </trkpt>
      <trkpt lat="46.32109" lon="6.73673">
        <ele>1334.8</ele>
        <time>2013-03-16T10:37:02.000Z</time>
      </trkpt>
      <trkpt lat="46.32109" lon="6.73674">
        <ele>1334.8</ele>
        <time>2013-03-16T10:37:03.000Z</time>
      </trkpt>
      <trkpt lat="46.32111" lon="6.73678">
        <ele>1335.7</ele>
        <time>2013-03-16T10:37:07.000Z</time>
      </trkpt>
      <trkpt lat="46.32112" lon="6.7368">
        <ele>1335.9</ele>
        <time>2013-03-16T10:37:08.000Z</time>
      </trkpt>
      <trkpt lat="46.32114" lon="6.73685">
        <ele>1336</ele>
        <time>2013-03-16T10:37:11.000Z</time>
      </trkpt>
      <trkpt lat="46.32115" lon="6.73686">
        <ele>1335.9</ele>
        <time>2013-03-16T10:37:12.000Z</time>
      </trkpt>
      <trkpt lat="46.32118" lon="6.73689">
        <ele>1335.3</ele>
        <time>2013-03-16T10:37:16.000Z</time>
      </trkpt>
      <trkpt lat="46.32119" lon="6.7369">
        <ele>1335.2</ele>
        <time>2013-03-16T10:37:17.000Z</time>
      </trkpt>
      <trkpt lat="46.32121" lon="6.73695">
        <ele>1335</ele>
        <time>2013-03-16T10:37:21.000Z</time>
      </trkpt>
      <trkpt lat="46.32122" lon="6.73697">
        <ele>1335.1</ele>
        <time>2013-03-16T10:37:22.000Z</time>
      </trkpt>
      <trkpt lat="46.32125" lon="6.73702">
        <ele>1335</ele>
        <time>2013-03-16T10:37:27.000Z</time>
      </trkpt>
      <trkpt lat="46.32125" lon="6.73703">
        <ele>1335.5</ele>
        <time>2013-03-16T10:37:28.000Z</time>
      </trkpt>
      <trkpt lat="46.32126" lon="6.73708">
        <ele>1336.1</ele>
        <time>2013-03-16T10:37:33.000Z</time>
      </trkpt>
      <trkpt lat="46.32127" lon="6.73709">
        <ele>1336.1</ele>
        <time>2013-03-16T10:37:34.000Z</time>
      </trkpt>
      <trkpt lat="46.32129" lon="6.73714">
        <ele>1336.2</ele>
        <time>2013-03-16T10:37:38.000Z</time>
      </trkpt>
      <trkpt lat="46.32129" lon="6.73715">
        <ele>1336.3</ele>
        <time>2013-03-16T10:37:39.000Z</time>
      </trkpt>
      <trkpt lat="46.32131" lon="6.73721">
        <ele>1336.1</ele>
        <time>2013-03-16T10:37:43.000Z</time>
      </trkpt>
      <trkpt lat="46.32131" lon="6.73722">
        <ele>1336.2</ele>
        <time>2013-03-16T10:37:44.000Z</time>
      </trkpt>
      <trkpt lat="46.32133" lon="6.73728">
        <ele>1336.2</ele>
        <time>2013-03-16T10:37:48.000Z</time>
      </trkpt>
      <trkpt lat="46.32133" lon="6.73729">
        <ele>1336.2</ele>
        <time>2013-03-16T10:37:49.000Z</time>
      </trkpt>
      <trkpt lat="46.32134" lon="6.73735">
        <ele>1335.8</ele>
        <time>2013-03-16T10:37:53.000Z</time>
      </trkpt>
      <trkpt lat="46.32134" lon="6.73737">
        <ele>1335.7</ele>
        <time>2013-03-16T10:37:54.000Z</time>
      </trkpt>
      <trkpt lat="46.32134" lon="6.73738">
        <ele>1335.7</ele>
        <time>2013-03-16T10:37:55.000Z</time>
      </trkpt>
      <trkpt lat="46.3213" lon="6.7377">
        <ele>1356.1</ele>
        <time>2013-03-16T10:38:15.000Z</time>
      </trkpt>
      <trkpt lat="46.3213" lon="6.73775">
        <ele>1359.5</ele>
        <time>2013-03-16T10:38:18.000Z</time>
      </trkpt>
      <trkpt lat="46.3213" lon="6.73777">
        <ele>1360.2</ele>
        <time>2013-03-16T10:38:19.000Z</time>
      </trkpt>
      <trkpt lat="46.32129" lon="6.73783">
        <ele>1364.5</ele>
        <time>2013-03-16T10:38:23.000Z</time>
      </trkpt>
      <trkpt lat="46.32129" lon="6.73785">
        <ele>1364.8</ele>
        <time>2013-03-16T10:38:24.000Z</time>
      </trkpt>
      <trkpt lat="46.32129" lon="6.7379">
        <ele>1367.2</ele>
        <time>2013-03-16T10:38:27.000Z</time>
      </trkpt>
      <trkpt lat="46.32129" lon="6.73792">
        <ele>1367.8</ele>
        <time>2013-03-16T10:38:28.000Z</time>
      </trkpt>
      <trkpt lat="46.32129" lon="6.73798">
        <ele>1364.3</ele>
        <time>2013-03-16T10:38:37.000Z</time>
      </trkpt>
      <trkpt lat="46.32129" lon="6.73799">
        <ele>1364.4</ele>
        <time>2013-03-16T10:38:38.000Z</time>
      </trkpt>
      <trkpt lat="46.32128" lon="6.73805">
        <ele>1365.4</ele>
        <time>2013-03-16T10:38:43.000Z</time>
      </trkpt>
      <trkpt lat="46.32128" lon="6.73806">
        <ele>1364.2</ele>
        <time>2013-03-16T10:38:44.000Z</time>
      </trkpt>
      <trkpt lat="46.32128" lon="6.73811">
        <ele>1363.3</ele>
        <time>2013-03-16T10:38:48.000Z</time>
      </trkpt>
      <trkpt lat="46.32129" lon="6.73813">
        <ele>1363.1</ele>
        <time>2013-03-16T10:38:49.000Z</time>
      </trkpt>
      <trkpt lat="46.32128" lon="6.73818">
        <ele>1362.8</ele>
        <time>2013-03-16T10:38:53.000Z</time>
      </trkpt>
      <trkpt lat="46.32128" lon="6.73819">
        <ele>1363</ele>
        <time>2013-03-16T10:38:54.000Z</time>
      </trkpt>
      <trkpt lat="46.32129" lon="6.73825">
        <ele>1361.6</ele>
        <time>2013-03-16T10:38:58.000Z</time>
      </trkpt>
      <trkpt lat="46.32129" lon="6.73826">
        <ele>1361.3</ele>
        <time>2013-03-16T10:38:59.000Z</time>
      </trkpt>
      <trkpt lat="46.32129" lon="6.73831">
        <ele>1360.2</ele>
        <time>2013-03-16T10:39:03.000Z</time>
      </trkpt>
      <trkpt lat="46.32129" lon="6.73833">
        <ele>1360.5</ele>
        <time>2013-03-16T10:39:04.000Z</time>
      </trkpt>
      <trkpt lat="46.3213" lon="6.73838">
        <ele>1358.4</ele>
        <time>2013-03-16T10:39:08.000Z</time>
      </trkpt>
      <trkpt lat="46.3213" lon="6.73839">
        <ele>1358.2</ele>
        <time>2013-03-16T10:39:09.000Z</time>
      </trkpt>
      <trkpt lat="46.32132" lon="6.73845">
        <ele>1357.2</ele>
        <time>2013-03-16T10:39:13.000Z</time>
      </trkpt>
      <trkpt lat="46.32132" lon="6.73846">
        <ele>1357.1</ele>
        <time>2013-03-16T10:39:14.000Z</time>
      </trkpt>
      <trkpt lat="46.32132" lon="6.73852">
        <ele>1356.6</ele>
        <time>2013-03-16T10:39:18.000Z</time>
      </trkpt>
      <trkpt lat="46.32132" lon="6.73854">
        <ele>1356.6</ele>
        <time>2013-03-16T10:39:19.000Z</time>
      </trkpt>
      <trkpt lat="46.32133" lon="6.73859">
        <ele>1355.8</ele>
        <time>2013-03-16T10:39:23.000Z</time>
      </trkpt>
      <trkpt lat="46.32134" lon="6.7386">
        <ele>1355.5</ele>
        <time>2013-03-16T10:39:24.000Z</time>
      </trkpt>
      <trkpt lat="46.32135" lon="6.73865">
        <ele>1354.7</ele>
        <time>2013-03-16T10:39:28.000Z</time>
      </trkpt>
      <trkpt lat="46.32136" lon="6.73866">
        <ele>1354.5</ele>
        <time>2013-03-16T10:39:29.000Z</time>
      </trkpt>
      <trkpt lat="46.32138" lon="6.73871">
        <ele>1352.9</ele>
        <time>2013-03-16T10:39:33.000Z</time>
      </trkpt>
      <trkpt lat="46.32139" lon="6.73872">
        <ele>1352.6</ele>
        <time>2013-03-16T10:39:34.000Z</time>
      </trkpt>
      <trkpt lat="46.32142" lon="6.73877">
        <ele>1351.9</ele>
        <time>2013-03-16T10:39:38.000Z</time>
      </trkpt>
      <trkpt lat="46.32142" lon="6.73878">
        <ele>1351.8</ele>
        <time>2013-03-16T10:39:39.000Z</time>
      </trkpt>
      <trkpt lat="46.32144" lon="6.73883">
        <ele>1351.7</ele>
        <time>2013-03-16T10:39:44.000Z</time>
      </trkpt>
      <trkpt lat="46.32144" lon="6.73884">
        <ele>1351.7</ele>
        <time>2013-03-16T10:39:45.000Z</time>
      </trkpt>
      <trkpt lat="46.32146" lon="6.7389">
        <ele>1351.4</ele>
        <time>2013-03-16T10:39:49.000Z</time>
      </trkpt>
      <trkpt lat="46.32147" lon="6.73891">
        <ele>1351.3</ele>
        <time>2013-03-16T10:39:50.000Z</time>
      </trkpt>
      <trkpt lat="46.32148" lon="6.73896">
        <ele>1351.3</ele>
        <time>2013-03-16T10:39:54.000Z</time>
      </trkpt>
      <trkpt lat="46.32149" lon="6.73896">
        <ele>1351.2</ele>
        <time>2013-03-16T10:39:55.000Z</time>
      </trkpt>
      <trkpt lat="46.3215" lon="6.73902">
        <ele>1351.9</ele>
        <time>2013-03-16T10:40:01.000Z</time>
      </trkpt>
      <trkpt lat="46.3215" lon="6.73903">
        <ele>1352</ele>
        <time>2013-03-16T10:40:02.000Z</time>
      </trkpt>
      <trkpt lat="46.32153" lon="6.73907">
        <ele>1351.9</ele>
        <time>2013-03-16T10:40:07.000Z</time>
      </trkpt>
      <trkpt lat="46.32153" lon="6.73908">
        <ele>1351.9</ele>
        <time>2013-03-16T10:40:08.000Z</time>
      </trkpt>
      <trkpt lat="46.32155" lon="6.73912">
        <ele>1352.2</ele>
        <time>2013-03-16T10:40:12.000Z</time>
      </trkpt>
      <trkpt lat="46.32155" lon="6.73914">
        <ele>1352.5</ele>
        <time>2013-03-16T10:40:13.000Z</time>
      </trkpt>
      <trkpt lat="46.32156" lon="6.7392">
        <ele>1353.3</ele>
        <time>2013-03-16T10:40:17.000Z</time>
      </trkpt>
      <trkpt lat="46.32157" lon="6.73922">
        <ele>1353.5</ele>
        <time>2013-03-16T10:40:18.000Z</time>
      </trkpt>
      <trkpt lat="46.32158" lon="6.73927">
        <ele>1354.5</ele>
        <time>2013-03-16T10:40:23.000Z</time>
      </trkpt>
      <trkpt lat="46.32159" lon="6.73927">
        <ele>1354.6</ele>
        <time>2013-03-16T10:40:24.000Z</time>
      </trkpt>
      <trkpt lat="46.32163" lon="6.7393">
        <ele>1355.9</ele>
        <time>2013-03-16T10:40:29.000Z</time>
      </trkpt>
      <trkpt lat="46.32164" lon="6.73931">
        <ele>1356.5</ele>
        <time>2013-03-16T10:40:30.000Z</time>
      </trkpt>
      <trkpt lat="46.32167" lon="6.73933">
        <ele>1358.4</ele>
        <time>2013-03-16T10:40:35.000Z</time>
      </trkpt>
      <trkpt lat="46.32168" lon="6.73934">
        <ele>1358.9</ele>
        <time>2013-03-16T10:40:36.000Z</time>
      </trkpt>
      <trkpt lat="46.32172" lon="6.73934">
        <ele>1360.4</ele>
        <time>2013-03-16T10:40:40.000Z</time>
      </trkpt>
      <trkpt lat="46.32173" lon="6.73934">
        <ele>1360.7</ele>
        <time>2013-03-16T10:40:41.000Z</time>
      </trkpt>
      <trkpt lat="46.32177" lon="6.73934">
        <ele>1362</ele>
        <time>2013-03-16T10:40:45.000Z</time>
      </trkpt>
      <trkpt lat="46.32178" lon="6.73934">
        <ele>1362.2</ele>
        <time>2013-03-16T10:40:46.000Z</time>
      </trkpt>
      <trkpt lat="46.32182" lon="6.73935">
        <ele>1362.2</ele>
        <time>2013-03-16T10:40:49.000Z</time>
      </trkpt>
      <trkpt lat="46.32184" lon="6.73934">
        <ele>1362.7</ele>
        <time>2013-03-16T10:40:50.000Z</time>
      </trkpt>
      <trkpt lat="46.32188" lon="6.73934">
        <ele>1363.3</ele>
        <time>2013-03-16T10:40:53.000Z</time>
      </trkpt>
      <trkpt lat="46.32189" lon="6.73934">
        <ele>1363.1</ele>
        <time>2013-03-16T10:40:54.000Z</time>
      </trkpt>
      <trkpt lat="46.3219" lon="6.73934">
        <ele>1362.9</ele>
        <time>2013-03-16T10:40:55.000Z</time>
      </trkpt>
      <trkpt lat="46.32198" lon="6.73936">
        <ele>1365.4</ele>
        <time>2013-03-16T10:41:15.000Z</time>
      </trkpt>
      <trkpt lat="46.32202" lon="6.7394">
        <ele>1364.6</ele>
        <time>2013-03-16T10:41:36.000Z</time>
      </trkpt>
      <trkpt lat="46.32202" lon="6.7394">
        <ele>1364.6</ele>
        <time>2013-03-16T10:41:37.000Z</time>
      </trkpt>
      <trkpt lat="46.32206" lon="6.73942">
        <ele>1364.9</ele>
        <time>2013-03-16T10:41:41.000Z</time>
      </trkpt>
      <trkpt lat="46.32206" lon="6.73943">
        <ele>1364.6</ele>
        <time>2013-03-16T10:41:42.000Z</time>
      </trkpt>
      <trkpt lat="46.3221" lon="6.73945">
        <ele>1363.5</ele>
        <time>2013-03-16T10:41:46.000Z</time>
      </trkpt>
      <trkpt lat="46.32211" lon="6.73945">
        <ele>1363.6</ele>
        <time>2013-03-16T10:41:47.000Z</time>
      </trkpt>
      <trkpt lat="46.32214" lon="6.73948">
        <ele>1364.9</ele>
        <time>2013-03-16T10:41:52.000Z</time>
      </trkpt>
      <trkpt lat="46.32215" lon="6.73949">
        <ele>1365.3</ele>
        <time>2013-03-16T10:41:53.000Z</time>
      </trkpt>
      <trkpt lat="46.32218" lon="6.73953">
        <ele>1366.5</ele>
        <time>2013-03-16T10:41:59.000Z</time>
      </trkpt>
      <trkpt lat="46.32219" lon="6.73954">
        <ele>1366.7</ele>
        <time>2013-03-16T10:42:00.000Z</time>
      </trkpt>
      <trkpt lat="46.32222" lon="6.73958">
        <ele>1367</ele>
        <time>2013-03-16T10:42:05.000Z</time>
      </trkpt>
      <trkpt lat="46.32222" lon="6.73958">
        <ele>1367</ele>
        <time>2013-03-16T10:42:06.000Z</time>
      </trkpt>
      <trkpt lat="46.32226" lon="6.73962">
        <ele>1367.9</ele>
        <time>2013-03-16T10:42:13.000Z</time>
      </trkpt>
      <trkpt lat="46.32226" lon="6.73962">
        <ele>1368.1</ele>
        <time>2013-03-16T10:42:14.000Z</time>
      </trkpt>
      <trkpt lat="46.32228" lon="6.73967">
        <ele>1369.6</ele>
        <time>2013-03-16T10:42:45.000Z</time>
      </trkpt>
      <trkpt lat="46.32228" lon="6.73968">
        <ele>1369.6</ele>
        <time>2013-03-16T10:42:46.000Z</time>
      </trkpt>
      <trkpt lat="46.32229" lon="6.73973">
        <ele>1370.2</ele>
        <time>2013-03-16T10:42:51.000Z</time>
      </trkpt>
      <trkpt lat="46.32229" lon="6.73975">
        <ele>1370.4</ele>
        <time>2013-03-16T10:42:52.000Z</time>
      </trkpt>
      <trkpt lat="46.3223" lon="6.7398">
        <ele>1371.3</ele>
        <time>2013-03-16T10:42:56.000Z</time>
      </trkpt>
      <trkpt lat="46.3223" lon="6.73981">
        <ele>1371.3</ele>
        <time>2013-03-16T10:42:57.000Z</time>
      </trkpt>
      <trkpt lat="46.32231" lon="6.73988">
        <ele>1372.1</ele>
        <time>2013-03-16T10:43:02.000Z</time>
      </trkpt>
      <trkpt lat="46.32231" lon="6.73989">
        <ele>1372.1</ele>
        <time>2013-03-16T10:43:03.000Z</time>
      </trkpt>
      <trkpt lat="46.32231" lon="6.73995">
        <ele>1372.1</ele>
        <time>2013-03-16T10:43:10.000Z</time>
      </trkpt>
      <trkpt lat="46.32231" lon="6.73995">
        <ele>1372.2</ele>
        <time>2013-03-16T10:43:11.000Z</time>
      </trkpt>
      <trkpt lat="46.32232" lon="6.74002">
        <ele>1372.4</ele>
        <time>2013-03-16T10:43:17.000Z</time>
      </trkpt>
      <trkpt lat="46.32232" lon="6.74003">
        <ele>1372.7</ele>
        <time>2013-03-16T10:43:18.000Z</time>
      </trkpt>
      <trkpt lat="46.32233" lon="6.74009">
        <ele>1372.7</ele>
        <time>2013-03-16T10:43:24.000Z</time>
      </trkpt>
      <trkpt lat="46.32233" lon="6.7401">
        <ele>1372.8</ele>
        <time>2013-03-16T10:43:25.000Z</time>
      </trkpt>
      <trkpt lat="46.32234" lon="6.74016">
        <ele>1372.2</ele>
        <time>2013-03-16T10:43:31.000Z</time>
      </trkpt>
      <trkpt lat="46.32234" lon="6.74017">
        <ele>1372.2</ele>
        <time>2013-03-16T10:43:32.000Z</time>
      </trkpt>
      <trkpt lat="46.32235" lon="6.74023">
        <ele>1372.2</ele>
        <time>2013-03-16T10:43:37.000Z</time>
      </trkpt>
      <trkpt lat="46.32236" lon="6.74024">
        <ele>1372.3</ele>
        <time>2013-03-16T10:43:38.000Z</time>
      </trkpt>
      <trkpt lat="46.32236" lon="6.74028">
        <ele>1372</ele>
        <time>2013-03-16T10:50:28.000Z</time>
      </trkpt>
      <trkpt lat="46.32237" lon="6.74035">
        <ele>1375.4</ele>
        <time>2013-03-16T10:50:29.000Z</time>
      </trkpt>
      <trkpt lat="46.32238" lon="6.74041">
        <ele>1375.2</ele>
        <time>2013-03-16T10:50:35.000Z</time>
      </trkpt>
      <trkpt lat="46.32238" lon="6.74042">
        <ele>1375</ele>
        <time>2013-03-16T10:50:36.000Z</time>
      </trkpt>
      <trkpt lat="46.3224" lon="6.74048">
        <ele>1374.5</ele>
        <time>2013-03-16T10:50:41.000Z</time>
      </trkpt>
      <trkpt lat="46.3224" lon="6.74049">
        <ele>1374.4</ele>
        <time>2013-03-16T10:50:42.000Z</time>
      </trkpt>
      <trkpt lat="46.32241" lon="6.74055">
        <ele>1373.6</ele>
        <time>2013-03-16T10:50:49.000Z</time>
      </trkpt>
      <trkpt lat="46.32242" lon="6.74056">
        <ele>1373.6</ele>
        <time>2013-03-16T10:50:50.000Z</time>
      </trkpt>
      <trkpt lat="46.32242" lon="6.74062">
        <ele>1373.3</ele>
        <time>2013-03-16T10:50:56.000Z</time>
      </trkpt>
      <trkpt lat="46.32243" lon="6.74063">
        <ele>1373.4</ele>
        <time>2013-03-16T10:50:57.000Z</time>
      </trkpt>
      <trkpt lat="46.32243" lon="6.74069">
        <ele>1372.9</ele>
        <time>2013-03-16T10:51:02.000Z</time>
      </trkpt>
      <trkpt lat="46.32244" lon="6.7407">
        <ele>1373</ele>
        <time>2013-03-16T10:51:03.000Z</time>
      </trkpt>
      <trkpt lat="46.32244" lon="6.74076">
        <ele>1374</ele>
        <time>2013-03-16T10:51:08.000Z</time>
      </trkpt>
      <trkpt lat="46.32245" lon="6.74077">
        <ele>1374.2</ele>
        <time>2013-03-16T10:51:09.000Z</time>
      </trkpt>
      <trkpt lat="46.32246" lon="6.74083">
        <ele>1376</ele>
        <time>2013-03-16T10:51:15.000Z</time>
      </trkpt>
      <trkpt lat="46.32246" lon="6.74084">
        <ele>1376.3</ele>
        <time>2013-03-16T10:51:16.000Z</time>
      </trkpt>
      <trkpt lat="46.32248" lon="6.74089">
        <ele>1377.8</ele>
        <time>2013-03-16T10:51:21.000Z</time>
      </trkpt>
      <trkpt lat="46.32249" lon="6.7409">
        <ele>1378</ele>
        <time>2013-03-16T10:51:22.000Z</time>
      </trkpt>
      <trkpt lat="46.3225" lon="6.74095">
        <ele>1378.6</ele>
        <time>2013-03-16T10:51:26.000Z</time>
      </trkpt>
      <trkpt lat="46.32251" lon="6.74096">
        <ele>1378.7</ele>
        <time>2013-03-16T10:51:27.000Z</time>
      </trkpt>
      <trkpt lat="46.32252" lon="6.74102">
        <ele>1379.2</ele>
        <time>2013-03-16T10:51:32.000Z</time>
      </trkpt>
      <trkpt lat="46.32252" lon="6.74103">
        <ele>1379.4</ele>
        <time>2013-03-16T10:51:33.000Z</time>
      </trkpt>
      <trkpt lat="46.32254" lon="6.74108">
        <ele>1380.2</ele>
        <time>2013-03-16T10:51:38.000Z</time>
      </trkpt>
      <trkpt lat="46.32254" lon="6.74109">
        <ele>1380.4</ele>
        <time>2013-03-16T10:51:39.000Z</time>
      </trkpt>
      <trkpt lat="46.32256" lon="6.74115">
        <ele>1380.8</ele>
        <time>2013-03-16T10:51:44.000Z</time>
      </trkpt>
      <trkpt lat="46.32256" lon="6.74116">
        <ele>1381.1</ele>
        <time>2013-03-16T10:51:45.000Z</time>
      </trkpt>
      <trkpt lat="46.32256" lon="6.74122">
        <ele>1382.5</ele>
        <time>2013-03-16T10:51:49.000Z</time>
      </trkpt>
      <trkpt lat="46.32256" lon="6.74123">
        <ele>1381.9</ele>
        <time>2013-03-16T10:51:50.000Z</time>
      </trkpt>
      <trkpt lat="46.32256" lon="6.74129">
        <ele>1381.9</ele>
        <time>2013-03-16T10:51:54.000Z</time>
      </trkpt>
      <trkpt lat="46.32257" lon="6.7413">
        <ele>1382.2</ele>
        <time>2013-03-16T10:51:55.000Z</time>
      </trkpt>
      <trkpt lat="46.32258" lon="6.74135">
        <ele>1383.1</ele>
        <time>2013-03-16T10:51:59.000Z</time>
      </trkpt>
      <trkpt lat="46.32258" lon="6.74136">
        <ele>1383.1</ele>
        <time>2013-03-16T10:52:00.000Z</time>
      </trkpt>
      <trkpt lat="46.32259" lon="6.74141">
        <ele>1383</ele>
        <time>2013-03-16T10:52:04.000Z</time>
      </trkpt>
      <trkpt lat="46.3226" lon="6.74142">
        <ele>1383.1</ele>
        <time>2013-03-16T10:52:05.000Z</time>
      </trkpt>
      <trkpt lat="46.32261" lon="6.74147">
        <ele>1383.8</ele>
        <time>2013-03-16T10:52:09.000Z</time>
      </trkpt>
      <trkpt lat="46.32261" lon="6.74149">
        <ele>1383.7</ele>
        <time>2013-03-16T10:52:10.000Z</time>
      </trkpt>
      <trkpt lat="46.32262" lon="6.74154">
        <ele>1383.9</ele>
        <time>2013-03-16T10:52:14.000Z</time>
      </trkpt>
      <trkpt lat="46.32262" lon="6.74155">
        <ele>1383.8</ele>
        <time>2013-03-16T10:52:15.000Z</time>
      </trkpt>
      <trkpt lat="46.32263" lon="6.74161">
        <ele>1384.1</ele>
        <time>2013-03-16T10:52:19.000Z</time>
      </trkpt>
      <trkpt lat="46.32263" lon="6.74162">
        <ele>1384.2</ele>
        <time>2013-03-16T10:52:20.000Z</time>
      </trkpt>
      <trkpt lat="46.32264" lon="6.74168">
        <ele>1384.4</ele>
        <time>2013-03-16T10:52:27.000Z</time>
      </trkpt>
      <trkpt lat="46.32264" lon="6.74169">
        <ele>1384.5</ele>
        <time>2013-03-16T10:52:28.000Z</time>
      </trkpt>
      <trkpt lat="46.32264" lon="6.74175">
        <ele>1384.1</ele>
        <time>2013-03-16T10:52:34.000Z</time>
      </trkpt>
      <trkpt lat="46.32264" lon="6.74176">
        <ele>1383.9</ele>
        <time>2013-03-16T10:52:35.000Z</time>
      </trkpt>
      <trkpt lat="46.32265" lon="6.74182">
        <ele>1384.8</ele>
        <time>2013-03-16T10:52:40.000Z</time>
      </trkpt>
      <trkpt lat="46.32265" lon="6.74183">
        <ele>1385</ele>
        <time>2013-03-16T10:52:41.000Z</time>
      </trkpt>
      <trkpt lat="46.32266" lon="6.74187">
        <ele>1387.5</ele>
        <time>2013-03-16T10:52:47.000Z</time>
      </trkpt>
      <trkpt lat="46.32267" lon="6.74189">
        <ele>1387.3</ele>
        <time>2013-03-16T10:52:48.000Z</time>
      </trkpt>
      <trkpt lat="46.3227" lon="6.74193">
        <ele>1387.1</ele>
        <time>2013-03-16T10:52:51.000Z</time>
      </trkpt>
      <trkpt lat="46.32271" lon="6.74194">
        <ele>1387.1</ele>
        <time>2013-03-16T10:52:52.000Z</time>
      </trkpt>
      <trkpt lat="46.32274" lon="6.74198">
        <ele>1388.2</ele>
        <time>2013-03-16T10:52:56.000Z</time>
      </trkpt>
      <trkpt lat="46.32274" lon="6.74199">
        <ele>1388.3</ele>
        <time>2013-03-16T10:52:57.000Z</time>
      </trkpt>
      <trkpt lat="46.32276" lon="6.74202">
        <ele>1390.3</ele>
        <time>2013-03-16T10:54:33.000Z</time>
      </trkpt>
      <trkpt lat="46.32278" lon="6.74205">
        <ele>1390.7</ele>
        <time>2013-03-16T10:54:34.000Z</time>
      </trkpt>
      <trkpt lat="46.32281" lon="6.74206">
        <ele>1391.3</ele>
        <time>2013-03-16T10:54:52.000Z</time>
      </trkpt>
      <trkpt lat="46.32282" lon="6.74207">
        <ele>1391.5</ele>
        <time>2013-03-16T10:54:53.000Z</time>
      </trkpt>
      <trkpt lat="46.32286" lon="6.7421">
        <ele>1392.1</ele>
        <time>2013-03-16T10:54:58.000Z</time>
      </trkpt>
      <trkpt lat="46.32287" lon="6.74211">
        <ele>1392.3</ele>
        <time>2013-03-16T10:54:59.000Z</time>
      </trkpt>
      <trkpt lat="46.3229" lon="6.74213">
        <ele>1392.8</ele>
        <time>2013-03-16T10:55:42.000Z</time>
      </trkpt>
      <trkpt lat="46.32291" lon="6.74213">
        <ele>1392.8</ele>
        <time>2013-03-16T10:55:43.000Z</time>
      </trkpt>
      <trkpt lat="46.32294" lon="6.74215">
        <ele>1393</ele>
        <time>2013-03-16T10:55:46.000Z</time>
      </trkpt>
      <trkpt lat="46.32295" lon="6.74215">
        <ele>1393.2</ele>
        <time>2013-03-16T10:55:47.000Z</time>
      </trkpt>
      <trkpt lat="46.323" lon="6.74217">
        <ele>1393.3</ele>
        <time>2013-03-16T10:55:51.000Z</time>
      </trkpt>
      <trkpt lat="46.323" lon="6.74218">
        <ele>1393.4</ele>
        <time>2013-03-16T10:55:52.000Z</time>
      </trkpt>
      <trkpt lat="46.32304" lon="6.74221">
        <ele>1394.8</ele>
        <time>2013-03-16T10:55:56.000Z</time>
      </trkpt>
      <trkpt lat="46.32305" lon="6.74221">
        <ele>1395.2</ele>
        <time>2013-03-16T10:55:57.000Z</time>
      </trkpt>
      <trkpt lat="46.32308" lon="6.74224">
        <ele>1386</ele>
        <time>2013-03-16T10:58:13.000Z</time>
      </trkpt>
      <trkpt lat="46.32309" lon="6.74226">
        <ele>1386.2</ele>
        <time>2013-03-16T10:58:14.000Z</time>
      </trkpt>
      <trkpt lat="46.32312" lon="6.74228">
        <ele>1386</ele>
        <time>2013-03-16T11:03:36.000Z</time>
      </trkpt>
      <trkpt lat="46.32313" lon="6.74228">
        <ele>1388.8</ele>
        <time>2013-03-16T11:03:37.000Z</time>
      </trkpt>
      <trkpt lat="46.32315" lon="6.74223">
        <ele>1391.1</ele>
        <time>2013-03-16T11:43:32.000Z</time>
      </trkpt>
      <trkpt lat="46.32315" lon="6.74222">
        <ele>1391.2</ele>
        <time>2013-03-16T11:43:33.000Z</time>
      </trkpt>
      <trkpt lat="46.32311" lon="6.74225">
        <ele>1396.4</ele>
        <time>2013-03-16T11:44:57.000Z</time>
      </trkpt>
      <trkpt lat="46.32311" lon="6.74226">
        <ele>1396.4</ele>
        <time>2013-03-16T11:44:58.000Z</time>
      </trkpt>
      <trkpt lat="46.32309" lon="6.7423">
        <ele>1395.6</ele>
        <time>2013-03-16T11:45:05.000Z</time>
      </trkpt>
      <trkpt lat="46.32308" lon="6.74232">
        <ele>1395.5</ele>
        <time>2013-03-16T11:45:06.000Z</time>
      </trkpt>
      <trkpt lat="46.32307" lon="6.74233">
        <ele>1395.2</ele>
        <time>2013-03-16T11:45:43.000Z</time>
      </trkpt>
      <trkpt lat="46.32306" lon="6.74241">
        <ele>1388.4</ele>
        <time>2013-03-16T11:45:44.000Z</time>
      </trkpt>
      <trkpt lat="46.32302" lon="6.74238">
        <ele>1388.9</ele>
        <time>2013-03-16T11:45:49.000Z</time>
      </trkpt>
      <trkpt lat="46.32301" lon="6.74238">
        <ele>1389.1</ele>
        <time>2013-03-16T11:45:50.000Z</time>
      </trkpt>
      <trkpt lat="46.32303" lon="6.74234">
        <ele>1389.2</ele>
        <time>2013-03-16T11:46:04.000Z</time>
      </trkpt>
      <trkpt lat="46.32304" lon="6.74234">
        <ele>1389.2</ele>
        <time>2013-03-16T11:46:05.000Z</time>
      </trkpt>
      <trkpt lat="46.32307" lon="6.74233">
        <ele>1388.5</ele>
        <time>2013-03-16T11:46:08.000Z</time>
      </trkpt>
      <trkpt lat="46.32309" lon="6.74231">
        <ele>1387.9</ele>
        <time>2013-03-16T11:46:09.000Z</time>
      </trkpt>
      <trkpt lat="46.32309" lon="6.74231">
        <ele>1387.8</ele>
        <time>2013-03-16T11:46:35.000Z</time>
      </trkpt>
      <trkpt lat="46.32313" lon="6.74225">
        <ele>1386.4</ele>
        <time>2013-03-16T11:46:36.000Z</time>
      </trkpt>
      <trkpt lat="46.3231" lon="6.74225">
        <ele>1387</ele>
        <time>2013-03-16T11:47:01.000Z</time>
      </trkpt>
      <trkpt lat="46.32308" lon="6.74225">
        <ele>1387.1</ele>
        <time>2013-03-16T11:47:02.000Z</time>
      </trkpt>
      <trkpt lat="46.32304" lon="6.74222">
        <ele>1386.3</ele>
        <time>2013-03-16T11:47:07.000Z</time>
      </trkpt>
      <trkpt lat="46.32304" lon="6.74222">
        <ele>1385.9</ele>
        <time>2013-03-16T11:47:08.000Z</time>
      </trkpt>
      <trkpt lat="46.323" lon="6.74218">
        <ele>1385.2</ele>
        <time>2013-03-16T11:47:12.000Z</time>
      </trkpt>
      <trkpt lat="46.32299" lon="6.74217">
        <ele>1385.1</ele>
        <time>2013-03-16T11:47:13.000Z</time>
      </trkpt>
      <trkpt lat="46.32296" lon="6.74216">
        <ele>1384.4</ele>
        <time>2013-03-16T11:47:16.000Z</time>
      </trkpt>
      <trkpt lat="46.32295" lon="6.74215">
        <ele>1384.3</ele>
        <time>2013-03-16T11:47:17.000Z</time>
      </trkpt>
      <trkpt lat="46.32291" lon="6.74212">
        <ele>1384.1</ele>
        <time>2013-03-16T11:47:21.000Z</time>
      </trkpt>
      <trkpt lat="46.32291" lon="6.74211">
        <ele>1384</ele>
        <time>2013-03-16T11:47:22.000Z</time>
      </trkpt>
      <trkpt lat="46.32287" lon="6.74208">
        <ele>1383.5</ele>
        <time>2013-03-16T11:47:26.000Z</time>
      </trkpt>
      <trkpt lat="46.32286" lon="6.74207">
        <ele>1383.4</ele>
        <time>2013-03-16T11:47:27.000Z</time>
      </trkpt>
      <trkpt lat="46.32283" lon="6.74205">
        <ele>1383.4</ele>
        <time>2013-03-16T11:47:30.000Z</time>
      </trkpt>
      <trkpt lat="46.32282" lon="6.74204">
        <ele>1383.3</ele>
        <time>2013-03-16T11:47:31.000Z</time>
      </trkpt>
      <trkpt lat="46.32278" lon="6.74202">
        <ele>1383</ele>
        <time>2013-03-16T11:47:35.000Z</time>
      </trkpt>
      <trkpt lat="46.32277" lon="6.74202">
        <ele>1382.6</ele>
        <time>2013-03-16T11:47:36.000Z</time>
      </trkpt>
      <trkpt lat="46.32273" lon="6.74201">
        <ele>1382.4</ele>
        <time>2013-03-16T11:47:41.000Z</time>
      </trkpt>
      <trkpt lat="46.32272" lon="6.74202">
        <ele>1382.1</ele>
        <time>2013-03-16T11:47:42.000Z</time>
      </trkpt>
      <trkpt lat="46.32271" lon="6.74206">
        <ele>1381.7</ele>
        <time>2013-03-16T11:48:00.000Z</time>
      </trkpt>
      <trkpt lat="46.32272" lon="6.74208">
        <ele>1382.2</ele>
        <time>2013-03-16T11:48:01.000Z</time>
      </trkpt>
      <trkpt lat="46.32271" lon="6.74206">
        <ele>1378.5</ele>
        <time>2013-03-16T11:48:41.000Z</time>
      </trkpt>
      <trkpt lat="46.32266" lon="6.74209">
        <ele>1378.5</ele>
        <time>2013-03-16T11:48:42.000Z</time>
      </trkpt>
      <trkpt lat="46.32265" lon="6.74203">
        <ele>1379.3</ele>
        <time>2013-03-16T11:49:02.000Z</time>
      </trkpt>
      <trkpt lat="46.32265" lon="6.74201">
        <ele>1379.3</ele>
        <time>2013-03-16T11:49:03.000Z</time>
      </trkpt>
      <trkpt lat="46.32266" lon="6.74195">
        <ele>1379.1</ele>
        <time>2013-03-16T11:49:05.000Z</time>
      </trkpt>
      <trkpt lat="46.32266" lon="6.74192">
        <ele>1379.1</ele>
        <time>2013-03-16T11:49:06.000Z</time>
      </trkpt>
      <trkpt lat="46.32266" lon="6.74187">
        <ele>1378.9</ele>
        <time>2013-03-16T11:49:08.000Z</time>
      </trkpt>
      <trkpt lat="46.32266" lon="6.74184">
        <ele>1378.8</ele>
        <time>2013-03-16T11:49:09.000Z</time>
      </trkpt>
      <trkpt lat="46.32266" lon="6.7418">
        <ele>1378.6</ele>
        <time>2013-03-16T11:49:10.000Z</time>
      </trkpt>
      <trkpt lat="46.32265" lon="6.74176">
        <ele>1378.7</ele>
        <time>2013-03-16T11:49:11.000Z</time>
      </trkpt>
      <trkpt lat="46.32264" lon="6.74172">
        <ele>1378.8</ele>
        <time>2013-03-16T11:49:12.000Z</time>
      </trkpt>
      <trkpt lat="46.32264" lon="6.74168">
        <ele>1378.9</ele>
        <time>2013-03-16T11:49:13.000Z</time>
      </trkpt>
      <trkpt lat="46.32264" lon="6.74163">
        <ele>1378.8</ele>
        <time>2013-03-16T11:49:14.000Z</time>
      </trkpt>
      <trkpt lat="46.32263" lon="6.74158">
        <ele>1378.7</ele>
        <time>2013-03-16T11:49:15.000Z</time>
      </trkpt>
      <trkpt lat="46.32262" lon="6.74153">
        <ele>1378.7</ele>
        <time>2013-03-16T11:49:16.000Z</time>
      </trkpt>
      <trkpt lat="46.32262" lon="6.74149">
        <ele>1378.6</ele>
        <time>2013-03-16T11:49:17.000Z</time>
      </trkpt>
      <trkpt lat="46.32261" lon="6.74145">
        <ele>1378.5</ele>
        <time>2013-03-16T11:49:18.000Z</time>
      </trkpt>
      <trkpt lat="46.32261" lon="6.74141">
        <ele>1378.5</ele>
        <time>2013-03-16T11:49:19.000Z</time>
      </trkpt>
      <trkpt lat="46.3226" lon="6.74137">
        <ele>1378.5</ele>
        <time>2013-03-16T11:49:20.000Z</time>
      </trkpt>
      <trkpt lat="46.32259" lon="6.74131">
        <ele>1378.2</ele>
        <time>2013-03-16T11:49:21.000Z</time>
      </trkpt>
      <trkpt lat="46.32258" lon="6.74126">
        <ele>1378.2</ele>
        <time>2013-03-16T11:49:22.000Z</time>
      </trkpt>
      <trkpt lat="46.32257" lon="6.74121">
        <ele>1378.3</ele>
        <time>2013-03-16T11:49:23.000Z</time>
      </trkpt>
      <trkpt lat="46.32256" lon="6.74115">
        <ele>1378.3</ele>
        <time>2013-03-16T11:49:24.000Z</time>
      </trkpt>
      <trkpt lat="46.32254" lon="6.74109">
        <ele>1377.6</ele>
        <time>2013-03-16T11:49:25.000Z</time>
      </trkpt>
      <trkpt lat="46.32252" lon="6.74102">
        <ele>1377.4</ele>
        <time>2013-03-16T11:49:26.000Z</time>
      </trkpt>
      <trkpt lat="46.3225" lon="6.74094">
        <ele>1376.2</ele>
        <time>2013-03-16T11:49:27.000Z</time>
      </trkpt>
      <trkpt lat="46.32248" lon="6.74086">
        <ele>1375.2</ele>
        <time>2013-03-16T11:49:28.000Z</time>
      </trkpt>
      <trkpt lat="46.32246" lon="6.74079">
        <ele>1374.4</ele>
        <time>2013-03-16T11:49:29.000Z</time>
      </trkpt>
      <trkpt lat="46.32244" lon="6.74072">
        <ele>1373.4</ele>
        <time>2013-03-16T11:49:30.000Z</time>
      </trkpt>
      <trkpt lat="46.32242" lon="6.74065">
        <ele>1372.3</ele>
        <time>2013-03-16T11:49:31.000Z</time>
      </trkpt>
      <trkpt lat="46.32241" lon="6.74059">
        <ele>1372.3</ele>
        <time>2013-03-16T11:49:32.000Z</time>
      </trkpt>
      <trkpt lat="46.3224" lon="6.74052">
        <ele>1372</ele>
        <time>2013-03-16T11:49:33.000Z</time>
      </trkpt>
      <trkpt lat="46.32239" lon="6.74045">
        <ele>1371.9</ele>
        <time>2013-03-16T11:49:34.000Z</time>
      </trkpt>
      <trkpt lat="46.32238" lon="6.74038">
        <ele>1372</ele>
        <time>2013-03-16T11:49:35.000Z</time>
      </trkpt>
      <trkpt lat="46.32237" lon="6.7403">
        <ele>1371.3</ele>
        <time>2013-03-16T11:49:36.000Z</time>
      </trkpt>
      <trkpt lat="46.32236" lon="6.74022">
        <ele>1371.1</ele>
        <time>2013-03-16T11:49:37.000Z</time>
      </trkpt>
      <trkpt lat="46.32235" lon="6.74014">
        <ele>1370.8</ele>
        <time>2013-03-16T11:49:38.000Z</time>
      </trkpt>
      <trkpt lat="46.32234" lon="6.74005">
        <ele>1370.7</ele>
        <time>2013-03-16T11:49:39.000Z</time>
      </trkpt>
      <trkpt lat="46.32234" lon="6.73996">
        <ele>1370</ele>
        <time>2013-03-16T11:49:40.000Z</time>
      </trkpt>
      <trkpt lat="46.32233" lon="6.73989">
        <ele>1368.9</ele>
        <time>2013-03-16T11:49:41.000Z</time>
      </trkpt>
      <trkpt lat="46.32232" lon="6.7398">
        <ele>1368.5</ele>
        <time>2013-03-16T11:49:42.000Z</time>
      </trkpt>
      <trkpt lat="46.32232" lon="6.73972">
        <ele>1367.9</ele>
        <time>2013-03-16T11:49:43.000Z</time>
      </trkpt>
      <trkpt lat="46.3223" lon="6.73963">
        <ele>1367.3</ele>
        <time>2013-03-16T11:49:44.000Z</time>
      </trkpt>
      <trkpt lat="46.32228" lon="6.73956">
        <ele>1366.9</ele>
        <time>2013-03-16T11:49:45.000Z</time>
      </trkpt>
      <trkpt lat="46.32226" lon="6.73949">
        <ele>1366</ele>
        <time>2013-03-16T11:49:46.000Z</time>
      </trkpt>
      <trkpt lat="46.32223" lon="6.73943">
        <ele>1365.9</ele>
        <time>2013-03-16T11:49:47.000Z</time>
      </trkpt>
      <trkpt lat="46.32219" lon="6.7394">
        <ele>1364.3</ele>
        <time>2013-03-16T11:49:48.000Z</time>
      </trkpt>
      <trkpt lat="46.32215" lon="6.73935">
        <ele>1362.8</ele>
        <time>2013-03-16T11:49:49.000Z</time>
      </trkpt>
      <trkpt lat="46.3221" lon="6.7393">
        <ele>1362.2</ele>
        <time>2013-03-16T11:49:50.000Z</time>
      </trkpt>
      <trkpt lat="46.32206" lon="6.73924">
        <ele>1361.4</ele>
        <time>2013-03-16T11:49:51.000Z</time>
      </trkpt>
      <trkpt lat="46.32204" lon="6.73918">
        <ele>1360.9</ele>
        <time>2013-03-16T11:49:52.000Z</time>
      </trkpt>
      <trkpt lat="46.32203" lon="6.73917">
        <ele>1359.7</ele>
        <time>2013-03-16T11:50:20.000Z</time>
      </trkpt>
      <trkpt lat="46.32206" lon="6.7391">
        <ele>1356.3</ele>
        <time>2013-03-16T11:50:21.000Z</time>
      </trkpt>
      <trkpt lat="46.32206" lon="6.73907">
        <ele>1355.8</ele>
        <time>2013-03-16T11:50:22.000Z</time>
      </trkpt>
      <trkpt lat="46.32205" lon="6.73904">
        <ele>1355.5</ele>
        <time>2013-03-16T11:50:23.000Z</time>
      </trkpt>
      <trkpt lat="46.32204" lon="6.73899">
        <ele>1355.2</ele>
        <time>2013-03-16T11:50:24.000Z</time>
      </trkpt>
      <trkpt lat="46.32202" lon="6.73894">
        <ele>1354.6</ele>
        <time>2013-03-16T11:50:25.000Z</time>
      </trkpt>
      <trkpt lat="46.32199" lon="6.7389">
        <ele>1354.3</ele>
        <time>2013-03-16T11:50:26.000Z</time>
      </trkpt>
      <trkpt lat="46.32196" lon="6.73887">
        <ele>1354.6</ele>
        <time>2013-03-16T11:50:27.000Z</time>
      </trkpt>
      <trkpt lat="46.32193" lon="6.73884">
        <ele>1354.5</ele>
        <time>2013-03-16T11:50:28.000Z</time>
      </trkpt>
      <trkpt lat="46.32189" lon="6.73881">
        <ele>1353.7</ele>
        <time>2013-03-16T11:50:29.000Z</time>
      </trkpt>
      <trkpt lat="46.32185" lon="6.73879">
        <ele>1353.1</ele>
        <time>2013-03-16T11:50:30.000Z</time>
      </trkpt>
      <trkpt lat="46.32181" lon="6.73876">
        <ele>1352.8</ele>
        <time>2013-03-16T11:50:31.000Z</time>
      </trkpt>
      <trkpt lat="46.32178" lon="6.73873">
        <ele>1352.7</ele>
        <time>2013-03-16T11:50:32.000Z</time>
      </trkpt>
      <trkpt lat="46.32176" lon="6.73872">
        <ele>1352.4</ele>
        <time>2013-03-16T11:50:33.000Z</time>
      </trkpt>
      <trkpt lat="46.32173" lon="6.73871">
        <ele>1350.3</ele>
        <time>2013-03-16T11:50:43.000Z</time>
      </trkpt>
      <trkpt lat="46.32171" lon="6.73868">
        <ele>1349.6</ele>
        <time>2013-03-16T11:50:44.000Z</time>
      </trkpt>
      <trkpt lat="46.32169" lon="6.73864">
        <ele>1349.1</ele>
        <time>2013-03-16T11:50:45.000Z</time>
      </trkpt>
      <trkpt lat="46.32167" lon="6.7386">
        <ele>1349</ele>
        <time>2013-03-16T11:50:46.000Z</time>
      </trkpt>
      <trkpt lat="46.32165" lon="6.73855">
        <ele>1348.7</ele>
        <time>2013-03-16T11:50:47.000Z</time>
      </trkpt>
      <trkpt lat="46.32163" lon="6.7385">
        <ele>1348.5</ele>
        <time>2013-03-16T11:50:48.000Z</time>
      </trkpt>
      <trkpt lat="46.32161" lon="6.73844">
        <ele>1348.2</ele>
        <time>2013-03-16T11:50:49.000Z</time>
      </trkpt>
      <trkpt lat="46.3216" lon="6.73838">
        <ele>1347.9</ele>
        <time>2013-03-16T11:50:50.000Z</time>
      </trkpt>
      <trkpt lat="46.32158" lon="6.73832">
        <ele>1347.7</ele>
        <time>2013-03-16T11:50:51.000Z</time>
      </trkpt>
      <trkpt lat="46.32157" lon="6.73827">
        <ele>1347.1</ele>
        <time>2013-03-16T11:50:52.000Z</time>
      </trkpt>
      <trkpt lat="46.32156" lon="6.73824">
        <ele>1346.7</ele>
        <time>2013-03-16T11:50:53.000Z</time>
      </trkpt>
      <trkpt lat="46.32155" lon="6.73821">
        <ele>1346.5</ele>
        <time>2013-03-16T11:50:54.000Z</time>
      </trkpt>
      <trkpt lat="46.32153" lon="6.73815">
        <ele>1345.9</ele>
        <time>2013-03-16T11:50:56.000Z</time>
      </trkpt>
      <trkpt lat="46.32151" lon="6.73812">
        <ele>1345.4</ele>
        <time>2013-03-16T11:50:57.000Z</time>
      </trkpt>
      <trkpt lat="46.3215" lon="6.73809">
        <ele>1344.9</ele>
        <time>2013-03-16T11:50:58.000Z</time>
      </trkpt>
      <trkpt lat="46.32148" lon="6.73807">
        <ele>1344.3</ele>
        <time>2013-03-16T11:50:59.000Z</time>
      </trkpt>
      <trkpt lat="46.32147" lon="6.73805">
        <ele>1343.5</ele>
        <time>2013-03-16T11:51:00.000Z</time>
      </trkpt>
      <trkpt lat="46.32145" lon="6.73802">
        <ele>1343.3</ele>
        <time>2013-03-16T11:51:01.000Z</time>
      </trkpt>
      <trkpt lat="46.32142" lon="6.73801">
        <ele>1342.7</ele>
        <time>2013-03-16T11:51:03.000Z</time>
      </trkpt>
      <trkpt lat="46.3214" lon="6.73804">
        <ele>1342.5</ele>
        <time>2013-03-16T11:51:04.000Z</time>
      </trkpt>
      <trkpt lat="46.32139" lon="6.73808">
        <ele>1342.4</ele>
        <time>2013-03-16T11:51:05.000Z</time>
      </trkpt>
      <trkpt lat="46.32138" lon="6.73812">
        <ele>1342.4</ele>
        <time>2013-03-16T11:51:06.000Z</time>
      </trkpt>
      <trkpt lat="46.32137" lon="6.73807">
        <ele>1341.9</ele>
        <time>2013-03-16T11:51:15.000Z</time>
      </trkpt>
      <trkpt lat="46.32137" lon="6.73804">
        <ele>1341.5</ele>
        <time>2013-03-16T11:51:16.000Z</time>
      </trkpt>
      <trkpt lat="46.32137" lon="6.738">
        <ele>1341.7</ele>
        <time>2013-03-16T11:51:17.000Z</time>
      </trkpt>
      <trkpt lat="46.32136" lon="6.73797">
        <ele>1341.6</ele>
        <time>2013-03-16T11:51:18.000Z</time>
      </trkpt>
      <trkpt lat="46.32135" lon="6.73793">
        <ele>1341.6</ele>
        <time>2013-03-16T11:51:19.000Z</time>
      </trkpt>
      <trkpt lat="46.32135" lon="6.73789">
        <ele>1341.6</ele>
        <time>2013-03-16T11:51:20.000Z</time>
      </trkpt>
      <trkpt lat="46.32135" lon="6.73785">
        <ele>1341.9</ele>
        <time>2013-03-16T11:51:21.000Z</time>
      </trkpt>
      <trkpt lat="46.32135" lon="6.7378">
        <ele>1342.2</ele>
        <time>2013-03-16T11:51:22.000Z</time>
      </trkpt>
      <trkpt lat="46.32134" lon="6.73775">
        <ele>1342.2</ele>
        <time>2013-03-16T11:51:23.000Z</time>
      </trkpt>
      <trkpt lat="46.32134" lon="6.7377">
        <ele>1342.3</ele>
        <time>2013-03-16T11:51:24.000Z</time>
      </trkpt>
      <trkpt lat="46.32134" lon="6.73764">
        <ele>1342.6</ele>
        <time>2013-03-16T11:51:25.000Z</time>
      </trkpt>
      <trkpt lat="46.32134" lon="6.73758">
        <ele>1342.9</ele>
        <time>2013-03-16T11:51:26.000Z</time>
      </trkpt>
      <trkpt lat="46.32133" lon="6.73752">
        <ele>1343.1</ele>
        <time>2013-03-16T11:51:27.000Z</time>
      </trkpt>
      <trkpt lat="46.32133" lon="6.73745">
        <ele>1343.2</ele>
        <time>2013-03-16T11:51:28.000Z</time>
      </trkpt>
      <trkpt lat="46.32132" lon="6.73739">
        <ele>1343.4</ele>
        <time>2013-03-16T11:51:29.000Z</time>
      </trkpt>
      <trkpt lat="46.32132" lon="6.73732">
        <ele>1343.1</ele>
        <time>2013-03-16T11:51:30.000Z</time>
      </trkpt>
      <trkpt lat="46.32131" lon="6.73726">
        <ele>1342.9</ele>
        <time>2013-03-16T11:51:31.000Z</time>
      </trkpt>
      <trkpt lat="46.3213" lon="6.7372">
        <ele>1342.7</ele>
        <time>2013-03-16T11:51:32.000Z</time>
      </trkpt>
      <trkpt lat="46.3213" lon="6.73715">
        <ele>1341.5</ele>
        <time>2013-03-16T11:51:33.000Z</time>
      </trkpt>
      <trkpt lat="46.32129" lon="6.7371">
        <ele>1340.7</ele>
        <time>2013-03-16T11:51:34.000Z</time>
      </trkpt>
      <trkpt lat="46.32128" lon="6.73705">
        <ele>1340.3</ele>
        <time>2013-03-16T11:51:35.000Z</time>
      </trkpt>
      <trkpt lat="46.32126" lon="6.73701">
        <ele>1340</ele>
        <time>2013-03-16T11:51:36.000Z</time>
      </trkpt>
      <trkpt lat="46.32124" lon="6.73696">
        <ele>1339.8</ele>
        <time>2013-03-16T11:51:37.000Z</time>
      </trkpt>
      <trkpt lat="46.32122" lon="6.73692">
        <ele>1338.9</ele>
        <time>2013-03-16T11:51:38.000Z</time>
      </trkpt>
      <trkpt lat="46.32121" lon="6.73689">
        <ele>1337.1</ele>
        <time>2013-03-16T11:51:39.000Z</time>
      </trkpt>
      <trkpt lat="46.32119" lon="6.73685">
        <ele>1336.7</ele>
        <time>2013-03-16T11:51:40.000Z</time>
      </trkpt>
      <trkpt lat="46.32116" lon="6.73682">
        <ele>1336.7</ele>
        <time>2013-03-16T11:51:52.000Z</time>
      </trkpt>
      <trkpt lat="46.32114" lon="6.73679">
        <ele>1335.5</ele>
        <time>2013-03-16T11:51:53.000Z</time>
      </trkpt>
      <trkpt lat="46.32112" lon="6.73677">
        <ele>1334.7</ele>
        <time>2013-03-16T11:51:55.000Z</time>
      </trkpt>
      <trkpt lat="46.3211" lon="6.73674">
        <ele>1334.5</ele>
        <time>2013-03-16T11:51:56.000Z</time>
      </trkpt>
      <trkpt lat="46.32108" lon="6.73671">
        <ele>1334.5</ele>
        <time>2013-03-16T11:51:57.000Z</time>
      </trkpt>
      <trkpt lat="46.32106" lon="6.73667">
        <ele>1334.7</ele>
        <time>2013-03-16T11:51:58.000Z</time>
      </trkpt>
      <trkpt lat="46.32104" lon="6.73663">
        <ele>1334.6</ele>
        <time>2013-03-16T11:51:59.000Z</time>
      </trkpt>
      <trkpt lat="46.32103" lon="6.7366">
        <ele>1334</ele>
        <time>2013-03-16T11:52:00.000Z</time>
      </trkpt>
      <trkpt lat="46.32102" lon="6.73657">
        <ele>1330.4</ele>
        <time>2013-03-16T11:52:28.000Z</time>
      </trkpt>
      <trkpt lat="46.32101" lon="6.73653">
        <ele>1331.5</ele>
        <time>2013-03-16T11:52:29.000Z</time>
      </trkpt>
      <trkpt lat="46.321" lon="6.73649">
        <ele>1332.3</ele>
        <time>2013-03-16T11:52:30.000Z</time>
      </trkpt>
      <trkpt lat="46.32099" lon="6.73645">
        <ele>1333.1</ele>
        <time>2013-03-16T11:52:31.000Z</time>
      </trkpt>
      <trkpt lat="46.32098" lon="6.73639">
        <ele>1333.8</ele>
        <time>2013-03-16T11:52:32.000Z</time>
      </trkpt>
      <trkpt lat="46.32097" lon="6.73634">
        <ele>1334.5</ele>
        <time>2013-03-16T11:52:33.000Z</time>
      </trkpt>
      <trkpt lat="46.32096" lon="6.73628">
        <ele>1335</ele>
        <time>2013-03-16T11:52:34.000Z</time>
      </trkpt>
      <trkpt lat="46.32096" lon="6.73622">
        <ele>1335.4</ele>
        <time>2013-03-16T11:52:35.000Z</time>
      </trkpt>
      <trkpt lat="46.32096" lon="6.73615">
        <ele>1335.6</ele>
        <time>2013-03-16T11:52:36.000Z</time>
      </trkpt>
      <trkpt lat="46.32096" lon="6.73608">
        <ele>1336</ele>
        <time>2013-03-16T11:52:37.000Z</time>
      </trkpt>
      <trkpt lat="46.32097" lon="6.73601">
        <ele>1336.2</ele>
        <time>2013-03-16T11:52:38.000Z</time>
      </trkpt>
      <trkpt lat="46.32098" lon="6.73594">
        <ele>1336.4</ele>
        <time>2013-03-16T11:52:39.000Z</time>
      </trkpt>
      <trkpt lat="46.32098" lon="6.73587">
        <ele>1336.5</ele>
        <time>2013-03-16T11:52:40.000Z</time>
      </trkpt>
      <trkpt lat="46.32098" lon="6.73581">
        <ele>1336.2</ele>
        <time>2013-03-16T11:52:41.000Z</time>
      </trkpt>
      <trkpt lat="46.32097" lon="6.73575">
        <ele>1336.2</ele>
        <time>2013-03-16T11:52:42.000Z</time>
      </trkpt>
      <trkpt lat="46.32095" lon="6.73568">
        <ele>1335.9</ele>
        <time>2013-03-16T11:52:43.000Z</time>
      </trkpt>
      <trkpt lat="46.32093" lon="6.73561">
        <ele>1335.7</ele>
        <time>2013-03-16T11:52:44.000Z</time>
      </trkpt>
      <trkpt lat="46.32093" lon="6.73553">
        <ele>1335</ele>
        <time>2013-03-16T11:52:45.000Z</time>
      </trkpt>
      <trkpt lat="46.32091" lon="6.73544">
        <ele>1334.2</ele>
        <time>2013-03-16T11:52:46.000Z</time>
      </trkpt>
      <trkpt lat="46.32089" lon="6.73534">
        <ele>1333.3</ele>
        <time>2013-03-16T11:52:47.000Z</time>
      </trkpt>
      <trkpt lat="46.32087" lon="6.73523">
        <ele>1332.7</ele>
        <time>2013-03-16T11:52:48.000Z</time>
      </trkpt>
      <trkpt lat="46.32085" lon="6.73514">
        <ele>1332.2</ele>
        <time>2013-03-16T11:52:49.000Z</time>
      </trkpt>
      <trkpt lat="46.32083" lon="6.73507">
        <ele>1331.6</ele>
        <time>2013-03-16T11:52:50.000Z</time>
      </trkpt>
      <trkpt lat="46.32081" lon="6.73501">
        <ele>1330.5</ele>
        <time>2013-03-16T11:52:52.000Z</time>
      </trkpt>
      <trkpt lat="46.3208" lon="6.73499">
        <ele>1330.4</ele>
        <time>2013-03-16T11:52:53.000Z</time>
      </trkpt>
      <trkpt lat="46.32078" lon="6.73495">
        <ele>1330.2</ele>
        <time>2013-03-16T11:52:55.000Z</time>
      </trkpt>
      <trkpt lat="46.32077" lon="6.73492">
        <ele>1329.9</ele>
        <time>2013-03-16T11:52:56.000Z</time>
      </trkpt>
      <trkpt lat="46.32074" lon="6.73487">
        <ele>1325.8</ele>
        <time>2013-03-16T11:53:11.000Z</time>
      </trkpt>
      <trkpt lat="46.32073" lon="6.73484">
        <ele>1324.9</ele>
        <time>2013-03-16T11:53:12.000Z</time>
      </trkpt>
      <trkpt lat="46.32072" lon="6.73482">
        <ele>1324.3</ele>
        <time>2013-03-16T11:53:13.000Z</time>
      </trkpt>
      <trkpt lat="46.3207" lon="6.73479">
        <ele>1323.8</ele>
        <time>2013-03-16T11:53:14.000Z</time>
      </trkpt>
      <trkpt lat="46.32068" lon="6.73476">
        <ele>1323.2</ele>
        <time>2013-03-16T11:53:15.000Z</time>
      </trkpt>
      <trkpt lat="46.32066" lon="6.73472">
        <ele>1322.7</ele>
        <time>2013-03-16T11:53:16.000Z</time>
      </trkpt>
      <trkpt lat="46.32064" lon="6.73468">
        <ele>1322.2</ele>
        <time>2013-03-16T11:53:17.000Z</time>
      </trkpt>
      <trkpt lat="46.32061" lon="6.73465">
        <ele>1321.7</ele>
        <time>2013-03-16T11:53:18.000Z</time>
      </trkpt>
      <trkpt lat="46.32058" lon="6.7346">
        <ele>1321.5</ele>
        <time>2013-03-16T11:53:19.000Z</time>
      </trkpt>
      <trkpt lat="46.32055" lon="6.73456">
        <ele>1321.3</ele>
        <time>2013-03-16T11:53:20.000Z</time>
      </trkpt>
      <trkpt lat="46.32052" lon="6.7345">
        <ele>1321.2</ele>
        <time>2013-03-16T11:53:21.000Z</time>
      </trkpt>
      <trkpt lat="46.3205" lon="6.73444">
        <ele>1321.1</ele>
        <time>2013-03-16T11:53:22.000Z</time>
      </trkpt>
      <trkpt lat="46.32049" lon="6.73439">
        <ele>1320.5</ele>
        <time>2013-03-16T11:53:23.000Z</time>
      </trkpt>
      <trkpt lat="46.32047" lon="6.73433">
        <ele>1320.1</ele>
        <time>2013-03-16T11:53:24.000Z</time>
      </trkpt>
      <trkpt lat="46.32045" lon="6.73427">
        <ele>1320</ele>
        <time>2013-03-16T11:53:25.000Z</time>
      </trkpt>
      <trkpt lat="46.32043" lon="6.73421">
        <ele>1319.9</ele>
        <time>2013-03-16T11:53:26.000Z</time>
      </trkpt>
      <trkpt lat="46.32042" lon="6.73416">
        <ele>1319</ele>
        <time>2013-03-16T11:53:27.000Z</time>
      </trkpt>
      <trkpt lat="46.32041" lon="6.7341">
        <ele>1318.3</ele>
        <time>2013-03-16T11:53:28.000Z</time>
      </trkpt>
      <trkpt lat="46.3204" lon="6.73404">
        <ele>1317.6</ele>
        <time>2013-03-16T11:53:29.000Z</time>
      </trkpt>
      <trkpt lat="46.32038" lon="6.73399">
        <ele>1317</ele>
        <time>2013-03-16T11:53:30.000Z</time>
      </trkpt>
      <trkpt lat="46.32037" lon="6.73394">
        <ele>1316.4</ele>
        <time>2013-03-16T11:53:31.000Z</time>
      </trkpt>
      <trkpt lat="46.32035" lon="6.7339">
        <ele>1315.9</ele>
        <time>2013-03-16T11:53:32.000Z</time>
      </trkpt>
      <trkpt lat="46.32033" lon="6.73384">
        <ele>1315.6</ele>
        <time>2013-03-16T11:53:33.000Z</time>
      </trkpt>
      <trkpt lat="46.32032" lon="6.73379">
        <ele>1315.2</ele>
        <time>2013-03-16T11:53:34.000Z</time>
      </trkpt>
      <trkpt lat="46.3203" lon="6.73374">
        <ele>1314.6</ele>
        <time>2013-03-16T11:53:35.000Z</time>
      </trkpt>
      <trkpt lat="46.32028" lon="6.73368">
        <ele>1314</ele>
        <time>2013-03-16T11:53:36.000Z</time>
      </trkpt>
      <trkpt lat="46.32025" lon="6.73362">
        <ele>1313.6</ele>
        <time>2013-03-16T11:53:37.000Z</time>
      </trkpt>
      <trkpt lat="46.32023" lon="6.73356">
        <ele>1313.2</ele>
        <time>2013-03-16T11:53:38.000Z</time>
      </trkpt>
      <trkpt lat="46.32021" lon="6.73351">
        <ele>1312.9</ele>
        <time>2013-03-16T11:53:39.000Z</time>
      </trkpt>
      <trkpt lat="46.32021" lon="6.73344">
        <ele>1312.6</ele>
        <time>2013-03-16T11:53:40.000Z</time>
      </trkpt>
      <trkpt lat="46.32021" lon="6.73339">
        <ele>1312.4</ele>
        <time>2013-03-16T11:53:41.000Z</time>
      </trkpt>
      <trkpt lat="46.32022" lon="6.73334">
        <ele>1312</ele>
        <time>2013-03-16T11:53:42.000Z</time>
      </trkpt>
      <trkpt lat="46.32023" lon="6.7333">
        <ele>1311</ele>
        <time>2013-03-16T11:53:43.000Z</time>
      </trkpt>
      <trkpt lat="46.32021" lon="6.73324">
        <ele>1310.6</ele>
        <time>2013-03-16T11:53:44.000Z</time>
      </trkpt>
      <trkpt lat="46.32016" lon="6.7332">
        <ele>1309.8</ele>
        <time>2013-03-16T11:53:45.000Z</time>
      </trkpt>
      <trkpt lat="46.32012" lon="6.73314">
        <ele>1309</ele>
        <time>2013-03-16T11:53:46.000Z</time>
      </trkpt>
      <trkpt lat="46.3201" lon="6.73309">
        <ele>1308.7</ele>
        <time>2013-03-16T11:53:47.000Z</time>
      </trkpt>
      <trkpt lat="46.32008" lon="6.73307">
        <ele>1308.5</ele>
        <time>2013-03-16T11:53:48.000Z</time>
      </trkpt>
      <trkpt lat="46.32008" lon="6.73305">
        <ele>1308.1</ele>
        <time>2013-03-16T11:54:04.000Z</time>
      </trkpt>
      <trkpt lat="46.32009" lon="6.733">
        <ele>1305.8</ele>
        <time>2013-03-16T11:54:05.000Z</time>
      </trkpt>
      <trkpt lat="46.32009" lon="6.73294">
        <ele>1305.7</ele>
        <time>2013-03-16T11:54:07.000Z</time>
      </trkpt>
      <trkpt lat="46.32009" lon="6.73291">
        <ele>1305.5</ele>
        <time>2013-03-16T11:54:08.000Z</time>
      </trkpt>
      <trkpt lat="46.32009" lon="6.73286">
        <ele>1305.3</ele>
        <time>2013-03-16T11:54:09.000Z</time>
      </trkpt>
      <trkpt lat="46.3201" lon="6.73281">
        <ele>1305.2</ele>
        <time>2013-03-16T11:54:10.000Z</time>
      </trkpt>
      <trkpt lat="46.32011" lon="6.73276">
        <ele>1304.9</ele>
        <time>2013-03-16T11:54:11.000Z</time>
      </trkpt>
      <trkpt lat="46.32012" lon="6.73271">
        <ele>1304.4</ele>
        <time>2013-03-16T11:54:12.000Z</time>
      </trkpt>
      <trkpt lat="46.32012" lon="6.73265">
        <ele>1303.8</ele>
        <time>2013-03-16T11:54:13.000Z</time>
      </trkpt>
      <trkpt lat="46.32011" lon="6.73258">
        <ele>1303.2</ele>
        <time>2013-03-16T11:54:14.000Z</time>
      </trkpt>
      <trkpt lat="46.32011" lon="6.73253">
        <ele>1302.3</ele>
        <time>2013-03-16T11:54:15.000Z</time>
      </trkpt>
      <trkpt lat="46.32009" lon="6.73247">
        <ele>1301.5</ele>
        <time>2013-03-16T11:54:16.000Z</time>
      </trkpt>
      <trkpt lat="46.32007" lon="6.73242">
        <ele>1299.9</ele>
        <time>2013-03-16T11:54:17.000Z</time>
      </trkpt>
      <trkpt lat="46.32004" lon="6.73237">
        <ele>1298.7</ele>
        <time>2013-03-16T11:54:18.000Z</time>
      </trkpt>
      <trkpt lat="46.31999" lon="6.73235">
        <ele>1296.8</ele>
        <time>2013-03-16T11:54:19.000Z</time>
      </trkpt>
      <trkpt lat="46.31994" lon="6.73233">
        <ele>1295.9</ele>
        <time>2013-03-16T11:54:20.000Z</time>
      </trkpt>
      <trkpt lat="46.31989" lon="6.7323">
        <ele>1294.7</ele>
        <time>2013-03-16T11:54:21.000Z</time>
      </trkpt>
      <trkpt lat="46.31985" lon="6.73225">
        <ele>1293.9</ele>
        <time>2013-03-16T11:54:22.000Z</time>
      </trkpt>
      <trkpt lat="46.31981" lon="6.7322">
        <ele>1293.3</ele>
        <time>2013-03-16T11:54:23.000Z</time>
      </trkpt>
      <trkpt lat="46.31978" lon="6.73217">
        <ele>1292.9</ele>
        <time>2013-03-16T11:54:24.000Z</time>
      </trkpt>
      <trkpt lat="46.31975" lon="6.73217">
        <ele>1292.9</ele>
        <time>2013-03-16T11:54:25.000Z</time>
      </trkpt>
      <trkpt lat="46.31975" lon="6.73211">
        <ele>1295</ele>
        <time>2013-03-16T11:54:50.000Z</time>
      </trkpt>
      <trkpt lat="46.31972" lon="6.73207">
        <ele>1293.9</ele>
        <time>2013-03-16T11:54:51.000Z</time>
      </trkpt>
      <trkpt lat="46.31969" lon="6.73202">
        <ele>1293.4</ele>
        <time>2013-03-16T11:54:53.000Z</time>
      </trkpt>
      <trkpt lat="46.31967" lon="6.73198">
        <ele>1293.1</ele>
        <time>2013-03-16T11:54:54.000Z</time>
      </trkpt>
      <trkpt lat="46.3191" lon="6.73106">
        <ele>1258.1</ele>
        <time>2013-03-16T11:55:14.000Z</time>
      </trkpt>
      <trkpt lat="46.31906" lon="6.73099">
        <ele>1256.9</ele>
        <time>2013-03-16T11:55:15.000Z</time>
      </trkpt>
      <trkpt lat="46.31901" lon="6.73091">
        <ele>1255.5</ele>
        <time>2013-03-16T11:55:16.000Z</time>
      </trkpt>
      <trkpt lat="46.31897" lon="6.73083">
        <ele>1254</ele>
        <time>2013-03-16T11:55:17.000Z</time>
      </trkpt>
      <trkpt lat="46.31893" lon="6.73074">
        <ele>1253.3</ele>
        <time>2013-03-16T11:55:18.000Z</time>
      </trkpt>
      <trkpt lat="46.31888" lon="6.73067">
        <ele>1253</ele>
        <time>2013-03-16T11:55:19.000Z</time>
      </trkpt>
      <trkpt lat="46.31884" lon="6.7306">
        <ele>1252</ele>
        <time>2013-03-16T11:55:20.000Z</time>
      </trkpt>
      <trkpt lat="46.3188" lon="6.73054">
        <ele>1251.4</ele>
        <time>2013-03-16T11:55:21.000Z</time>
      </trkpt>
      <trkpt lat="46.31876" lon="6.73046">
        <ele>1251.2</ele>
        <time>2013-03-16T11:55:22.000Z</time>
      </trkpt>
      <trkpt lat="46.31873" lon="6.7304">
        <ele>1250.6</ele>
        <time>2013-03-16T11:55:23.000Z</time>
      </trkpt>
      <trkpt lat="46.31869" lon="6.73038">
        <ele>1251</ele>
        <time>2013-03-16T11:55:24.000Z</time>
      </trkpt>
      <trkpt lat="46.31865" lon="6.73037">
        <ele>1251.8</ele>
        <time>2013-03-16T11:55:25.000Z</time>
      </trkpt>
      <trkpt lat="46.31861" lon="6.73035">
        <ele>1252.9</ele>
        <time>2013-03-16T11:55:26.000Z</time>
      </trkpt>
      <trkpt lat="46.3186" lon="6.73034">
        <ele>1252.6</ele>
        <time>2013-03-16T11:55:27.000Z</time>
      </trkpt>
      <trkpt lat="46.31864" lon="6.73036">
        <ele>1253.8</ele>
        <time>2013-03-16T11:55:56.000Z</time>
      </trkpt>
      <trkpt lat="46.31863" lon="6.73038">
        <ele>1253.8</ele>
        <time>2013-03-16T11:55:57.000Z</time>
      </trkpt>
      <trkpt lat="46.31867" lon="6.73037">
        <ele>1253.1</ele>
        <time>2013-03-16T11:56:02.000Z</time>
      </trkpt>
      <trkpt lat="46.31869" lon="6.73035">
        <ele>1253</ele>
        <time>2013-03-16T11:56:03.000Z</time>
      </trkpt>
      <trkpt lat="46.3187" lon="6.73032">
        <ele>1253</ele>
        <time>2013-03-16T11:56:04.000Z</time>
      </trkpt>
      <trkpt lat="46.31872" lon="6.73028">
        <ele>1253.3</ele>
        <time>2013-03-16T11:56:05.000Z</time>
      </trkpt>
      <trkpt lat="46.31872" lon="6.73023">
        <ele>1254.2</ele>
        <time>2013-03-16T11:56:07.000Z</time>
      </trkpt>
      <trkpt lat="46.31869" lon="6.73019">
        <ele>1253.8</ele>
        <time>2013-03-16T11:56:08.000Z</time>
      </trkpt>
      <trkpt lat="46.31867" lon="6.73016">
        <ele>1253.6</ele>
        <time>2013-03-16T11:56:09.000Z</time>
      </trkpt>
      <trkpt lat="46.31864" lon="6.73011">
        <ele>1253.4</ele>
        <time>2013-03-16T11:56:10.000Z</time>
      </trkpt>
      <trkpt lat="46.3186" lon="6.73006">
        <ele>1253.5</ele>
        <time>2013-03-16T11:56:11.000Z</time>
      </trkpt>
      <trkpt lat="46.31857" lon="6.73001">
        <ele>1253.4</ele>
        <time>2013-03-16T11:56:12.000Z</time>
      </trkpt>
      <trkpt lat="46.31854" lon="6.72996">
        <ele>1253.5</ele>
        <time>2013-03-16T11:56:13.000Z</time>
      </trkpt>
      <trkpt lat="46.31852" lon="6.72992">
        <ele>1253.6</ele>
        <time>2013-03-16T11:56:14.000Z</time>
      </trkpt>
      <trkpt lat="46.3185" lon="6.72988">
        <ele>1253.3</ele>
        <time>2013-03-16T11:56:15.000Z</time>
      </trkpt>
      <trkpt lat="46.31849" lon="6.72982">
        <ele>1253.1</ele>
        <time>2013-03-16T11:56:16.000Z</time>
      </trkpt>
      <trkpt lat="46.31847" lon="6.72977">
        <ele>1252.8</ele>
        <time>2013-03-16T11:56:17.000Z</time>
      </trkpt>
      <trkpt lat="46.31846" lon="6.72972">
        <ele>1252.4</ele>
        <time>2013-03-16T11:56:18.000Z</time>
      </trkpt>
      <trkpt lat="46.31845" lon="6.72967">
        <ele>1251.8</ele>
        <time>2013-03-16T11:56:19.000Z</time>
      </trkpt>
      <trkpt lat="46.31843" lon="6.72961">
        <ele>1251.5</ele>
        <time>2013-03-16T11:56:20.000Z</time>
      </trkpt>
      <trkpt lat="46.31841" lon="6.72955">
        <ele>1251.3</ele>
        <time>2013-03-16T11:56:21.000Z</time>
      </trkpt>
      <trkpt lat="46.3184" lon="6.7295">
        <ele>1251</ele>
        <time>2013-03-16T11:56:22.000Z</time>
      </trkpt>
      <trkpt lat="46.31838" lon="6.72944">
        <ele>1250.5</ele>
        <time>2013-03-16T11:56:23.000Z</time>
      </trkpt>
      <trkpt lat="46.31837" lon="6.72938">
        <ele>1250.3</ele>
        <time>2013-03-16T11:56:24.000Z</time>
      </trkpt>
      <trkpt lat="46.31835" lon="6.72932">
        <ele>1250</ele>
        <time>2013-03-16T11:56:25.000Z</time>
      </trkpt>
      <trkpt lat="46.31834" lon="6.72927">
        <ele>1249.8</ele>
        <time>2013-03-16T11:56:26.000Z</time>
      </trkpt>
      <trkpt lat="46.31832" lon="6.72921">
        <ele>1249.8</ele>
        <time>2013-03-16T11:56:27.000Z</time>
      </trkpt>
      <trkpt lat="46.31831" lon="6.72916">
        <ele>1249.8</ele>
        <time>2013-03-16T11:56:28.000Z</time>
      </trkpt>
      <trkpt lat="46.3183" lon="6.7291">
        <ele>1250</ele>
        <time>2013-03-16T11:56:29.000Z</time>
      </trkpt>
      <trkpt lat="46.31829" lon="6.72904">
        <ele>1250.2</ele>
        <time>2013-03-16T11:56:30.000Z</time>
      </trkpt>
      <trkpt lat="46.31828" lon="6.72898">
        <ele>1250.3</ele>
        <time>2013-03-16T11:56:31.000Z</time>
      </trkpt>
      <trkpt lat="46.31827" lon="6.72892">
        <ele>1250.4</ele>
        <time>2013-03-16T11:56:32.000Z</time>
      </trkpt>
      <trkpt lat="46.31827" lon="6.72886">
        <ele>1250.4</ele>
        <time>2013-03-16T11:56:33.000Z</time>
      </trkpt>
      <trkpt lat="46.31826" lon="6.7288">
        <ele>1250.8</ele>
        <time>2013-03-16T11:56:34.000Z</time>
      </trkpt>
      <trkpt lat="46.31825" lon="6.72875">
        <ele>1251.2</ele>
        <time>2013-03-16T11:56:35.000Z</time>
      </trkpt>
      <trkpt lat="46.31825" lon="6.72869">
        <ele>1251.3</ele>
        <time>2013-03-16T11:56:36.000Z</time>
      </trkpt>
      <trkpt lat="46.31824" lon="6.72864">
        <ele>1251.3</ele>
        <time>2013-03-16T11:56:37.000Z</time>
      </trkpt>
      <trkpt lat="46.31824" lon="6.72858">
        <ele>1251.4</ele>
        <time>2013-03-16T11:56:38.000Z</time>
      </trkpt>
      <trkpt lat="46.31823" lon="6.72852">
        <ele>1251.8</ele>
        <time>2013-03-16T11:56:39.000Z</time>
      </trkpt>
      <trkpt lat="46.31823" lon="6.72847">
        <ele>1251.8</ele>
        <time>2013-03-16T11:56:40.000Z</time>
      </trkpt>
      <trkpt lat="46.31823" lon="6.72842">
        <ele>1252.1</ele>
        <time>2013-03-16T11:56:41.000Z</time>
      </trkpt>
      <trkpt lat="46.31823" lon="6.72837">
        <ele>1252.3</ele>
        <time>2013-03-16T11:56:42.000Z</time>
      </trkpt>
      <trkpt lat="46.31822" lon="6.72831">
        <ele>1252.7</ele>
        <time>2013-03-16T11:56:43.000Z</time>
      </trkpt>
      <trkpt lat="46.31822" lon="6.72826">
        <ele>1253.1</ele>
        <time>2013-03-16T11:56:44.000Z</time>
      </trkpt>
      <trkpt lat="46.31822" lon="6.7282">
        <ele>1253.7</ele>
        <time>2013-03-16T11:56:45.000Z</time>
      </trkpt>
      <trkpt lat="46.31822" lon="6.72813">
        <ele>1254.3</ele>
        <time>2013-03-16T11:56:46.000Z</time>
      </trkpt>
      <trkpt lat="46.31822" lon="6.72806">
        <ele>1254.8</ele>
        <time>2013-03-16T11:56:47.000Z</time>
      </trkpt>
      <trkpt lat="46.3182" lon="6.72799">
        <ele>1255.2</ele>
        <time>2013-03-16T11:56:48.000Z</time>
      </trkpt>
      <trkpt lat="46.31819" lon="6.72791">
        <ele>1255.4</ele>
        <time>2013-03-16T11:56:49.000Z</time>
      </trkpt>
      <trkpt lat="46.31817" lon="6.72784">
        <ele>1255.5</ele>
        <time>2013-03-16T11:56:50.000Z</time>
      </trkpt>
      <trkpt lat="46.31816" lon="6.72778">
        <ele>1255.4</ele>
        <time>2013-03-16T11:56:51.000Z</time>
      </trkpt>
      <trkpt lat="46.31814" lon="6.72773">
        <ele>1255.4</ele>
        <time>2013-03-16T11:56:52.000Z</time>
      </trkpt>
      <trkpt lat="46.31812" lon="6.72768">
        <ele>1255.2</ele>
        <time>2013-03-16T11:56:53.000Z</time>
      </trkpt>
      <trkpt lat="46.3181" lon="6.72763">
        <ele>1254.9</ele>
        <time>2013-03-16T11:56:54.000Z</time>
      </trkpt>
      <trkpt lat="46.31807" lon="6.72759">
        <ele>1254.6</ele>
        <time>2013-03-16T11:56:55.000Z</time>
      </trkpt>
      <trkpt lat="46.31804" lon="6.72754">
        <ele>1254.5</ele>
        <time>2013-03-16T11:56:56.000Z</time>
      </trkpt>
      <trkpt lat="46.31801" lon="6.72749">
        <ele>1254.6</ele>
        <time>2013-03-16T11:56:57.000Z</time>
      </trkpt>
      <trkpt lat="46.31798" lon="6.72744">
        <ele>1254.6</ele>
        <time>2013-03-16T11:56:58.000Z</time>
      </trkpt>
      <trkpt lat="46.31795" lon="6.72739">
        <ele>1254.2</ele>
        <time>2013-03-16T11:56:59.000Z</time>
      </trkpt>
      <trkpt lat="46.31793" lon="6.72736">
        <ele>1252.9</ele>
        <time>2013-03-16T11:57:00.000Z</time>
      </trkpt>
      <trkpt lat="46.31792" lon="6.72731">
        <ele>1252.1</ele>
        <time>2013-03-16T11:57:01.000Z</time>
      </trkpt>
      <trkpt lat="46.3179" lon="6.72726">
        <ele>1250.2</ele>
        <time>2013-03-16T11:57:03.000Z</time>
      </trkpt>
      <trkpt lat="46.31789" lon="6.72724">
        <ele>1249.4</ele>
        <time>2013-03-16T11:57:04.000Z</time>
      </trkpt>
      <trkpt lat="46.31786" lon="6.72721">
        <ele>1245.6</ele>
        <time>2013-03-16T11:57:11.000Z</time>
      </trkpt>
      <trkpt lat="46.31785" lon="6.7272">
        <ele>1245</ele>
        <time>2013-03-16T11:57:12.000Z</time>
      </trkpt>
      <trkpt lat="46.31781" lon="6.72719">
        <ele>1244.2</ele>
        <time>2013-03-16T11:57:38.000Z</time>
      </trkpt>
      <trkpt lat="46.31778" lon="6.72716">
        <ele>1244</ele>
        <time>2013-03-16T11:57:39.000Z</time>
      </trkpt>
      <trkpt lat="46.31776" lon="6.72709">
        <ele>1243.8</ele>
        <time>2013-03-16T11:57:40.000Z</time>
      </trkpt>
      <trkpt lat="46.31775" lon="6.72703">
        <ele>1243.4</ele>
        <time>2013-03-16T11:57:41.000Z</time>
      </trkpt>
      <trkpt lat="46.31772" lon="6.72696">
        <ele>1243</ele>
        <time>2013-03-16T11:57:42.000Z</time>
      </trkpt>
      <trkpt lat="46.3177" lon="6.7269">
        <ele>1242.8</ele>
        <time>2013-03-16T11:57:43.000Z</time>
      </trkpt>
      <trkpt lat="46.31768" lon="6.72683">
        <ele>1242.7</ele>
        <time>2013-03-16T11:57:44.000Z</time>
      </trkpt>
      <trkpt lat="46.31766" lon="6.72676">
        <ele>1242.5</ele>
        <time>2013-03-16T11:57:45.000Z</time>
      </trkpt>
      <trkpt lat="46.31763" lon="6.7267">
        <ele>1242.2</ele>
        <time>2013-03-16T11:57:46.000Z</time>
      </trkpt>
      <trkpt lat="46.31761" lon="6.72663">
        <ele>1242.1</ele>
        <time>2013-03-16T11:57:47.000Z</time>
      </trkpt>
      <trkpt lat="46.31759" lon="6.72656">
        <ele>1242</ele>
        <time>2013-03-16T11:57:48.000Z</time>
      </trkpt>
      <trkpt lat="46.31755" lon="6.72649">
        <ele>1241.4</ele>
        <time>2013-03-16T11:57:49.000Z</time>
      </trkpt>
      <trkpt lat="46.31751" lon="6.72643">
        <ele>1240.9</ele>
        <time>2013-03-16T11:57:50.000Z</time>
      </trkpt>
      <trkpt lat="46.31747" lon="6.72637">
        <ele>1240.3</ele>
        <time>2013-03-16T11:57:51.000Z</time>
      </trkpt>
      <trkpt lat="46.31743" lon="6.72631">
        <ele>1239.9</ele>
        <time>2013-03-16T11:57:52.000Z</time>
      </trkpt>
      <trkpt lat="46.31739" lon="6.72627">
        <ele>1239.4</ele>
        <time>2013-03-16T11:57:53.000Z</time>
      </trkpt>
      <trkpt lat="46.31735" lon="6.72622">
        <ele>1239.4</ele>
        <time>2013-03-16T11:57:54.000Z</time>
      </trkpt>
      <trkpt lat="46.31731" lon="6.72615">
        <ele>1238.9</ele>
        <time>2013-03-16T11:57:55.000Z</time>
      </trkpt>
      <trkpt lat="46.31727" lon="6.72609">
        <ele>1238.9</ele>
        <time>2013-03-16T11:57:56.000Z</time>
      </trkpt>
      <trkpt lat="46.31723" lon="6.72602">
        <ele>1238.6</ele>
        <time>2013-03-16T11:57:57.000Z</time>
      </trkpt>
      <trkpt lat="46.31718" lon="6.72595">
        <ele>1238.4</ele>
        <time>2013-03-16T11:57:58.000Z</time>
      </trkpt>
      <trkpt lat="46.31714" lon="6.72588">
        <ele>1238.2</ele>
        <time>2013-03-16T11:57:59.000Z</time>
      </trkpt>
      <trkpt lat="46.31709" lon="6.72581">
        <ele>1238.3</ele>
        <time>2013-03-16T11:58:00.000Z</time>
      </trkpt>
      <trkpt lat="46.31706" lon="6.72574">
        <ele>1238.4</ele>
        <time>2013-03-16T11:58:01.000Z</time>
      </trkpt>
      <trkpt lat="46.31703" lon="6.72566">
        <ele>1238.4</ele>
        <time>2013-03-16T11:58:02.000Z</time>
      </trkpt>
      <trkpt lat="46.31699" lon="6.72558">
        <ele>1238.2</ele>
        <time>2013-03-16T11:58:03.000Z</time>
      </trkpt>
      <trkpt lat="46.31696" lon="6.72551">
        <ele>1237.9</ele>
        <time>2013-03-16T11:58:04.000Z</time>
      </trkpt>
      <trkpt lat="46.31693" lon="6.72544">
        <ele>1237.7</ele>
        <time>2013-03-16T11:58:05.000Z</time>
      </trkpt>
      <trkpt lat="46.3169" lon="6.72539">
        <ele>1237.5</ele>
        <time>2013-03-16T11:58:06.000Z</time>
      </trkpt>
      <trkpt lat="46.31687" lon="6.72536">
        <ele>1236.8</ele>
        <time>2013-03-16T11:58:07.000Z</time>
      </trkpt>
      <trkpt lat="46.31684" lon="6.72533">
        <ele>1236.1</ele>
        <time>2013-03-16T11:58:08.000Z</time>
      </trkpt>
      <trkpt lat="46.31681" lon="6.72529">
        <ele>1235.5</ele>
        <time>2013-03-16T11:58:09.000Z</time>
      </trkpt>
      <trkpt lat="46.31677" lon="6.72525">
        <ele>1235.5</ele>
        <time>2013-03-16T11:58:10.000Z</time>
      </trkpt>
      <trkpt lat="46.31674" lon="6.72521">
        <ele>1235.3</ele>
        <time>2013-03-16T11:58:11.000Z</time>
      </trkpt>
      <trkpt lat="46.31671" lon="6.72521">
        <ele>1235.1</ele>
        <time>2013-03-16T11:58:12.000Z</time>
      </trkpt>
      <trkpt lat="46.3167" lon="6.72519">
        <ele>1232.8</ele>
        <time>2013-03-16T11:58:48.000Z</time>
      </trkpt>
      <trkpt lat="46.31669" lon="6.72515">
        <ele>1232.5</ele>
        <time>2013-03-16T11:58:49.000Z</time>
      </trkpt>
      <trkpt lat="46.31668" lon="6.72511">
        <ele>1232.3</ele>
        <time>2013-03-16T11:58:50.000Z</time>
      </trkpt>
      <trkpt lat="46.31662" lon="6.72508">
        <ele>1231.6</ele>
        <time>2013-03-16T11:58:51.000Z</time>
      </trkpt>
      <trkpt lat="46.31659" lon="6.72503">
        <ele>1231.9</ele>
        <time>2013-03-16T11:58:52.000Z</time>
      </trkpt>
      <trkpt lat="46.31657" lon="6.72498">
        <ele>1232.2</ele>
        <time>2013-03-16T11:58:53.000Z</time>
      </trkpt>
      <trkpt lat="46.31655" lon="6.72491">
        <ele>1232.6</ele>
        <time>2013-03-16T11:58:54.000Z</time>
      </trkpt>
      <trkpt lat="46.31652" lon="6.72486">
        <ele>1232.9</ele>
        <time>2013-03-16T11:58:55.000Z</time>
      </trkpt>
      <trkpt lat="46.3165" lon="6.72482">
        <ele>1232.7</ele>
        <time>2013-03-16T11:58:56.000Z</time>
      </trkpt>
      <trkpt lat="46.31648" lon="6.72477">
        <ele>1230.8</ele>
        <time>2013-03-16T11:58:58.000Z</time>
      </trkpt>
      <trkpt lat="46.31646" lon="6.72473">
        <ele>1230.6</ele>
        <time>2013-03-16T11:58:59.000Z</time>
      </trkpt>
      <trkpt lat="46.31644" lon="6.72468">
        <ele>1230.7</ele>
        <time>2013-03-16T11:59:00.000Z</time>
      </trkpt>
      <trkpt lat="46.31642" lon="6.72462">
        <ele>1230.4</ele>
        <time>2013-03-16T11:59:01.000Z</time>
      </trkpt>
      <trkpt lat="46.31641" lon="6.72458">
        <ele>1230.3</ele>
        <time>2013-03-16T11:59:02.000Z</time>
      </trkpt>
      <trkpt lat="46.31639" lon="6.72452">
        <ele>1230.6</ele>
        <time>2013-03-16T11:59:03.000Z</time>
      </trkpt>
      <trkpt lat="46.31638" lon="6.72446">
        <ele>1230</ele>
        <time>2013-03-16T11:59:04.000Z</time>
      </trkpt>
      <trkpt lat="46.31636" lon="6.72439">
        <ele>1229.6</ele>
        <time>2013-03-16T11:59:05.000Z</time>
      </trkpt>
      <trkpt lat="46.31634" lon="6.72434">
        <ele>1229.4</ele>
        <time>2013-03-16T11:59:06.000Z</time>
      </trkpt>
      <trkpt lat="46.31633" lon="6.72428">
        <ele>1229.5</ele>
        <time>2013-03-16T11:59:07.000Z</time>
      </trkpt>
      <trkpt lat="46.31631" lon="6.72423">
        <ele>1229.4</ele>
        <time>2013-03-16T11:59:08.000Z</time>
      </trkpt>
      <trkpt lat="46.31628" lon="6.72417">
        <ele>1229.4</ele>
        <time>2013-03-16T11:59:09.000Z</time>
      </trkpt>
      <trkpt lat="46.31624" lon="6.72409">
        <ele>1229.1</ele>
        <time>2013-03-16T11:59:10.000Z</time>
      </trkpt>
      <trkpt lat="46.3162" lon="6.72402">
        <ele>1228.9</ele>
        <time>2013-03-16T11:59:11.000Z</time>
      </trkpt>
      <trkpt lat="46.31616" lon="6.72394">
        <ele>1228.9</ele>
        <time>2013-03-16T11:59:12.000Z</time>
      </trkpt>
      <trkpt lat="46.31613" lon="6.72387">
        <ele>1228.8</ele>
        <time>2013-03-16T11:59:13.000Z</time>
      </trkpt>
      <trkpt lat="46.31608" lon="6.72379">
        <ele>1229.1</ele>
        <time>2013-03-16T11:59:14.000Z</time>
      </trkpt>
      <trkpt lat="46.31602" lon="6.7237">
        <ele>1228.8</ele>
        <time>2013-03-16T11:59:15.000Z</time>
      </trkpt>
      <trkpt lat="46.31597" lon="6.72362">
        <ele>1228.6</ele>
        <time>2013-03-16T11:59:16.000Z</time>
      </trkpt>
      <trkpt lat="46.31591" lon="6.72354">
        <ele>1228.6</ele>
        <time>2013-03-16T11:59:17.000Z</time>
      </trkpt>
      <trkpt lat="46.31585" lon="6.72347">
        <ele>1228.3</ele>
        <time>2013-03-16T11:59:18.000Z</time>
      </trkpt>
      <trkpt lat="46.3158" lon="6.7234">
        <ele>1228.1</ele>
        <time>2013-03-16T11:59:19.000Z</time>
      </trkpt>
      <trkpt lat="46.31574" lon="6.72334">
        <ele>1227.8</ele>
        <time>2013-03-16T11:59:20.000Z</time>
      </trkpt>
      <trkpt lat="46.31569" lon="6.72328">
        <ele>1227.6</ele>
        <time>2013-03-16T11:59:21.000Z</time>
      </trkpt>
      <trkpt lat="46.31565" lon="6.72322">
        <ele>1227.6</ele>
        <time>2013-03-16T11:59:22.000Z</time>
      </trkpt>
      <trkpt lat="46.31561" lon="6.72316">
        <ele>1227.6</ele>
        <time>2013-03-16T11:59:23.000Z</time>
      </trkpt>
      <trkpt lat="46.31557" lon="6.72309">
        <ele>1227.5</ele>
        <time>2013-03-16T11:59:24.000Z</time>
      </trkpt>
      <trkpt lat="46.31554" lon="6.72303">
        <ele>1227.5</ele>
        <time>2013-03-16T11:59:25.000Z</time>
      </trkpt>
      <trkpt lat="46.3155" lon="6.72295">
        <ele>1227.5</ele>
        <time>2013-03-16T11:59:26.000Z</time>
      </trkpt>
      <trkpt lat="46.31546" lon="6.72289">
        <ele>1227.7</ele>
        <time>2013-03-16T11:59:27.000Z</time>
      </trkpt>
      <trkpt lat="46.31543" lon="6.72283">
        <ele>1228.1</ele>
        <time>2013-03-16T11:59:28.000Z</time>
      </trkpt>
      <trkpt lat="46.3154" lon="6.72276">
        <ele>1228.1</ele>
        <time>2013-03-16T11:59:29.000Z</time>
      </trkpt>
      <trkpt lat="46.31537" lon="6.7227">
        <ele>1228</ele>
        <time>2013-03-16T11:59:30.000Z</time>
      </trkpt>
      <trkpt lat="46.31534" lon="6.72263">
        <ele>1227.9</ele>
        <time>2013-03-16T11:59:31.000Z</time>
      </trkpt>
      <trkpt lat="46.31531" lon="6.72255">
        <ele>1227.7</ele>
        <time>2013-03-16T11:59:32.000Z</time>
      </trkpt>
      <trkpt lat="46.31528" lon="6.72249">
        <ele>1227.4</ele>
        <time>2013-03-16T11:59:33.000Z</time>
      </trkpt>
      <trkpt lat="46.31525" lon="6.72242">
        <ele>1227.2</ele>
        <time>2013-03-16T11:59:34.000Z</time>
      </trkpt>
      <trkpt lat="46.31521" lon="6.72236">
        <ele>1226.8</ele>
        <time>2013-03-16T11:59:35.000Z</time>
      </trkpt>
      <trkpt lat="46.31516" lon="6.7223">
        <ele>1226</ele>
        <time>2013-03-16T11:59:36.000Z</time>
      </trkpt>
      <trkpt lat="46.31512" lon="6.72223">
        <ele>1226</ele>
        <time>2013-03-16T11:59:37.000Z</time>
      </trkpt>
      <trkpt lat="46.31507" lon="6.72217">
        <ele>1225.5</ele>
        <time>2013-03-16T11:59:38.000Z</time>
      </trkpt>
      <trkpt lat="46.31502" lon="6.72213">
        <ele>1225.6</ele>
        <time>2013-03-16T11:59:39.000Z</time>
      </trkpt>
      <trkpt lat="46.31497" lon="6.7221">
        <ele>1225.7</ele>
        <time>2013-03-16T11:59:40.000Z</time>
      </trkpt>
      <trkpt lat="46.31493" lon="6.72207">
        <ele>1225.5</ele>
        <time>2013-03-16T11:59:41.000Z</time>
      </trkpt>
      <trkpt lat="46.31488" lon="6.72203">
        <ele>1225.5</ele>
        <time>2013-03-16T11:59:42.000Z</time>
      </trkpt>
      <trkpt lat="46.31482" lon="6.72199">
        <ele>1225.4</ele>
        <time>2013-03-16T11:59:43.000Z</time>
      </trkpt>
      <trkpt lat="46.31477" lon="6.72195">
        <ele>1225.1</ele>
        <time>2013-03-16T11:59:44.000Z</time>
      </trkpt>
      <trkpt lat="46.31472" lon="6.7219">
        <ele>1224.9</ele>
        <time>2013-03-16T11:59:45.000Z</time>
      </trkpt>
      <trkpt lat="46.31467" lon="6.72185">
        <ele>1224.7</ele>
        <time>2013-03-16T11:59:46.000Z</time>
      </trkpt>
      <trkpt lat="46.31462" lon="6.72181">
        <ele>1224.6</ele>
        <time>2013-03-16T11:59:47.000Z</time>
      </trkpt>
      <trkpt lat="46.31458" lon="6.72175">
        <ele>1223.8</ele>
        <time>2013-03-16T11:59:48.000Z</time>
      </trkpt>
      <trkpt lat="46.31452" lon="6.7217">
        <ele>1223.5</ele>
        <time>2013-03-16T11:59:49.000Z</time>
      </trkpt>
      <trkpt lat="46.31448" lon="6.72162">
        <ele>1224</ele>
        <time>2013-03-16T11:59:50.000Z</time>
      </trkpt>
      <trkpt lat="46.31443" lon="6.72155">
        <ele>1224.1</ele>
        <time>2013-03-16T11:59:51.000Z</time>
      </trkpt>
      <trkpt lat="46.31439" lon="6.72149">
        <ele>1223.9</ele>
        <time>2013-03-16T11:59:52.000Z</time>
      </trkpt>
      <trkpt lat="46.31436" lon="6.72142">
        <ele>1223.6</ele>
        <time>2013-03-16T11:59:53.000Z</time>
      </trkpt>
      <trkpt lat="46.31433" lon="6.72136">
        <ele>1223.4</ele>
        <time>2013-03-16T11:59:54.000Z</time>
      </trkpt>
      <trkpt lat="46.3143" lon="6.72131">
        <ele>1223.4</ele>
        <time>2013-03-16T11:59:55.000Z</time>
      </trkpt>
      <trkpt lat="46.31427" lon="6.72124">
        <ele>1223.3</ele>
        <time>2013-03-16T11:59:56.000Z</time>
      </trkpt>
      <trkpt lat="46.31424" lon="6.72116">
        <ele>1223.3</ele>
        <time>2013-03-16T11:59:57.000Z</time>
      </trkpt>
      <trkpt lat="46.31421" lon="6.72109">
        <ele>1223.1</ele>
        <time>2013-03-16T11:59:58.000Z</time>
      </trkpt>
      <trkpt lat="46.31418" lon="6.721">
        <ele>1222.7</ele>
        <time>2013-03-16T11:59:59.000Z</time>
      </trkpt>
      <trkpt lat="46.31414" lon="6.72092">
        <ele>1222.5</ele>
        <time>2013-03-16T12:00:00.000Z</time>
      </trkpt>
      <trkpt lat="46.3141" lon="6.72083">
        <ele>1222.2</ele>
        <time>2013-03-16T12:00:01.000Z</time>
      </trkpt>
      <trkpt lat="46.31409" lon="6.72075">
        <ele>1220.7</ele>
        <time>2013-03-16T12:00:02.000Z</time>
      </trkpt>
      <trkpt lat="46.31407" lon="6.72068">
        <ele>1219.7</ele>
        <time>2013-03-16T12:00:03.000Z</time>
      </trkpt>
      <trkpt lat="46.31405" lon="6.72063">
        <ele>1218.5</ele>
        <time>2013-03-16T12:00:04.000Z</time>
      </trkpt>
      <trkpt lat="46.31404" lon="6.72063">
        <ele>1216.6</ele>
        <time>2013-03-16T12:00:05.000Z</time>
      </trkpt>
      <trkpt lat="46.31407" lon="6.72065">
        <ele>1211</ele>
        <time>2013-03-16T12:00:51.000Z</time>
      </trkpt>
      <trkpt lat="46.31417" lon="6.72069">
        <ele>1202</ele>
        <time>2013-03-16T12:00:52.000Z</time>
      </trkpt>
      <trkpt lat="46.31421" lon="6.72071">
        <ele>1199</ele>
        <time>2013-03-16T12:00:54.000Z</time>
      </trkpt>
      <trkpt lat="46.31423" lon="6.72072">
        <ele>1197.6</ele>
        <time>2013-03-16T12:00:55.000Z</time>
      </trkpt>
      <trkpt lat="46.31424" lon="6.72067">
        <ele>1192.8</ele>
        <time>2013-03-16T12:00:59.000Z</time>
      </trkpt>
      <trkpt lat="46.31425" lon="6.72066">
        <ele>1191.8</ele>
        <time>2013-03-16T12:01:00.000Z</time>
      </trkpt>
      <trkpt lat="46.31428" lon="6.72061">
        <ele>1189.3</ele>
        <time>2013-03-16T12:01:04.000Z</time>
      </trkpt>
      <trkpt lat="46.3143" lon="6.7206">
        <ele>1189</ele>
        <time>2013-03-16T12:01:05.000Z</time>
      </trkpt>
      <trkpt lat="46.31427" lon="6.72057">
        <ele>1185.7</ele>
        <time>2013-03-16T12:01:44.000Z</time>
      </trkpt>
      <trkpt lat="46.31426" lon="6.72056">
        <ele>1185.8</ele>
        <time>2013-03-16T12:01:45.000Z</time>
      </trkpt>
      <trkpt lat="46.31422" lon="6.72053">
        <ele>1183.1</ele>
        <time>2013-03-16T12:02:58.000Z</time>
      </trkpt>
      <trkpt lat="46.31421" lon="6.72052">
        <ele>1182.9</ele>
        <time>2013-03-16T12:02:59.000Z</time>
      </trkpt>
      <trkpt lat="46.31418" lon="6.72048">
        <ele>1182.6</ele>
        <time>2013-03-16T12:03:01.000Z</time>
      </trkpt>
      <trkpt lat="46.31416" lon="6.72046">
        <ele>1182.6</ele>
        <time>2013-03-16T12:03:02.000Z</time>
      </trkpt>
      <trkpt lat="46.31413" lon="6.72042">
        <ele>1182</ele>
        <time>2013-03-16T12:03:04.000Z</time>
      </trkpt>
      <trkpt lat="46.31411" lon="6.72039">
        <ele>1182.1</ele>
        <time>2013-03-16T12:03:05.000Z</time>
      </trkpt>
      <trkpt lat="46.31409" lon="6.72036">
        <ele>1182</ele>
        <time>2013-03-16T12:03:06.000Z</time>
      </trkpt>
      <trkpt lat="46.31407" lon="6.72033">
        <ele>1181.8</ele>
        <time>2013-03-16T12:03:07.000Z</time>
      </trkpt>
      <trkpt lat="46.31405" lon="6.7203">
        <ele>1181.6</ele>
        <time>2013-03-16T12:03:08.000Z</time>
      </trkpt>
      <trkpt lat="46.31403" lon="6.72027">
        <ele>1181.3</ele>
        <time>2013-03-16T12:03:09.000Z</time>
      </trkpt>
      <trkpt lat="46.31401" lon="6.72023">
        <ele>1181.3</ele>
        <time>2013-03-16T12:03:10.000Z</time>
      </trkpt>
      <trkpt lat="46.31398" lon="6.72019">
        <ele>1181.2</ele>
        <time>2013-03-16T12:03:11.000Z</time>
      </trkpt>
      <trkpt lat="46.31396" lon="6.72016">
        <ele>1181</ele>
        <time>2013-03-16T12:03:12.000Z</time>
      </trkpt>
      <trkpt lat="46.31393" lon="6.72012">
        <ele>1180.9</ele>
        <time>2013-03-16T12:03:13.000Z</time>
      </trkpt>
      <trkpt lat="46.31391" lon="6.72008">
        <ele>1180.7</ele>
        <time>2013-03-16T12:03:14.000Z</time>
      </trkpt>
      <trkpt lat="46.31388" lon="6.72002">
        <ele>1180.5</ele>
        <time>2013-03-16T12:03:15.000Z</time>
      </trkpt>
      <trkpt lat="46.31385" lon="6.71997">
        <ele>1180.1</ele>
        <time>2013-03-16T12:03:16.000Z</time>
      </trkpt>
      <trkpt lat="46.31383" lon="6.71991">
        <ele>1179.7</ele>
        <time>2013-03-16T12:03:17.000Z</time>
      </trkpt>
      <trkpt lat="46.31381" lon="6.71984">
        <ele>1179.4</ele>
        <time>2013-03-16T12:03:18.000Z</time>
      </trkpt>
      <trkpt lat="46.31379" lon="6.71977">
        <ele>1178.8</ele>
        <time>2013-03-16T12:03:19.000Z</time>
      </trkpt>
      <trkpt lat="46.31376" lon="6.71973">
        <ele>1178.5</ele>
        <time>2013-03-16T12:03:20.000Z</time>
      </trkpt>
      <trkpt lat="46.31374" lon="6.71968">
        <ele>1178.2</ele>
        <time>2013-03-16T12:03:21.000Z</time>
      </trkpt>
      <trkpt lat="46.3137" lon="6.71964">
        <ele>1177.9</ele>
        <time>2013-03-16T12:03:22.000Z</time>
      </trkpt>
      <trkpt lat="46.31367" lon="6.71961">
        <ele>1177.4</ele>
        <time>2013-03-16T12:03:23.000Z</time>
      </trkpt>
      <trkpt lat="46.31365" lon="6.71955">
        <ele>1177</ele>
        <time>2013-03-16T12:03:24.000Z</time>
      </trkpt>
      <trkpt lat="46.31363" lon="6.71948">
        <ele>1177.1</ele>
        <time>2013-03-16T12:03:25.000Z</time>
      </trkpt>
      <trkpt lat="46.3136" lon="6.71942">
        <ele>1177</ele>
        <time>2013-03-16T12:03:26.000Z</time>
      </trkpt>
      <trkpt lat="46.31357" lon="6.71934">
        <ele>1177.2</ele>
        <time>2013-03-16T12:03:27.000Z</time>
      </trkpt>
      <trkpt lat="46.31355" lon="6.71928">
        <ele>1177.2</ele>
        <time>2013-03-16T12:03:28.000Z</time>
      </trkpt>
      <trkpt lat="46.31353" lon="6.71922">
        <ele>1177</ele>
        <time>2013-03-16T12:03:29.000Z</time>
      </trkpt>
      <trkpt lat="46.31351" lon="6.71916">
        <ele>1177.2</ele>
        <time>2013-03-16T12:03:30.000Z</time>
      </trkpt>
      <trkpt lat="46.31349" lon="6.71908">
        <ele>1178</ele>
        <time>2013-03-16T12:03:31.000Z</time>
      </trkpt>
      <trkpt lat="46.31348" lon="6.71902">
        <ele>1178.5</ele>
        <time>2013-03-16T12:03:32.000Z</time>
      </trkpt>
      <trkpt lat="46.31346" lon="6.71896">
        <ele>1178.6</ele>
        <time>2013-03-16T12:03:33.000Z</time>
      </trkpt>
      <trkpt lat="46.31344" lon="6.7189">
        <ele>1178.8</ele>
        <time>2013-03-16T12:03:34.000Z</time>
      </trkpt>
      <trkpt lat="46.31342" lon="6.71882">
        <ele>1178.9</ele>
        <time>2013-03-16T12:03:35.000Z</time>
      </trkpt>
      <trkpt lat="46.31339" lon="6.71874">
        <ele>1179</ele>
        <time>2013-03-16T12:03:36.000Z</time>
      </trkpt>
      <trkpt lat="46.31338" lon="6.71867">
        <ele>1179.1</ele>
        <time>2013-03-16T12:03:37.000Z</time>
      </trkpt>
      <trkpt lat="46.31337" lon="6.7186">
        <ele>1179.1</ele>
        <time>2013-03-16T12:03:38.000Z</time>
      </trkpt>
      <trkpt lat="46.31336" lon="6.71852">
        <ele>1179.3</ele>
        <time>2013-03-16T12:03:39.000Z</time>
      </trkpt>
      <trkpt lat="46.31334" lon="6.71845">
        <ele>1179.2</ele>
        <time>2013-03-16T12:03:40.000Z</time>
      </trkpt>
      <trkpt lat="46.31332" lon="6.71836">
        <ele>1179.5</ele>
        <time>2013-03-16T12:03:41.000Z</time>
      </trkpt>
      <trkpt lat="46.31331" lon="6.71828">
        <ele>1179.5</ele>
        <time>2013-03-16T12:03:42.000Z</time>
      </trkpt>
      <trkpt lat="46.3133" lon="6.7182">
        <ele>1179.6</ele>
        <time>2013-03-16T12:03:43.000Z</time>
      </trkpt>
      <trkpt lat="46.31329" lon="6.71811">
        <ele>1180.2</ele>
        <time>2013-03-16T12:03:44.000Z</time>
      </trkpt>
      <trkpt lat="46.31328" lon="6.71802">
        <ele>1180.2</ele>
        <time>2013-03-16T12:03:45.000Z</time>
      </trkpt>
      <trkpt lat="46.31327" lon="6.71793">
        <ele>1180.1</ele>
        <time>2013-03-16T12:03:46.000Z</time>
      </trkpt>
      <trkpt lat="46.31327" lon="6.71787">
        <ele>1178.8</ele>
        <time>2013-03-16T12:03:47.000Z</time>
      </trkpt>
      <trkpt lat="46.31326" lon="6.71779">
        <ele>1178.2</ele>
        <time>2013-03-16T12:03:48.000Z</time>
      </trkpt>
      <trkpt lat="46.31326" lon="6.71771">
        <ele>1177.8</ele>
        <time>2013-03-16T12:03:49.000Z</time>
      </trkpt>
      <trkpt lat="46.31325" lon="6.71764">
        <ele>1177.4</ele>
        <time>2013-03-16T12:03:50.000Z</time>
      </trkpt>
      <trkpt lat="46.31323" lon="6.71756">
        <ele>1177.5</ele>
        <time>2013-03-16T12:03:51.000Z</time>
      </trkpt>
      <trkpt lat="46.31322" lon="6.71748">
        <ele>1177.3</ele>
        <time>2013-03-16T12:03:52.000Z</time>
      </trkpt>
      <trkpt lat="46.31321" lon="6.7174">
        <ele>1176.9</ele>
        <time>2013-03-16T12:03:53.000Z</time>
      </trkpt>
      <trkpt lat="46.31321" lon="6.71732">
        <ele>1176.3</ele>
        <time>2013-03-16T12:03:54.000Z</time>
      </trkpt>
      <trkpt lat="46.31319" lon="6.71724">
        <ele>1175.8</ele>
        <time>2013-03-16T12:03:55.000Z</time>
      </trkpt>
      <trkpt lat="46.31319" lon="6.71716">
        <ele>1175.3</ele>
        <time>2013-03-16T12:03:56.000Z</time>
      </trkpt>
      <trkpt lat="46.31319" lon="6.71708">
        <ele>1175</ele>
        <time>2013-03-16T12:03:57.000Z</time>
      </trkpt>
      <trkpt lat="46.3132" lon="6.71701">
        <ele>1174.7</ele>
        <time>2013-03-16T12:03:58.000Z</time>
      </trkpt>
      <trkpt lat="46.31321" lon="6.71694">
        <ele>1174.5</ele>
        <time>2013-03-16T12:03:59.000Z</time>
      </trkpt>
      <trkpt lat="46.31321" lon="6.71686">
        <ele>1174.5</ele>
        <time>2013-03-16T12:04:00.000Z</time>
      </trkpt>
      <trkpt lat="46.31321" lon="6.71678">
        <ele>1174.4</ele>
        <time>2013-03-16T12:04:01.000Z</time>
      </trkpt>
      <trkpt lat="46.31322" lon="6.7167">
        <ele>1174.2</ele>
        <time>2013-03-16T12:04:02.000Z</time>
      </trkpt>
      <trkpt lat="46.31322" lon="6.71663">
        <ele>1174</ele>
        <time>2013-03-16T12:04:03.000Z</time>
      </trkpt>
      <trkpt lat="46.31323" lon="6.71655">
        <ele>1173.9</ele>
        <time>2013-03-16T12:04:04.000Z</time>
      </trkpt>
      <trkpt lat="46.31323" lon="6.71648">
        <ele>1174</ele>
        <time>2013-03-16T12:04:05.000Z</time>
      </trkpt>
      <trkpt lat="46.31322" lon="6.71641">
        <ele>1174</ele>
        <time>2013-03-16T12:04:06.000Z</time>
      </trkpt>
      <trkpt lat="46.31322" lon="6.71633">
        <ele>1173.9</ele>
        <time>2013-03-16T12:04:07.000Z</time>
      </trkpt>
      <trkpt lat="46.31322" lon="6.71625">
        <ele>1174</ele>
        <time>2013-03-16T12:04:08.000Z</time>
      </trkpt>
      <trkpt lat="46.31322" lon="6.71617">
        <ele>1173.7</ele>
        <time>2013-03-16T12:04:09.000Z</time>
      </trkpt>
      <trkpt lat="46.31321" lon="6.71609">
        <ele>1173.7</ele>
        <time>2013-03-16T12:04:10.000Z</time>
      </trkpt>
      <trkpt lat="46.3132" lon="6.71601">
        <ele>1173.3</ele>
        <time>2013-03-16T12:04:11.000Z</time>
      </trkpt>
      <trkpt lat="46.31319" lon="6.71592">
        <ele>1173.2</ele>
        <time>2013-03-16T12:04:12.000Z</time>
      </trkpt>
      <trkpt lat="46.31319" lon="6.71582">
        <ele>1172</ele>
        <time>2013-03-16T12:04:13.000Z</time>
      </trkpt>
      <trkpt lat="46.31318" lon="6.71574">
        <ele>1171.5</ele>
        <time>2013-03-16T12:04:14.000Z</time>
      </trkpt>
      <trkpt lat="46.31318" lon="6.71566">
        <ele>1170.7</ele>
        <time>2013-03-16T12:04:15.000Z</time>
      </trkpt>
      <trkpt lat="46.31318" lon="6.71558">
        <ele>1169.8</ele>
        <time>2013-03-16T12:04:16.000Z</time>
      </trkpt>
      <trkpt lat="46.31317" lon="6.7155">
        <ele>1169.1</ele>
        <time>2013-03-16T12:04:17.000Z</time>
      </trkpt>
      <trkpt lat="46.31316" lon="6.71543">
        <ele>1168.5</ele>
        <time>2013-03-16T12:04:18.000Z</time>
      </trkpt>
      <trkpt lat="46.31316" lon="6.71535">
        <ele>1167.9</ele>
        <time>2013-03-16T12:04:19.000Z</time>
      </trkpt>
      <trkpt lat="46.31315" lon="6.71527">
        <ele>1167.5</ele>
        <time>2013-03-16T12:04:20.000Z</time>
      </trkpt>
      <trkpt lat="46.31313" lon="6.71519">
        <ele>1167.4</ele>
        <time>2013-03-16T12:04:21.000Z</time>
      </trkpt>
      <trkpt lat="46.31312" lon="6.71511">
        <ele>1167.1</ele>
        <time>2013-03-16T12:04:22.000Z</time>
      </trkpt>
      <trkpt lat="46.3131" lon="6.71504">
        <ele>1166.6</ele>
        <time>2013-03-16T12:04:23.000Z</time>
      </trkpt>
      <trkpt lat="46.31309" lon="6.71497">
        <ele>1166.2</ele>
        <time>2013-03-16T12:04:24.000Z</time>
      </trkpt>
      <trkpt lat="46.31308" lon="6.7149">
        <ele>1165.5</ele>
        <time>2013-03-16T12:04:25.000Z</time>
      </trkpt>
      <trkpt lat="46.31307" lon="6.71483">
        <ele>1164.8</ele>
        <time>2013-03-16T12:04:26.000Z</time>
      </trkpt>
      <trkpt lat="46.31305" lon="6.71477">
        <ele>1164.3</ele>
        <time>2013-03-16T12:04:27.000Z</time>
      </trkpt>
      <trkpt lat="46.31303" lon="6.7147">
        <ele>1163.7</ele>
        <time>2013-03-16T12:04:28.000Z</time>
      </trkpt>
      <trkpt lat="46.31301" lon="6.71464">
        <ele>1163.3</ele>
        <time>2013-03-16T12:04:29.000Z</time>
      </trkpt>
      <trkpt lat="46.31299" lon="6.71458">
        <ele>1162.7</ele>
        <time>2013-03-16T12:04:30.000Z</time>
      </trkpt>
      <trkpt lat="46.31297" lon="6.71453">
        <ele>1161.8</ele>
        <time>2013-03-16T12:04:31.000Z</time>
      </trkpt>
      <trkpt lat="46.31296" lon="6.71448">
        <ele>1161.2</ele>
        <time>2013-03-16T12:04:32.000Z</time>
      </trkpt>
      <trkpt lat="46.31294" lon="6.71443">
        <ele>1160.4</ele>
        <time>2013-03-16T12:04:33.000Z</time>
      </trkpt>
      <trkpt lat="46.31291" lon="6.71437">
        <ele>1159.3</ele>
        <time>2013-03-16T12:04:34.000Z</time>
      </trkpt>
      <trkpt lat="46.31288" lon="6.71431">
        <ele>1158.6</ele>
        <time>2013-03-16T12:04:35.000Z</time>
      </trkpt>
      <trkpt lat="46.31286" lon="6.71426">
        <ele>1157.9</ele>
        <time>2013-03-16T12:04:36.000Z</time>
      </trkpt>
      <trkpt lat="46.31283" lon="6.7142">
        <ele>1157.1</ele>
        <time>2013-03-16T12:04:37.000Z</time>
      </trkpt>
      <trkpt lat="46.31281" lon="6.71414">
        <ele>1156</ele>
        <time>2013-03-16T12:04:38.000Z</time>
      </trkpt>
      <trkpt lat="46.31278" lon="6.71409">
        <ele>1155.2</ele>
        <time>2013-03-16T12:04:39.000Z</time>
      </trkpt>
      <trkpt lat="46.31275" lon="6.71403">
        <ele>1154.7</ele>
        <time>2013-03-16T12:04:40.000Z</time>
      </trkpt>
      <trkpt lat="46.31271" lon="6.71397">
        <ele>1154.4</ele>
        <time>2013-03-16T12:04:41.000Z</time>
      </trkpt>
      <trkpt lat="46.31268" lon="6.71391">
        <ele>1154</ele>
        <time>2013-03-16T12:04:42.000Z</time>
      </trkpt>
      <trkpt lat="46.31266" lon="6.71383">
        <ele>1152.9</ele>
        <time>2013-03-16T12:04:43.000Z</time>
      </trkpt>
      <trkpt lat="46.31264" lon="6.71376">
        <ele>1151.2</ele>
        <time>2013-03-16T12:04:44.000Z</time>
      </trkpt>
      <trkpt lat="46.31261" lon="6.71368">
        <ele>1149.5</ele>
        <time>2013-03-16T12:04:45.000Z</time>
      </trkpt>
      <trkpt lat="46.31258" lon="6.71359">
        <ele>1148.3</ele>
        <time>2013-03-16T12:04:46.000Z</time>
      </trkpt>
      <trkpt lat="46.31255" lon="6.71351">
        <ele>1147.2</ele>
        <time>2013-03-16T12:04:47.000Z</time>
      </trkpt>
      <trkpt lat="46.31252" lon="6.71344">
        <ele>1145.8</ele>
        <time>2013-03-16T12:04:48.000Z</time>
      </trkpt>
      <trkpt lat="46.31249" lon="6.71338">
        <ele>1143.1</ele>
        <time>2013-03-16T12:04:49.000Z</time>
      </trkpt>
      <trkpt lat="46.31246" lon="6.71333">
        <ele>1141.5</ele>
        <time>2013-03-16T12:04:50.000Z</time>
      </trkpt>
      <trkpt lat="46.31242" lon="6.71329">
        <ele>1139.7</ele>
        <time>2013-03-16T12:04:51.000Z</time>
      </trkpt>
      <trkpt lat="46.31237" lon="6.71324">
        <ele>1138.7</ele>
        <time>2013-03-16T12:04:52.000Z</time>
      </trkpt>
      <trkpt lat="46.31232" lon="6.7132">
        <ele>1138.5</ele>
        <time>2013-03-16T12:04:53.000Z</time>
      </trkpt>
      <trkpt lat="46.31228" lon="6.71315">
        <ele>1138.2</ele>
        <time>2013-03-16T12:04:54.000Z</time>
      </trkpt>
      <trkpt lat="46.31224" lon="6.71309">
        <ele>1137.8</ele>
        <time>2013-03-16T12:04:55.000Z</time>
      </trkpt>
      <trkpt lat="46.31221" lon="6.71302">
        <ele>1137.4</ele>
        <time>2013-03-16T12:04:56.000Z</time>
      </trkpt>
      <trkpt lat="46.31219" lon="6.71293">
        <ele>1137.3</ele>
        <time>2013-03-16T12:04:57.000Z</time>
      </trkpt>
      <trkpt lat="46.31218" lon="6.71283">
        <ele>1137.3</ele>
        <time>2013-03-16T12:04:58.000Z</time>
      </trkpt>
      <trkpt lat="46.31216" lon="6.71275">
        <ele>1137.3</ele>
        <time>2013-03-16T12:04:59.000Z</time>
      </trkpt>
      <trkpt lat="46.31214" lon="6.71266">
        <ele>1137.2</ele>
        <time>2013-03-16T12:05:00.000Z</time>
      </trkpt>
      <trkpt lat="46.31212" lon="6.71259">
        <ele>1137.1</ele>
        <time>2013-03-16T12:05:01.000Z</time>
      </trkpt>
      <trkpt lat="46.3121" lon="6.71252">
        <ele>1137</ele>
        <time>2013-03-16T12:05:02.000Z</time>
      </trkpt>
      <trkpt lat="46.31207" lon="6.71244">
        <ele>1136.7</ele>
        <time>2013-03-16T12:05:03.000Z</time>
      </trkpt>
      <trkpt lat="46.31204" lon="6.71237">
        <ele>1136.5</ele>
        <time>2013-03-16T12:05:04.000Z</time>
      </trkpt>
      <trkpt lat="46.31201" lon="6.7123">
        <ele>1136.4</ele>
        <time>2013-03-16T12:05:05.000Z</time>
      </trkpt>
      <trkpt lat="46.31198" lon="6.71224">
        <ele>1136</ele>
        <time>2013-03-16T12:05:06.000Z</time>
      </trkpt>
      <trkpt lat="46.31196" lon="6.71217">
        <ele>1135.6</ele>
        <time>2013-03-16T12:05:07.000Z</time>
      </trkpt>
      <trkpt lat="46.31192" lon="6.7121">
        <ele>1135.4</ele>
        <time>2013-03-16T12:05:08.000Z</time>
      </trkpt>
      <trkpt lat="46.31188" lon="6.71203">
        <ele>1135</ele>
        <time>2013-03-16T12:05:09.000Z</time>
      </trkpt>
      <trkpt lat="46.31184" lon="6.71196">
        <ele>1134.6</ele>
        <time>2013-03-16T12:05:10.000Z</time>
      </trkpt>
      <trkpt lat="46.3118" lon="6.71189">
        <ele>1134.4</ele>
        <time>2013-03-16T12:05:11.000Z</time>
      </trkpt>
      <trkpt lat="46.31175" lon="6.71182">
        <ele>1134</ele>
        <time>2013-03-16T12:05:12.000Z</time>
      </trkpt>
      <trkpt lat="46.31171" lon="6.71175">
        <ele>1133.8</ele>
        <time>2013-03-16T12:05:13.000Z</time>
      </trkpt>
      <trkpt lat="46.31167" lon="6.71169">
        <ele>1133.5</ele>
        <time>2013-03-16T12:05:14.000Z</time>
      </trkpt>
      <trkpt lat="46.31163" lon="6.71164">
        <ele>1133.2</ele>
        <time>2013-03-16T12:05:15.000Z</time>
      </trkpt>
      <trkpt lat="46.31157" lon="6.71158">
        <ele>1133</ele>
        <time>2013-03-16T12:05:16.000Z</time>
      </trkpt>
      <trkpt lat="46.31151" lon="6.71153">
        <ele>1132.8</ele>
        <time>2013-03-16T12:05:17.000Z</time>
      </trkpt>
      <trkpt lat="46.31145" lon="6.71148">
        <ele>1132.4</ele>
        <time>2013-03-16T12:05:18.000Z</time>
      </trkpt>
      <trkpt lat="46.31139" lon="6.71144">
        <ele>1132</ele>
        <time>2013-03-16T12:05:19.000Z</time>
      </trkpt>
      <trkpt lat="46.31133" lon="6.71139">
        <ele>1131.5</ele>
        <time>2013-03-16T12:05:20.000Z</time>
      </trkpt>
      <trkpt lat="46.31127" lon="6.71134">
        <ele>1131.2</ele>
        <time>2013-03-16T12:05:21.000Z</time>
      </trkpt>
      <trkpt lat="46.31122" lon="6.71131">
        <ele>1129.9</ele>
        <time>2013-03-16T12:05:22.000Z</time>
      </trkpt>
      <trkpt lat="46.31119" lon="6.71123">
        <ele>1128.9</ele>
        <time>2013-03-16T12:05:23.000Z</time>
      </trkpt>
      <trkpt lat="46.31116" lon="6.71115">
        <ele>1128.2</ele>
        <time>2013-03-16T12:05:24.000Z</time>
      </trkpt>
      <trkpt lat="46.31112" lon="6.71105">
        <ele>1127.4</ele>
        <time>2013-03-16T12:05:25.000Z</time>
      </trkpt>
      <trkpt lat="46.31109" lon="6.71097">
        <ele>1127.1</ele>
        <time>2013-03-16T12:05:26.000Z</time>
      </trkpt>
      <trkpt lat="46.31107" lon="6.71088">
        <ele>1127</ele>
        <time>2013-03-16T12:05:27.000Z</time>
      </trkpt>
      <trkpt lat="46.31104" lon="6.71079">
        <ele>1126.8</ele>
        <time>2013-03-16T12:05:28.000Z</time>
      </trkpt>
      <trkpt lat="46.31101" lon="6.71069">
        <ele>1126.8</ele>
        <time>2013-03-16T12:05:29.000Z</time>
      </trkpt>
      <trkpt lat="46.31098" lon="6.71061">
        <ele>1126.4</ele>
        <time>2013-03-16T12:05:30.000Z</time>
      </trkpt>
      <trkpt lat="46.31095" lon="6.71052">
        <ele>1125.8</ele>
        <time>2013-03-16T12:05:31.000Z</time>
      </trkpt>
      <trkpt lat="46.31093" lon="6.71044">
        <ele>1125.3</ele>
        <time>2013-03-16T12:05:32.000Z</time>
      </trkpt>
      <trkpt lat="46.31091" lon="6.71037">
        <ele>1124.9</ele>
        <time>2013-03-16T12:05:33.000Z</time>
      </trkpt>
      <trkpt lat="46.31088" lon="6.7103">
        <ele>1124.6</ele>
        <time>2013-03-16T12:05:34.000Z</time>
      </trkpt>
      <trkpt lat="46.31086" lon="6.71022">
        <ele>1124.4</ele>
        <time>2013-03-16T12:05:35.000Z</time>
      </trkpt>
      <trkpt lat="46.31084" lon="6.71014">
        <ele>1124.3</ele>
        <time>2013-03-16T12:05:36.000Z</time>
      </trkpt>
      <trkpt lat="46.31082" lon="6.71006">
        <ele>1123.9</ele>
        <time>2013-03-16T12:05:37.000Z</time>
      </trkpt>
      <trkpt lat="46.3108" lon="6.70998">
        <ele>1123.3</ele>
        <time>2013-03-16T12:05:38.000Z</time>
      </trkpt>
      <trkpt lat="46.31079" lon="6.7099">
        <ele>1122.7</ele>
        <time>2013-03-16T12:05:39.000Z</time>
      </trkpt>
      <trkpt lat="46.31077" lon="6.70981">
        <ele>1121.8</ele>
        <time>2013-03-16T12:05:40.000Z</time>
      </trkpt>
      <trkpt lat="46.31075" lon="6.70973">
        <ele>1120.2</ele>
        <time>2013-03-16T12:05:41.000Z</time>
      </trkpt>
      <trkpt lat="46.31072" lon="6.70964">
        <ele>1119.8</ele>
        <time>2013-03-16T12:05:42.000Z</time>
      </trkpt>
      <trkpt lat="46.3107" lon="6.70955">
        <ele>1119.2</ele>
        <time>2013-03-16T12:05:43.000Z</time>
      </trkpt>
      <trkpt lat="46.31068" lon="6.70946">
        <ele>1119</ele>
        <time>2013-03-16T12:05:44.000Z</time>
      </trkpt>
      <trkpt lat="46.31066" lon="6.70937">
        <ele>1118.8</ele>
        <time>2013-03-16T12:05:45.000Z</time>
      </trkpt>
      <trkpt lat="46.31064" lon="6.70928">
        <ele>1118.8</ele>
        <time>2013-03-16T12:05:46.000Z</time>
      </trkpt>
      <trkpt lat="46.31062" lon="6.70918">
        <ele>1118.8</ele>
        <time>2013-03-16T12:05:47.000Z</time>
      </trkpt>
      <trkpt lat="46.3106" lon="6.7091">
        <ele>1118.4</ele>
        <time>2013-03-16T12:05:48.000Z</time>
      </trkpt>
      <trkpt lat="46.31058" lon="6.70901">
        <ele>1118.2</ele>
        <time>2013-03-16T12:05:49.000Z</time>
      </trkpt>
      <trkpt lat="46.31057" lon="6.70892">
        <ele>1117.9</ele>
        <time>2013-03-16T12:05:50.000Z</time>
      </trkpt>
      <trkpt lat="46.31056" lon="6.70883">
        <ele>1117.7</ele>
        <time>2013-03-16T12:05:51.000Z</time>
      </trkpt>
      <trkpt lat="46.31054" lon="6.70874">
        <ele>1117.6</ele>
        <time>2013-03-16T12:05:52.000Z</time>
      </trkpt>
      <trkpt lat="46.31053" lon="6.70866">
        <ele>1117.3</ele>
        <time>2013-03-16T12:05:53.000Z</time>
      </trkpt>
      <trkpt lat="46.31051" lon="6.70858">
        <ele>1117.1</ele>
        <time>2013-03-16T12:05:54.000Z</time>
      </trkpt>
      <trkpt lat="46.3105" lon="6.7085">
        <ele>1116.7</ele>
        <time>2013-03-16T12:05:55.000Z</time>
      </trkpt>
      <trkpt lat="46.31049" lon="6.70843">
        <ele>1116.1</ele>
        <time>2013-03-16T12:05:56.000Z</time>
      </trkpt>
      <trkpt lat="46.31046" lon="6.70835">
        <ele>1115.7</ele>
        <time>2013-03-16T12:05:57.000Z</time>
      </trkpt>
      <trkpt lat="46.31043" lon="6.70827">
        <ele>1115.3</ele>
        <time>2013-03-16T12:05:58.000Z</time>
      </trkpt>
      <trkpt lat="46.31043" lon="6.70818">
        <ele>1115</ele>
        <time>2013-03-16T12:05:59.000Z</time>
      </trkpt>
      <trkpt lat="46.31042" lon="6.70809">
        <ele>1114.8</ele>
        <time>2013-03-16T12:06:00.000Z</time>
      </trkpt>
      <trkpt lat="46.31041" lon="6.708">
        <ele>1114.6</ele>
        <time>2013-03-16T12:06:01.000Z</time>
      </trkpt>
      <trkpt lat="46.3104" lon="6.70791">
        <ele>1114.3</ele>
        <time>2013-03-16T12:06:02.000Z</time>
      </trkpt>
      <trkpt lat="46.3104" lon="6.70783">
        <ele>1113.9</ele>
        <time>2013-03-16T12:06:03.000Z</time>
      </trkpt>
      <trkpt lat="46.31039" lon="6.70774">
        <ele>1113.7</ele>
        <time>2013-03-16T12:06:04.000Z</time>
      </trkpt>
      <trkpt lat="46.31038" lon="6.70764">
        <ele>1113.3</ele>
        <time>2013-03-16T12:06:05.000Z</time>
      </trkpt>
      <trkpt lat="46.31038" lon="6.70753">
        <ele>1112.9</ele>
        <time>2013-03-16T12:06:06.000Z</time>
      </trkpt>
      <trkpt lat="46.31038" lon="6.70743">
        <ele>1112.3</ele>
        <time>2013-03-16T12:06:07.000Z</time>
      </trkpt>
      <trkpt lat="46.31038" lon="6.70733">
        <ele>1111.8</ele>
        <time>2013-03-16T12:06:08.000Z</time>
      </trkpt>
      <trkpt lat="46.31038" lon="6.70724">
        <ele>1111.3</ele>
        <time>2013-03-16T12:06:09.000Z</time>
      </trkpt>
      <trkpt lat="46.31039" lon="6.70716">
        <ele>1110.5</ele>
        <time>2013-03-16T12:06:10.000Z</time>
      </trkpt>
      <trkpt lat="46.31039" lon="6.70707">
        <ele>1109.8</ele>
        <time>2013-03-16T12:06:11.000Z</time>
      </trkpt>
      <trkpt lat="46.31039" lon="6.70698">
        <ele>1108.9</ele>
        <time>2013-03-16T12:06:12.000Z</time>
      </trkpt>
      <trkpt lat="46.31039" lon="6.70689">
        <ele>1107.9</ele>
        <time>2013-03-16T12:06:13.000Z</time>
      </trkpt>
      <trkpt lat="46.31039" lon="6.7068">
        <ele>1107.1</ele>
        <time>2013-03-16T12:06:14.000Z</time>
      </trkpt>
      <trkpt lat="46.31039" lon="6.7067">
        <ele>1106.9</ele>
        <time>2013-03-16T12:06:15.000Z</time>
      </trkpt>
      <trkpt lat="46.3104" lon="6.7066">
        <ele>1106.6</ele>
        <time>2013-03-16T12:06:16.000Z</time>
      </trkpt>
      <trkpt lat="46.3104" lon="6.70651">
        <ele>1105.9</ele>
        <time>2013-03-16T12:06:17.000Z</time>
      </trkpt>
      <trkpt lat="46.31038" lon="6.70642">
        <ele>1105.6</ele>
        <time>2013-03-16T12:06:18.000Z</time>
      </trkpt>
      <trkpt lat="46.31038" lon="6.70633">
        <ele>1105.4</ele>
        <time>2013-03-16T12:06:19.000Z</time>
      </trkpt>
      <trkpt lat="46.31039" lon="6.70623">
        <ele>1105.3</ele>
        <time>2013-03-16T12:06:20.000Z</time>
      </trkpt>
      <trkpt lat="46.3104" lon="6.70614">
        <ele>1105.1</ele>
        <time>2013-03-16T12:06:21.000Z</time>
      </trkpt>
      <trkpt lat="46.31041" lon="6.70604">
        <ele>1104.8</ele>
        <time>2013-03-16T12:06:22.000Z</time>
      </trkpt>
      <trkpt lat="46.31043" lon="6.70593">
        <ele>1104.6</ele>
        <time>2013-03-16T12:06:23.000Z</time>
      </trkpt>
      <trkpt lat="46.31044" lon="6.70584">
        <ele>1104.1</ele>
        <time>2013-03-16T12:06:24.000Z</time>
      </trkpt>
      <trkpt lat="46.31046" lon="6.70574">
        <ele>1103.9</ele>
        <time>2013-03-16T12:06:25.000Z</time>
      </trkpt>
      <trkpt lat="46.31046" lon="6.70565">
        <ele>1103.5</ele>
        <time>2013-03-16T12:06:26.000Z</time>
      </trkpt>
      <trkpt lat="46.31047" lon="6.70557">
        <ele>1103.3</ele>
        <time>2013-03-16T12:06:27.000Z</time>
      </trkpt>
      <trkpt lat="46.31049" lon="6.70549">
        <ele>1102.9</ele>
        <time>2013-03-16T12:06:28.000Z</time>
      </trkpt>
      <trkpt lat="46.3105" lon="6.70541">
        <ele>1102.7</ele>
        <time>2013-03-16T12:06:29.000Z</time>
      </trkpt>
      <trkpt lat="46.3105" lon="6.70532">
        <ele>1102.5</ele>
        <time>2013-03-16T12:06:30.000Z</time>
      </trkpt>
      <trkpt lat="46.31052" lon="6.70524">
        <ele>1102.2</ele>
        <time>2013-03-16T12:06:31.000Z</time>
      </trkpt>
      <trkpt lat="46.31053" lon="6.70515">
        <ele>1101.9</ele>
        <time>2013-03-16T12:06:32.000Z</time>
      </trkpt>
      <trkpt lat="46.31054" lon="6.70506">
        <ele>1101.8</ele>
        <time>2013-03-16T12:06:33.000Z</time>
      </trkpt>
      <trkpt lat="46.31056" lon="6.70496">
        <ele>1101.6</ele>
        <time>2013-03-16T12:06:34.000Z</time>
      </trkpt>
      <trkpt lat="46.31057" lon="6.70487">
        <ele>1101.4</ele>
        <time>2013-03-16T12:06:35.000Z</time>
      </trkpt>
      <trkpt lat="46.31058" lon="6.70477">
        <ele>1101.4</ele>
        <time>2013-03-16T12:06:36.000Z</time>
      </trkpt>
      <trkpt lat="46.3106" lon="6.70467">
        <ele>1101.5</ele>
        <time>2013-03-16T12:06:37.000Z</time>
      </trkpt>
      <trkpt lat="46.31063" lon="6.70458">
        <ele>1101.5</ele>
        <time>2013-03-16T12:06:38.000Z</time>
      </trkpt>
      <trkpt lat="46.31064" lon="6.7045">
        <ele>1101.4</ele>
        <time>2013-03-16T12:06:39.000Z</time>
      </trkpt>
      <trkpt lat="46.31064" lon="6.70441">
        <ele>1101.1</ele>
        <time>2013-03-16T12:06:40.000Z</time>
      </trkpt>
      <trkpt lat="46.31066" lon="6.70433">
        <ele>1101</ele>
        <time>2013-03-16T12:06:41.000Z</time>
      </trkpt>
      <trkpt lat="46.31067" lon="6.70426">
        <ele>1100.7</ele>
        <time>2013-03-16T12:06:42.000Z</time>
      </trkpt>
      <trkpt lat="46.31068" lon="6.70417">
        <ele>1100.4</ele>
        <time>2013-03-16T12:06:43.000Z</time>
      </trkpt>
      <trkpt lat="46.31069" lon="6.7041">
        <ele>1100.2</ele>
        <time>2013-03-16T12:06:44.000Z</time>
      </trkpt>
      <trkpt lat="46.31071" lon="6.70402">
        <ele>1099.8</ele>
        <time>2013-03-16T12:06:45.000Z</time>
      </trkpt>
      <trkpt lat="46.31072" lon="6.70394">
        <ele>1099.5</ele>
        <time>2013-03-16T12:06:46.000Z</time>
      </trkpt>
      <trkpt lat="46.31072" lon="6.70385">
        <ele>1099.3</ele>
        <time>2013-03-16T12:06:47.000Z</time>
      </trkpt>
      <trkpt lat="46.31073" lon="6.70376">
        <ele>1098.9</ele>
        <time>2013-03-16T12:06:48.000Z</time>
      </trkpt>
      <trkpt lat="46.31075" lon="6.70367">
        <ele>1098.1</ele>
        <time>2013-03-16T12:06:49.000Z</time>
      </trkpt>
      <trkpt lat="46.31077" lon="6.70358">
        <ele>1097.2</ele>
        <time>2013-03-16T12:06:50.000Z</time>
      </trkpt>
      <trkpt lat="46.3108" lon="6.70349">
        <ele>1096</ele>
        <time>2013-03-16T12:06:51.000Z</time>
      </trkpt>
      <trkpt lat="46.31082" lon="6.7034">
        <ele>1094.9</ele>
        <time>2013-03-16T12:06:52.000Z</time>
      </trkpt>
      <trkpt lat="46.31084" lon="6.70332">
        <ele>1093.6</ele>
        <time>2013-03-16T12:06:53.000Z</time>
      </trkpt>
      <trkpt lat="46.31085" lon="6.70323">
        <ele>1093</ele>
        <time>2013-03-16T12:06:54.000Z</time>
      </trkpt>
      <trkpt lat="46.31087" lon="6.70314">
        <ele>1092.1</ele>
        <time>2013-03-16T12:06:55.000Z</time>
      </trkpt>
      <trkpt lat="46.31088" lon="6.70305">
        <ele>1091.5</ele>
        <time>2013-03-16T12:06:56.000Z</time>
      </trkpt>
      <trkpt lat="46.3109" lon="6.70296">
        <ele>1090.8</ele>
        <time>2013-03-16T12:06:57.000Z</time>
      </trkpt>
      <trkpt lat="46.31092" lon="6.70288">
        <ele>1089.4</ele>
        <time>2013-03-16T12:06:58.000Z</time>
      </trkpt>
      <trkpt lat="46.31095" lon="6.70281">
        <ele>1088</ele>
        <time>2013-03-16T12:06:59.000Z</time>
      </trkpt>
      <trkpt lat="46.31096" lon="6.70273">
        <ele>1087</ele>
        <time>2013-03-16T12:07:00.000Z</time>
      </trkpt>
      <trkpt lat="46.31098" lon="6.70266">
        <ele>1086.1</ele>
        <time>2013-03-16T12:07:01.000Z</time>
      </trkpt>
      <trkpt lat="46.311" lon="6.70258">
        <ele>1085.3</ele>
        <time>2013-03-16T12:07:02.000Z</time>
      </trkpt>
      <trkpt lat="46.31101" lon="6.7025">
        <ele>1084.2</ele>
        <time>2013-03-16T12:07:03.000Z</time>
      </trkpt>
      <trkpt lat="46.31103" lon="6.70243">
        <ele>1083.3</ele>
        <time>2013-03-16T12:07:04.000Z</time>
      </trkpt>
      <trkpt lat="46.31104" lon="6.70235">
        <ele>1082.4</ele>
        <time>2013-03-16T12:07:05.000Z</time>
      </trkpt>
      <trkpt lat="46.31103" lon="6.70225">
        <ele>1081.3</ele>
        <time>2013-03-16T12:07:06.000Z</time>
      </trkpt>
      <trkpt lat="46.31103" lon="6.70216">
        <ele>1080.2</ele>
        <time>2013-03-16T12:07:07.000Z</time>
      </trkpt>
      <trkpt lat="46.31103" lon="6.70206">
        <ele>1079.6</ele>
        <time>2013-03-16T12:07:08.000Z</time>
      </trkpt>
      <trkpt lat="46.31105" lon="6.70196">
        <ele>1078.8</ele>
        <time>2013-03-16T12:07:09.000Z</time>
      </trkpt>
      <trkpt lat="46.31106" lon="6.70186">
        <ele>1077.8</ele>
        <time>2013-03-16T12:07:10.000Z</time>
      </trkpt>
      <trkpt lat="46.31107" lon="6.70177">
        <ele>1077.1</ele>
        <time>2013-03-16T12:07:11.000Z</time>
      </trkpt>
      <trkpt lat="46.31109" lon="6.70169">
        <ele>1076.3</ele>
        <time>2013-03-16T12:07:12.000Z</time>
      </trkpt>
      <trkpt lat="46.3111" lon="6.70161">
        <ele>1075.6</ele>
        <time>2013-03-16T12:07:13.000Z</time>
      </trkpt>
      <trkpt lat="46.31111" lon="6.70153">
        <ele>1074.7</ele>
        <time>2013-03-16T12:07:14.000Z</time>
      </trkpt>
      <trkpt lat="46.31114" lon="6.70143">
        <ele>1073.8</ele>
        <time>2013-03-16T12:07:15.000Z</time>
      </trkpt>
      <trkpt lat="46.31115" lon="6.70133">
        <ele>1073.2</ele>
        <time>2013-03-16T12:07:16.000Z</time>
      </trkpt>
      <trkpt lat="46.31116" lon="6.70124">
        <ele>1072.5</ele>
        <time>2013-03-16T12:07:17.000Z</time>
      </trkpt>
      <trkpt lat="46.31118" lon="6.70114">
        <ele>1071.9</ele>
        <time>2013-03-16T12:07:18.000Z</time>
      </trkpt>
      <trkpt lat="46.31119" lon="6.70105">
        <ele>1071.1</ele>
        <time>2013-03-16T12:07:19.000Z</time>
      </trkpt>
      <trkpt lat="46.31119" lon="6.70096">
        <ele>1070.6</ele>
        <time>2013-03-16T12:07:20.000Z</time>
      </trkpt>
      <trkpt lat="46.31119" lon="6.70086">
        <ele>1070.1</ele>
        <time>2013-03-16T12:07:21.000Z</time>
      </trkpt>
      <trkpt lat="46.31121" lon="6.70077">
        <ele>1069.3</ele>
        <time>2013-03-16T12:07:22.000Z</time>
      </trkpt>
      <trkpt lat="46.31123" lon="6.70068">
        <ele>1068.4</ele>
        <time>2013-03-16T12:07:23.000Z</time>
      </trkpt>
      <trkpt lat="46.31124" lon="6.70059">
        <ele>1067.4</ele>
        <time>2013-03-16T12:07:24.000Z</time>
      </trkpt>
      <trkpt lat="46.31124" lon="6.7005">
        <ele>1066.5</ele>
        <time>2013-03-16T12:07:25.000Z</time>
      </trkpt>
      <trkpt lat="46.31124" lon="6.70042">
        <ele>1065.5</ele>
        <time>2013-03-16T12:07:26.000Z</time>
      </trkpt>
      <trkpt lat="46.31123" lon="6.70034">
        <ele>1064.7</ele>
        <time>2013-03-16T12:07:27.000Z</time>
      </trkpt>
      <trkpt lat="46.31124" lon="6.70026">
        <ele>1064.1</ele>
        <time>2013-03-16T12:07:28.000Z</time>
      </trkpt>
      <trkpt lat="46.31126" lon="6.70019">
        <ele>1063.5</ele>
        <time>2013-03-16T12:07:29.000Z</time>
      </trkpt>
      <trkpt lat="46.31128" lon="6.70012">
        <ele>1063</ele>
        <time>2013-03-16T12:07:30.000Z</time>
      </trkpt>
      <trkpt lat="46.31131" lon="6.70005">
        <ele>1062.3</ele>
        <time>2013-03-16T12:07:31.000Z</time>
      </trkpt>
      <trkpt lat="46.31133" lon="6.69998">
        <ele>1061.8</ele>
        <time>2013-03-16T12:07:32.000Z</time>
      </trkpt>
      <trkpt lat="46.31134" lon="6.69991">
        <ele>1061.5</ele>
        <time>2013-03-16T12:07:33.000Z</time>
      </trkpt>
      <trkpt lat="46.31135" lon="6.69983">
        <ele>1061.1</ele>
        <time>2013-03-16T12:07:34.000Z</time>
      </trkpt>
      <trkpt lat="46.31137" lon="6.69976">
        <ele>1060.5</ele>
        <time>2013-03-16T12:07:35.000Z</time>
      </trkpt>
      <trkpt lat="46.31137" lon="6.69969">
        <ele>1059.7</ele>
        <time>2013-03-16T12:07:36.000Z</time>
      </trkpt>
      <trkpt lat="46.31137" lon="6.69963">
        <ele>1058.9</ele>
        <time>2013-03-16T12:07:37.000Z</time>
      </trkpt>
      <trkpt lat="46.31137" lon="6.69956">
        <ele>1058.3</ele>
        <time>2013-03-16T12:07:38.000Z</time>
      </trkpt>
      <trkpt lat="46.31138" lon="6.6995">
        <ele>1057.6</ele>
        <time>2013-03-16T12:07:39.000Z</time>
      </trkpt>
      <trkpt lat="46.31141" lon="6.69944">
        <ele>1056.9</ele>
        <time>2013-03-16T12:07:40.000Z</time>
      </trkpt>
      <trkpt lat="46.31143" lon="6.69937">
        <ele>1056.5</ele>
        <time>2013-03-16T12:07:41.000Z</time>
      </trkpt>
      <trkpt lat="46.31146" lon="6.6993">
        <ele>1056.1</ele>
        <time>2013-03-16T12:07:42.000Z</time>
      </trkpt>
      <trkpt lat="46.31148" lon="6.69922">
        <ele>1055.7</ele>
        <time>2013-03-16T12:07:43.000Z</time>
      </trkpt>
      <trkpt lat="46.31149" lon="6.69914">
        <ele>1055.3</ele>
        <time>2013-03-16T12:07:44.000Z</time>
      </trkpt>
      <trkpt lat="46.31151" lon="6.69908">
        <ele>1055</ele>
        <time>2013-03-16T12:07:45.000Z</time>
      </trkpt>
      <trkpt lat="46.31152" lon="6.699">
        <ele>1054.8</ele>
        <time>2013-03-16T12:07:46.000Z</time>
      </trkpt>
      <trkpt lat="46.31154" lon="6.69893">
        <ele>1054.6</ele>
        <time>2013-03-16T12:07:47.000Z</time>
      </trkpt>
      <trkpt lat="46.31156" lon="6.69886">
        <ele>1054.1</ele>
        <time>2013-03-16T12:07:48.000Z</time>
      </trkpt>
      <trkpt lat="46.31157" lon="6.6988">
        <ele>1053.3</ele>
        <time>2013-03-16T12:07:49.000Z</time>
      </trkpt>
      <trkpt lat="46.3116" lon="6.69872">
        <ele>1052.4</ele>
        <time>2013-03-16T12:07:50.000Z</time>
      </trkpt>
      <trkpt lat="46.31163" lon="6.69864">
        <ele>1051.3</ele>
        <time>2013-03-16T12:07:51.000Z</time>
      </trkpt>
      <trkpt lat="46.31167" lon="6.69856">
        <ele>1050.4</ele>
        <time>2013-03-16T12:07:52.000Z</time>
      </trkpt>
      <trkpt lat="46.3117" lon="6.69849">
        <ele>1049.4</ele>
        <time>2013-03-16T12:07:53.000Z</time>
      </trkpt>
      <trkpt lat="46.31173" lon="6.69841">
        <ele>1048.3</ele>
        <time>2013-03-16T12:07:54.000Z</time>
      </trkpt>
      <trkpt lat="46.31174" lon="6.69831">
        <ele>1047.5</ele>
        <time>2013-03-16T12:07:55.000Z</time>
      </trkpt>
      <trkpt lat="46.31176" lon="6.69824">
        <ele>1046.3</ele>
        <time>2013-03-16T12:07:56.000Z</time>
      </trkpt>
      <trkpt lat="46.31179" lon="6.69816">
        <ele>1045.2</ele>
        <time>2013-03-16T12:07:57.000Z</time>
      </trkpt>
      <trkpt lat="46.31181" lon="6.69809">
        <ele>1044.1</ele>
        <time>2013-03-16T12:07:58.000Z</time>
      </trkpt>
      <trkpt lat="46.31183" lon="6.69801">
        <ele>1043.4</ele>
        <time>2013-03-16T12:07:59.000Z</time>
      </trkpt>
      <trkpt lat="46.31186" lon="6.69793">
        <ele>1042.5</ele>
        <time>2013-03-16T12:08:00.000Z</time>
      </trkpt>
      <trkpt lat="46.31188" lon="6.69785">
        <ele>1041.9</ele>
        <time>2013-03-16T12:08:01.000Z</time>
      </trkpt>
      <trkpt lat="46.3119" lon="6.69778">
        <ele>1041.3</ele>
        <time>2013-03-16T12:08:02.000Z</time>
      </trkpt>
      <trkpt lat="46.31193" lon="6.6977">
        <ele>1040.9</ele>
        <time>2013-03-16T12:08:03.000Z</time>
      </trkpt>
      <trkpt lat="46.31195" lon="6.69763">
        <ele>1040.6</ele>
        <time>2013-03-16T12:08:04.000Z</time>
      </trkpt>
      <trkpt lat="46.31198" lon="6.69756">
        <ele>1040.5</ele>
        <time>2013-03-16T12:08:05.000Z</time>
      </trkpt>
      <trkpt lat="46.312" lon="6.69748">
        <ele>1040.2</ele>
        <time>2013-03-16T12:08:06.000Z</time>
      </trkpt>
      <trkpt lat="46.31202" lon="6.69741">
        <ele>1038.1</ele>
        <time>2013-03-16T12:08:07.000Z</time>
      </trkpt>
      <trkpt lat="46.31204" lon="6.69734">
        <ele>1037.8</ele>
        <time>2013-03-16T12:08:08.000Z</time>
      </trkpt>
      <trkpt lat="46.31205" lon="6.69726">
        <ele>1037.4</ele>
        <time>2013-03-16T12:08:09.000Z</time>
      </trkpt>
      <trkpt lat="46.31206" lon="6.69718">
        <ele>1036.9</ele>
        <time>2013-03-16T12:08:10.000Z</time>
      </trkpt>
      <trkpt lat="46.31205" lon="6.69709">
        <ele>1036.4</ele>
        <time>2013-03-16T12:08:11.000Z</time>
      </trkpt>
      <trkpt lat="46.31206" lon="6.697">
        <ele>1035.9</ele>
        <time>2013-03-16T12:08:12.000Z</time>
      </trkpt>
      <trkpt lat="46.31206" lon="6.69693">
        <ele>1035.1</ele>
        <time>2013-03-16T12:08:13.000Z</time>
      </trkpt>
      <trkpt lat="46.31206" lon="6.69686">
        <ele>1034.9</ele>
        <time>2013-03-16T12:08:14.000Z</time>
      </trkpt>
      <trkpt lat="46.31206" lon="6.69678">
        <ele>1034.6</ele>
        <time>2013-03-16T12:08:15.000Z</time>
      </trkpt>
      <trkpt lat="46.31206" lon="6.69669">
        <ele>1034.1</ele>
        <time>2013-03-16T12:08:16.000Z</time>
      </trkpt>
      <trkpt lat="46.31204" lon="6.69661">
        <ele>1033.4</ele>
        <time>2013-03-16T12:08:17.000Z</time>
      </trkpt>
      <trkpt lat="46.31202" lon="6.69654">
        <ele>1032.6</ele>
        <time>2013-03-16T12:08:18.000Z</time>
      </trkpt>
      <trkpt lat="46.312" lon="6.69646">
        <ele>1032</ele>
        <time>2013-03-16T12:08:19.000Z</time>
      </trkpt>
      <trkpt lat="46.31199" lon="6.69638">
        <ele>1031.5</ele>
        <time>2013-03-16T12:08:20.000Z</time>
      </trkpt>
      <trkpt lat="46.31198" lon="6.69629">
        <ele>1031</ele>
        <time>2013-03-16T12:08:21.000Z</time>
      </trkpt>
      <trkpt lat="46.312" lon="6.69619">
        <ele>1030.3</ele>
        <time>2013-03-16T12:08:22.000Z</time>
      </trkpt>
      <trkpt lat="46.31202" lon="6.69609">
        <ele>1029.8</ele>
        <time>2013-03-16T12:08:23.000Z</time>
      </trkpt>
      <trkpt lat="46.31204" lon="6.696">
        <ele>1029</ele>
        <time>2013-03-16T12:08:24.000Z</time>
      </trkpt>
      <trkpt lat="46.31206" lon="6.69591">
        <ele>1028.2</ele>
        <time>2013-03-16T12:08:25.000Z</time>
      </trkpt>
      <trkpt lat="46.31208" lon="6.69582">
        <ele>1027.6</ele>
        <time>2013-03-16T12:08:26.000Z</time>
      </trkpt>
      <trkpt lat="46.3121" lon="6.69573">
        <ele>1027.3</ele>
        <time>2013-03-16T12:08:27.000Z</time>
      </trkpt>
      <trkpt lat="46.31211" lon="6.69566">
        <ele>1026.6</ele>
        <time>2013-03-16T12:08:28.000Z</time>
      </trkpt>
      <trkpt lat="46.31211" lon="6.69558">
        <ele>1025.8</ele>
        <time>2013-03-16T12:08:29.000Z</time>
      </trkpt>
      <trkpt lat="46.31211" lon="6.6955">
        <ele>1024.7</ele>
        <time>2013-03-16T12:08:30.000Z</time>
      </trkpt>
      <trkpt lat="46.31211" lon="6.69543">
        <ele>1024.1</ele>
        <time>2013-03-16T12:08:31.000Z</time>
      </trkpt>
      <trkpt lat="46.31212" lon="6.69537">
        <ele>1023</ele>
        <time>2013-03-16T12:08:32.000Z</time>
      </trkpt>
      <trkpt lat="46.31215" lon="6.69529">
        <ele>1021.7</ele>
        <time>2013-03-16T12:08:33.000Z</time>
      </trkpt>
      <trkpt lat="46.31218" lon="6.69523">
        <ele>1021.2</ele>
        <time>2013-03-16T12:08:34.000Z</time>
      </trkpt>
      <trkpt lat="46.3122" lon="6.69515">
        <ele>1020.8</ele>
        <time>2013-03-16T12:08:35.000Z</time>
      </trkpt>
      <trkpt lat="46.31225" lon="6.69508">
        <ele>1020.7</ele>
        <time>2013-03-16T12:08:36.000Z</time>
      </trkpt>
      <trkpt lat="46.31228" lon="6.69501">
        <ele>1020.5</ele>
        <time>2013-03-16T12:08:37.000Z</time>
      </trkpt>
      <trkpt lat="46.31232" lon="6.69494">
        <ele>1020.3</ele>
        <time>2013-03-16T12:08:38.000Z</time>
      </trkpt>
      <trkpt lat="46.31235" lon="6.69487">
        <ele>1019.9</ele>
        <time>2013-03-16T12:08:39.000Z</time>
      </trkpt>
      <trkpt lat="46.31239" lon="6.69479">
        <ele>1019.6</ele>
        <time>2013-03-16T12:08:40.000Z</time>
      </trkpt>
      <trkpt lat="46.31242" lon="6.69473">
        <ele>1019.3</ele>
        <time>2013-03-16T12:08:41.000Z</time>
      </trkpt>
      <trkpt lat="46.31245" lon="6.69466">
        <ele>1019</ele>
        <time>2013-03-16T12:08:42.000Z</time>
      </trkpt>
      <trkpt lat="46.3125" lon="6.6946">
        <ele>1018.6</ele>
        <time>2013-03-16T12:08:43.000Z</time>
      </trkpt>
      <trkpt lat="46.31256" lon="6.69454">
        <ele>1018.4</ele>
        <time>2013-03-16T12:08:44.000Z</time>
      </trkpt>
      <trkpt lat="46.3126" lon="6.69447">
        <ele>1018.2</ele>
        <time>2013-03-16T12:08:45.000Z</time>
      </trkpt>
      <trkpt lat="46.31262" lon="6.6944">
        <ele>1018</ele>
        <time>2013-03-16T12:08:46.000Z</time>
      </trkpt>
      <trkpt lat="46.31264" lon="6.69436">
        <ele>1018</ele>
        <time>2013-03-16T12:08:47.000Z</time>
      </trkpt>
      <trkpt lat="46.31268" lon="6.6943">
        <ele>1018</ele>
        <time>2013-03-16T12:08:48.000Z</time>
      </trkpt>
      <trkpt lat="46.31272" lon="6.69424">
        <ele>1017.9</ele>
        <time>2013-03-16T12:08:49.000Z</time>
      </trkpt>
      <trkpt lat="46.31275" lon="6.69418">
        <ele>1017.8</ele>
        <time>2013-03-16T12:08:50.000Z</time>
      </trkpt>
      <trkpt lat="46.31281" lon="6.6941">
        <ele>1017.8</ele>
        <time>2013-03-16T12:08:51.000Z</time>
      </trkpt>
      <trkpt lat="46.31285" lon="6.69403">
        <ele>1017.8</ele>
        <time>2013-03-16T12:08:52.000Z</time>
      </trkpt>
      <trkpt lat="46.31288" lon="6.69395">
        <ele>1017.7</ele>
        <time>2013-03-16T12:08:53.000Z</time>
      </trkpt>
      <trkpt lat="46.31291" lon="6.69388">
        <ele>1017.7</ele>
        <time>2013-03-16T12:08:54.000Z</time>
      </trkpt>
      <trkpt lat="46.3129" lon="6.69381">
        <ele>1017.7</ele>
        <time>2013-03-16T12:08:55.000Z</time>
      </trkpt>
      <trkpt lat="46.31291" lon="6.69374">
        <ele>1017.6</ele>
        <time>2013-03-16T12:08:56.000Z</time>
      </trkpt>
      <trkpt lat="46.31291" lon="6.69366">
        <ele>1017.6</ele>
        <time>2013-03-16T12:08:57.000Z</time>
      </trkpt>
      <trkpt lat="46.31291" lon="6.69359">
        <ele>1017.6</ele>
        <time>2013-03-16T12:08:58.000Z</time>
      </trkpt>
      <trkpt lat="46.3129" lon="6.69351">
        <ele>1017.6</ele>
        <time>2013-03-16T12:08:59.000Z</time>
      </trkpt>
      <trkpt lat="46.3129" lon="6.69345">
        <ele>1017.6</ele>
        <time>2013-03-16T12:09:00.000Z</time>
      </trkpt>
      <trkpt lat="46.31291" lon="6.69337">
        <ele>1017.5</ele>
        <time>2013-03-16T12:09:01.000Z</time>
      </trkpt>
      <trkpt lat="46.31289" lon="6.69331">
        <ele>1017.4</ele>
        <time>2013-03-16T12:09:02.000Z</time>
      </trkpt>
      <trkpt lat="46.3129" lon="6.69324">
        <ele>1017.3</ele>
        <time>2013-03-16T12:09:03.000Z</time>
      </trkpt>
      <trkpt lat="46.31289" lon="6.69319">
        <ele>1017</ele>
        <time>2013-03-16T12:09:04.000Z</time>
      </trkpt>
      <trkpt lat="46.3129" lon="6.69313">
        <ele>1016.5</ele>
        <time>2013-03-16T12:09:05.000Z</time>
      </trkpt>
      <trkpt lat="46.31291" lon="6.69308">
        <ele>1015.6</ele>
        <time>2013-03-16T12:09:06.000Z</time>
      </trkpt>
      <trkpt lat="46.31293" lon="6.69304">
        <ele>1014.4</ele>
        <time>2013-03-16T12:09:07.000Z</time>
      </trkpt>
      <trkpt lat="46.31295" lon="6.69299">
        <ele>1013</ele>
        <time>2013-03-16T12:09:08.000Z</time>
      </trkpt>
      <trkpt lat="46.31296" lon="6.69294">
        <ele>1011.4</ele>
        <time>2013-03-16T12:09:09.000Z</time>
      </trkpt>
      <trkpt lat="46.31297" lon="6.69289">
        <ele>1010.3</ele>
        <time>2013-03-16T12:09:10.000Z</time>
      </trkpt>
      <trkpt lat="46.31298" lon="6.69284">
        <ele>1009.4</ele>
        <time>2013-03-16T12:09:11.000Z</time>
      </trkpt>
      <trkpt lat="46.31299" lon="6.69279">
        <ele>1008.4</ele>
        <time>2013-03-16T12:09:12.000Z</time>
      </trkpt>
      <trkpt lat="46.313" lon="6.69273">
        <ele>1007.4</ele>
        <time>2013-03-16T12:09:13.000Z</time>
      </trkpt>
      <trkpt lat="46.31302" lon="6.69268">
        <ele>1006.5</ele>
        <time>2013-03-16T12:09:14.000Z</time>
      </trkpt>
      <trkpt lat="46.31301" lon="6.69263">
        <ele>1005.6</ele>
        <time>2013-03-16T12:09:15.000Z</time>
      </trkpt>
      <trkpt lat="46.31301" lon="6.69257">
        <ele>1004.9</ele>
        <time>2013-03-16T12:09:16.000Z</time>
      </trkpt>
      <trkpt lat="46.31301" lon="6.69253">
        <ele>1003.9</ele>
        <time>2013-03-16T12:09:17.000Z</time>
      </trkpt>
      <trkpt lat="46.31302" lon="6.69249">
        <ele>1003.1</ele>
        <time>2013-03-16T12:09:18.000Z</time>
      </trkpt>
      <trkpt lat="46.31303" lon="6.69245">
        <ele>1001.9</ele>
        <time>2013-03-16T12:09:19.000Z</time>
      </trkpt>
      <trkpt lat="46.31305" lon="6.69242">
        <ele>1000.7</ele>
        <time>2013-03-16T12:09:20.000Z</time>
      </trkpt>
      <trkpt lat="46.31305" lon="6.69238">
        <ele>999.6</ele>
        <time>2013-03-16T12:09:21.000Z</time>
      </trkpt>
      <trkpt lat="46.31307" lon="6.69235">
        <ele>999</ele>
        <time>2013-03-16T12:09:22.000Z</time>
      </trkpt>
      <trkpt lat="46.31306" lon="6.69229">
        <ele>996</ele>
        <time>2013-03-16T12:09:24.000Z</time>
      </trkpt>
      <trkpt lat="46.31307" lon="6.69226">
        <ele>994.7</ele>
        <time>2013-03-16T12:09:25.000Z</time>
      </trkpt>
      <trkpt lat="46.3131" lon="6.69223">
        <ele>993.7</ele>
        <time>2013-03-16T12:09:26.000Z</time>
      </trkpt>
      <trkpt lat="46.31313" lon="6.69219">
        <ele>992.9</ele>
        <time>2013-03-16T12:09:27.000Z</time>
      </trkpt>
      <trkpt lat="46.31315" lon="6.69213">
        <ele>991.9</ele>
        <time>2013-03-16T12:09:28.000Z</time>
      </trkpt>
      <trkpt lat="46.31318" lon="6.69208">
        <ele>991</ele>
        <time>2013-03-16T12:09:29.000Z</time>
      </trkpt>
      <trkpt lat="46.31319" lon="6.69204">
        <ele>990</ele>
        <time>2013-03-16T12:09:30.000Z</time>
      </trkpt>
      <trkpt lat="46.3132" lon="6.69201">
        <ele>988.9</ele>
        <time>2013-03-16T12:09:31.000Z</time>
      </trkpt>
      <trkpt lat="46.31322" lon="6.69197">
        <ele>988</ele>
        <time>2013-03-16T12:09:32.000Z</time>
      </trkpt>
      <trkpt lat="46.31323" lon="6.69193">
        <ele>987.5</ele>
        <time>2013-03-16T12:09:33.000Z</time>
      </trkpt>
      <trkpt lat="46.31326" lon="6.69189">
        <ele>986.9</ele>
        <time>2013-03-16T12:09:34.000Z</time>
      </trkpt>
      <trkpt lat="46.31327" lon="6.69185">
        <ele>986.7</ele>
        <time>2013-03-16T12:09:35.000Z</time>
      </trkpt>
      <trkpt lat="46.31328" lon="6.69181">
        <ele>986</ele>
        <time>2013-03-16T12:09:36.000Z</time>
      </trkpt>
      <trkpt lat="46.3133" lon="6.69176">
        <ele>985.6</ele>
        <time>2013-03-16T12:09:37.000Z</time>
      </trkpt>
      <trkpt lat="46.31331" lon="6.69173">
        <ele>985</ele>
        <time>2013-03-16T12:09:38.000Z</time>
      </trkpt>
      <trkpt lat="46.31332" lon="6.6917">
        <ele>984.6</ele>
        <time>2013-03-16T12:09:39.000Z</time>
      </trkpt>
      <trkpt lat="46.31334" lon="6.69166">
        <ele>983.3</ele>
        <time>2013-03-16T12:09:40.000Z</time>
      </trkpt>
      <trkpt lat="46.31334" lon="6.69162">
        <ele>982.6</ele>
        <time>2013-03-16T12:09:41.000Z</time>
      </trkpt>
      <trkpt lat="46.31336" lon="6.69159">
        <ele>981.7</ele>
        <time>2013-03-16T12:09:42.000Z</time>
      </trkpt>
      <trkpt lat="46.31338" lon="6.69155">
        <ele>980.8</ele>
        <time>2013-03-16T12:09:43.000Z</time>
      </trkpt>
      <trkpt lat="46.31342" lon="6.69153">
        <ele>979.9</ele>
        <time>2013-03-16T12:09:44.000Z</time>
      </trkpt>
      <trkpt lat="46.31345" lon="6.69151">
        <ele>979.2</ele>
        <time>2013-03-16T12:09:45.000Z</time>
      </trkpt>
      <trkpt lat="46.31348" lon="6.69148">
        <ele>978.7</ele>
        <time>2013-03-16T12:09:46.000Z</time>
      </trkpt>
      <trkpt lat="46.31352" lon="6.69145">
        <ele>977.6</ele>
        <time>2013-03-16T12:09:47.000Z</time>
      </trkpt>
      <trkpt lat="46.31352" lon="6.69144">
        <ele>976.7</ele>
        <time>2013-03-16T12:09:48.000Z</time>
      </trkpt>
      <trkpt lat="46.31352" lon="6.69144">
        <ele>976.8</ele>
        <time>2013-03-16T12:10:08.000Z</time>
      </trkpt>
      <trkpt lat="46.31357" lon="6.69154">
        <ele>965.8</ele>
        <time>2013-03-16T12:10:09.000Z</time>
      </trkpt>
      <trkpt lat="46.31358" lon="6.69154">
        <ele>965.5</ele>
        <time>2013-03-16T12:10:10.000Z</time>
      </trkpt>
      <trkpt lat="46.31362" lon="6.69153">
        <ele>964.5</ele>
        <time>2013-03-16T12:10:11.000Z</time>
      </trkpt>
      <trkpt lat="46.31365" lon="6.69151">
        <ele>963.9</ele>
        <time>2013-03-16T12:10:12.000Z</time>
      </trkpt>
      <trkpt lat="46.31367" lon="6.6915">
        <ele>963.3</ele>
        <time>2013-03-16T12:10:13.000Z</time>
      </trkpt>
      <trkpt lat="46.31371" lon="6.69149">
        <ele>962</ele>
        <time>2013-03-16T12:10:15.000Z</time>
      </trkpt>
      <trkpt lat="46.31373" lon="6.69148">
        <ele>961.3</ele>
        <time>2013-03-16T12:10:16.000Z</time>
      </trkpt>
      <trkpt lat="46.31376" lon="6.69145">
        <ele>959.2</ele>
        <time>2013-03-16T12:10:19.000Z</time>
      </trkpt>
      <trkpt lat="46.31378" lon="6.69145">
        <ele>958.7</ele>
        <time>2013-03-16T12:10:20.000Z</time>
      </trkpt>
      <trkpt lat="46.31374" lon="6.69148">
        <ele>943</ele>
        <time>2013-03-16T12:11:40.000Z</time>
      </trkpt>
      <trkpt lat="46.31373" lon="6.69149">
        <ele>943.1</ele>
        <time>2013-03-16T12:11:41.000Z</time>
      </trkpt>
      <trkpt lat="46.31375" lon="6.69151">
        <ele>941.7</ele>
        <time>2013-03-16T12:11:49.000Z</time>
      </trkpt>
      <trkpt lat="46.31377" lon="6.69151">
        <ele>941.2</ele>
        <time>2013-03-16T12:11:50.000Z</time>
      </trkpt>
      <trkpt lat="46.31377" lon="6.69152">
        <ele>939.2</ele>
        <time>2013-03-16T12:13:12.000Z</time>
      </trkpt>
    </trkseg>
  </trk>
</gpx>